<?xml version="1.0" encoding="UTF-8" standalone="no" ?>
<gpx xmlns="http://www.topografix.com/GPX/1/1" xmlns:xsi="http://www.w3.org/2001/XMLSchema-instance" xsi:schemaLocation="http://www.topografix.com/GPX/1/1 http://www.topografix.com/GPX/1/1/gpx.xsd" version="1.1" creator="VisuGPX - https://www.visugpx.com">
  <metadata>
    <name>lundi 2015 10</name>
    <desc><![CDATA[cumul octobre 2015]]></desc>
  </metadata>
  <trk>
    <name><![CDATA[lundi 2015 10 19]]></name>
    <extensions>
      <line xmlns="http://www.topografix.com/GPX/gpx_style/0/2">
        <color>000000</color>
      </line>
    </extensions>
    <trkseg>
      <trkpt lat="48.85587" lon="2.39147">
        <ele>38.79999923706</ele>
        <time>2015-10-19T18:41:46Z</time>
      </trkpt>
      <trkpt lat="48.85591" lon="2.39146">
        <ele>32.79999923706</ele>
        <time>2015-10-19T18:41:47Z</time>
      </trkpt>
      <trkpt lat="48.85595" lon="2.39172">
        <ele>29.39999961853</ele>
        <time>2015-10-19T18:41:55Z</time>
      </trkpt>
      <trkpt lat="48.85596" lon="2.39178">
        <ele>30.39999961853</ele>
        <time>2015-10-19T18:41:56Z</time>
      </trkpt>
      <trkpt lat="48.85609" lon="2.39199">
        <ele>41.400001525879</ele>
        <time>2015-10-19T18:42:00Z</time>
      </trkpt>
      <trkpt lat="48.85614" lon="2.39227">
        <ele>43.599998474121</ele>
        <time>2015-10-19T18:42:06Z</time>
      </trkpt>
      <trkpt lat="48.85621" lon="2.3924">
        <ele>44.20000076294</ele>
        <time>2015-10-19T18:42:08Z</time>
      </trkpt>
      <trkpt lat="48.85619" lon="2.39246">
        <ele>46.79999923706</ele>
        <time>2015-10-19T18:42:10Z</time>
      </trkpt>
      <trkpt lat="48.85623" lon="2.39267">
        <ele>49.599998474121</ele>
        <time>2015-10-19T18:42:14Z</time>
      </trkpt>
      <trkpt lat="48.85625" lon="2.39276">
        <ele>51</ele>
        <time>2015-10-19T18:42:16Z</time>
      </trkpt>
      <trkpt lat="48.85631" lon="2.39297">
        <ele>51</ele>
        <time>2015-10-19T18:42:20Z</time>
      </trkpt>
      <trkpt lat="48.85636" lon="2.39323">
        <ele>50</ele>
        <time>2015-10-19T18:42:25Z</time>
      </trkpt>
      <trkpt lat="48.85638" lon="2.39328">
        <ele>50</ele>
        <time>2015-10-19T18:42:26Z</time>
      </trkpt>
      <trkpt lat="48.85646" lon="2.39354">
        <ele>52</ele>
        <time>2015-10-19T18:42:31Z</time>
      </trkpt>
      <trkpt lat="48.85652" lon="2.39385">
        <ele>54.400001525879</ele>
        <time>2015-10-19T18:42:37Z</time>
      </trkpt>
      <trkpt lat="48.85655" lon="2.39412">
        <ele>59</ele>
        <time>2015-10-19T18:42:44Z</time>
      </trkpt>
      <trkpt lat="48.85661" lon="2.39441">
        <ele>65</ele>
        <time>2015-10-19T18:42:52Z</time>
      </trkpt>
      <trkpt lat="48.85666" lon="2.39471">
        <ele>64.800003051758</ele>
        <time>2015-10-19T18:42:57Z</time>
      </trkpt>
      <trkpt lat="48.85671" lon="2.39502">
        <ele>67.199996948242</ele>
        <time>2015-10-19T18:43:02Z</time>
      </trkpt>
      <trkpt lat="48.85678" lon="2.39534">
        <ele>69.800003051758</ele>
        <time>2015-10-19T18:43:07Z</time>
      </trkpt>
      <trkpt lat="48.85683" lon="2.39564">
        <ele>72.599998474121</ele>
        <time>2015-10-19T18:43:12Z</time>
      </trkpt>
      <trkpt lat="48.85684" lon="2.39594">
        <ele>74.400001525879</ele>
        <time>2015-10-19T18:43:17Z</time>
      </trkpt>
      <trkpt lat="48.85687" lon="2.39626">
        <ele>76.400001525879</ele>
        <time>2015-10-19T18:43:22Z</time>
      </trkpt>
      <trkpt lat="48.85696" lon="2.39658">
        <ele>77</ele>
        <time>2015-10-19T18:43:27Z</time>
      </trkpt>
      <trkpt lat="48.85698" lon="2.39673">
        <ele>74.800003051758</ele>
        <time>2015-10-19T18:43:29Z</time>
      </trkpt>
      <trkpt lat="48.85698" lon="2.39694">
        <ele>73.199996948242</ele>
        <time>2015-10-19T18:43:32Z</time>
      </trkpt>
      <trkpt lat="48.85697" lon="2.39727">
        <ele>72.800003051758</ele>
        <time>2015-10-19T18:43:37Z</time>
      </trkpt>
      <trkpt lat="48.85698" lon="2.39734">
        <ele>73.199996948242</ele>
        <time>2015-10-19T18:43:38Z</time>
      </trkpt>
      <trkpt lat="48.85701" lon="2.39759">
        <ele>74</ele>
        <time>2015-10-19T18:43:42Z</time>
      </trkpt>
      <trkpt lat="48.8571" lon="2.39788">
        <ele>75.599998474121</ele>
        <time>2015-10-19T18:43:47Z</time>
      </trkpt>
      <trkpt lat="48.85719" lon="2.39814">
        <ele>78.199996948242</ele>
        <time>2015-10-19T18:43:52Z</time>
      </trkpt>
      <trkpt lat="48.85729" lon="2.39844">
        <ele>81</ele>
        <time>2015-10-19T18:43:57Z</time>
      </trkpt>
      <trkpt lat="48.85734" lon="2.39863">
        <ele>82.199996948242</ele>
        <time>2015-10-19T18:44:00Z</time>
      </trkpt>
      <trkpt lat="48.85744" lon="2.39891">
        <ele>82</ele>
        <time>2015-10-19T18:44:05Z</time>
      </trkpt>
      <trkpt lat="48.85756" lon="2.39914">
        <ele>77.800003051758</ele>
        <time>2015-10-19T18:44:09Z</time>
      </trkpt>
      <trkpt lat="48.85758" lon="2.39921">
        <ele>76.599998474121</ele>
        <time>2015-10-19T18:44:10Z</time>
      </trkpt>
      <trkpt lat="48.85771" lon="2.39942">
        <ele>73.199996948242</ele>
        <time>2015-10-19T18:44:14Z</time>
      </trkpt>
      <trkpt lat="48.8578" lon="2.39966">
        <ele>71</ele>
        <time>2015-10-19T18:44:18Z</time>
      </trkpt>
      <trkpt lat="48.85785" lon="2.39976">
        <ele>69.599998474121</ele>
        <time>2015-10-19T18:44:20Z</time>
      </trkpt>
      <trkpt lat="48.85799" lon="2.39998">
        <ele>67</ele>
        <time>2015-10-19T18:44:25Z</time>
      </trkpt>
      <trkpt lat="48.8581" lon="2.40007">
        <ele>64.400001525879</ele>
        <time>2015-10-19T18:44:28Z</time>
      </trkpt>
      <trkpt lat="48.85826" lon="2.4003">
        <ele>62</ele>
        <time>2015-10-19T18:44:33Z</time>
      </trkpt>
      <trkpt lat="48.85841" lon="2.40054">
        <ele>60.20000076294</ele>
        <time>2015-10-19T18:44:38Z</time>
      </trkpt>
      <trkpt lat="48.85851" lon="2.40072">
        <ele>59.400001525879</ele>
        <time>2015-10-19T18:44:41Z</time>
      </trkpt>
      <trkpt lat="48.85864" lon="2.40096">
        <ele>59</ele>
        <time>2015-10-19T18:44:45Z</time>
      </trkpt>
      <trkpt lat="48.85877" lon="2.40124">
        <ele>58.400001525879</ele>
        <time>2015-10-19T18:44:49Z</time>
      </trkpt>
      <trkpt lat="48.85891" lon="2.4015">
        <ele>58.400001525879</ele>
        <time>2015-10-19T18:44:53Z</time>
      </trkpt>
      <trkpt lat="48.85893" lon="2.40156">
        <ele>58.20000076294</ele>
        <time>2015-10-19T18:44:54Z</time>
      </trkpt>
      <trkpt lat="48.85901" lon="2.40172">
        <ele>57.79999923706</ele>
        <time>2015-10-19T18:44:57Z</time>
      </trkpt>
      <trkpt lat="48.85915" lon="2.40193">
        <ele>58.400001525879</ele>
        <time>2015-10-19T18:45:03Z</time>
      </trkpt>
      <trkpt lat="48.85917" lon="2.40194">
        <ele>58.79999923706</ele>
        <time>2015-10-19T18:45:04Z</time>
      </trkpt>
      <trkpt lat="48.85918" lon="2.40198">
        <ele>60.599998474121</ele>
        <time>2015-10-19T18:45:09Z</time>
      </trkpt>
      <trkpt lat="48.85923" lon="2.40191">
        <ele>60.20000076294</ele>
        <time>2015-10-19T18:45:14Z</time>
      </trkpt>
      <trkpt lat="48.85929" lon="2.40216">
        <ele>60</ele>
        <time>2015-10-19T18:45:40Z</time>
      </trkpt>
      <trkpt lat="48.85941" lon="2.4024">
        <ele>60.20000076294</ele>
        <time>2015-10-19T18:45:44Z</time>
      </trkpt>
      <trkpt lat="48.85955" lon="2.40268">
        <ele>59.400001525879</ele>
        <time>2015-10-19T18:45:48Z</time>
      </trkpt>
      <trkpt lat="48.8597" lon="2.40294">
        <ele>59.400001525879</ele>
        <time>2015-10-19T18:45:52Z</time>
      </trkpt>
      <trkpt lat="48.85986" lon="2.4032">
        <ele>59.599998474121</ele>
        <time>2015-10-19T18:45:56Z</time>
      </trkpt>
      <trkpt lat="48.85997" lon="2.40341">
        <ele>59.400001525879</ele>
        <time>2015-10-19T18:45:59Z</time>
      </trkpt>
      <trkpt lat="48.8601" lon="2.40369">
        <ele>58.400001525879</ele>
        <time>2015-10-19T18:46:03Z</time>
      </trkpt>
      <trkpt lat="48.86017" lon="2.40379">
        <ele>58.20000076294</ele>
        <time>2015-10-19T18:46:05Z</time>
      </trkpt>
      <trkpt lat="48.86028" lon="2.40403">
        <ele>59</ele>
        <time>2015-10-19T18:46:09Z</time>
      </trkpt>
      <trkpt lat="48.86033" lon="2.40413">
        <ele>59.20000076294</ele>
        <time>2015-10-19T18:46:11Z</time>
      </trkpt>
      <trkpt lat="48.86047" lon="2.40426">
        <ele>59.79999923706</ele>
        <time>2015-10-19T18:46:15Z</time>
      </trkpt>
      <trkpt lat="48.86054" lon="2.40431">
        <ele>60.400001525879</ele>
        <time>2015-10-19T18:46:17Z</time>
      </trkpt>
      <trkpt lat="48.86074" lon="2.40452">
        <ele>60.79999923706</ele>
        <time>2015-10-19T18:46:22Z</time>
      </trkpt>
      <trkpt lat="48.86089" lon="2.40467">
        <ele>61.79999923706</ele>
        <time>2015-10-19T18:46:25Z</time>
      </trkpt>
      <trkpt lat="48.86103" lon="2.40486">
        <ele>62.599998474121</ele>
        <time>2015-10-19T18:46:28Z</time>
      </trkpt>
      <trkpt lat="48.86117" lon="2.40504">
        <ele>63.79999923706</ele>
        <time>2015-10-19T18:46:31Z</time>
      </trkpt>
      <trkpt lat="48.86124" lon="2.40516">
        <ele>64.599998474121</ele>
        <time>2015-10-19T18:46:33Z</time>
      </trkpt>
      <trkpt lat="48.86141" lon="2.40536">
        <ele>66.599998474121</ele>
        <time>2015-10-19T18:46:37Z</time>
      </trkpt>
      <trkpt lat="48.86151" lon="2.40543">
        <ele>67.400001525879</ele>
        <time>2015-10-19T18:46:39Z</time>
      </trkpt>
      <trkpt lat="48.8616" lon="2.4055">
        <ele>68.400001525879</ele>
        <time>2015-10-19T18:46:41Z</time>
      </trkpt>
      <trkpt lat="48.86176" lon="2.40568">
        <ele>70</ele>
        <time>2015-10-19T18:46:46Z</time>
      </trkpt>
      <trkpt lat="48.86194" lon="2.40581">
        <ele>73</ele>
        <time>2015-10-19T18:46:52Z</time>
      </trkpt>
      <trkpt lat="48.8621" lon="2.40595">
        <ele>78.800003051758</ele>
        <time>2015-10-19T18:46:58Z</time>
      </trkpt>
      <trkpt lat="48.86227" lon="2.40606">
        <ele>82.599998474121</ele>
        <time>2015-10-19T18:47:04Z</time>
      </trkpt>
      <trkpt lat="48.86244" lon="2.40615">
        <ele>88.800003051758</ele>
        <time>2015-10-19T18:47:11Z</time>
      </trkpt>
      <trkpt lat="48.8626" lon="2.40632">
        <ele>98.199996948242</ele>
        <time>2015-10-19T18:47:19Z</time>
      </trkpt>
      <trkpt lat="48.86275" lon="2.40648">
        <ele>108.40000152588</ele>
        <time>2015-10-19T18:47:27Z</time>
      </trkpt>
      <trkpt lat="48.86291" lon="2.40668">
        <ele>115.80000305176</ele>
        <time>2015-10-19T18:47:34Z</time>
      </trkpt>
      <trkpt lat="48.86307" lon="2.40683">
        <ele>123.80000305176</ele>
        <time>2015-10-19T18:47:40Z</time>
      </trkpt>
      <trkpt lat="48.86325" lon="2.40701">
        <ele>130</ele>
        <time>2015-10-19T18:47:46Z</time>
      </trkpt>
      <trkpt lat="48.86342" lon="2.40715">
        <ele>135.60000610352</ele>
        <time>2015-10-19T18:47:51Z</time>
      </trkpt>
      <trkpt lat="48.86357" lon="2.40734">
        <ele>137.60000610352</ele>
        <time>2015-10-19T18:47:55Z</time>
      </trkpt>
      <trkpt lat="48.86374" lon="2.40755">
        <ele>144.39999389648</ele>
        <time>2015-10-19T18:48:00Z</time>
      </trkpt>
      <trkpt lat="48.86381" lon="2.40769">
        <ele>151.39999389648</ele>
        <time>2015-10-19T18:48:04Z</time>
      </trkpt>
      <trkpt lat="48.86382" lon="2.40774">
        <ele>151.80000305176</ele>
        <time>2015-10-19T18:48:07Z</time>
      </trkpt>
      <trkpt lat="48.86374" lon="2.40789">
        <ele>123</ele>
        <time>2015-10-19T18:48:50Z</time>
      </trkpt>
      <trkpt lat="48.86359" lon="2.40786">
        <ele>115.59999847412</ele>
        <time>2015-10-19T18:48:57Z</time>
      </trkpt>
      <trkpt lat="48.8635" lon="2.40773">
        <ele>110.40000152588</ele>
        <time>2015-10-19T18:49:07Z</time>
      </trkpt>
      <trkpt lat="48.8636" lon="2.4076">
        <ele>103.19999694824</ele>
        <time>2015-10-19T18:49:19Z</time>
      </trkpt>
      <trkpt lat="48.86372" lon="2.40754">
        <ele>100.80000305176</ele>
        <time>2015-10-19T18:49:23Z</time>
      </trkpt>
      <trkpt lat="48.86377" lon="2.40757">
        <ele>100.19999694824</ele>
        <time>2015-10-19T18:49:25Z</time>
      </trkpt>
      <trkpt lat="48.86391" lon="2.40775">
        <ele>100.19999694824</ele>
        <time>2015-10-19T18:49:31Z</time>
      </trkpt>
      <trkpt lat="48.86406" lon="2.40791">
        <ele>100.59999847412</ele>
        <time>2015-10-19T18:49:38Z</time>
      </trkpt>
      <trkpt lat="48.86423" lon="2.40809">
        <ele>97.599998474121</ele>
        <time>2015-10-19T18:49:44Z</time>
      </trkpt>
      <trkpt lat="48.86434" lon="2.40826">
        <ele>88.800003051758</ele>
        <time>2015-10-19T18:49:49Z</time>
      </trkpt>
      <trkpt lat="48.86439" lon="2.40843">
        <ele>83.400001525879</ele>
        <time>2015-10-19T18:49:57Z</time>
      </trkpt>
      <trkpt lat="48.86438" lon="2.40845">
        <ele>83</ele>
        <time>2015-10-19T18:49:58Z</time>
      </trkpt>
      <trkpt lat="48.86429" lon="2.40851">
        <ele>80.599998474121</ele>
        <time>2015-10-19T18:50:04Z</time>
      </trkpt>
      <trkpt lat="48.86409" lon="2.40853">
        <ele>78.199996948242</ele>
        <time>2015-10-19T18:50:11Z</time>
      </trkpt>
      <trkpt lat="48.86388" lon="2.40864">
        <ele>78.199996948242</ele>
        <time>2015-10-19T18:50:17Z</time>
      </trkpt>
      <trkpt lat="48.86371" lon="2.40873">
        <ele>78</ele>
        <time>2015-10-19T18:50:21Z</time>
      </trkpt>
      <trkpt lat="48.86352" lon="2.4088">
        <ele>77.800003051758</ele>
        <time>2015-10-19T18:50:25Z</time>
      </trkpt>
      <trkpt lat="48.8633" lon="2.40888">
        <ele>78.400001525879</ele>
        <time>2015-10-19T18:50:30Z</time>
      </trkpt>
      <trkpt lat="48.86309" lon="2.40897">
        <ele>78.599998474121</ele>
        <time>2015-10-19T18:50:34Z</time>
      </trkpt>
      <trkpt lat="48.86287" lon="2.40912">
        <ele>80</ele>
        <time>2015-10-19T18:50:38Z</time>
      </trkpt>
      <trkpt lat="48.86268" lon="2.40922">
        <ele>81.199996948242</ele>
        <time>2015-10-19T18:50:41Z</time>
      </trkpt>
      <trkpt lat="48.8625" lon="2.40931">
        <ele>82.199996948242</ele>
        <time>2015-10-19T18:50:44Z</time>
      </trkpt>
      <trkpt lat="48.86227" lon="2.40941">
        <ele>83.800003051758</ele>
        <time>2015-10-19T18:50:48Z</time>
      </trkpt>
      <trkpt lat="48.86203" lon="2.40944">
        <ele>84.400001525879</ele>
        <time>2015-10-19T18:50:52Z</time>
      </trkpt>
      <trkpt lat="48.86181" lon="2.40936">
        <ele>82.599998474121</ele>
        <time>2015-10-19T18:50:56Z</time>
      </trkpt>
      <trkpt lat="48.86157" lon="2.40935">
        <ele>82.400001525879</ele>
        <time>2015-10-19T18:51:00Z</time>
      </trkpt>
      <trkpt lat="48.86139" lon="2.40938">
        <ele>82.199996948242</ele>
        <time>2015-10-19T18:51:03Z</time>
      </trkpt>
      <trkpt lat="48.86116" lon="2.40938">
        <ele>81.400001525879</ele>
        <time>2015-10-19T18:51:07Z</time>
      </trkpt>
      <trkpt lat="48.8611" lon="2.4094">
        <ele>80.800003051758</ele>
        <time>2015-10-19T18:51:08Z</time>
      </trkpt>
      <trkpt lat="48.861" lon="2.40941">
        <ele>80.199996948242</ele>
        <time>2015-10-19T18:51:10Z</time>
      </trkpt>
      <trkpt lat="48.86082" lon="2.40945">
        <ele>79.800003051758</ele>
        <time>2015-10-19T18:51:14Z</time>
      </trkpt>
      <trkpt lat="48.86063" lon="2.40943">
        <ele>78.800003051758</ele>
        <time>2015-10-19T18:51:19Z</time>
      </trkpt>
      <trkpt lat="48.86059" lon="2.40942">
        <ele>78.599998474121</ele>
        <time>2015-10-19T18:51:20Z</time>
      </trkpt>
      <trkpt lat="48.86038" lon="2.4094">
        <ele>74.599998474121</ele>
        <time>2015-10-19T18:51:26Z</time>
      </trkpt>
      <trkpt lat="48.86016" lon="2.4094">
        <ele>73.599998474121</ele>
        <time>2015-10-19T18:51:31Z</time>
      </trkpt>
      <trkpt lat="48.85995" lon="2.40945">
        <ele>72.800003051758</ele>
        <time>2015-10-19T18:51:35Z</time>
      </trkpt>
      <trkpt lat="48.85975" lon="2.40951">
        <ele>69.599998474121</ele>
        <time>2015-10-19T18:51:39Z</time>
      </trkpt>
      <trkpt lat="48.85954" lon="2.40955">
        <ele>67.400001525879</ele>
        <time>2015-10-19T18:51:43Z</time>
      </trkpt>
      <trkpt lat="48.85933" lon="2.40964">
        <ele>66.199996948242</ele>
        <time>2015-10-19T18:51:47Z</time>
      </trkpt>
      <trkpt lat="48.8591" lon="2.40974">
        <ele>64.800003051758</ele>
        <time>2015-10-19T18:51:51Z</time>
      </trkpt>
      <trkpt lat="48.85892" lon="2.40986">
        <ele>63.20000076294</ele>
        <time>2015-10-19T18:51:54Z</time>
      </trkpt>
      <trkpt lat="48.85874" lon="2.40995">
        <ele>62.20000076294</ele>
        <time>2015-10-19T18:51:57Z</time>
      </trkpt>
      <trkpt lat="48.8587" lon="2.40988">
        <ele>62</ele>
        <time>2015-10-19T18:51:58Z</time>
      </trkpt>
      <trkpt lat="48.85849" lon="2.40984">
        <ele>61.20000076294</ele>
        <time>2015-10-19T18:52:02Z</time>
      </trkpt>
      <trkpt lat="48.85826" lon="2.4099">
        <ele>60</ele>
        <time>2015-10-19T18:52:06Z</time>
      </trkpt>
      <trkpt lat="48.85804" lon="2.40999">
        <ele>58.79999923706</ele>
        <time>2015-10-19T18:52:10Z</time>
      </trkpt>
      <trkpt lat="48.85782" lon="2.41">
        <ele>58</ele>
        <time>2015-10-19T18:52:14Z</time>
      </trkpt>
      <trkpt lat="48.85764" lon="2.41005">
        <ele>57</ele>
        <time>2015-10-19T18:52:17Z</time>
      </trkpt>
      <trkpt lat="48.85745" lon="2.41009">
        <ele>55.79999923706</ele>
        <time>2015-10-19T18:52:20Z</time>
      </trkpt>
      <trkpt lat="48.85727" lon="2.41016">
        <ele>55.20000076294</ele>
        <time>2015-10-19T18:52:23Z</time>
      </trkpt>
      <trkpt lat="48.85709" lon="2.4102">
        <ele>54.20000076294</ele>
        <time>2015-10-19T18:52:26Z</time>
      </trkpt>
      <trkpt lat="48.85691" lon="2.41029">
        <ele>54.400001525879</ele>
        <time>2015-10-19T18:52:29Z</time>
      </trkpt>
      <trkpt lat="48.85673" lon="2.41033">
        <ele>53.599998474121</ele>
        <time>2015-10-19T18:52:32Z</time>
      </trkpt>
      <trkpt lat="48.85654" lon="2.41037">
        <ele>53</ele>
        <time>2015-10-19T18:52:35Z</time>
      </trkpt>
      <trkpt lat="48.85635" lon="2.41039">
        <ele>52</ele>
        <time>2015-10-19T18:52:38Z</time>
      </trkpt>
      <trkpt lat="48.85614" lon="2.41042">
        <ele>50.79999923706</ele>
        <time>2015-10-19T18:52:42Z</time>
      </trkpt>
      <trkpt lat="48.85591" lon="2.41046">
        <ele>50</ele>
        <time>2015-10-19T18:52:46Z</time>
      </trkpt>
      <trkpt lat="48.85569" lon="2.4105">
        <ele>49</ele>
        <time>2015-10-19T18:52:50Z</time>
      </trkpt>
      <trkpt lat="48.85559" lon="2.41053">
        <ele>48.400001525879</ele>
        <time>2015-10-19T18:52:52Z</time>
      </trkpt>
      <trkpt lat="48.85551" lon="2.41055">
        <ele>48.599998474121</ele>
        <time>2015-10-19T18:52:54Z</time>
      </trkpt>
      <trkpt lat="48.85531" lon="2.41058">
        <ele>48</ele>
        <time>2015-10-19T18:52:58Z</time>
      </trkpt>
      <trkpt lat="48.85511" lon="2.41062">
        <ele>46.599998474121</ele>
        <time>2015-10-19T18:53:02Z</time>
      </trkpt>
      <trkpt lat="48.85488" lon="2.41066">
        <ele>45.79999923706</ele>
        <time>2015-10-19T18:53:06Z</time>
      </trkpt>
      <trkpt lat="48.8547" lon="2.41069">
        <ele>45</ele>
        <time>2015-10-19T18:53:09Z</time>
      </trkpt>
      <trkpt lat="48.85445" lon="2.4107">
        <ele>44.20000076294</ele>
        <time>2015-10-19T18:53:13Z</time>
      </trkpt>
      <trkpt lat="48.85426" lon="2.41074">
        <ele>43.400001525879</ele>
        <time>2015-10-19T18:53:16Z</time>
      </trkpt>
      <trkpt lat="48.85407" lon="2.41079">
        <ele>42.79999923706</ele>
        <time>2015-10-19T18:53:19Z</time>
      </trkpt>
      <trkpt lat="48.85389" lon="2.41082">
        <ele>42.20000076294</ele>
        <time>2015-10-19T18:53:22Z</time>
      </trkpt>
      <trkpt lat="48.85367" lon="2.41085">
        <ele>41</ele>
        <time>2015-10-19T18:53:26Z</time>
      </trkpt>
      <trkpt lat="48.85346" lon="2.41089">
        <ele>40.400001525879</ele>
        <time>2015-10-19T18:53:30Z</time>
      </trkpt>
      <trkpt lat="48.85324" lon="2.41086">
        <ele>40.20000076294</ele>
        <time>2015-10-19T18:53:35Z</time>
      </trkpt>
      <trkpt lat="48.85303" lon="2.4109">
        <ele>42</ele>
        <time>2015-10-19T18:53:39Z</time>
      </trkpt>
      <trkpt lat="48.85284" lon="2.4109">
        <ele>42.20000076294</ele>
        <time>2015-10-19T18:53:43Z</time>
      </trkpt>
      <trkpt lat="48.85265" lon="2.41091">
        <ele>42.20000076294</ele>
        <time>2015-10-19T18:53:47Z</time>
      </trkpt>
      <trkpt lat="48.85243" lon="2.41093">
        <ele>41.79999923706</ele>
        <time>2015-10-19T18:53:51Z</time>
      </trkpt>
      <trkpt lat="48.8522" lon="2.41096">
        <ele>41.599998474121</ele>
        <time>2015-10-19T18:53:55Z</time>
      </trkpt>
      <trkpt lat="48.85202" lon="2.41097">
        <ele>41.20000076294</ele>
        <time>2015-10-19T18:53:58Z</time>
      </trkpt>
      <trkpt lat="48.85182" lon="2.411">
        <ele>40.599998474121</ele>
        <time>2015-10-19T18:54:01Z</time>
      </trkpt>
      <trkpt lat="48.85163" lon="2.41102">
        <ele>40</ele>
        <time>2015-10-19T18:54:04Z</time>
      </trkpt>
      <trkpt lat="48.85144" lon="2.41105">
        <ele>39.400001525879</ele>
        <time>2015-10-19T18:54:07Z</time>
      </trkpt>
      <trkpt lat="48.85126" lon="2.41108">
        <ele>38.79999923706</ele>
        <time>2015-10-19T18:54:10Z</time>
      </trkpt>
      <trkpt lat="48.85107" lon="2.41111">
        <ele>39.20000076294</ele>
        <time>2015-10-19T18:54:13Z</time>
      </trkpt>
      <trkpt lat="48.85084" lon="2.4112">
        <ele>40.599998474121</ele>
        <time>2015-10-19T18:54:17Z</time>
      </trkpt>
      <trkpt lat="48.85079" lon="2.4112">
        <ele>41</ele>
        <time>2015-10-19T18:54:18Z</time>
      </trkpt>
      <trkpt lat="48.85055" lon="2.41126">
        <ele>42</ele>
        <time>2015-10-19T18:54:22Z</time>
      </trkpt>
      <trkpt lat="48.85032" lon="2.41133">
        <ele>43</ele>
        <time>2015-10-19T18:54:26Z</time>
      </trkpt>
      <trkpt lat="48.85008" lon="2.41139">
        <ele>43.400001525879</ele>
        <time>2015-10-19T18:54:30Z</time>
      </trkpt>
      <trkpt lat="48.84985" lon="2.41146">
        <ele>44</ele>
        <time>2015-10-19T18:54:34Z</time>
      </trkpt>
      <trkpt lat="48.84964" lon="2.41151">
        <ele>45.400001525879</ele>
        <time>2015-10-19T18:54:38Z</time>
      </trkpt>
      <trkpt lat="48.84942" lon="2.41151">
        <ele>46.20000076294</ele>
        <time>2015-10-19T18:54:42Z</time>
      </trkpt>
      <trkpt lat="48.8492" lon="2.41154">
        <ele>46.599998474121</ele>
        <time>2015-10-19T18:54:46Z</time>
      </trkpt>
      <trkpt lat="48.84915" lon="2.41154">
        <ele>46.599998474121</ele>
        <time>2015-10-19T18:54:47Z</time>
      </trkpt>
      <trkpt lat="48.84892" lon="2.41149">
        <ele>43.79999923706</ele>
        <time>2015-10-19T18:54:52Z</time>
      </trkpt>
      <trkpt lat="48.84887" lon="2.41149">
        <ele>43.20000076294</ele>
        <time>2015-10-19T18:54:53Z</time>
      </trkpt>
      <trkpt lat="48.84867" lon="2.41151">
        <ele>41.20000076294</ele>
        <time>2015-10-19T18:54:57Z</time>
      </trkpt>
      <trkpt lat="48.84844" lon="2.41155">
        <ele>39.400001525879</ele>
        <time>2015-10-19T18:55:01Z</time>
      </trkpt>
      <trkpt lat="48.84823" lon="2.41154">
        <ele>37.599998474121</ele>
        <time>2015-10-19T18:55:05Z</time>
      </trkpt>
      <trkpt lat="48.848" lon="2.41157">
        <ele>36.599998474121</ele>
        <time>2015-10-19T18:55:09Z</time>
      </trkpt>
      <trkpt lat="48.84778" lon="2.41161">
        <ele>36.20000076294</ele>
        <time>2015-10-19T18:55:13Z</time>
      </trkpt>
      <trkpt lat="48.84759" lon="2.41164">
        <ele>35.599998474121</ele>
        <time>2015-10-19T18:55:17Z</time>
      </trkpt>
      <trkpt lat="48.84747" lon="2.41173">
        <ele>35.400001525879</ele>
        <time>2015-10-19T18:55:19Z</time>
      </trkpt>
      <trkpt lat="48.84732" lon="2.41162">
        <ele>35.79999923706</ele>
        <time>2015-10-19T18:55:23Z</time>
      </trkpt>
      <trkpt lat="48.84729" lon="2.4112">
        <ele>37</ele>
        <time>2015-10-19T18:55:28Z</time>
      </trkpt>
      <trkpt lat="48.84735" lon="2.41086">
        <ele>40</ele>
        <time>2015-10-19T18:55:33Z</time>
      </trkpt>
      <trkpt lat="48.84736" lon="2.41081">
        <ele>41</ele>
        <time>2015-10-19T18:55:34Z</time>
      </trkpt>
      <trkpt lat="48.84738" lon="2.41073">
        <ele>43.20000076294</ele>
        <time>2015-10-19T18:55:40Z</time>
      </trkpt>
      <trkpt lat="48.84743" lon="2.41064">
        <ele>53.20000076294</ele>
        <time>2015-10-19T18:57:07Z</time>
      </trkpt>
      <trkpt lat="48.84743" lon="2.41056">
        <ele>61.20000076294</ele>
        <time>2015-10-19T18:58:00Z</time>
      </trkpt>
      <trkpt lat="48.8473" lon="2.41064">
        <ele>62.79999923706</ele>
        <time>2015-10-19T18:58:33Z</time>
      </trkpt>
      <trkpt lat="48.84718" lon="2.41066">
        <ele>54.20000076294</ele>
        <time>2015-10-19T18:59:16Z</time>
      </trkpt>
      <trkpt lat="48.84708" lon="2.4106">
        <ele>53.20000076294</ele>
        <time>2015-10-19T18:59:22Z</time>
      </trkpt>
      <trkpt lat="48.84696" lon="2.4106">
        <ele>52.79999923706</ele>
        <time>2015-10-19T18:59:31Z</time>
      </trkpt>
      <trkpt lat="48.84691" lon="2.41083">
        <ele>51.79999923706</ele>
        <time>2015-10-19T18:59:47Z</time>
      </trkpt>
      <trkpt lat="48.84687" lon="2.411">
        <ele>51.400001525879</ele>
        <time>2015-10-19T18:59:52Z</time>
      </trkpt>
      <trkpt lat="48.84685" lon="2.41115">
        <ele>51.20000076294</ele>
        <time>2015-10-19T18:59:57Z</time>
      </trkpt>
      <trkpt lat="48.84687" lon="2.41145">
        <ele>51.79999923706</ele>
        <time>2015-10-19T19:00:03Z</time>
      </trkpt>
      <trkpt lat="48.8469" lon="2.41173">
        <ele>51.20000076294</ele>
        <time>2015-10-19T19:00:08Z</time>
      </trkpt>
      <trkpt lat="48.8469" lon="2.41204">
        <ele>51.599998474121</ele>
        <time>2015-10-19T19:00:13Z</time>
      </trkpt>
      <trkpt lat="48.84689" lon="2.41237">
        <ele>52.400001525879</ele>
        <time>2015-10-19T19:00:18Z</time>
      </trkpt>
      <trkpt lat="48.84686" lon="2.41267">
        <ele>52.79999923706</ele>
        <time>2015-10-19T19:00:22Z</time>
      </trkpt>
      <trkpt lat="48.84689" lon="2.41299">
        <ele>51.599998474121</ele>
        <time>2015-10-19T19:00:26Z</time>
      </trkpt>
      <trkpt lat="48.84686" lon="2.41328">
        <ele>51.400001525879</ele>
        <time>2015-10-19T19:00:30Z</time>
      </trkpt>
      <trkpt lat="48.84684" lon="2.41346">
        <ele>51.79999923706</ele>
        <time>2015-10-19T19:00:33Z</time>
      </trkpt>
      <trkpt lat="48.84676" lon="2.4137">
        <ele>52</ele>
        <time>2015-10-19T19:00:38Z</time>
      </trkpt>
      <trkpt lat="48.84671" lon="2.4138">
        <ele>52.20000076294</ele>
        <time>2015-10-19T19:00:41Z</time>
      </trkpt>
      <trkpt lat="48.84658" lon="2.414">
        <ele>51.20000076294</ele>
        <time>2015-10-19T19:00:46Z</time>
      </trkpt>
      <trkpt lat="48.84647" lon="2.41428">
        <ele>49.79999923706</ele>
        <time>2015-10-19T19:00:51Z</time>
      </trkpt>
      <trkpt lat="48.84641" lon="2.41458">
        <ele>48.400001525879</ele>
        <time>2015-10-19T19:00:56Z</time>
      </trkpt>
      <trkpt lat="48.84643" lon="2.41489">
        <ele>46.599998474121</ele>
        <time>2015-10-19T19:01:03Z</time>
      </trkpt>
      <trkpt lat="48.84652" lon="2.41514">
        <ele>45</ele>
        <time>2015-10-19T19:01:09Z</time>
      </trkpt>
      <trkpt lat="48.84659" lon="2.41543">
        <ele>45.599998474121</ele>
        <time>2015-10-19T19:01:14Z</time>
      </trkpt>
      <trkpt lat="48.84659" lon="2.41574">
        <ele>45.599998474121</ele>
        <time>2015-10-19T19:01:18Z</time>
      </trkpt>
      <trkpt lat="48.84659" lon="2.41606">
        <ele>45.79999923706</ele>
        <time>2015-10-19T19:01:22Z</time>
      </trkpt>
      <trkpt lat="48.84658" lon="2.41636">
        <ele>48.79999923706</ele>
        <time>2015-10-19T19:01:26Z</time>
      </trkpt>
      <trkpt lat="48.84655" lon="2.41666">
        <ele>51.400001525879</ele>
        <time>2015-10-19T19:01:30Z</time>
      </trkpt>
      <trkpt lat="48.84652" lon="2.41697">
        <ele>53.79999923706</ele>
        <time>2015-10-19T19:01:34Z</time>
      </trkpt>
      <trkpt lat="48.8465" lon="2.41728">
        <ele>56</ele>
        <time>2015-10-19T19:01:38Z</time>
      </trkpt>
      <trkpt lat="48.84646" lon="2.41758">
        <ele>59.20000076294</ele>
        <time>2015-10-19T19:01:42Z</time>
      </trkpt>
      <trkpt lat="48.84645" lon="2.4178">
        <ele>61</ele>
        <time>2015-10-19T19:01:45Z</time>
      </trkpt>
      <trkpt lat="48.84645" lon="2.41811">
        <ele>63</ele>
        <time>2015-10-19T19:01:49Z</time>
      </trkpt>
      <trkpt lat="48.84643" lon="2.41844">
        <ele>65.599998474121</ele>
        <time>2015-10-19T19:01:53Z</time>
      </trkpt>
      <trkpt lat="48.84639" lon="2.41877">
        <ele>67.400001525879</ele>
        <time>2015-10-19T19:01:57Z</time>
      </trkpt>
      <trkpt lat="48.84636" lon="2.41909">
        <ele>70</ele>
        <time>2015-10-19T19:02:01Z</time>
      </trkpt>
      <trkpt lat="48.84635" lon="2.41935">
        <ele>74.400001525879</ele>
        <time>2015-10-19T19:02:05Z</time>
      </trkpt>
      <trkpt lat="48.84632" lon="2.41962">
        <ele>71.400001525879</ele>
        <time>2015-10-19T19:02:10Z</time>
      </trkpt>
      <trkpt lat="48.84638" lon="2.41975">
        <ele>71.599998474121</ele>
        <time>2015-10-19T19:02:15Z</time>
      </trkpt>
      <trkpt lat="48.84652" lon="2.41996">
        <ele>77.800003051758</ele>
        <time>2015-10-19T19:02:22Z</time>
      </trkpt>
      <trkpt lat="48.84662" lon="2.42021">
        <ele>80.199996948242</ele>
        <time>2015-10-19T19:02:28Z</time>
      </trkpt>
      <trkpt lat="48.84671" lon="2.42046">
        <ele>85</ele>
        <time>2015-10-19T19:02:36Z</time>
      </trkpt>
      <trkpt lat="48.84678" lon="2.42072">
        <ele>87.400001525879</ele>
        <time>2015-10-19T19:02:43Z</time>
      </trkpt>
      <trkpt lat="48.84688" lon="2.42096">
        <ele>88.599998474121</ele>
        <time>2015-10-19T19:02:48Z</time>
      </trkpt>
      <trkpt lat="48.84697" lon="2.42126">
        <ele>89</ele>
        <time>2015-10-19T19:02:53Z</time>
      </trkpt>
      <trkpt lat="48.84709" lon="2.42154">
        <ele>91</ele>
        <time>2015-10-19T19:02:58Z</time>
      </trkpt>
      <trkpt lat="48.84716" lon="2.42186">
        <ele>91.199996948242</ele>
        <time>2015-10-19T19:03:03Z</time>
      </trkpt>
      <trkpt lat="48.84725" lon="2.42211">
        <ele>91.400001525879</ele>
        <time>2015-10-19T19:03:07Z</time>
      </trkpt>
      <trkpt lat="48.84734" lon="2.42242">
        <ele>93.800003051758</ele>
        <time>2015-10-19T19:03:12Z</time>
      </trkpt>
      <trkpt lat="48.84744" lon="2.42267">
        <ele>94.800003051758</ele>
        <time>2015-10-19T19:03:16Z</time>
      </trkpt>
      <trkpt lat="48.84753" lon="2.42292">
        <ele>96.400001525879</ele>
        <time>2015-10-19T19:03:20Z</time>
      </trkpt>
      <trkpt lat="48.84762" lon="2.4232">
        <ele>98.400001525879</ele>
        <time>2015-10-19T19:03:24Z</time>
      </trkpt>
      <trkpt lat="48.84773" lon="2.42346">
        <ele>99</ele>
        <time>2015-10-19T19:03:27Z</time>
      </trkpt>
      <trkpt lat="48.84785" lon="2.42375">
        <ele>98.599998474121</ele>
        <time>2015-10-19T19:03:31Z</time>
      </trkpt>
      <trkpt lat="48.84787" lon="2.42381">
        <ele>98.599998474121</ele>
        <time>2015-10-19T19:03:32Z</time>
      </trkpt>
      <trkpt lat="48.84796" lon="2.42412">
        <ele>98.800003051758</ele>
        <time>2015-10-19T19:03:36Z</time>
      </trkpt>
      <trkpt lat="48.848" lon="2.42426">
        <ele>99.199996948242</ele>
        <time>2015-10-19T19:03:38Z</time>
      </trkpt>
      <trkpt lat="48.84805" lon="2.42439">
        <ele>99.400001525879</ele>
        <time>2015-10-19T19:03:40Z</time>
      </trkpt>
      <trkpt lat="48.84815" lon="2.42463">
        <ele>100</ele>
        <time>2015-10-19T19:03:44Z</time>
      </trkpt>
      <trkpt lat="48.84827" lon="2.42485">
        <ele>93.599998474121</ele>
        <time>2015-10-19T19:03:47Z</time>
      </trkpt>
      <trkpt lat="48.84835" lon="2.42509">
        <ele>89.599998474121</ele>
        <time>2015-10-19T19:03:50Z</time>
      </trkpt>
      <trkpt lat="48.84843" lon="2.42534">
        <ele>84.400001525879</ele>
        <time>2015-10-19T19:03:53Z</time>
      </trkpt>
      <trkpt lat="48.84854" lon="2.42562">
        <ele>82.199996948242</ele>
        <time>2015-10-19T19:03:57Z</time>
      </trkpt>
      <trkpt lat="48.84865" lon="2.42589">
        <ele>81</ele>
        <time>2015-10-19T19:04:01Z</time>
      </trkpt>
      <trkpt lat="48.84873" lon="2.42615">
        <ele>80.199996948242</ele>
        <time>2015-10-19T19:04:05Z</time>
      </trkpt>
      <trkpt lat="48.84882" lon="2.42636">
        <ele>79.800003051758</ele>
        <time>2015-10-19T19:04:09Z</time>
      </trkpt>
      <trkpt lat="48.84886" lon="2.42644">
        <ele>80</ele>
        <time>2015-10-19T19:04:11Z</time>
      </trkpt>
      <trkpt lat="48.84889" lon="2.42654">
        <ele>81</ele>
        <time>2015-10-19T19:04:13Z</time>
      </trkpt>
      <trkpt lat="48.84889" lon="2.4267">
        <ele>82.400001525879</ele>
        <time>2015-10-19T19:04:16Z</time>
      </trkpt>
      <trkpt lat="48.84888" lon="2.42695">
        <ele>82.800003051758</ele>
        <time>2015-10-19T19:04:21Z</time>
      </trkpt>
      <trkpt lat="48.84889" lon="2.42725">
        <ele>84.199996948242</ele>
        <time>2015-10-19T19:04:26Z</time>
      </trkpt>
      <trkpt lat="48.84888" lon="2.42754">
        <ele>85.400001525879</ele>
        <time>2015-10-19T19:04:30Z</time>
      </trkpt>
      <trkpt lat="48.84888" lon="2.42781">
        <ele>87</ele>
        <time>2015-10-19T19:04:34Z</time>
      </trkpt>
      <trkpt lat="48.84887" lon="2.42814">
        <ele>89.199996948242</ele>
        <time>2015-10-19T19:04:39Z</time>
      </trkpt>
      <trkpt lat="48.84886" lon="2.42848">
        <ele>91.199996948242</ele>
        <time>2015-10-19T19:04:44Z</time>
      </trkpt>
      <trkpt lat="48.84885" lon="2.42879">
        <ele>93.199996948242</ele>
        <time>2015-10-19T19:04:49Z</time>
      </trkpt>
      <trkpt lat="48.84885" lon="2.42898">
        <ele>94.599998474121</ele>
        <time>2015-10-19T19:04:52Z</time>
      </trkpt>
      <trkpt lat="48.84882" lon="2.4293">
        <ele>96.800003051758</ele>
        <time>2015-10-19T19:04:57Z</time>
      </trkpt>
      <trkpt lat="48.8488" lon="2.42962">
        <ele>99</ele>
        <time>2015-10-19T19:05:02Z</time>
      </trkpt>
      <trkpt lat="48.84879" lon="2.4299">
        <ele>101.19999694824</ele>
        <time>2015-10-19T19:05:06Z</time>
      </trkpt>
      <trkpt lat="48.84879" lon="2.42997">
        <ele>101.59999847412</ele>
        <time>2015-10-19T19:05:07Z</time>
      </trkpt>
      <trkpt lat="48.84878" lon="2.43026">
        <ele>103.19999694824</ele>
        <time>2015-10-19T19:05:11Z</time>
      </trkpt>
      <trkpt lat="48.84877" lon="2.43055">
        <ele>104.59999847412</ele>
        <time>2015-10-19T19:05:15Z</time>
      </trkpt>
      <trkpt lat="48.84876" lon="2.43086">
        <ele>101.80000305176</ele>
        <time>2015-10-19T19:05:19Z</time>
      </trkpt>
      <trkpt lat="48.84876" lon="2.43116">
        <ele>102</ele>
        <time>2015-10-19T19:05:23Z</time>
      </trkpt>
      <trkpt lat="48.84876" lon="2.43144">
        <ele>103.59999847412</ele>
        <time>2015-10-19T19:05:27Z</time>
      </trkpt>
      <trkpt lat="48.84875" lon="2.43176">
        <ele>107.19999694824</ele>
        <time>2015-10-19T19:05:32Z</time>
      </trkpt>
      <trkpt lat="48.84872" lon="2.43206">
        <ele>111</ele>
        <time>2015-10-19T19:05:38Z</time>
      </trkpt>
      <trkpt lat="48.84871" lon="2.43212">
        <ele>112</ele>
        <time>2015-10-19T19:05:40Z</time>
      </trkpt>
      <trkpt lat="48.84871" lon="2.43217">
        <ele>112.80000305176</ele>
        <time>2015-10-19T19:05:42Z</time>
      </trkpt>
      <trkpt lat="48.84871" lon="2.43234">
        <ele>111</ele>
        <time>2015-10-19T19:05:46Z</time>
      </trkpt>
      <trkpt lat="48.84871" lon="2.43245">
        <ele>111</ele>
        <time>2015-10-19T19:05:48Z</time>
      </trkpt>
      <trkpt lat="48.84869" lon="2.43276">
        <ele>111.59999847412</ele>
        <time>2015-10-19T19:05:53Z</time>
      </trkpt>
      <trkpt lat="48.84866" lon="2.43307">
        <ele>112.80000305176</ele>
        <time>2015-10-19T19:05:58Z</time>
      </trkpt>
      <trkpt lat="48.84865" lon="2.43334">
        <ele>114</ele>
        <time>2015-10-19T19:06:02Z</time>
      </trkpt>
      <trkpt lat="48.84865" lon="2.43362">
        <ele>115</ele>
        <time>2015-10-19T19:06:06Z</time>
      </trkpt>
      <trkpt lat="48.84866" lon="2.43393">
        <ele>116.19999694824</ele>
        <time>2015-10-19T19:06:10Z</time>
      </trkpt>
      <trkpt lat="48.84867" lon="2.43423">
        <ele>117.40000152588</ele>
        <time>2015-10-19T19:06:14Z</time>
      </trkpt>
      <trkpt lat="48.84865" lon="2.43451">
        <ele>119</ele>
        <time>2015-10-19T19:06:18Z</time>
      </trkpt>
      <trkpt lat="48.84864" lon="2.43458">
        <ele>119.19999694824</ele>
        <time>2015-10-19T19:06:19Z</time>
      </trkpt>
      <trkpt lat="48.84862" lon="2.43471">
        <ele>120</ele>
        <time>2015-10-19T19:06:21Z</time>
      </trkpt>
      <trkpt lat="48.84861" lon="2.43501">
        <ele>121.80000305176</ele>
        <time>2015-10-19T19:06:25Z</time>
      </trkpt>
      <trkpt lat="48.8486" lon="2.43532">
        <ele>123.40000152588</ele>
        <time>2015-10-19T19:06:29Z</time>
      </trkpt>
      <trkpt lat="48.84859" lon="2.43565">
        <ele>125.40000152588</ele>
        <time>2015-10-19T19:06:33Z</time>
      </trkpt>
      <trkpt lat="48.84856" lon="2.43598">
        <ele>127.40000152588</ele>
        <time>2015-10-19T19:06:37Z</time>
      </trkpt>
      <trkpt lat="48.84855" lon="2.43629">
        <ele>129.60000610352</ele>
        <time>2015-10-19T19:06:41Z</time>
      </trkpt>
      <trkpt lat="48.84852" lon="2.4366">
        <ele>132</ele>
        <time>2015-10-19T19:06:46Z</time>
      </trkpt>
      <trkpt lat="48.84849" lon="2.43672">
        <ele>133.19999694824</ele>
        <time>2015-10-19T19:06:49Z</time>
      </trkpt>
      <trkpt lat="48.84846" lon="2.43678">
        <ele>134.39999389648</ele>
        <time>2015-10-19T19:06:52Z</time>
      </trkpt>
      <trkpt lat="48.84842" lon="2.43688">
        <ele>135.80000305176</ele>
        <time>2015-10-19T19:06:56Z</time>
      </trkpt>
      <trkpt lat="48.8484" lon="2.43706">
        <ele>137.19999694824</ele>
        <time>2015-10-19T19:07:00Z</time>
      </trkpt>
      <trkpt lat="48.84838" lon="2.4374">
        <ele>135.60000610352</ele>
        <time>2015-10-19T19:07:05Z</time>
      </trkpt>
      <trkpt lat="48.84836" lon="2.43771">
        <ele>131.39999389648</ele>
        <time>2015-10-19T19:07:09Z</time>
      </trkpt>
      <trkpt lat="48.84832" lon="2.43801">
        <ele>132.80000305176</ele>
        <time>2015-10-19T19:07:13Z</time>
      </trkpt>
      <trkpt lat="48.84827" lon="2.43833">
        <ele>133.80000305176</ele>
        <time>2015-10-19T19:07:17Z</time>
      </trkpt>
      <trkpt lat="48.84823" lon="2.43865">
        <ele>133.80000305176</ele>
        <time>2015-10-19T19:07:21Z</time>
      </trkpt>
      <trkpt lat="48.84818" lon="2.43897">
        <ele>133.19999694824</ele>
        <time>2015-10-19T19:07:25Z</time>
      </trkpt>
      <trkpt lat="48.84814" lon="2.43928">
        <ele>133.19999694824</ele>
        <time>2015-10-19T19:07:29Z</time>
      </trkpt>
      <trkpt lat="48.84811" lon="2.43956">
        <ele>133.60000610352</ele>
        <time>2015-10-19T19:07:33Z</time>
      </trkpt>
      <trkpt lat="48.84811" lon="2.43981">
        <ele>134.19999694824</ele>
        <time>2015-10-19T19:07:37Z</time>
      </trkpt>
      <trkpt lat="48.84795" lon="2.43991">
        <ele>136.19999694824</ele>
        <time>2015-10-19T19:07:43Z</time>
      </trkpt>
      <trkpt lat="48.8479" lon="2.43991">
        <ele>136.60000610352</ele>
        <time>2015-10-19T19:07:44Z</time>
      </trkpt>
      <trkpt lat="48.84778" lon="2.43993">
        <ele>137.80000305176</ele>
        <time>2015-10-19T19:07:47Z</time>
      </trkpt>
      <trkpt lat="48.8477" lon="2.43993">
        <ele>138.39999389648</ele>
        <time>2015-10-19T19:07:49Z</time>
      </trkpt>
      <trkpt lat="48.84759" lon="2.43993">
        <ele>139.19999694824</ele>
        <time>2015-10-19T19:07:52Z</time>
      </trkpt>
      <trkpt lat="48.8474" lon="2.43998">
        <ele>142.60000610352</ele>
        <time>2015-10-19T19:07:58Z</time>
      </trkpt>
      <trkpt lat="48.84732" lon="2.44019">
        <ele>143</ele>
        <time>2015-10-19T19:08:04Z</time>
      </trkpt>
      <trkpt lat="48.84728" lon="2.4405">
        <ele>142.39999389648</ele>
        <time>2015-10-19T19:08:09Z</time>
      </trkpt>
      <trkpt lat="48.84723" lon="2.44081">
        <ele>140.80000305176</ele>
        <time>2015-10-19T19:08:14Z</time>
      </trkpt>
      <trkpt lat="48.8472" lon="2.44112">
        <ele>140.80000305176</ele>
        <time>2015-10-19T19:08:19Z</time>
      </trkpt>
      <trkpt lat="48.84717" lon="2.44141">
        <ele>140.60000610352</ele>
        <time>2015-10-19T19:08:24Z</time>
      </trkpt>
      <trkpt lat="48.84716" lon="2.44173">
        <ele>139.60000610352</ele>
        <time>2015-10-19T19:08:30Z</time>
      </trkpt>
      <trkpt lat="48.84715" lon="2.442">
        <ele>139.39999389648</ele>
        <time>2015-10-19T19:08:34Z</time>
      </trkpt>
      <trkpt lat="48.84713" lon="2.44233">
        <ele>138.39999389648</ele>
        <time>2015-10-19T19:08:39Z</time>
      </trkpt>
      <trkpt lat="48.8471" lon="2.44266">
        <ele>138.19999694824</ele>
        <time>2015-10-19T19:08:44Z</time>
      </trkpt>
      <trkpt lat="48.84711" lon="2.44279">
        <ele>138.80000305176</ele>
        <time>2015-10-19T19:08:46Z</time>
      </trkpt>
      <trkpt lat="48.8471" lon="2.44304">
        <ele>139.19999694824</ele>
        <time>2015-10-19T19:08:50Z</time>
      </trkpt>
      <trkpt lat="48.84707" lon="2.44324">
        <ele>140.39999389648</ele>
        <time>2015-10-19T19:08:53Z</time>
      </trkpt>
      <trkpt lat="48.8471" lon="2.44359">
        <ele>138.39999389648</ele>
        <time>2015-10-19T19:08:58Z</time>
      </trkpt>
      <trkpt lat="48.84712" lon="2.44394">
        <ele>131.60000610352</ele>
        <time>2015-10-19T19:09:02Z</time>
      </trkpt>
      <trkpt lat="48.84712" lon="2.44402">
        <ele>130.60000610352</ele>
        <time>2015-10-19T19:09:03Z</time>
      </trkpt>
      <trkpt lat="48.84711" lon="2.44418">
        <ele>128.39999389648</ele>
        <time>2015-10-19T19:09:05Z</time>
      </trkpt>
      <trkpt lat="48.8471" lon="2.44452">
        <ele>123.40000152588</ele>
        <time>2015-10-19T19:09:09Z</time>
      </trkpt>
      <trkpt lat="48.84709" lon="2.44485">
        <ele>118.19999694824</ele>
        <time>2015-10-19T19:09:13Z</time>
      </trkpt>
      <trkpt lat="48.84706" lon="2.44519">
        <ele>111.80000305176</ele>
        <time>2015-10-19T19:09:17Z</time>
      </trkpt>
      <trkpt lat="48.84704" lon="2.44553">
        <ele>107.80000305176</ele>
        <time>2015-10-19T19:09:21Z</time>
      </trkpt>
      <trkpt lat="48.84701" lon="2.44583">
        <ele>105.19999694824</ele>
        <time>2015-10-19T19:09:25Z</time>
      </trkpt>
      <trkpt lat="48.84699" lon="2.44614">
        <ele>104</ele>
        <time>2015-10-19T19:09:29Z</time>
      </trkpt>
      <trkpt lat="48.84697" lon="2.44644">
        <ele>103.19999694824</ele>
        <time>2015-10-19T19:09:33Z</time>
      </trkpt>
      <trkpt lat="48.84696" lon="2.44671">
        <ele>100.59999847412</ele>
        <time>2015-10-19T19:09:37Z</time>
      </trkpt>
      <trkpt lat="48.84692" lon="2.44704">
        <ele>99.800003051758</ele>
        <time>2015-10-19T19:09:42Z</time>
      </trkpt>
      <trkpt lat="48.8469" lon="2.44737">
        <ele>98.400001525879</ele>
        <time>2015-10-19T19:09:47Z</time>
      </trkpt>
      <trkpt lat="48.84688" lon="2.44764">
        <ele>99</ele>
        <time>2015-10-19T19:09:51Z</time>
      </trkpt>
      <trkpt lat="48.84687" lon="2.44778">
        <ele>98.199996948242</ele>
        <time>2015-10-19T19:09:53Z</time>
      </trkpt>
      <trkpt lat="48.84686" lon="2.44811">
        <ele>96.199996948242</ele>
        <time>2015-10-19T19:09:58Z</time>
      </trkpt>
      <trkpt lat="48.84685" lon="2.44824">
        <ele>95.800003051758</ele>
        <time>2015-10-19T19:10:00Z</time>
      </trkpt>
      <trkpt lat="48.84683" lon="2.44857">
        <ele>94</ele>
        <time>2015-10-19T19:10:05Z</time>
      </trkpt>
      <trkpt lat="48.84682" lon="2.44887">
        <ele>94</ele>
        <time>2015-10-19T19:10:09Z</time>
      </trkpt>
      <trkpt lat="48.84679" lon="2.44917">
        <ele>93.599998474121</ele>
        <time>2015-10-19T19:10:13Z</time>
      </trkpt>
      <trkpt lat="48.84675" lon="2.44946">
        <ele>92.599998474121</ele>
        <time>2015-10-19T19:10:17Z</time>
      </trkpt>
      <trkpt lat="48.84672" lon="2.44967">
        <ele>92</ele>
        <time>2015-10-19T19:10:20Z</time>
      </trkpt>
      <trkpt lat="48.84666" lon="2.44996">
        <ele>90.800003051758</ele>
        <time>2015-10-19T19:10:24Z</time>
      </trkpt>
      <trkpt lat="48.84661" lon="2.45024">
        <ele>90.199996948242</ele>
        <time>2015-10-19T19:10:28Z</time>
      </trkpt>
      <trkpt lat="48.84657" lon="2.45055">
        <ele>90.400001525879</ele>
        <time>2015-10-19T19:10:33Z</time>
      </trkpt>
      <trkpt lat="48.84654" lon="2.45076">
        <ele>90</ele>
        <time>2015-10-19T19:10:37Z</time>
      </trkpt>
      <trkpt lat="48.84654" lon="2.45109">
        <ele>82.800003051758</ele>
        <time>2015-10-19T19:10:43Z</time>
      </trkpt>
      <trkpt lat="48.84654" lon="2.45119">
        <ele>81</ele>
        <time>2015-10-19T19:10:45Z</time>
      </trkpt>
      <trkpt lat="48.84653" lon="2.4513">
        <ele>74.800003051758</ele>
        <time>2015-10-19T19:10:49Z</time>
      </trkpt>
      <trkpt lat="48.84648" lon="2.45142">
        <ele>64.599998474121</ele>
        <time>2015-10-19T19:11:19Z</time>
      </trkpt>
      <trkpt lat="48.84664" lon="2.4516">
        <ele>65.199996948242</ele>
        <time>2015-10-19T19:11:27Z</time>
      </trkpt>
      <trkpt lat="48.84682" lon="2.45169">
        <ele>66</ele>
        <time>2015-10-19T19:11:33Z</time>
      </trkpt>
      <trkpt lat="48.84693" lon="2.45177">
        <ele>65.400001525879</ele>
        <time>2015-10-19T19:11:37Z</time>
      </trkpt>
      <trkpt lat="48.8469" lon="2.45194">
        <ele>66.800003051758</ele>
        <time>2015-10-19T19:11:45Z</time>
      </trkpt>
      <trkpt lat="48.84685" lon="2.45217">
        <ele>69</ele>
        <time>2015-10-19T19:11:53Z</time>
      </trkpt>
      <trkpt lat="48.8468" lon="2.45247">
        <ele>70.599998474121</ele>
        <time>2015-10-19T19:12:00Z</time>
      </trkpt>
      <trkpt lat="48.8468" lon="2.45275">
        <ele>72</ele>
        <time>2015-10-19T19:12:05Z</time>
      </trkpt>
      <trkpt lat="48.84683" lon="2.45306">
        <ele>72.599998474121</ele>
        <time>2015-10-19T19:12:11Z</time>
      </trkpt>
      <trkpt lat="48.84683" lon="2.45335">
        <ele>75.599998474121</ele>
        <time>2015-10-19T19:12:16Z</time>
      </trkpt>
      <trkpt lat="48.8468" lon="2.45363">
        <ele>76.800003051758</ele>
        <time>2015-10-19T19:12:20Z</time>
      </trkpt>
      <trkpt lat="48.84676" lon="2.45393">
        <ele>79.800003051758</ele>
        <time>2015-10-19T19:12:25Z</time>
      </trkpt>
      <trkpt lat="48.84669" lon="2.45422">
        <ele>84</ele>
        <time>2015-10-19T19:12:31Z</time>
      </trkpt>
      <trkpt lat="48.84667" lon="2.4545">
        <ele>88.400001525879</ele>
        <time>2015-10-19T19:12:36Z</time>
      </trkpt>
      <trkpt lat="48.84662" lon="2.4548">
        <ele>92.199996948242</ele>
        <time>2015-10-19T19:12:41Z</time>
      </trkpt>
      <trkpt lat="48.84657" lon="2.45506">
        <ele>96.199996948242</ele>
        <time>2015-10-19T19:12:45Z</time>
      </trkpt>
      <trkpt lat="48.8465" lon="2.45535">
        <ele>100</ele>
        <time>2015-10-19T19:12:50Z</time>
      </trkpt>
      <trkpt lat="48.8465" lon="2.45565">
        <ele>89.800003051758</ele>
        <time>2015-10-19T19:12:54Z</time>
      </trkpt>
      <trkpt lat="48.84634" lon="2.45589">
        <ele>89.199996948242</ele>
        <time>2015-10-19T19:12:59Z</time>
      </trkpt>
      <trkpt lat="48.84625" lon="2.45603">
        <ele>89.800003051758</ele>
        <time>2015-10-19T19:13:02Z</time>
      </trkpt>
      <trkpt lat="48.84613" lon="2.45626">
        <ele>92.199996948242</ele>
        <time>2015-10-19T19:13:07Z</time>
      </trkpt>
      <trkpt lat="48.84601" lon="2.45648">
        <ele>94.599998474121</ele>
        <time>2015-10-19T19:13:12Z</time>
      </trkpt>
      <trkpt lat="48.8459" lon="2.45672">
        <ele>98</ele>
        <time>2015-10-19T19:13:18Z</time>
      </trkpt>
      <trkpt lat="48.84583" lon="2.45683">
        <ele>102.40000152588</ele>
        <time>2015-10-19T19:13:25Z</time>
      </trkpt>
      <trkpt lat="48.84584" lon="2.45706">
        <ele>109</ele>
        <time>2015-10-19T19:13:45Z</time>
      </trkpt>
      <trkpt lat="48.84572" lon="2.45721">
        <ele>110.59999847412</ele>
        <time>2015-10-19T19:13:55Z</time>
      </trkpt>
      <trkpt lat="48.84574" lon="2.45721">
        <ele>111.40000152588</ele>
        <time>2015-10-19T19:13:59Z</time>
      </trkpt>
      <trkpt lat="48.84597" lon="2.45708">
        <ele>109.59999847412</ele>
        <time>2015-10-19T19:14:11Z</time>
      </trkpt>
      <trkpt lat="48.846" lon="2.45728">
        <ele>108.19999694824</ele>
        <time>2015-10-19T19:14:49Z</time>
      </trkpt>
      <trkpt lat="48.84591" lon="2.45751">
        <ele>109.40000152588</ele>
        <time>2015-10-19T19:14:54Z</time>
      </trkpt>
      <trkpt lat="48.84579" lon="2.45776">
        <ele>110.80000305176</ele>
        <time>2015-10-19T19:14:59Z</time>
      </trkpt>
      <trkpt lat="48.84567" lon="2.45797">
        <ele>111.59999847412</ele>
        <time>2015-10-19T19:15:03Z</time>
      </trkpt>
      <trkpt lat="48.84555" lon="2.45825">
        <ele>111.19999694824</ele>
        <time>2015-10-19T19:15:08Z</time>
      </trkpt>
      <trkpt lat="48.84545" lon="2.45851">
        <ele>111.40000152588</ele>
        <time>2015-10-19T19:15:13Z</time>
      </trkpt>
      <trkpt lat="48.84531" lon="2.45871">
        <ele>109.59999847412</ele>
        <time>2015-10-19T19:15:17Z</time>
      </trkpt>
      <trkpt lat="48.84522" lon="2.45898">
        <ele>107.19999694824</ele>
        <time>2015-10-19T19:15:23Z</time>
      </trkpt>
      <trkpt lat="48.84517" lon="2.45931">
        <ele>105.40000152588</ele>
        <time>2015-10-19T19:15:29Z</time>
      </trkpt>
      <trkpt lat="48.84513" lon="2.45957">
        <ele>103.19999694824</ele>
        <time>2015-10-19T19:15:34Z</time>
      </trkpt>
      <trkpt lat="48.84508" lon="2.45985">
        <ele>101.40000152588</ele>
        <time>2015-10-19T19:15:40Z</time>
      </trkpt>
      <trkpt lat="48.84503" lon="2.46016">
        <ele>98.199996948242</ele>
        <time>2015-10-19T19:15:46Z</time>
      </trkpt>
      <trkpt lat="48.84493" lon="2.46043">
        <ele>96.599998474121</ele>
        <time>2015-10-19T19:15:52Z</time>
      </trkpt>
      <trkpt lat="48.84482" lon="2.46066">
        <ele>93.599998474121</ele>
        <time>2015-10-19T19:15:57Z</time>
      </trkpt>
      <trkpt lat="48.84475" lon="2.46092">
        <ele>90.599998474121</ele>
        <time>2015-10-19T19:16:02Z</time>
      </trkpt>
      <trkpt lat="48.84468" lon="2.4612">
        <ele>90.800003051758</ele>
        <time>2015-10-19T19:16:07Z</time>
      </trkpt>
      <trkpt lat="48.84463" lon="2.46147">
        <ele>90.199996948242</ele>
        <time>2015-10-19T19:16:12Z</time>
      </trkpt>
      <trkpt lat="48.84458" lon="2.46175">
        <ele>90.599998474121</ele>
        <time>2015-10-19T19:16:17Z</time>
      </trkpt>
      <trkpt lat="48.84452" lon="2.46202">
        <ele>89.800003051758</ele>
        <time>2015-10-19T19:16:22Z</time>
      </trkpt>
      <trkpt lat="48.84447" lon="2.46234">
        <ele>90.599998474121</ele>
        <time>2015-10-19T19:16:28Z</time>
      </trkpt>
      <trkpt lat="48.84444" lon="2.46263">
        <ele>87.800003051758</ele>
        <time>2015-10-19T19:16:33Z</time>
      </trkpt>
      <trkpt lat="48.84439" lon="2.46292">
        <ele>89.199996948242</ele>
        <time>2015-10-19T19:16:38Z</time>
      </trkpt>
      <trkpt lat="48.84433" lon="2.46321">
        <ele>91.199996948242</ele>
        <time>2015-10-19T19:16:43Z</time>
      </trkpt>
      <trkpt lat="48.84427" lon="2.46352">
        <ele>93.199996948242</ele>
        <time>2015-10-19T19:16:48Z</time>
      </trkpt>
      <trkpt lat="48.84419" lon="2.4638">
        <ele>96</ele>
        <time>2015-10-19T19:16:53Z</time>
      </trkpt>
      <trkpt lat="48.84413" lon="2.46411">
        <ele>92.199996948242</ele>
        <time>2015-10-19T19:16:58Z</time>
      </trkpt>
      <trkpt lat="48.84406" lon="2.46442">
        <ele>91.199996948242</ele>
        <time>2015-10-19T19:17:03Z</time>
      </trkpt>
      <trkpt lat="48.84399" lon="2.46473">
        <ele>91</ele>
        <time>2015-10-19T19:17:08Z</time>
      </trkpt>
      <trkpt lat="48.84392" lon="2.46504">
        <ele>91.199996948242</ele>
        <time>2015-10-19T19:17:13Z</time>
      </trkpt>
      <trkpt lat="48.84385" lon="2.46533">
        <ele>91</ele>
        <time>2015-10-19T19:17:18Z</time>
      </trkpt>
      <trkpt lat="48.84379" lon="2.46561">
        <ele>91.199996948242</ele>
        <time>2015-10-19T19:17:23Z</time>
      </trkpt>
      <trkpt lat="48.84377" lon="2.4657">
        <ele>91</ele>
        <time>2015-10-19T19:17:25Z</time>
      </trkpt>
      <trkpt lat="48.84375" lon="2.4658">
        <ele>90.599998474121</ele>
        <time>2015-10-19T19:17:27Z</time>
      </trkpt>
      <trkpt lat="48.8436" lon="2.46582">
        <ele>84.800003051758</ele>
        <time>2015-10-19T19:17:32Z</time>
      </trkpt>
      <trkpt lat="48.84342" lon="2.46572">
        <ele>72.800003051758</ele>
        <time>2015-10-19T19:17:38Z</time>
      </trkpt>
      <trkpt lat="48.8434" lon="2.46574">
        <ele>71.199996948242</ele>
        <time>2015-10-19T19:17:39Z</time>
      </trkpt>
      <trkpt lat="48.84326" lon="2.46597">
        <ele>68.400001525879</ele>
        <time>2015-10-19T19:17:45Z</time>
      </trkpt>
      <trkpt lat="48.84314" lon="2.46621">
        <ele>67.800003051758</ele>
        <time>2015-10-19T19:17:52Z</time>
      </trkpt>
      <trkpt lat="48.84301" lon="2.4664">
        <ele>67.400001525879</ele>
        <time>2015-10-19T19:17:57Z</time>
      </trkpt>
      <trkpt lat="48.84286" lon="2.46663">
        <ele>67.199996948242</ele>
        <time>2015-10-19T19:18:02Z</time>
      </trkpt>
      <trkpt lat="48.84271" lon="2.46684">
        <ele>67.400001525879</ele>
        <time>2015-10-19T19:18:07Z</time>
      </trkpt>
      <trkpt lat="48.84254" lon="2.46704">
        <ele>68.800003051758</ele>
        <time>2015-10-19T19:18:12Z</time>
      </trkpt>
      <trkpt lat="48.84236" lon="2.46724">
        <ele>73.800003051758</ele>
        <time>2015-10-19T19:18:17Z</time>
      </trkpt>
      <trkpt lat="48.84221" lon="2.4674">
        <ele>76.599998474121</ele>
        <time>2015-10-19T19:18:22Z</time>
      </trkpt>
      <trkpt lat="48.84206" lon="2.46758">
        <ele>79.599998474121</ele>
        <time>2015-10-19T19:18:27Z</time>
      </trkpt>
      <trkpt lat="48.84188" lon="2.46779">
        <ele>82</ele>
        <time>2015-10-19T19:18:32Z</time>
      </trkpt>
      <trkpt lat="48.84172" lon="2.46794">
        <ele>83.800003051758</ele>
        <time>2015-10-19T19:18:36Z</time>
      </trkpt>
      <trkpt lat="48.84156" lon="2.46809">
        <ele>84.800003051758</ele>
        <time>2015-10-19T19:18:40Z</time>
      </trkpt>
      <trkpt lat="48.8414" lon="2.46824">
        <ele>85.400001525879</ele>
        <time>2015-10-19T19:18:44Z</time>
      </trkpt>
      <trkpt lat="48.84122" lon="2.46839">
        <ele>86.199996948242</ele>
        <time>2015-10-19T19:18:48Z</time>
      </trkpt>
      <trkpt lat="48.84103" lon="2.46854">
        <ele>86.800003051758</ele>
        <time>2015-10-19T19:18:53Z</time>
      </trkpt>
      <trkpt lat="48.84096" lon="2.46858">
        <ele>86.599998474121</ele>
        <time>2015-10-19T19:18:55Z</time>
      </trkpt>
      <trkpt lat="48.84082" lon="2.46869">
        <ele>87</ele>
        <time>2015-10-19T19:18:59Z</time>
      </trkpt>
      <trkpt lat="48.84063" lon="2.46884">
        <ele>86.400001525879</ele>
        <time>2015-10-19T19:19:03Z</time>
      </trkpt>
      <trkpt lat="48.84045" lon="2.469">
        <ele>86.199996948242</ele>
        <time>2015-10-19T19:19:07Z</time>
      </trkpt>
      <trkpt lat="48.84028" lon="2.46916">
        <ele>86.400001525879</ele>
        <time>2015-10-19T19:19:11Z</time>
      </trkpt>
      <trkpt lat="48.84015" lon="2.46928">
        <ele>86.599998474121</ele>
        <time>2015-10-19T19:19:14Z</time>
      </trkpt>
      <trkpt lat="48.83999" lon="2.46943">
        <ele>86.800003051758</ele>
        <time>2015-10-19T19:19:18Z</time>
      </trkpt>
      <trkpt lat="48.83982" lon="2.46963">
        <ele>80.199996948242</ele>
        <time>2015-10-19T19:19:22Z</time>
      </trkpt>
      <trkpt lat="48.83965" lon="2.46979">
        <ele>79.800003051758</ele>
        <time>2015-10-19T19:19:26Z</time>
      </trkpt>
      <trkpt lat="48.8395" lon="2.46995">
        <ele>76.400001525879</ele>
        <time>2015-10-19T19:19:30Z</time>
      </trkpt>
      <trkpt lat="48.83931" lon="2.47012">
        <ele>76.800003051758</ele>
        <time>2015-10-19T19:19:35Z</time>
      </trkpt>
      <trkpt lat="48.83911" lon="2.47027">
        <ele>77.400001525879</ele>
        <time>2015-10-19T19:19:40Z</time>
      </trkpt>
      <trkpt lat="48.83895" lon="2.4704">
        <ele>78.199996948242</ele>
        <time>2015-10-19T19:19:44Z</time>
      </trkpt>
      <trkpt lat="48.83876" lon="2.47057">
        <ele>77.800003051758</ele>
        <time>2015-10-19T19:19:49Z</time>
      </trkpt>
      <trkpt lat="48.83862" lon="2.4707">
        <ele>78</ele>
        <time>2015-10-19T19:19:53Z</time>
      </trkpt>
      <trkpt lat="48.83843" lon="2.47089">
        <ele>78.199996948242</ele>
        <time>2015-10-19T19:19:57Z</time>
      </trkpt>
      <trkpt lat="48.83825" lon="2.47106">
        <ele>78.199996948242</ele>
        <time>2015-10-19T19:20:01Z</time>
      </trkpt>
      <trkpt lat="48.83807" lon="2.47124">
        <ele>79</ele>
        <time>2015-10-19T19:20:06Z</time>
      </trkpt>
      <trkpt lat="48.83803" lon="2.47127">
        <ele>79.199996948242</ele>
        <time>2015-10-19T19:20:07Z</time>
      </trkpt>
      <trkpt lat="48.83783" lon="2.47143">
        <ele>78</ele>
        <time>2015-10-19T19:20:12Z</time>
      </trkpt>
      <trkpt lat="48.83776" lon="2.47149">
        <ele>77.400001525879</ele>
        <time>2015-10-19T19:20:14Z</time>
      </trkpt>
      <trkpt lat="48.83759" lon="2.47166">
        <ele>73.599998474121</ele>
        <time>2015-10-19T19:20:19Z</time>
      </trkpt>
      <trkpt lat="48.83756" lon="2.47169">
        <ele>73.400001525879</ele>
        <time>2015-10-19T19:20:20Z</time>
      </trkpt>
      <trkpt lat="48.83739" lon="2.47181">
        <ele>74.599998474121</ele>
        <time>2015-10-19T19:20:25Z</time>
      </trkpt>
      <trkpt lat="48.83736" lon="2.47184">
        <ele>74.599998474121</ele>
        <time>2015-10-19T19:20:26Z</time>
      </trkpt>
      <trkpt lat="48.83719" lon="2.47199">
        <ele>75.199996948242</ele>
        <time>2015-10-19T19:20:31Z</time>
      </trkpt>
      <trkpt lat="48.83701" lon="2.47213">
        <ele>74.800003051758</ele>
        <time>2015-10-19T19:20:36Z</time>
      </trkpt>
      <trkpt lat="48.83683" lon="2.4723">
        <ele>75.800003051758</ele>
        <time>2015-10-19T19:20:41Z</time>
      </trkpt>
      <trkpt lat="48.83666" lon="2.47246">
        <ele>76.599998474121</ele>
        <time>2015-10-19T19:20:46Z</time>
      </trkpt>
      <trkpt lat="48.83648" lon="2.47259">
        <ele>78.199996948242</ele>
        <time>2015-10-19T19:20:51Z</time>
      </trkpt>
      <trkpt lat="48.83631" lon="2.4727">
        <ele>79.800003051758</ele>
        <time>2015-10-19T19:20:56Z</time>
      </trkpt>
      <trkpt lat="48.83621" lon="2.47278">
        <ele>81</ele>
        <time>2015-10-19T19:20:59Z</time>
      </trkpt>
      <trkpt lat="48.83609" lon="2.4729">
        <ele>79.199996948242</ele>
        <time>2015-10-19T19:21:03Z</time>
      </trkpt>
      <trkpt lat="48.83595" lon="2.47305">
        <ele>80.400001525879</ele>
        <time>2015-10-19T19:21:08Z</time>
      </trkpt>
      <trkpt lat="48.83589" lon="2.47309">
        <ele>80.800003051758</ele>
        <time>2015-10-19T19:21:10Z</time>
      </trkpt>
      <trkpt lat="48.83573" lon="2.47326">
        <ele>78.800003051758</ele>
        <time>2015-10-19T19:21:19Z</time>
      </trkpt>
      <trkpt lat="48.83564" lon="2.47339">
        <ele>76.199996948242</ele>
        <time>2015-10-19T19:21:25Z</time>
      </trkpt>
      <trkpt lat="48.8356" lon="2.47367">
        <ele>76.199996948242</ele>
        <time>2015-10-19T19:21:36Z</time>
      </trkpt>
      <trkpt lat="48.83555" lon="2.47361">
        <ele>76.599998474121</ele>
        <time>2015-10-19T19:21:42Z</time>
      </trkpt>
      <trkpt lat="48.83536" lon="2.47349">
        <ele>77.400001525879</ele>
        <time>2015-10-19T19:21:48Z</time>
      </trkpt>
      <trkpt lat="48.83515" lon="2.47341">
        <ele>76.800003051758</ele>
        <time>2015-10-19T19:21:54Z</time>
      </trkpt>
      <trkpt lat="48.83496" lon="2.47337">
        <ele>76.199996948242</ele>
        <time>2015-10-19T19:21:59Z</time>
      </trkpt>
      <trkpt lat="48.83475" lon="2.47341">
        <ele>76.199996948242</ele>
        <time>2015-10-19T19:22:05Z</time>
      </trkpt>
      <trkpt lat="48.83457" lon="2.47348">
        <ele>77.199996948242</ele>
        <time>2015-10-19T19:22:10Z</time>
      </trkpt>
      <trkpt lat="48.83438" lon="2.47358">
        <ele>79.400001525879</ele>
        <time>2015-10-19T19:22:16Z</time>
      </trkpt>
      <trkpt lat="48.83419" lon="2.47368">
        <ele>78</ele>
        <time>2015-10-19T19:22:21Z</time>
      </trkpt>
      <trkpt lat="48.83402" lon="2.47382">
        <ele>75</ele>
        <time>2015-10-19T19:22:28Z</time>
      </trkpt>
      <trkpt lat="48.83385" lon="2.47402">
        <ele>72.800003051758</ele>
        <time>2015-10-19T19:22:33Z</time>
      </trkpt>
      <trkpt lat="48.8337" lon="2.47425">
        <ele>71.599998474121</ele>
        <time>2015-10-19T19:22:39Z</time>
      </trkpt>
      <trkpt lat="48.83358" lon="2.47448">
        <ele>71</ele>
        <time>2015-10-19T19:22:45Z</time>
      </trkpt>
      <trkpt lat="48.83346" lon="2.47471">
        <ele>67</ele>
        <time>2015-10-19T19:22:50Z</time>
      </trkpt>
      <trkpt lat="48.83338" lon="2.475">
        <ele>56.599998474121</ele>
        <time>2015-10-19T19:22:55Z</time>
      </trkpt>
      <trkpt lat="48.83332" lon="2.47531">
        <ele>51.599998474121</ele>
        <time>2015-10-19T19:23:02Z</time>
      </trkpt>
      <trkpt lat="48.8332" lon="2.4756">
        <ele>48.400001525879</ele>
        <time>2015-10-19T19:23:07Z</time>
      </trkpt>
      <trkpt lat="48.83314" lon="2.47586">
        <ele>43.79999923706</ele>
        <time>2015-10-19T19:23:11Z</time>
      </trkpt>
      <trkpt lat="48.83312" lon="2.47614">
        <ele>39.79999923706</ele>
        <time>2015-10-19T19:23:15Z</time>
      </trkpt>
      <trkpt lat="48.83311" lon="2.47648">
        <ele>36.79999923706</ele>
        <time>2015-10-19T19:23:20Z</time>
      </trkpt>
      <trkpt lat="48.83308" lon="2.47678">
        <ele>36.599998474121</ele>
        <time>2015-10-19T19:23:25Z</time>
      </trkpt>
      <trkpt lat="48.83289" lon="2.47693">
        <ele>34.79999923706</ele>
        <time>2015-10-19T19:23:30Z</time>
      </trkpt>
      <trkpt lat="48.83268" lon="2.47693">
        <ele>33.400001525879</ele>
        <time>2015-10-19T19:23:35Z</time>
      </trkpt>
      <trkpt lat="48.83249" lon="2.4769">
        <ele>32.599998474121</ele>
        <time>2015-10-19T19:23:41Z</time>
      </trkpt>
      <trkpt lat="48.83243" lon="2.47692">
        <ele>31</ele>
        <time>2015-10-19T19:23:44Z</time>
      </trkpt>
      <trkpt lat="48.83252" lon="2.47701">
        <ele>32.79999923706</ele>
        <time>2015-10-19T19:24:24Z</time>
      </trkpt>
      <trkpt lat="48.83244" lon="2.47687">
        <ele>35</ele>
        <time>2015-10-19T19:25:20Z</time>
      </trkpt>
      <trkpt lat="48.8323" lon="2.4767">
        <ele>34</ele>
        <time>2015-10-19T19:25:31Z</time>
      </trkpt>
      <trkpt lat="48.83214" lon="2.47653">
        <ele>32.599998474121</ele>
        <time>2015-10-19T19:25:37Z</time>
      </trkpt>
      <trkpt lat="48.83199" lon="2.4764">
        <ele>31</ele>
        <time>2015-10-19T19:25:42Z</time>
      </trkpt>
      <trkpt lat="48.83178" lon="2.47625">
        <ele>30.39999961853</ele>
        <time>2015-10-19T19:25:47Z</time>
      </trkpt>
      <trkpt lat="48.83174" lon="2.47621">
        <ele>30.39999961853</ele>
        <time>2015-10-19T19:25:48Z</time>
      </trkpt>
      <trkpt lat="48.83158" lon="2.47605">
        <ele>29.39999961853</ele>
        <time>2015-10-19T19:25:52Z</time>
      </trkpt>
      <trkpt lat="48.83142" lon="2.47589">
        <ele>27.60000038147</ele>
        <time>2015-10-19T19:25:56Z</time>
      </trkpt>
      <trkpt lat="48.8313" lon="2.47567">
        <ele>27.39999961853</ele>
        <time>2015-10-19T19:26:00Z</time>
      </trkpt>
      <trkpt lat="48.83118" lon="2.47541">
        <ele>27</ele>
        <time>2015-10-19T19:26:05Z</time>
      </trkpt>
      <trkpt lat="48.83106" lon="2.47516">
        <ele>26.799999237061</ele>
        <time>2015-10-19T19:26:09Z</time>
      </trkpt>
      <trkpt lat="48.83104" lon="2.47508">
        <ele>27</ele>
        <time>2015-10-19T19:26:10Z</time>
      </trkpt>
      <trkpt lat="48.83096" lon="2.47479">
        <ele>26.799999237061</ele>
        <time>2015-10-19T19:26:14Z</time>
      </trkpt>
      <trkpt lat="48.83087" lon="2.47455">
        <ele>26.60000038147</ele>
        <time>2015-10-19T19:26:18Z</time>
      </trkpt>
      <trkpt lat="48.83075" lon="2.47432">
        <ele>25.60000038147</ele>
        <time>2015-10-19T19:26:23Z</time>
      </trkpt>
      <trkpt lat="48.83071" lon="2.47422">
        <ele>25.60000038147</ele>
        <time>2015-10-19T19:26:25Z</time>
      </trkpt>
      <trkpt lat="48.83066" lon="2.47412">
        <ele>25.39999961853</ele>
        <time>2015-10-19T19:26:27Z</time>
      </trkpt>
      <trkpt lat="48.83056" lon="2.47384">
        <ele>25.200000762939</ele>
        <time>2015-10-19T19:26:32Z</time>
      </trkpt>
      <trkpt lat="48.83044" lon="2.47359">
        <ele>23.200000762939</ele>
        <time>2015-10-19T19:26:37Z</time>
      </trkpt>
      <trkpt lat="48.8304" lon="2.47348">
        <ele>22.799999237061</ele>
        <time>2015-10-19T19:26:39Z</time>
      </trkpt>
      <trkpt lat="48.83036" lon="2.47337">
        <ele>22.200000762939</ele>
        <time>2015-10-19T19:26:41Z</time>
      </trkpt>
      <trkpt lat="48.83033" lon="2.47326">
        <ele>22.60000038147</ele>
        <time>2015-10-19T19:26:43Z</time>
      </trkpt>
      <trkpt lat="48.83028" lon="2.4731">
        <ele>23</ele>
        <time>2015-10-19T19:26:46Z</time>
      </trkpt>
      <trkpt lat="48.83017" lon="2.47285">
        <ele>24.60000038147</ele>
        <time>2015-10-19T19:26:51Z</time>
      </trkpt>
      <trkpt lat="48.83015" lon="2.4728">
        <ele>24.799999237061</ele>
        <time>2015-10-19T19:26:52Z</time>
      </trkpt>
      <trkpt lat="48.83004" lon="2.47252">
        <ele>25.799999237061</ele>
        <time>2015-10-19T19:26:57Z</time>
      </trkpt>
      <trkpt lat="48.82994" lon="2.47224">
        <ele>27</ele>
        <time>2015-10-19T19:27:02Z</time>
      </trkpt>
      <trkpt lat="48.82981" lon="2.47198">
        <ele>27.60000038147</ele>
        <time>2015-10-19T19:27:07Z</time>
      </trkpt>
      <trkpt lat="48.82972" lon="2.47166">
        <ele>27.200000762939</ele>
        <time>2015-10-19T19:27:12Z</time>
      </trkpt>
      <trkpt lat="48.8297" lon="2.47161">
        <ele>27.200000762939</ele>
        <time>2015-10-19T19:27:13Z</time>
      </trkpt>
      <trkpt lat="48.8296" lon="2.47148">
        <ele>28</ele>
        <time>2015-10-19T19:27:16Z</time>
      </trkpt>
      <trkpt lat="48.8295" lon="2.47137">
        <ele>28.200000762939</ele>
        <time>2015-10-19T19:27:19Z</time>
      </trkpt>
      <trkpt lat="48.82932" lon="2.47117">
        <ele>29.200000762939</ele>
        <time>2015-10-19T19:27:24Z</time>
      </trkpt>
      <trkpt lat="48.82926" lon="2.47109">
        <ele>29.200000762939</ele>
        <time>2015-10-19T19:27:26Z</time>
      </trkpt>
      <trkpt lat="48.82911" lon="2.47087">
        <ele>29</ele>
        <time>2015-10-19T19:27:31Z</time>
      </trkpt>
      <trkpt lat="48.82909" lon="2.47083">
        <ele>29.200000762939</ele>
        <time>2015-10-19T19:27:32Z</time>
      </trkpt>
      <trkpt lat="48.82896" lon="2.47067">
        <ele>28.39999961853</ele>
        <time>2015-10-19T19:27:36Z</time>
      </trkpt>
      <trkpt lat="48.82887" lon="2.47052">
        <ele>28</ele>
        <time>2015-10-19T19:27:39Z</time>
      </trkpt>
      <trkpt lat="48.82872" lon="2.4703">
        <ele>26.60000038147</ele>
        <time>2015-10-19T19:27:44Z</time>
      </trkpt>
      <trkpt lat="48.8286" lon="2.47009">
        <ele>25.799999237061</ele>
        <time>2015-10-19T19:27:48Z</time>
      </trkpt>
      <trkpt lat="48.82849" lon="2.46996">
        <ele>25.200000762939</ele>
        <time>2015-10-19T19:27:51Z</time>
      </trkpt>
      <trkpt lat="48.8284" lon="2.46983">
        <ele>25</ele>
        <time>2015-10-19T19:27:54Z</time>
      </trkpt>
      <trkpt lat="48.82824" lon="2.46963">
        <ele>24.60000038147</ele>
        <time>2015-10-19T19:27:59Z</time>
      </trkpt>
      <trkpt lat="48.82821" lon="2.46959">
        <ele>24.39999961853</ele>
        <time>2015-10-19T19:28:00Z</time>
      </trkpt>
      <trkpt lat="48.82806" lon="2.46939">
        <ele>24</ele>
        <time>2015-10-19T19:28:05Z</time>
      </trkpt>
      <trkpt lat="48.828" lon="2.46932">
        <ele>24</ele>
        <time>2015-10-19T19:28:07Z</time>
      </trkpt>
      <trkpt lat="48.82789" lon="2.46922">
        <ele>23.799999237061</ele>
        <time>2015-10-19T19:28:11Z</time>
      </trkpt>
      <trkpt lat="48.82778" lon="2.46909">
        <ele>23.39999961853</ele>
        <time>2015-10-19T19:28:15Z</time>
      </trkpt>
      <trkpt lat="48.82765" lon="2.46893">
        <ele>23</ele>
        <time>2015-10-19T19:28:19Z</time>
      </trkpt>
      <trkpt lat="48.82749" lon="2.4687">
        <ele>22.799999237061</ele>
        <time>2015-10-19T19:28:24Z</time>
      </trkpt>
      <trkpt lat="48.82744" lon="2.46861">
        <ele>22.39999961853</ele>
        <time>2015-10-19T19:28:26Z</time>
      </trkpt>
      <trkpt lat="48.82731" lon="2.46843">
        <ele>21.799999237061</ele>
        <time>2015-10-19T19:28:31Z</time>
      </trkpt>
      <trkpt lat="48.82718" lon="2.46822">
        <ele>20.60000038147</ele>
        <time>2015-10-19T19:28:37Z</time>
      </trkpt>
      <trkpt lat="48.82689" lon="2.46797">
        <ele>20</ele>
        <time>2015-10-19T19:28:45Z</time>
      </trkpt>
      <trkpt lat="48.8267" lon="2.46792">
        <ele>21.200000762939</ele>
        <time>2015-10-19T19:28:49Z</time>
      </trkpt>
      <trkpt lat="48.82652" lon="2.46782">
        <ele>21.39999961853</ele>
        <time>2015-10-19T19:28:53Z</time>
      </trkpt>
      <trkpt lat="48.82635" lon="2.46775">
        <ele>22.60000038147</ele>
        <time>2015-10-19T19:28:57Z</time>
      </trkpt>
      <trkpt lat="48.82613" lon="2.46766">
        <ele>26.200000762939</ele>
        <time>2015-10-19T19:29:02Z</time>
      </trkpt>
      <trkpt lat="48.82592" lon="2.46758">
        <ele>28</ele>
        <time>2015-10-19T19:29:07Z</time>
      </trkpt>
      <trkpt lat="48.82572" lon="2.46752">
        <ele>27.39999961853</ele>
        <time>2015-10-19T19:29:12Z</time>
      </trkpt>
      <trkpt lat="48.8256" lon="2.46748">
        <ele>28.200000762939</ele>
        <time>2015-10-19T19:29:15Z</time>
      </trkpt>
      <trkpt lat="48.82539" lon="2.46745">
        <ele>28.799999237061</ele>
        <time>2015-10-19T19:29:20Z</time>
      </trkpt>
      <trkpt lat="48.82535" lon="2.46744">
        <ele>28.60000038147</ele>
        <time>2015-10-19T19:29:21Z</time>
      </trkpt>
      <trkpt lat="48.82522" lon="2.46741">
        <ele>28.39999961853</ele>
        <time>2015-10-19T19:29:24Z</time>
      </trkpt>
      <trkpt lat="48.82514" lon="2.46737">
        <ele>27.799999237061</ele>
        <time>2015-10-19T19:29:26Z</time>
      </trkpt>
      <trkpt lat="48.82496" lon="2.46731">
        <ele>26.39999961853</ele>
        <time>2015-10-19T19:29:30Z</time>
      </trkpt>
      <trkpt lat="48.82479" lon="2.46724">
        <ele>25.799999237061</ele>
        <time>2015-10-19T19:29:34Z</time>
      </trkpt>
      <trkpt lat="48.8246" lon="2.46713">
        <ele>25.200000762939</ele>
        <time>2015-10-19T19:29:39Z</time>
      </trkpt>
      <trkpt lat="48.82452" lon="2.46707">
        <ele>24.799999237061</ele>
        <time>2015-10-19T19:29:41Z</time>
      </trkpt>
      <trkpt lat="48.82432" lon="2.46694">
        <ele>24.200000762939</ele>
        <time>2015-10-19T19:29:46Z</time>
      </trkpt>
      <trkpt lat="48.82428" lon="2.46692">
        <ele>23.799999237061</ele>
        <time>2015-10-19T19:29:47Z</time>
      </trkpt>
      <trkpt lat="48.82412" lon="2.46684">
        <ele>23.200000762939</ele>
        <time>2015-10-19T19:29:51Z</time>
      </trkpt>
      <trkpt lat="48.82397" lon="2.46678">
        <ele>22.200000762939</ele>
        <time>2015-10-19T19:29:55Z</time>
      </trkpt>
      <trkpt lat="48.82379" lon="2.46672">
        <ele>23.200000762939</ele>
        <time>2015-10-19T19:29:59Z</time>
      </trkpt>
      <trkpt lat="48.82362" lon="2.46667">
        <ele>24.39999961853</ele>
        <time>2015-10-19T19:30:03Z</time>
      </trkpt>
      <trkpt lat="48.82347" lon="2.46666">
        <ele>24.200000762939</ele>
        <time>2015-10-19T19:30:06Z</time>
      </trkpt>
      <trkpt lat="48.82328" lon="2.46665">
        <ele>26.200000762939</ele>
        <time>2015-10-19T19:30:10Z</time>
      </trkpt>
      <trkpt lat="48.82308" lon="2.46664">
        <ele>28</ele>
        <time>2015-10-19T19:30:15Z</time>
      </trkpt>
      <trkpt lat="48.82288" lon="2.46669">
        <ele>30.39999961853</ele>
        <time>2015-10-19T19:30:20Z</time>
      </trkpt>
      <trkpt lat="48.82268" lon="2.46675">
        <ele>32.599998474121</ele>
        <time>2015-10-19T19:30:25Z</time>
      </trkpt>
      <trkpt lat="48.82251" lon="2.46681">
        <ele>33.599998474121</ele>
        <time>2015-10-19T19:30:29Z</time>
      </trkpt>
      <trkpt lat="48.82238" lon="2.46685">
        <ele>36.20000076294</ele>
        <time>2015-10-19T19:30:32Z</time>
      </trkpt>
      <trkpt lat="48.82225" lon="2.46689">
        <ele>38.400001525879</ele>
        <time>2015-10-19T19:30:35Z</time>
      </trkpt>
      <trkpt lat="48.82208" lon="2.46697">
        <ele>40.400001525879</ele>
        <time>2015-10-19T19:30:39Z</time>
      </trkpt>
      <trkpt lat="48.82186" lon="2.46704">
        <ele>43</ele>
        <time>2015-10-19T19:30:44Z</time>
      </trkpt>
      <trkpt lat="48.82165" lon="2.46708">
        <ele>41.599998474121</ele>
        <time>2015-10-19T19:30:48Z</time>
      </trkpt>
      <trkpt lat="48.82154" lon="2.46711">
        <ele>41.20000076294</ele>
        <time>2015-10-19T19:30:50Z</time>
      </trkpt>
      <trkpt lat="48.82134" lon="2.46718">
        <ele>42</ele>
        <time>2015-10-19T19:30:55Z</time>
      </trkpt>
      <trkpt lat="48.82114" lon="2.46726">
        <ele>40.79999923706</ele>
        <time>2015-10-19T19:31:00Z</time>
      </trkpt>
      <trkpt lat="48.8211" lon="2.46728">
        <ele>41.599998474121</ele>
        <time>2015-10-19T19:31:01Z</time>
      </trkpt>
      <trkpt lat="48.82106" lon="2.46729">
        <ele>42</ele>
        <time>2015-10-19T19:31:02Z</time>
      </trkpt>
      <trkpt lat="48.82089" lon="2.46731">
        <ele>43.599998474121</ele>
        <time>2015-10-19T19:31:06Z</time>
      </trkpt>
      <trkpt lat="48.82081" lon="2.46732">
        <ele>43.400001525879</ele>
        <time>2015-10-19T19:31:08Z</time>
      </trkpt>
      <trkpt lat="48.82063" lon="2.4673">
        <ele>41.79999923706</ele>
        <time>2015-10-19T19:31:15Z</time>
      </trkpt>
      <trkpt lat="48.82058" lon="2.4673">
        <ele>42.79999923706</ele>
        <time>2015-10-19T19:31:18Z</time>
      </trkpt>
      <trkpt lat="48.82039" lon="2.46731">
        <ele>45.20000076294</ele>
        <time>2015-10-19T19:31:28Z</time>
      </trkpt>
      <trkpt lat="48.82036" lon="2.46727">
        <ele>45.599998474121</ele>
        <time>2015-10-19T19:31:31Z</time>
      </trkpt>
      <trkpt lat="48.82036" lon="2.4672">
        <ele>43.79999923706</ele>
        <time>2015-10-19T19:32:51Z</time>
      </trkpt>
      <trkpt lat="48.8203" lon="2.46695">
        <ele>43</ele>
        <time>2015-10-19T19:33:18Z</time>
      </trkpt>
      <trkpt lat="48.8203" lon="2.46666">
        <ele>42.79999923706</ele>
        <time>2015-10-19T19:33:23Z</time>
      </trkpt>
      <trkpt lat="48.82029" lon="2.46639">
        <ele>42.599998474121</ele>
        <time>2015-10-19T19:33:27Z</time>
      </trkpt>
      <trkpt lat="48.82029" lon="2.46623">
        <ele>42.79999923706</ele>
        <time>2015-10-19T19:33:29Z</time>
      </trkpt>
      <trkpt lat="48.82026" lon="2.46599">
        <ele>43.20000076294</ele>
        <time>2015-10-19T19:33:32Z</time>
      </trkpt>
      <trkpt lat="48.8202" lon="2.46573">
        <ele>43.599998474121</ele>
        <time>2015-10-19T19:33:35Z</time>
      </trkpt>
      <trkpt lat="48.82018" lon="2.46564">
        <ele>43.79999923706</ele>
        <time>2015-10-19T19:33:36Z</time>
      </trkpt>
      <trkpt lat="48.82012" lon="2.46537">
        <ele>44.20000076294</ele>
        <time>2015-10-19T19:33:39Z</time>
      </trkpt>
      <trkpt lat="48.8201" lon="2.46528">
        <ele>44.599998474121</ele>
        <time>2015-10-19T19:33:40Z</time>
      </trkpt>
      <trkpt lat="48.82004" lon="2.46494">
        <ele>47.599998474121</ele>
        <time>2015-10-19T19:33:44Z</time>
      </trkpt>
      <trkpt lat="48.82003" lon="2.46486">
        <ele>48.599998474121</ele>
        <time>2015-10-19T19:33:45Z</time>
      </trkpt>
      <trkpt lat="48.81999" lon="2.46456">
        <ele>51.599998474121</ele>
        <time>2015-10-19T19:33:49Z</time>
      </trkpt>
      <trkpt lat="48.81994" lon="2.46441">
        <ele>53.20000076294</ele>
        <time>2015-10-19T19:33:54Z</time>
      </trkpt>
      <trkpt lat="48.81996" lon="2.46443">
        <ele>50.20000076294</ele>
        <time>2015-10-19T19:35:42Z</time>
      </trkpt>
      <trkpt lat="48.81979" lon="2.46451">
        <ele>49.79999923706</ele>
        <time>2015-10-19T19:36:03Z</time>
      </trkpt>
      <trkpt lat="48.81963" lon="2.46465">
        <ele>50.400001525879</ele>
        <time>2015-10-19T19:36:10Z</time>
      </trkpt>
      <trkpt lat="48.81948" lon="2.46487">
        <ele>51.400001525879</ele>
        <time>2015-10-19T19:36:16Z</time>
      </trkpt>
      <trkpt lat="48.81933" lon="2.46506">
        <ele>52.599998474121</ele>
        <time>2015-10-19T19:36:21Z</time>
      </trkpt>
      <trkpt lat="48.81918" lon="2.46525">
        <ele>54.79999923706</ele>
        <time>2015-10-19T19:36:26Z</time>
      </trkpt>
      <trkpt lat="48.81902" lon="2.46548">
        <ele>57.20000076294</ele>
        <time>2015-10-19T19:36:31Z</time>
      </trkpt>
      <trkpt lat="48.81887" lon="2.46567">
        <ele>59.79999923706</ele>
        <time>2015-10-19T19:36:35Z</time>
      </trkpt>
      <trkpt lat="48.8187" lon="2.46588">
        <ele>63.400001525879</ele>
        <time>2015-10-19T19:36:40Z</time>
      </trkpt>
      <trkpt lat="48.81856" lon="2.46612">
        <ele>66.400001525879</ele>
        <time>2015-10-19T19:36:45Z</time>
      </trkpt>
      <trkpt lat="48.8184" lon="2.46629">
        <ele>70.199996948242</ele>
        <time>2015-10-19T19:36:49Z</time>
      </trkpt>
      <trkpt lat="48.81824" lon="2.46645">
        <ele>73.199996948242</ele>
        <time>2015-10-19T19:36:53Z</time>
      </trkpt>
      <trkpt lat="48.81807" lon="2.46661">
        <ele>75.400001525879</ele>
        <time>2015-10-19T19:36:57Z</time>
      </trkpt>
      <trkpt lat="48.8179" lon="2.46676">
        <ele>78</ele>
        <time>2015-10-19T19:37:01Z</time>
      </trkpt>
      <trkpt lat="48.81775" lon="2.46692">
        <ele>80.800003051758</ele>
        <time>2015-10-19T19:37:05Z</time>
      </trkpt>
      <trkpt lat="48.81766" lon="2.46704">
        <ele>82.599998474121</ele>
        <time>2015-10-19T19:37:08Z</time>
      </trkpt>
      <trkpt lat="48.81749" lon="2.46711">
        <ele>87.800003051758</ele>
        <time>2015-10-19T19:37:14Z</time>
      </trkpt>
      <trkpt lat="48.81746" lon="2.4671">
        <ele>88</ele>
        <time>2015-10-19T19:37:15Z</time>
      </trkpt>
      <trkpt lat="48.8174" lon="2.46708">
        <ele>88.800003051758</ele>
        <time>2015-10-19T19:37:17Z</time>
      </trkpt>
      <trkpt lat="48.81726" lon="2.46698">
        <ele>88.599998474121</ele>
        <time>2015-10-19T19:37:22Z</time>
      </trkpt>
      <trkpt lat="48.8171" lon="2.46681">
        <ele>88.400001525879</ele>
        <time>2015-10-19T19:37:27Z</time>
      </trkpt>
      <trkpt lat="48.81695" lon="2.46664">
        <ele>87.400001525879</ele>
        <time>2015-10-19T19:37:31Z</time>
      </trkpt>
      <trkpt lat="48.81678" lon="2.46648">
        <ele>86</ele>
        <time>2015-10-19T19:37:35Z</time>
      </trkpt>
      <trkpt lat="48.81664" lon="2.46622">
        <ele>84</ele>
        <time>2015-10-19T19:37:39Z</time>
      </trkpt>
      <trkpt lat="48.81648" lon="2.46598">
        <ele>85</ele>
        <time>2015-10-19T19:37:43Z</time>
      </trkpt>
      <trkpt lat="48.81632" lon="2.46577">
        <ele>86.800003051758</ele>
        <time>2015-10-19T19:37:47Z</time>
      </trkpt>
      <trkpt lat="48.81627" lon="2.46572">
        <ele>87</ele>
        <time>2015-10-19T19:37:48Z</time>
      </trkpt>
      <trkpt lat="48.81609" lon="2.46549">
        <ele>88</ele>
        <time>2015-10-19T19:37:52Z</time>
      </trkpt>
      <trkpt lat="48.81592" lon="2.46523">
        <ele>88.800003051758</ele>
        <time>2015-10-19T19:37:56Z</time>
      </trkpt>
      <trkpt lat="48.81575" lon="2.46498">
        <ele>89.400001525879</ele>
        <time>2015-10-19T19:38:00Z</time>
      </trkpt>
      <trkpt lat="48.81562" lon="2.46478">
        <ele>89.599998474121</ele>
        <time>2015-10-19T19:38:03Z</time>
      </trkpt>
      <trkpt lat="48.81548" lon="2.4646">
        <ele>89.800003051758</ele>
        <time>2015-10-19T19:38:06Z</time>
      </trkpt>
      <trkpt lat="48.81531" lon="2.46435">
        <ele>89.400001525879</ele>
        <time>2015-10-19T19:38:10Z</time>
      </trkpt>
      <trkpt lat="48.81519" lon="2.46415">
        <ele>89.599998474121</ele>
        <time>2015-10-19T19:38:13Z</time>
      </trkpt>
      <trkpt lat="48.81504" lon="2.46386">
        <ele>89.800003051758</ele>
        <time>2015-10-19T19:38:17Z</time>
      </trkpt>
      <trkpt lat="48.81496" lon="2.46374">
        <ele>89.400001525879</ele>
        <time>2015-10-19T19:38:19Z</time>
      </trkpt>
      <trkpt lat="48.81495" lon="2.46349">
        <ele>84.800003051758</ele>
        <time>2015-10-19T19:38:21Z</time>
      </trkpt>
      <trkpt lat="48.81492" lon="2.46316">
        <ele>74.800003051758</ele>
        <time>2015-10-19T19:38:26Z</time>
      </trkpt>
      <trkpt lat="48.81493" lon="2.46312">
        <ele>73.400001525879</ele>
        <time>2015-10-19T19:38:27Z</time>
      </trkpt>
      <trkpt lat="48.81495" lon="2.46304">
        <ele>70.800003051758</ele>
        <time>2015-10-19T19:38:30Z</time>
      </trkpt>
      <trkpt lat="48.81491" lon="2.46293">
        <ele>64.800003051758</ele>
        <time>2015-10-19T19:38:38Z</time>
      </trkpt>
      <trkpt lat="48.8149" lon="2.46291">
        <ele>64.400001525879</ele>
        <time>2015-10-19T19:38:39Z</time>
      </trkpt>
      <trkpt lat="48.81474" lon="2.46276">
        <ele>62.79999923706</ele>
        <time>2015-10-19T19:38:45Z</time>
      </trkpt>
      <trkpt lat="48.81456" lon="2.4626">
        <ele>61.79999923706</ele>
        <time>2015-10-19T19:38:50Z</time>
      </trkpt>
      <trkpt lat="48.81452" lon="2.46232">
        <ele>60.79999923706</ele>
        <time>2015-10-19T19:38:55Z</time>
      </trkpt>
      <trkpt lat="48.81464" lon="2.46207">
        <ele>59.20000076294</ele>
        <time>2015-10-19T19:38:58Z</time>
      </trkpt>
      <trkpt lat="48.81477" lon="2.46183">
        <ele>56.400001525879</ele>
        <time>2015-10-19T19:39:02Z</time>
      </trkpt>
      <trkpt lat="48.8148" lon="2.46178">
        <ele>55.79999923706</ele>
        <time>2015-10-19T19:39:03Z</time>
      </trkpt>
      <trkpt lat="48.81494" lon="2.46152">
        <ele>53.20000076294</ele>
        <time>2015-10-19T19:39:08Z</time>
      </trkpt>
      <trkpt lat="48.81503" lon="2.46142">
        <ele>52.400001525879</ele>
        <time>2015-10-19T19:39:11Z</time>
      </trkpt>
      <trkpt lat="48.8151" lon="2.46129">
        <ele>51.79999923706</ele>
        <time>2015-10-19T19:39:14Z</time>
      </trkpt>
      <trkpt lat="48.81521" lon="2.46115">
        <ele>50.79999923706</ele>
        <time>2015-10-19T19:39:19Z</time>
      </trkpt>
      <trkpt lat="48.81522" lon="2.46115">
        <ele>50.400001525879</ele>
        <time>2015-10-19T19:39:20Z</time>
      </trkpt>
      <trkpt lat="48.81538" lon="2.46099">
        <ele>48.79999923706</ele>
        <time>2015-10-19T19:39:32Z</time>
      </trkpt>
      <trkpt lat="48.81553" lon="2.46078">
        <ele>49.400001525879</ele>
        <time>2015-10-19T19:39:37Z</time>
      </trkpt>
      <trkpt lat="48.81567" lon="2.46053">
        <ele>50.79999923706</ele>
        <time>2015-10-19T19:39:42Z</time>
      </trkpt>
      <trkpt lat="48.81577" lon="2.4603">
        <ele>52.400001525879</ele>
        <time>2015-10-19T19:39:46Z</time>
      </trkpt>
      <trkpt lat="48.81586" lon="2.46005">
        <ele>52</ele>
        <time>2015-10-19T19:39:50Z</time>
      </trkpt>
      <trkpt lat="48.81594" lon="2.45976">
        <ele>49.400001525879</ele>
        <time>2015-10-19T19:39:54Z</time>
      </trkpt>
      <trkpt lat="48.816" lon="2.45955">
        <ele>49</ele>
        <time>2015-10-19T19:39:57Z</time>
      </trkpt>
      <trkpt lat="48.81606" lon="2.45927">
        <ele>49.400001525879</ele>
        <time>2015-10-19T19:40:01Z</time>
      </trkpt>
      <trkpt lat="48.81608" lon="2.4592">
        <ele>49.400001525879</ele>
        <time>2015-10-19T19:40:02Z</time>
      </trkpt>
      <trkpt lat="48.81615" lon="2.45889">
        <ele>49.400001525879</ele>
        <time>2015-10-19T19:40:06Z</time>
      </trkpt>
      <trkpt lat="48.81622" lon="2.45861">
        <ele>49.20000076294</ele>
        <time>2015-10-19T19:40:10Z</time>
      </trkpt>
      <trkpt lat="48.81623" lon="2.4584">
        <ele>47.400001525879</ele>
        <time>2015-10-19T19:40:14Z</time>
      </trkpt>
      <trkpt lat="48.81626" lon="2.45826">
        <ele>47.599998474121</ele>
        <time>2015-10-19T19:40:17Z</time>
      </trkpt>
      <trkpt lat="48.8163" lon="2.45804">
        <ele>48.20000076294</ele>
        <time>2015-10-19T19:40:21Z</time>
      </trkpt>
      <trkpt lat="48.81636" lon="2.45779">
        <ele>50</ele>
        <time>2015-10-19T19:40:25Z</time>
      </trkpt>
      <trkpt lat="48.8164" lon="2.45766">
        <ele>51.20000076294</ele>
        <time>2015-10-19T19:40:27Z</time>
      </trkpt>
      <trkpt lat="48.81648" lon="2.45736">
        <ele>52.20000076294</ele>
        <time>2015-10-19T19:40:31Z</time>
      </trkpt>
      <trkpt lat="48.81654" lon="2.45707">
        <ele>49.79999923706</ele>
        <time>2015-10-19T19:40:35Z</time>
      </trkpt>
      <trkpt lat="48.81657" lon="2.45694">
        <ele>49.20000076294</ele>
        <time>2015-10-19T19:40:37Z</time>
      </trkpt>
      <trkpt lat="48.81663" lon="2.45677">
        <ele>49</ele>
        <time>2015-10-19T19:40:40Z</time>
      </trkpt>
      <trkpt lat="48.81666" lon="2.4566">
        <ele>50.79999923706</ele>
        <time>2015-10-19T19:40:43Z</time>
      </trkpt>
      <trkpt lat="48.81671" lon="2.45637">
        <ele>53</ele>
        <time>2015-10-19T19:40:47Z</time>
      </trkpt>
      <trkpt lat="48.81675" lon="2.45606">
        <ele>43.20000076294</ele>
        <time>2015-10-19T19:40:52Z</time>
      </trkpt>
      <trkpt lat="48.81681" lon="2.45574">
        <ele>41.20000076294</ele>
        <time>2015-10-19T19:40:57Z</time>
      </trkpt>
      <trkpt lat="48.81686" lon="2.45555">
        <ele>40.599998474121</ele>
        <time>2015-10-19T19:41:00Z</time>
      </trkpt>
      <trkpt lat="48.81693" lon="2.45529">
        <ele>39.400001525879</ele>
        <time>2015-10-19T19:41:04Z</time>
      </trkpt>
      <trkpt lat="48.81694" lon="2.45522">
        <ele>39</ele>
        <time>2015-10-19T19:41:05Z</time>
      </trkpt>
      <trkpt lat="48.81699" lon="2.45494">
        <ele>36.400001525879</ele>
        <time>2015-10-19T19:41:09Z</time>
      </trkpt>
      <trkpt lat="48.81703" lon="2.45465">
        <ele>34.20000076294</ele>
        <time>2015-10-19T19:41:15Z</time>
      </trkpt>
      <trkpt lat="48.81703" lon="2.45456">
        <ele>33.20000076294</ele>
        <time>2015-10-19T19:41:18Z</time>
      </trkpt>
      <trkpt lat="48.81695" lon="2.454">
        <ele>30.200000762939</ele>
        <time>2015-10-19T19:41:28Z</time>
      </trkpt>
      <trkpt lat="48.81703" lon="2.45372">
        <ele>29.39999961853</ele>
        <time>2015-10-19T19:41:31Z</time>
      </trkpt>
      <trkpt lat="48.81716" lon="2.45331">
        <ele>28</ele>
        <time>2015-10-19T19:41:35Z</time>
      </trkpt>
      <trkpt lat="48.81726" lon="2.45311">
        <ele>26.60000038147</ele>
        <time>2015-10-19T19:41:40Z</time>
      </trkpt>
      <trkpt lat="48.81731" lon="2.45315">
        <ele>25.60000038147</ele>
        <time>2015-10-19T19:41:44Z</time>
      </trkpt>
      <trkpt lat="48.81736" lon="2.45322">
        <ele>25.39999961853</ele>
        <time>2015-10-19T19:41:48Z</time>
      </trkpt>
      <trkpt lat="48.81741" lon="2.45334">
        <ele>25.39999961853</ele>
        <time>2015-10-19T19:41:55Z</time>
      </trkpt>
      <trkpt lat="48.81754" lon="2.45319">
        <ele>24.39999961853</ele>
        <time>2015-10-19T19:42:18Z</time>
      </trkpt>
      <trkpt lat="48.81764" lon="2.45293">
        <ele>24</ele>
        <time>2015-10-19T19:42:26Z</time>
      </trkpt>
      <trkpt lat="48.81771" lon="2.45264">
        <ele>22.39999961853</ele>
        <time>2015-10-19T19:42:35Z</time>
      </trkpt>
      <trkpt lat="48.81778" lon="2.45238">
        <ele>22.799999237061</ele>
        <time>2015-10-19T19:42:43Z</time>
      </trkpt>
      <trkpt lat="48.81786" lon="2.4521">
        <ele>23.39999961853</ele>
        <time>2015-10-19T19:42:51Z</time>
      </trkpt>
      <trkpt lat="48.81791" lon="2.45182">
        <ele>25</ele>
        <time>2015-10-19T19:42:58Z</time>
      </trkpt>
      <trkpt lat="48.81797" lon="2.45156">
        <ele>27.200000762939</ele>
        <time>2015-10-19T19:43:05Z</time>
      </trkpt>
      <trkpt lat="48.81804" lon="2.4513">
        <ele>30</ele>
        <time>2015-10-19T19:43:12Z</time>
      </trkpt>
      <trkpt lat="48.81812" lon="2.45103">
        <ele>33.599998474121</ele>
        <time>2015-10-19T19:43:19Z</time>
      </trkpt>
      <trkpt lat="48.81817" lon="2.45075">
        <ele>38.599998474121</ele>
        <time>2015-10-19T19:43:27Z</time>
      </trkpt>
      <trkpt lat="48.8182" lon="2.45047">
        <ele>41.79999923706</ele>
        <time>2015-10-19T19:43:37Z</time>
      </trkpt>
      <trkpt lat="48.81825" lon="2.4503">
        <ele>44.400001525879</ele>
        <time>2015-10-19T19:43:46Z</time>
      </trkpt>
      <trkpt lat="48.81829" lon="2.45015">
        <ele>42.79999923706</ele>
        <time>2015-10-19T19:44:43Z</time>
      </trkpt>
      <trkpt lat="48.81833" lon="2.44987">
        <ele>42.400001525879</ele>
        <time>2015-10-19T19:44:55Z</time>
      </trkpt>
      <trkpt lat="48.81834" lon="2.44956">
        <ele>42.599998474121</ele>
        <time>2015-10-19T19:45:05Z</time>
      </trkpt>
      <trkpt lat="48.81837" lon="2.44928">
        <ele>43</ele>
        <time>2015-10-19T19:45:14Z</time>
      </trkpt>
      <trkpt lat="48.81841" lon="2.449">
        <ele>43.599998474121</ele>
        <time>2015-10-19T19:45:22Z</time>
      </trkpt>
      <trkpt lat="48.81842" lon="2.44873">
        <ele>45</ele>
        <time>2015-10-19T19:45:33Z</time>
      </trkpt>
      <trkpt lat="48.81844" lon="2.44842">
        <ele>46.20000076294</ele>
        <time>2015-10-19T19:45:43Z</time>
      </trkpt>
      <trkpt lat="48.81845" lon="2.44814">
        <ele>47.20000076294</ele>
        <time>2015-10-19T19:45:52Z</time>
      </trkpt>
      <trkpt lat="48.81847" lon="2.44785">
        <ele>47.79999923706</ele>
        <time>2015-10-19T19:46:02Z</time>
      </trkpt>
      <trkpt lat="48.81849" lon="2.44757">
        <ele>50.599998474121</ele>
        <time>2015-10-19T19:46:10Z</time>
      </trkpt>
      <trkpt lat="48.81851" lon="2.44728">
        <ele>53.20000076294</ele>
        <time>2015-10-19T19:46:18Z</time>
      </trkpt>
      <trkpt lat="48.81852" lon="2.447">
        <ele>55.79999923706</ele>
        <time>2015-10-19T19:46:26Z</time>
      </trkpt>
      <trkpt lat="48.81854" lon="2.4467">
        <ele>59.20000076294</ele>
        <time>2015-10-19T19:46:35Z</time>
      </trkpt>
      <trkpt lat="48.81859" lon="2.44643">
        <ele>63.400001525879</ele>
        <time>2015-10-19T19:46:45Z</time>
      </trkpt>
      <trkpt lat="48.81862" lon="2.44615">
        <ele>64.800003051758</ele>
        <time>2015-10-19T19:46:55Z</time>
      </trkpt>
      <trkpt lat="48.81869" lon="2.44588">
        <ele>65.400001525879</ele>
        <time>2015-10-19T19:47:05Z</time>
      </trkpt>
      <trkpt lat="48.81866" lon="2.44578">
        <ele>63.79999923706</ele>
        <time>2015-10-19T19:47:13Z</time>
      </trkpt>
      <trkpt lat="48.8187" lon="2.44558">
        <ele>60.79999923706</ele>
        <time>2015-10-19T19:47:43Z</time>
      </trkpt>
      <trkpt lat="48.81869" lon="2.44529">
        <ele>60</ele>
        <time>2015-10-19T19:47:50Z</time>
      </trkpt>
      <trkpt lat="48.81867" lon="2.44502">
        <ele>60</ele>
        <time>2015-10-19T19:47:57Z</time>
      </trkpt>
      <trkpt lat="48.81866" lon="2.44472">
        <ele>60.400001525879</ele>
        <time>2015-10-19T19:48:04Z</time>
      </trkpt>
      <trkpt lat="48.81867" lon="2.44439">
        <ele>61.599998474121</ele>
        <time>2015-10-19T19:48:09Z</time>
      </trkpt>
      <trkpt lat="48.81867" lon="2.44407">
        <ele>61.400001525879</ele>
        <time>2015-10-19T19:48:14Z</time>
      </trkpt>
      <trkpt lat="48.81867" lon="2.44375">
        <ele>61.79999923706</ele>
        <time>2015-10-19T19:48:19Z</time>
      </trkpt>
      <trkpt lat="48.81867" lon="2.44346">
        <ele>62</ele>
        <time>2015-10-19T19:48:24Z</time>
      </trkpt>
      <trkpt lat="48.81864" lon="2.44315">
        <ele>61.400001525879</ele>
        <time>2015-10-19T19:48:30Z</time>
      </trkpt>
      <trkpt lat="48.81865" lon="2.44311">
        <ele>61.400001525879</ele>
        <time>2015-10-19T19:48:31Z</time>
      </trkpt>
      <trkpt lat="48.81876" lon="2.44318">
        <ele>60.79999923706</ele>
        <time>2015-10-19T19:48:39Z</time>
      </trkpt>
      <trkpt lat="48.8189" lon="2.4434">
        <ele>59</ele>
        <time>2015-10-19T19:48:46Z</time>
      </trkpt>
      <trkpt lat="48.81902" lon="2.44361">
        <ele>57.599998474121</ele>
        <time>2015-10-19T19:48:52Z</time>
      </trkpt>
      <trkpt lat="48.81916" lon="2.44381">
        <ele>59.599998474121</ele>
        <time>2015-10-19T19:48:59Z</time>
      </trkpt>
      <trkpt lat="48.81929" lon="2.44398">
        <ele>59.599998474121</ele>
        <time>2015-10-19T19:49:05Z</time>
      </trkpt>
      <trkpt lat="48.81945" lon="2.44414">
        <ele>62.400001525879</ele>
        <time>2015-10-19T19:49:11Z</time>
      </trkpt>
      <trkpt lat="48.81962" lon="2.44431">
        <ele>65.599998474121</ele>
        <time>2015-10-19T19:49:17Z</time>
      </trkpt>
      <trkpt lat="48.81979" lon="2.44448">
        <ele>69.199996948242</ele>
        <time>2015-10-19T19:49:23Z</time>
      </trkpt>
      <trkpt lat="48.81995" lon="2.44467">
        <ele>73.199996948242</ele>
        <time>2015-10-19T19:49:28Z</time>
      </trkpt>
      <trkpt lat="48.82013" lon="2.44486">
        <ele>74.199996948242</ele>
        <time>2015-10-19T19:49:33Z</time>
      </trkpt>
      <trkpt lat="48.82028" lon="2.44501">
        <ele>73.800003051758</ele>
        <time>2015-10-19T19:49:37Z</time>
      </trkpt>
      <trkpt lat="48.82047" lon="2.44517">
        <ele>75.199996948242</ele>
        <time>2015-10-19T19:49:43Z</time>
      </trkpt>
      <trkpt lat="48.82066" lon="2.44533">
        <ele>73.400001525879</ele>
        <time>2015-10-19T19:49:49Z</time>
      </trkpt>
      <trkpt lat="48.82086" lon="2.44547">
        <ele>71.400001525879</ele>
        <time>2015-10-19T19:49:55Z</time>
      </trkpt>
      <trkpt lat="48.82103" lon="2.44558">
        <ele>68.599998474121</ele>
        <time>2015-10-19T19:50:00Z</time>
      </trkpt>
      <trkpt lat="48.82121" lon="2.44568">
        <ele>66.599998474121</ele>
        <time>2015-10-19T19:50:05Z</time>
      </trkpt>
      <trkpt lat="48.8214" lon="2.44574">
        <ele>65.199996948242</ele>
        <time>2015-10-19T19:50:11Z</time>
      </trkpt>
      <trkpt lat="48.8216" lon="2.44582">
        <ele>62.599998474121</ele>
        <time>2015-10-19T19:50:17Z</time>
      </trkpt>
      <trkpt lat="48.82178" lon="2.44586">
        <ele>60.79999923706</ele>
        <time>2015-10-19T19:50:22Z</time>
      </trkpt>
      <trkpt lat="48.822" lon="2.44586">
        <ele>61.400001525879</ele>
        <time>2015-10-19T19:50:28Z</time>
      </trkpt>
      <trkpt lat="48.82219" lon="2.44586">
        <ele>62.20000076294</ele>
        <time>2015-10-19T19:50:33Z</time>
      </trkpt>
      <trkpt lat="48.8224" lon="2.44586">
        <ele>63.20000076294</ele>
        <time>2015-10-19T19:50:39Z</time>
      </trkpt>
      <trkpt lat="48.82262" lon="2.44587">
        <ele>63.20000076294</ele>
        <time>2015-10-19T19:50:45Z</time>
      </trkpt>
      <trkpt lat="48.8228" lon="2.4459">
        <ele>70.400001525879</ele>
        <time>2015-10-19T19:50:50Z</time>
      </trkpt>
      <trkpt lat="48.82299" lon="2.44598">
        <ele>61</ele>
        <time>2015-10-19T19:50:54Z</time>
      </trkpt>
      <trkpt lat="48.82319" lon="2.44603">
        <ele>58.20000076294</ele>
        <time>2015-10-19T19:50:59Z</time>
      </trkpt>
      <trkpt lat="48.8234" lon="2.44605">
        <ele>56.79999923706</ele>
        <time>2015-10-19T19:51:05Z</time>
      </trkpt>
      <trkpt lat="48.82361" lon="2.44606">
        <ele>55.79999923706</ele>
        <time>2015-10-19T19:51:10Z</time>
      </trkpt>
      <trkpt lat="48.82381" lon="2.44609">
        <ele>52.400001525879</ele>
        <time>2015-10-19T19:51:15Z</time>
      </trkpt>
      <trkpt lat="48.824" lon="2.4461">
        <ele>51.20000076294</ele>
        <time>2015-10-19T19:51:20Z</time>
      </trkpt>
      <trkpt lat="48.82419" lon="2.44612">
        <ele>51.20000076294</ele>
        <time>2015-10-19T19:51:24Z</time>
      </trkpt>
      <trkpt lat="48.82439" lon="2.44615">
        <ele>49</ele>
        <time>2015-10-19T19:51:29Z</time>
      </trkpt>
      <trkpt lat="48.8246" lon="2.44615">
        <ele>50.20000076294</ele>
        <time>2015-10-19T19:51:35Z</time>
      </trkpt>
      <trkpt lat="48.8248" lon="2.44611">
        <ele>53.20000076294</ele>
        <time>2015-10-19T19:51:40Z</time>
      </trkpt>
      <trkpt lat="48.825" lon="2.44613">
        <ele>45.599998474121</ele>
        <time>2015-10-19T19:51:44Z</time>
      </trkpt>
      <trkpt lat="48.82519" lon="2.44614">
        <ele>44</ele>
        <time>2015-10-19T19:51:49Z</time>
      </trkpt>
      <trkpt lat="48.82539" lon="2.44614">
        <ele>45.79999923706</ele>
        <time>2015-10-19T19:51:55Z</time>
      </trkpt>
      <trkpt lat="48.82557" lon="2.44616">
        <ele>49.400001525879</ele>
        <time>2015-10-19T19:52:00Z</time>
      </trkpt>
      <trkpt lat="48.82578" lon="2.44616">
        <ele>49.79999923706</ele>
        <time>2015-10-19T19:52:05Z</time>
      </trkpt>
      <trkpt lat="48.82598" lon="2.44616">
        <ele>50.20000076294</ele>
        <time>2015-10-19T19:52:10Z</time>
      </trkpt>
      <trkpt lat="48.82617" lon="2.44614">
        <ele>55.20000076294</ele>
        <time>2015-10-19T19:52:15Z</time>
      </trkpt>
      <trkpt lat="48.82634" lon="2.44611">
        <ele>58</ele>
        <time>2015-10-19T19:52:20Z</time>
      </trkpt>
      <trkpt lat="48.82654" lon="2.44612">
        <ele>62.400001525879</ele>
        <time>2015-10-19T19:52:25Z</time>
      </trkpt>
      <trkpt lat="48.82673" lon="2.44613">
        <ele>64.199996948242</ele>
        <time>2015-10-19T19:52:30Z</time>
      </trkpt>
      <trkpt lat="48.82692" lon="2.44616">
        <ele>65.199996948242</ele>
        <time>2015-10-19T19:52:35Z</time>
      </trkpt>
      <trkpt lat="48.82712" lon="2.44621">
        <ele>66.800003051758</ele>
        <time>2015-10-19T19:52:40Z</time>
      </trkpt>
      <trkpt lat="48.82731" lon="2.44634">
        <ele>58</ele>
        <time>2015-10-19T19:52:44Z</time>
      </trkpt>
      <trkpt lat="48.82749" lon="2.44649">
        <ele>50.400001525879</ele>
        <time>2015-10-19T19:53:00Z</time>
      </trkpt>
      <trkpt lat="48.82748" lon="2.44661">
        <ele>51</ele>
        <time>2015-10-19T19:53:31Z</time>
      </trkpt>
      <trkpt lat="48.82745" lon="2.44689">
        <ele>51</ele>
        <time>2015-10-19T19:53:37Z</time>
      </trkpt>
      <trkpt lat="48.82744" lon="2.44718">
        <ele>51.400001525879</ele>
        <time>2015-10-19T19:53:42Z</time>
      </trkpt>
      <trkpt lat="48.82741" lon="2.44749">
        <ele>51.400001525879</ele>
        <time>2015-10-19T19:53:47Z</time>
      </trkpt>
      <trkpt lat="48.82739" lon="2.44782">
        <ele>52</ele>
        <time>2015-10-19T19:53:52Z</time>
      </trkpt>
      <trkpt lat="48.82737" lon="2.4481">
        <ele>51</ele>
        <time>2015-10-19T19:53:56Z</time>
      </trkpt>
      <trkpt lat="48.82734" lon="2.4484">
        <ele>50.599998474121</ele>
        <time>2015-10-19T19:54:00Z</time>
      </trkpt>
      <trkpt lat="48.82731" lon="2.44871">
        <ele>48.400001525879</ele>
        <time>2015-10-19T19:54:04Z</time>
      </trkpt>
      <trkpt lat="48.8273" lon="2.44907">
        <ele>46.400001525879</ele>
        <time>2015-10-19T19:54:08Z</time>
      </trkpt>
      <trkpt lat="48.8273" lon="2.44942">
        <ele>44.400001525879</ele>
        <time>2015-10-19T19:54:12Z</time>
      </trkpt>
      <trkpt lat="48.82729" lon="2.4496">
        <ele>43.400001525879</ele>
        <time>2015-10-19T19:54:14Z</time>
      </trkpt>
      <trkpt lat="48.82727" lon="2.44988">
        <ele>42.599998474121</ele>
        <time>2015-10-19T19:54:17Z</time>
      </trkpt>
      <trkpt lat="48.82726" lon="2.45016">
        <ele>41.400001525879</ele>
        <time>2015-10-19T19:54:20Z</time>
      </trkpt>
      <trkpt lat="48.82726" lon="2.45042">
        <ele>40.400001525879</ele>
        <time>2015-10-19T19:54:23Z</time>
      </trkpt>
      <trkpt lat="48.82723" lon="2.45076">
        <ele>41</ele>
        <time>2015-10-19T19:54:27Z</time>
      </trkpt>
      <trkpt lat="48.82721" lon="2.4511">
        <ele>40.79999923706</ele>
        <time>2015-10-19T19:54:31Z</time>
      </trkpt>
      <trkpt lat="48.82721" lon="2.45144">
        <ele>41.400001525879</ele>
        <time>2015-10-19T19:54:35Z</time>
      </trkpt>
      <trkpt lat="48.82718" lon="2.45177">
        <ele>41.400001525879</ele>
        <time>2015-10-19T19:54:39Z</time>
      </trkpt>
      <trkpt lat="48.82718" lon="2.4521">
        <ele>42.400001525879</ele>
        <time>2015-10-19T19:54:43Z</time>
      </trkpt>
      <trkpt lat="48.82716" lon="2.45242">
        <ele>43.20000076294</ele>
        <time>2015-10-19T19:54:47Z</time>
      </trkpt>
      <trkpt lat="48.82715" lon="2.45274">
        <ele>45.400001525879</ele>
        <time>2015-10-19T19:54:51Z</time>
      </trkpt>
      <trkpt lat="48.82713" lon="2.45305">
        <ele>48.400001525879</ele>
        <time>2015-10-19T19:54:55Z</time>
      </trkpt>
      <trkpt lat="48.82712" lon="2.45312">
        <ele>48.79999923706</ele>
        <time>2015-10-19T19:54:56Z</time>
      </trkpt>
      <trkpt lat="48.82711" lon="2.4534">
        <ele>51</ele>
        <time>2015-10-19T19:55:00Z</time>
      </trkpt>
      <trkpt lat="48.8271" lon="2.45373">
        <ele>52.79999923706</ele>
        <time>2015-10-19T19:55:05Z</time>
      </trkpt>
      <trkpt lat="48.82709" lon="2.45379">
        <ele>53</ele>
        <time>2015-10-19T19:55:06Z</time>
      </trkpt>
      <trkpt lat="48.82707" lon="2.45405">
        <ele>53.400001525879</ele>
        <time>2015-10-19T19:55:11Z</time>
      </trkpt>
      <trkpt lat="48.827" lon="2.45424">
        <ele>55.20000076294</ele>
        <time>2015-10-19T19:55:17Z</time>
      </trkpt>
      <trkpt lat="48.82692" lon="2.45447">
        <ele>56.599998474121</ele>
        <time>2015-10-19T19:55:23Z</time>
      </trkpt>
      <trkpt lat="48.82693" lon="2.45463">
        <ele>57.20000076294</ele>
        <time>2015-10-19T19:55:29Z</time>
      </trkpt>
      <trkpt lat="48.82695" lon="2.45465">
        <ele>57</ele>
        <time>2015-10-19T19:55:30Z</time>
      </trkpt>
      <trkpt lat="48.82699" lon="2.45469">
        <ele>57</ele>
        <time>2015-10-19T19:55:32Z</time>
      </trkpt>
      <trkpt lat="48.82708" lon="2.45469">
        <ele>56.400001525879</ele>
        <time>2015-10-19T19:55:36Z</time>
      </trkpt>
      <trkpt lat="48.82723" lon="2.45451">
        <ele>56.79999923706</ele>
        <time>2015-10-19T19:55:47Z</time>
      </trkpt>
      <trkpt lat="48.82723" lon="2.45447">
        <ele>55.79999923706</ele>
        <time>2015-10-19T19:55:49Z</time>
      </trkpt>
      <trkpt lat="48.82723" lon="2.45441">
        <ele>54.20000076294</ele>
        <time>2015-10-19T19:55:53Z</time>
      </trkpt>
      <trkpt lat="48.82726" lon="2.45431">
        <ele>53</ele>
        <time>2015-10-19T19:56:02Z</time>
      </trkpt>
      <trkpt lat="48.82728" lon="2.45422">
        <ele>53</ele>
        <time>2015-10-19T19:56:09Z</time>
      </trkpt>
      <trkpt lat="48.82743" lon="2.45402">
        <ele>53.400001525879</ele>
        <time>2015-10-19T19:56:15Z</time>
      </trkpt>
      <trkpt lat="48.82759" lon="2.45382">
        <ele>53.599998474121</ele>
        <time>2015-10-19T19:56:20Z</time>
      </trkpt>
      <trkpt lat="48.82773" lon="2.45363">
        <ele>53.599998474121</ele>
        <time>2015-10-19T19:56:24Z</time>
      </trkpt>
      <trkpt lat="48.8279" lon="2.45341">
        <ele>52.79999923706</ele>
        <time>2015-10-19T19:56:29Z</time>
      </trkpt>
      <trkpt lat="48.82804" lon="2.45322">
        <ele>52.79999923706</ele>
        <time>2015-10-19T19:56:33Z</time>
      </trkpt>
      <trkpt lat="48.82818" lon="2.45304">
        <ele>51.79999923706</ele>
        <time>2015-10-19T19:56:37Z</time>
      </trkpt>
      <trkpt lat="48.82831" lon="2.45285">
        <ele>52.400001525879</ele>
        <time>2015-10-19T19:56:41Z</time>
      </trkpt>
      <trkpt lat="48.82844" lon="2.45265">
        <ele>53.20000076294</ele>
        <time>2015-10-19T19:56:45Z</time>
      </trkpt>
      <trkpt lat="48.82858" lon="2.45243">
        <ele>53.400001525879</ele>
        <time>2015-10-19T19:56:49Z</time>
      </trkpt>
      <trkpt lat="48.82873" lon="2.45224">
        <ele>52.79999923706</ele>
        <time>2015-10-19T19:56:53Z</time>
      </trkpt>
      <trkpt lat="48.82877" lon="2.45219">
        <ele>52.599998474121</ele>
        <time>2015-10-19T19:56:54Z</time>
      </trkpt>
      <trkpt lat="48.82891" lon="2.45198">
        <ele>51.599998474121</ele>
        <time>2015-10-19T19:56:58Z</time>
      </trkpt>
      <trkpt lat="48.82906" lon="2.45177">
        <ele>50.599998474121</ele>
        <time>2015-10-19T19:57:02Z</time>
      </trkpt>
      <trkpt lat="48.8292" lon="2.45158">
        <ele>49.400001525879</ele>
        <time>2015-10-19T19:57:06Z</time>
      </trkpt>
      <trkpt lat="48.82933" lon="2.45138">
        <ele>49</ele>
        <time>2015-10-19T19:57:10Z</time>
      </trkpt>
      <trkpt lat="48.82949" lon="2.4512">
        <ele>47.79999923706</ele>
        <time>2015-10-19T19:57:14Z</time>
      </trkpt>
      <trkpt lat="48.82964" lon="2.451">
        <ele>46.400001525879</ele>
        <time>2015-10-19T19:57:18Z</time>
      </trkpt>
      <trkpt lat="48.82975" lon="2.45086">
        <ele>44.400001525879</ele>
        <time>2015-10-19T19:57:21Z</time>
      </trkpt>
      <trkpt lat="48.8299" lon="2.45069">
        <ele>43</ele>
        <time>2015-10-19T19:57:25Z</time>
      </trkpt>
      <trkpt lat="48.83005" lon="2.45051">
        <ele>42.20000076294</ele>
        <time>2015-10-19T19:57:29Z</time>
      </trkpt>
      <trkpt lat="48.83019" lon="2.45033">
        <ele>40.79999923706</ele>
        <time>2015-10-19T19:57:33Z</time>
      </trkpt>
      <trkpt lat="48.83035" lon="2.45015">
        <ele>39.599998474121</ele>
        <time>2015-10-19T19:57:37Z</time>
      </trkpt>
      <trkpt lat="48.83051" lon="2.44998">
        <ele>38.599998474121</ele>
        <time>2015-10-19T19:57:41Z</time>
      </trkpt>
      <trkpt lat="48.83065" lon="2.44978">
        <ele>38.599998474121</ele>
        <time>2015-10-19T19:57:45Z</time>
      </trkpt>
      <trkpt lat="48.8308" lon="2.44959">
        <ele>38.79999923706</ele>
        <time>2015-10-19T19:57:49Z</time>
      </trkpt>
      <trkpt lat="48.83095" lon="2.44939">
        <ele>38.599998474121</ele>
        <time>2015-10-19T19:57:53Z</time>
      </trkpt>
      <trkpt lat="48.8311" lon="2.4492">
        <ele>38</ele>
        <time>2015-10-19T19:57:57Z</time>
      </trkpt>
      <trkpt lat="48.83124" lon="2.44901">
        <ele>38.20000076294</ele>
        <time>2015-10-19T19:58:01Z</time>
      </trkpt>
      <trkpt lat="48.83139" lon="2.44881">
        <ele>37.400001525879</ele>
        <time>2015-10-19T19:58:05Z</time>
      </trkpt>
      <trkpt lat="48.83155" lon="2.4486">
        <ele>36</ele>
        <time>2015-10-19T19:58:09Z</time>
      </trkpt>
      <trkpt lat="48.83171" lon="2.4484">
        <ele>35</ele>
        <time>2015-10-19T19:58:13Z</time>
      </trkpt>
      <trkpt lat="48.83187" lon="2.44819">
        <ele>34.20000076294</ele>
        <time>2015-10-19T19:58:17Z</time>
      </trkpt>
      <trkpt lat="48.83203" lon="2.44799">
        <ele>33</ele>
        <time>2015-10-19T19:58:21Z</time>
      </trkpt>
      <trkpt lat="48.83218" lon="2.44777">
        <ele>34.599998474121</ele>
        <time>2015-10-19T19:58:25Z</time>
      </trkpt>
      <trkpt lat="48.83233" lon="2.44754">
        <ele>37.20000076294</ele>
        <time>2015-10-19T19:58:29Z</time>
      </trkpt>
      <trkpt lat="48.83249" lon="2.44731">
        <ele>39.20000076294</ele>
        <time>2015-10-19T19:58:33Z</time>
      </trkpt>
      <trkpt lat="48.83265" lon="2.44707">
        <ele>39.79999923706</ele>
        <time>2015-10-19T19:58:37Z</time>
      </trkpt>
      <trkpt lat="48.83273" lon="2.44695">
        <ele>40.20000076294</ele>
        <time>2015-10-19T19:58:39Z</time>
      </trkpt>
      <trkpt lat="48.83288" lon="2.44669">
        <ele>40.400001525879</ele>
        <time>2015-10-19T19:58:43Z</time>
      </trkpt>
      <trkpt lat="48.83304" lon="2.44644">
        <ele>39.79999923706</ele>
        <time>2015-10-19T19:58:47Z</time>
      </trkpt>
      <trkpt lat="48.8332" lon="2.44618">
        <ele>40.20000076294</ele>
        <time>2015-10-19T19:58:51Z</time>
      </trkpt>
      <trkpt lat="48.83336" lon="2.44591">
        <ele>40</ele>
        <time>2015-10-19T19:58:55Z</time>
      </trkpt>
      <trkpt lat="48.83351" lon="2.44566">
        <ele>39.400001525879</ele>
        <time>2015-10-19T19:58:59Z</time>
      </trkpt>
      <trkpt lat="48.83366" lon="2.44544">
        <ele>39.20000076294</ele>
        <time>2015-10-19T19:59:03Z</time>
      </trkpt>
      <trkpt lat="48.83381" lon="2.44523">
        <ele>38.599998474121</ele>
        <time>2015-10-19T19:59:07Z</time>
      </trkpt>
      <trkpt lat="48.83396" lon="2.44502">
        <ele>39.400001525879</ele>
        <time>2015-10-19T19:59:11Z</time>
      </trkpt>
      <trkpt lat="48.83411" lon="2.44483">
        <ele>39</ele>
        <time>2015-10-19T19:59:15Z</time>
      </trkpt>
      <trkpt lat="48.83426" lon="2.44463">
        <ele>39</ele>
        <time>2015-10-19T19:59:19Z</time>
      </trkpt>
      <trkpt lat="48.83442" lon="2.44442">
        <ele>39</ele>
        <time>2015-10-19T19:59:23Z</time>
      </trkpt>
      <trkpt lat="48.83458" lon="2.44423">
        <ele>40</ele>
        <time>2015-10-19T19:59:27Z</time>
      </trkpt>
      <trkpt lat="48.83473" lon="2.44403">
        <ele>40.599998474121</ele>
        <time>2015-10-19T19:59:31Z</time>
      </trkpt>
      <trkpt lat="48.83489" lon="2.44383">
        <ele>40.400001525879</ele>
        <time>2015-10-19T19:59:35Z</time>
      </trkpt>
      <trkpt lat="48.83504" lon="2.44362">
        <ele>41.20000076294</ele>
        <time>2015-10-19T19:59:39Z</time>
      </trkpt>
      <trkpt lat="48.83519" lon="2.44342">
        <ele>42.20000076294</ele>
        <time>2015-10-19T19:59:43Z</time>
      </trkpt>
      <trkpt lat="48.83534" lon="2.44321">
        <ele>42.599998474121</ele>
        <time>2015-10-19T19:59:47Z</time>
      </trkpt>
      <trkpt lat="48.83549" lon="2.443">
        <ele>43</ele>
        <time>2015-10-19T19:59:51Z</time>
      </trkpt>
      <trkpt lat="48.83565" lon="2.4428">
        <ele>43</ele>
        <time>2015-10-19T19:59:55Z</time>
      </trkpt>
      <trkpt lat="48.83581" lon="2.44259">
        <ele>42.79999923706</ele>
        <time>2015-10-19T19:59:59Z</time>
      </trkpt>
      <trkpt lat="48.83597" lon="2.44236">
        <ele>43.599998474121</ele>
        <time>2015-10-19T20:00:03Z</time>
      </trkpt>
      <trkpt lat="48.83613" lon="2.44214">
        <ele>43.79999923706</ele>
        <time>2015-10-19T20:00:07Z</time>
      </trkpt>
      <trkpt lat="48.83629" lon="2.44194">
        <ele>42.599998474121</ele>
        <time>2015-10-19T20:00:11Z</time>
      </trkpt>
      <trkpt lat="48.83645" lon="2.44173">
        <ele>40.79999923706</ele>
        <time>2015-10-19T20:00:15Z</time>
      </trkpt>
      <trkpt lat="48.8366" lon="2.44153">
        <ele>39.400001525879</ele>
        <time>2015-10-19T20:00:19Z</time>
      </trkpt>
      <trkpt lat="48.83675" lon="2.44134">
        <ele>38.400001525879</ele>
        <time>2015-10-19T20:00:23Z</time>
      </trkpt>
      <trkpt lat="48.83691" lon="2.44115">
        <ele>38.599998474121</ele>
        <time>2015-10-19T20:00:27Z</time>
      </trkpt>
      <trkpt lat="48.83706" lon="2.44096">
        <ele>37.599998474121</ele>
        <time>2015-10-19T20:00:31Z</time>
      </trkpt>
      <trkpt lat="48.83721" lon="2.44076">
        <ele>36.400001525879</ele>
        <time>2015-10-19T20:00:35Z</time>
      </trkpt>
      <trkpt lat="48.83732" lon="2.44062">
        <ele>35.79999923706</ele>
        <time>2015-10-19T20:00:38Z</time>
      </trkpt>
      <trkpt lat="48.83748" lon="2.44039">
        <ele>34.400001525879</ele>
        <time>2015-10-19T20:00:43Z</time>
      </trkpt>
      <trkpt lat="48.83764" lon="2.44017">
        <ele>32.79999923706</ele>
        <time>2015-10-19T20:00:48Z</time>
      </trkpt>
      <trkpt lat="48.83779" lon="2.43994">
        <ele>33.20000076294</ele>
        <time>2015-10-19T20:00:53Z</time>
      </trkpt>
      <trkpt lat="48.83796" lon="2.43971">
        <ele>33.400001525879</ele>
        <time>2015-10-19T20:00:58Z</time>
      </trkpt>
      <trkpt lat="48.83802" lon="2.43962">
        <ele>33.599998474121</ele>
        <time>2015-10-19T20:01:00Z</time>
      </trkpt>
      <trkpt lat="48.83812" lon="2.43949">
        <ele>33.79999923706</ele>
        <time>2015-10-19T20:01:03Z</time>
      </trkpt>
      <trkpt lat="48.83824" lon="2.43933">
        <ele>34.599998474121</ele>
        <time>2015-10-19T20:01:07Z</time>
      </trkpt>
      <trkpt lat="48.83839" lon="2.43911">
        <ele>35</ele>
        <time>2015-10-19T20:01:12Z</time>
      </trkpt>
      <trkpt lat="48.83854" lon="2.43891">
        <ele>34.20000076294</ele>
        <time>2015-10-19T20:01:17Z</time>
      </trkpt>
      <trkpt lat="48.83866" lon="2.43875">
        <ele>34</ele>
        <time>2015-10-19T20:01:21Z</time>
      </trkpt>
      <trkpt lat="48.83882" lon="2.43856">
        <ele>33.79999923706</ele>
        <time>2015-10-19T20:01:26Z</time>
      </trkpt>
      <trkpt lat="48.83888" lon="2.43847">
        <ele>34</ele>
        <time>2015-10-19T20:01:28Z</time>
      </trkpt>
      <trkpt lat="48.83903" lon="2.43826">
        <ele>33.599998474121</ele>
        <time>2015-10-19T20:01:33Z</time>
      </trkpt>
      <trkpt lat="48.83918" lon="2.43805">
        <ele>33.400001525879</ele>
        <time>2015-10-19T20:01:38Z</time>
      </trkpt>
      <trkpt lat="48.83933" lon="2.43785">
        <ele>33.599998474121</ele>
        <time>2015-10-19T20:01:43Z</time>
      </trkpt>
      <trkpt lat="48.83948" lon="2.43765">
        <ele>33.599998474121</ele>
        <time>2015-10-19T20:01:48Z</time>
      </trkpt>
      <trkpt lat="48.83963" lon="2.43745">
        <ele>34.599998474121</ele>
        <time>2015-10-19T20:01:53Z</time>
      </trkpt>
      <trkpt lat="48.8397" lon="2.43734">
        <ele>35.79999923706</ele>
        <time>2015-10-19T20:01:56Z</time>
      </trkpt>
      <trkpt lat="48.8398" lon="2.4372">
        <ele>36</ele>
        <time>2015-10-19T20:02:00Z</time>
      </trkpt>
      <trkpt lat="48.83986" lon="2.43713">
        <ele>35.599998474121</ele>
        <time>2015-10-19T20:02:02Z</time>
      </trkpt>
      <trkpt lat="48.83996" lon="2.43702">
        <ele>35.400001525879</ele>
        <time>2015-10-19T20:02:06Z</time>
      </trkpt>
      <trkpt lat="48.84002" lon="2.43693">
        <ele>35.400001525879</ele>
        <time>2015-10-19T20:02:09Z</time>
      </trkpt>
      <trkpt lat="48.84011" lon="2.4368">
        <ele>36</ele>
        <time>2015-10-19T20:02:15Z</time>
      </trkpt>
      <trkpt lat="48.84013" lon="2.43674">
        <ele>36.20000076294</ele>
        <time>2015-10-19T20:02:18Z</time>
      </trkpt>
      <trkpt lat="48.84015" lon="2.43675">
        <ele>37.400001525879</ele>
        <time>2015-10-19T20:02:22Z</time>
      </trkpt>
      <trkpt lat="48.84021" lon="2.43664">
        <ele>41.400001525879</ele>
        <time>2015-10-19T20:03:33Z</time>
      </trkpt>
      <trkpt lat="48.84041" lon="2.43657">
        <ele>41.79999923706</ele>
        <time>2015-10-19T20:03:49Z</time>
      </trkpt>
      <trkpt lat="48.84058" lon="2.43639">
        <ele>43</ele>
        <time>2015-10-19T20:03:56Z</time>
      </trkpt>
      <trkpt lat="48.8407" lon="2.43618">
        <ele>42.599998474121</ele>
        <time>2015-10-19T20:04:02Z</time>
      </trkpt>
      <trkpt lat="48.84076" lon="2.43589">
        <ele>42.400001525879</ele>
        <time>2015-10-19T20:04:08Z</time>
      </trkpt>
      <trkpt lat="48.84079" lon="2.4356">
        <ele>42.599998474121</ele>
        <time>2015-10-19T20:04:13Z</time>
      </trkpt>
      <trkpt lat="48.84082" lon="2.43529">
        <ele>42.599998474121</ele>
        <time>2015-10-19T20:04:18Z</time>
      </trkpt>
      <trkpt lat="48.84084" lon="2.43495">
        <ele>42.20000076294</ele>
        <time>2015-10-19T20:04:23Z</time>
      </trkpt>
      <trkpt lat="48.84086" lon="2.43467">
        <ele>42</ele>
        <time>2015-10-19T20:04:27Z</time>
      </trkpt>
      <trkpt lat="48.84089" lon="2.43436">
        <ele>41.400001525879</ele>
        <time>2015-10-19T20:04:31Z</time>
      </trkpt>
      <trkpt lat="48.84091" lon="2.43404">
        <ele>41.20000076294</ele>
        <time>2015-10-19T20:04:35Z</time>
      </trkpt>
      <trkpt lat="48.84093" lon="2.43373">
        <ele>41</ele>
        <time>2015-10-19T20:04:39Z</time>
      </trkpt>
      <trkpt lat="48.84094" lon="2.43366">
        <ele>40.79999923706</ele>
        <time>2015-10-19T20:04:40Z</time>
      </trkpt>
      <trkpt lat="48.84105" lon="2.43339">
        <ele>40.599998474121</ele>
        <time>2015-10-19T20:04:45Z</time>
      </trkpt>
      <trkpt lat="48.84109" lon="2.43327">
        <ele>40.400001525879</ele>
        <time>2015-10-19T20:04:47Z</time>
      </trkpt>
      <trkpt lat="48.84111" lon="2.43322">
        <ele>40.20000076294</ele>
        <time>2015-10-19T20:04:48Z</time>
      </trkpt>
      <trkpt lat="48.84117" lon="2.43291">
        <ele>39.79999923706</ele>
        <time>2015-10-19T20:04:53Z</time>
      </trkpt>
      <trkpt lat="48.84118" lon="2.43281">
        <ele>40.400001525879</ele>
        <time>2015-10-19T20:04:55Z</time>
      </trkpt>
      <trkpt lat="48.84121" lon="2.4325">
        <ele>39.79999923706</ele>
        <time>2015-10-19T20:05:01Z</time>
      </trkpt>
      <trkpt lat="48.84123" lon="2.43235">
        <ele>39.400001525879</ele>
        <time>2015-10-19T20:05:04Z</time>
      </trkpt>
      <trkpt lat="48.84124" lon="2.43226">
        <ele>39.79999923706</ele>
        <time>2015-10-19T20:05:06Z</time>
      </trkpt>
      <trkpt lat="48.84126" lon="2.43203">
        <ele>40</ele>
        <time>2015-10-19T20:05:11Z</time>
      </trkpt>
      <trkpt lat="48.84128" lon="2.43171">
        <ele>41.400001525879</ele>
        <time>2015-10-19T20:05:17Z</time>
      </trkpt>
      <trkpt lat="48.8413" lon="2.43142">
        <ele>42.79999923706</ele>
        <time>2015-10-19T20:05:22Z</time>
      </trkpt>
      <trkpt lat="48.8413" lon="2.4311">
        <ele>43.400001525879</ele>
        <time>2015-10-19T20:05:27Z</time>
      </trkpt>
      <trkpt lat="48.84133" lon="2.43078">
        <ele>44.20000076294</ele>
        <time>2015-10-19T20:05:32Z</time>
      </trkpt>
      <trkpt lat="48.84136" lon="2.43045">
        <ele>44.400001525879</ele>
        <time>2015-10-19T20:05:37Z</time>
      </trkpt>
      <trkpt lat="48.84137" lon="2.43018">
        <ele>45.400001525879</ele>
        <time>2015-10-19T20:05:41Z</time>
      </trkpt>
      <trkpt lat="48.84141" lon="2.42988">
        <ele>45.400001525879</ele>
        <time>2015-10-19T20:05:45Z</time>
      </trkpt>
      <trkpt lat="48.84148" lon="2.42953">
        <ele>45.599998474121</ele>
        <time>2015-10-19T20:05:49Z</time>
      </trkpt>
      <trkpt lat="48.84151" lon="2.42921">
        <ele>46.20000076294</ele>
        <time>2015-10-19T20:05:53Z</time>
      </trkpt>
      <trkpt lat="48.84152" lon="2.42889">
        <ele>46.79999923706</ele>
        <time>2015-10-19T20:05:57Z</time>
      </trkpt>
      <trkpt lat="48.84155" lon="2.42859">
        <ele>47</ele>
        <time>2015-10-19T20:06:01Z</time>
      </trkpt>
      <trkpt lat="48.84158" lon="2.42832">
        <ele>47.79999923706</ele>
        <time>2015-10-19T20:06:05Z</time>
      </trkpt>
      <trkpt lat="48.84159" lon="2.42814">
        <ele>48.599998474121</ele>
        <time>2015-10-19T20:06:09Z</time>
      </trkpt>
      <trkpt lat="48.84162" lon="2.42788">
        <ele>49.599998474121</ele>
        <time>2015-10-19T20:06:14Z</time>
      </trkpt>
      <trkpt lat="48.84165" lon="2.42762">
        <ele>50.599998474121</ele>
        <time>2015-10-19T20:06:18Z</time>
      </trkpt>
      <trkpt lat="48.84166" lon="2.42748">
        <ele>51.20000076294</ele>
        <time>2015-10-19T20:06:20Z</time>
      </trkpt>
      <trkpt lat="48.84169" lon="2.42728">
        <ele>52.20000076294</ele>
        <time>2015-10-19T20:06:23Z</time>
      </trkpt>
      <trkpt lat="48.84171" lon="2.42701">
        <ele>54.400001525879</ele>
        <time>2015-10-19T20:06:27Z</time>
      </trkpt>
      <trkpt lat="48.84171" lon="2.42693">
        <ele>54.599998474121</ele>
        <time>2015-10-19T20:06:28Z</time>
      </trkpt>
      <trkpt lat="48.84173" lon="2.42659">
        <ele>56.400001525879</ele>
        <time>2015-10-19T20:06:32Z</time>
      </trkpt>
      <trkpt lat="48.84175" lon="2.42634">
        <ele>57.79999923706</ele>
        <time>2015-10-19T20:06:35Z</time>
      </trkpt>
      <trkpt lat="48.84179" lon="2.42604">
        <ele>59.400001525879</ele>
        <time>2015-10-19T20:06:39Z</time>
      </trkpt>
      <trkpt lat="48.84182" lon="2.42573">
        <ele>61.599998474121</ele>
        <time>2015-10-19T20:06:44Z</time>
      </trkpt>
      <trkpt lat="48.84185" lon="2.42548">
        <ele>61</ele>
        <time>2015-10-19T20:06:48Z</time>
      </trkpt>
      <trkpt lat="48.84187" lon="2.42529">
        <ele>59.20000076294</ele>
        <time>2015-10-19T20:06:51Z</time>
      </trkpt>
      <trkpt lat="48.84189" lon="2.42496">
        <ele>57.400001525879</ele>
        <time>2015-10-19T20:06:56Z</time>
      </trkpt>
      <trkpt lat="48.84192" lon="2.42475">
        <ele>55.599998474121</ele>
        <time>2015-10-19T20:06:59Z</time>
      </trkpt>
      <trkpt lat="48.84198" lon="2.42447">
        <ele>53</ele>
        <time>2015-10-19T20:07:03Z</time>
      </trkpt>
      <trkpt lat="48.84199" lon="2.4244">
        <ele>52.20000076294</ele>
        <time>2015-10-19T20:07:04Z</time>
      </trkpt>
      <trkpt lat="48.84207" lon="2.42415">
        <ele>51</ele>
        <time>2015-10-19T20:07:08Z</time>
      </trkpt>
      <trkpt lat="48.84213" lon="2.42404">
        <ele>50.20000076294</ele>
        <time>2015-10-19T20:07:10Z</time>
      </trkpt>
      <trkpt lat="48.84226" lon="2.42388">
        <ele>47</ele>
        <time>2015-10-19T20:07:13Z</time>
      </trkpt>
      <trkpt lat="48.84242" lon="2.42369">
        <ele>44.599998474121</ele>
        <time>2015-10-19T20:07:17Z</time>
      </trkpt>
      <trkpt lat="48.84251" lon="2.4236">
        <ele>44.400001525879</ele>
        <time>2015-10-19T20:07:19Z</time>
      </trkpt>
      <trkpt lat="48.84268" lon="2.42344">
        <ele>42.79999923706</ele>
        <time>2015-10-19T20:07:24Z</time>
      </trkpt>
      <trkpt lat="48.84283" lon="2.42328">
        <ele>43</ele>
        <time>2015-10-19T20:07:29Z</time>
      </trkpt>
      <trkpt lat="48.8429" lon="2.42303">
        <ele>44.20000076294</ele>
        <time>2015-10-19T20:07:36Z</time>
      </trkpt>
      <trkpt lat="48.8429" lon="2.423">
        <ele>44.20000076294</ele>
        <time>2015-10-19T20:07:37Z</time>
      </trkpt>
      <trkpt lat="48.84292" lon="2.42298">
        <ele>44.20000076294</ele>
        <time>2015-10-19T20:07:38Z</time>
      </trkpt>
      <trkpt lat="48.84304" lon="2.42273">
        <ele>43.599998474121</ele>
        <time>2015-10-19T20:07:44Z</time>
      </trkpt>
      <trkpt lat="48.84312" lon="2.42248">
        <ele>42.400001525879</ele>
        <time>2015-10-19T20:07:50Z</time>
      </trkpt>
      <trkpt lat="48.8432" lon="2.42223">
        <ele>42.79999923706</ele>
        <time>2015-10-19T20:07:56Z</time>
      </trkpt>
      <trkpt lat="48.84326" lon="2.42193">
        <ele>44</ele>
        <time>2015-10-19T20:08:03Z</time>
      </trkpt>
      <trkpt lat="48.84329" lon="2.42165">
        <ele>45.20000076294</ele>
        <time>2015-10-19T20:08:09Z</time>
      </trkpt>
      <trkpt lat="48.8433" lon="2.42135">
        <ele>46.20000076294</ele>
        <time>2015-10-19T20:08:15Z</time>
      </trkpt>
      <trkpt lat="48.84334" lon="2.42108">
        <ele>46.79999923706</ele>
        <time>2015-10-19T20:08:21Z</time>
      </trkpt>
      <trkpt lat="48.84337" lon="2.42079">
        <ele>47.79999923706</ele>
        <time>2015-10-19T20:08:27Z</time>
      </trkpt>
      <trkpt lat="48.8434" lon="2.42048">
        <ele>49.599998474121</ele>
        <time>2015-10-19T20:08:33Z</time>
      </trkpt>
      <trkpt lat="48.84343" lon="2.42016">
        <ele>51.79999923706</ele>
        <time>2015-10-19T20:08:39Z</time>
      </trkpt>
      <trkpt lat="48.8435" lon="2.41994">
        <ele>51</ele>
        <time>2015-10-19T20:08:44Z</time>
      </trkpt>
      <trkpt lat="48.8435" lon="2.41966">
        <ele>48</ele>
        <time>2015-10-19T20:08:57Z</time>
      </trkpt>
      <trkpt lat="48.84353" lon="2.41945">
        <ele>48</ele>
        <time>2015-10-19T20:09:00Z</time>
      </trkpt>
      <trkpt lat="48.84355" lon="2.41916">
        <ele>47.599998474121</ele>
        <time>2015-10-19T20:09:04Z</time>
      </trkpt>
      <trkpt lat="48.8436" lon="2.41889">
        <ele>47.599998474121</ele>
        <time>2015-10-19T20:09:08Z</time>
      </trkpt>
      <trkpt lat="48.84363" lon="2.41869">
        <ele>47.599998474121</ele>
        <time>2015-10-19T20:09:11Z</time>
      </trkpt>
      <trkpt lat="48.84371" lon="2.41841">
        <ele>46.599998474121</ele>
        <time>2015-10-19T20:09:15Z</time>
      </trkpt>
      <trkpt lat="48.84371" lon="2.4181">
        <ele>45</ele>
        <time>2015-10-19T20:09:20Z</time>
      </trkpt>
      <trkpt lat="48.84374" lon="2.41781">
        <ele>45.20000076294</ele>
        <time>2015-10-19T20:09:26Z</time>
      </trkpt>
      <trkpt lat="48.84375" lon="2.41778">
        <ele>45.400001525879</ele>
        <time>2015-10-19T20:09:27Z</time>
      </trkpt>
      <trkpt lat="48.84374" lon="2.41748">
        <ele>44</ele>
        <time>2015-10-19T20:09:44Z</time>
      </trkpt>
      <trkpt lat="48.84374" lon="2.41717">
        <ele>44.79999923706</ele>
        <time>2015-10-19T20:09:50Z</time>
      </trkpt>
      <trkpt lat="48.84378" lon="2.41687">
        <ele>47.20000076294</ele>
        <time>2015-10-19T20:09:55Z</time>
      </trkpt>
      <trkpt lat="48.84381" lon="2.41657">
        <ele>50</ele>
        <time>2015-10-19T20:10:00Z</time>
      </trkpt>
      <trkpt lat="48.84384" lon="2.41626">
        <ele>53.79999923706</ele>
        <time>2015-10-19T20:10:05Z</time>
      </trkpt>
      <trkpt lat="48.8439" lon="2.41594">
        <ele>57.79999923706</ele>
        <time>2015-10-19T20:10:10Z</time>
      </trkpt>
      <trkpt lat="48.84394" lon="2.41565">
        <ele>62.79999923706</ele>
        <time>2015-10-19T20:10:15Z</time>
      </trkpt>
      <trkpt lat="48.844" lon="2.41533">
        <ele>68.199996948242</ele>
        <time>2015-10-19T20:10:20Z</time>
      </trkpt>
      <trkpt lat="48.84404" lon="2.41501">
        <ele>70.599998474121</ele>
        <time>2015-10-19T20:10:25Z</time>
      </trkpt>
      <trkpt lat="48.84399" lon="2.41467">
        <ele>62.20000076294</ele>
        <time>2015-10-19T20:10:30Z</time>
      </trkpt>
      <trkpt lat="48.84401" lon="2.4144">
        <ele>59.79999923706</ele>
        <time>2015-10-19T20:10:34Z</time>
      </trkpt>
      <trkpt lat="48.84401" lon="2.41433">
        <ele>59</ele>
        <time>2015-10-19T20:10:35Z</time>
      </trkpt>
      <trkpt lat="48.84401" lon="2.414">
        <ele>55.599998474121</ele>
        <time>2015-10-19T20:10:40Z</time>
      </trkpt>
      <trkpt lat="48.84404" lon="2.41368">
        <ele>53.400001525879</ele>
        <time>2015-10-19T20:10:45Z</time>
      </trkpt>
      <trkpt lat="48.84407" lon="2.41336">
        <ele>51.599998474121</ele>
        <time>2015-10-19T20:10:50Z</time>
      </trkpt>
      <trkpt lat="48.84408" lon="2.41323">
        <ele>50.79999923706</ele>
        <time>2015-10-19T20:10:52Z</time>
      </trkpt>
      <trkpt lat="48.8441" lon="2.41294">
        <ele>49.599998474121</ele>
        <time>2015-10-19T20:10:57Z</time>
      </trkpt>
      <trkpt lat="48.84409" lon="2.41276">
        <ele>48.599998474121</ele>
        <time>2015-10-19T20:11:00Z</time>
      </trkpt>
      <trkpt lat="48.8441" lon="2.41271">
        <ele>48.400001525879</ele>
        <time>2015-10-19T20:11:01Z</time>
      </trkpt>
      <trkpt lat="48.8441" lon="2.41254">
        <ele>47.599998474121</ele>
        <time>2015-10-19T20:11:04Z</time>
      </trkpt>
      <trkpt lat="48.84413" lon="2.41231">
        <ele>47.599998474121</ele>
        <time>2015-10-19T20:11:08Z</time>
      </trkpt>
      <trkpt lat="48.84416" lon="2.41202">
        <ele>47.79999923706</ele>
        <time>2015-10-19T20:11:13Z</time>
      </trkpt>
      <trkpt lat="48.84419" lon="2.41172">
        <ele>48.20000076294</ele>
        <time>2015-10-19T20:11:18Z</time>
      </trkpt>
      <trkpt lat="48.84421" lon="2.41142">
        <ele>48</ele>
        <time>2015-10-19T20:11:23Z</time>
      </trkpt>
      <trkpt lat="48.84424" lon="2.41114">
        <ele>49.599998474121</ele>
        <time>2015-10-19T20:11:28Z</time>
      </trkpt>
      <trkpt lat="48.84428" lon="2.41086">
        <ele>51</ele>
        <time>2015-10-19T20:11:33Z</time>
      </trkpt>
      <trkpt lat="48.84433" lon="2.4106">
        <ele>51.400001525879</ele>
        <time>2015-10-19T20:11:40Z</time>
      </trkpt>
      <trkpt lat="48.84433" lon="2.41058">
        <ele>51</ele>
        <time>2015-10-19T20:11:41Z</time>
      </trkpt>
      <trkpt lat="48.84433" lon="2.41042">
        <ele>49.20000076294</ele>
        <time>2015-10-19T20:11:46Z</time>
      </trkpt>
      <trkpt lat="48.84433" lon="2.41033">
        <ele>48.599998474121</ele>
        <time>2015-10-19T20:11:50Z</time>
      </trkpt>
      <trkpt lat="48.84435" lon="2.41019">
        <ele>48.599998474121</ele>
        <time>2015-10-19T20:11:55Z</time>
      </trkpt>
      <trkpt lat="48.84444" lon="2.40994">
        <ele>49</ele>
        <time>2015-10-19T20:12:02Z</time>
      </trkpt>
      <trkpt lat="48.84448" lon="2.40966">
        <ele>50</ele>
        <time>2015-10-19T20:12:08Z</time>
      </trkpt>
      <trkpt lat="48.84454" lon="2.40937">
        <ele>50.599998474121</ele>
        <time>2015-10-19T20:12:14Z</time>
      </trkpt>
      <trkpt lat="48.84453" lon="2.40905">
        <ele>49.599998474121</ele>
        <time>2015-10-19T20:12:20Z</time>
      </trkpt>
      <trkpt lat="48.84457" lon="2.40878">
        <ele>50</ele>
        <time>2015-10-19T20:12:25Z</time>
      </trkpt>
      <trkpt lat="48.84462" lon="2.40849">
        <ele>51.20000076294</ele>
        <time>2015-10-19T20:12:30Z</time>
      </trkpt>
      <trkpt lat="48.84463" lon="2.40819">
        <ele>50.79999923706</ele>
        <time>2015-10-19T20:12:35Z</time>
      </trkpt>
      <trkpt lat="48.84466" lon="2.40792">
        <ele>51.20000076294</ele>
        <time>2015-10-19T20:12:39Z</time>
      </trkpt>
      <trkpt lat="48.8447" lon="2.40759">
        <ele>51.599998474121</ele>
        <time>2015-10-19T20:12:44Z</time>
      </trkpt>
      <trkpt lat="48.84474" lon="2.40731">
        <ele>52</ele>
        <time>2015-10-19T20:12:48Z</time>
      </trkpt>
      <trkpt lat="48.84478" lon="2.40702">
        <ele>53</ele>
        <time>2015-10-19T20:12:52Z</time>
      </trkpt>
      <trkpt lat="48.84481" lon="2.40673">
        <ele>53.599998474121</ele>
        <time>2015-10-19T20:12:56Z</time>
      </trkpt>
      <trkpt lat="48.84483" lon="2.40646">
        <ele>54</ele>
        <time>2015-10-19T20:13:00Z</time>
      </trkpt>
      <trkpt lat="48.84481" lon="2.40619">
        <ele>56.20000076294</ele>
        <time>2015-10-19T20:13:05Z</time>
      </trkpt>
      <trkpt lat="48.84483" lon="2.40592">
        <ele>55</ele>
        <time>2015-10-19T20:13:09Z</time>
      </trkpt>
      <trkpt lat="48.84483" lon="2.40559">
        <ele>53.599998474121</ele>
        <time>2015-10-19T20:13:14Z</time>
      </trkpt>
      <trkpt lat="48.84484" lon="2.40527">
        <ele>54.20000076294</ele>
        <time>2015-10-19T20:13:19Z</time>
      </trkpt>
      <trkpt lat="48.84483" lon="2.40507">
        <ele>55.599998474121</ele>
        <time>2015-10-19T20:13:23Z</time>
      </trkpt>
      <trkpt lat="48.84487" lon="2.40479">
        <ele>57.20000076294</ele>
        <time>2015-10-19T20:13:28Z</time>
      </trkpt>
      <trkpt lat="48.8449" lon="2.40451">
        <ele>59</ele>
        <time>2015-10-19T20:13:33Z</time>
      </trkpt>
      <trkpt lat="48.84492" lon="2.40423">
        <ele>60.400001525879</ele>
        <time>2015-10-19T20:13:38Z</time>
      </trkpt>
      <trkpt lat="48.84496" lon="2.40394">
        <ele>61</ele>
        <time>2015-10-19T20:13:43Z</time>
      </trkpt>
      <trkpt lat="48.84499" lon="2.40367">
        <ele>63</ele>
        <time>2015-10-19T20:13:48Z</time>
      </trkpt>
      <trkpt lat="48.84504" lon="2.40339">
        <ele>66.199996948242</ele>
        <time>2015-10-19T20:13:53Z</time>
      </trkpt>
      <trkpt lat="48.84509" lon="2.40311">
        <ele>68.400001525879</ele>
        <time>2015-10-19T20:13:58Z</time>
      </trkpt>
      <trkpt lat="48.84514" lon="2.4028">
        <ele>68.800003051758</ele>
        <time>2015-10-19T20:14:04Z</time>
      </trkpt>
      <trkpt lat="48.8452" lon="2.40252">
        <ele>64.800003051758</ele>
        <time>2015-10-19T20:14:11Z</time>
      </trkpt>
      <trkpt lat="48.8452" lon="2.40225">
        <ele>64.400001525879</ele>
        <time>2015-10-19T20:14:20Z</time>
      </trkpt>
      <trkpt lat="48.84513" lon="2.40201">
        <ele>64</ele>
        <time>2015-10-19T20:14:31Z</time>
      </trkpt>
      <trkpt lat="48.8451" lon="2.40175">
        <ele>66</ele>
        <time>2015-10-19T20:14:38Z</time>
      </trkpt>
      <trkpt lat="48.84516" lon="2.40145">
        <ele>66.800003051758</ele>
        <time>2015-10-19T20:14:43Z</time>
      </trkpt>
      <trkpt lat="48.84523" lon="2.40114">
        <ele>66.599998474121</ele>
        <time>2015-10-19T20:14:48Z</time>
      </trkpt>
      <trkpt lat="48.84528" lon="2.40084">
        <ele>66.199996948242</ele>
        <time>2015-10-19T20:14:53Z</time>
      </trkpt>
      <trkpt lat="48.84529" lon="2.40051">
        <ele>64.800003051758</ele>
        <time>2015-10-19T20:14:58Z</time>
      </trkpt>
      <trkpt lat="48.84529" lon="2.40018">
        <ele>63.599998474121</ele>
        <time>2015-10-19T20:15:03Z</time>
      </trkpt>
      <trkpt lat="48.8453" lon="2.39986">
        <ele>62</ele>
        <time>2015-10-19T20:15:08Z</time>
      </trkpt>
      <trkpt lat="48.84533" lon="2.39953">
        <ele>62</ele>
        <time>2015-10-19T20:15:13Z</time>
      </trkpt>
      <trkpt lat="48.84537" lon="2.39919">
        <ele>60.79999923706</ele>
        <time>2015-10-19T20:15:18Z</time>
      </trkpt>
      <trkpt lat="48.84541" lon="2.39892">
        <ele>61</ele>
        <time>2015-10-19T20:15:22Z</time>
      </trkpt>
      <trkpt lat="48.84544" lon="2.39862">
        <ele>61.400001525879</ele>
        <time>2015-10-19T20:15:27Z</time>
      </trkpt>
      <trkpt lat="48.84547" lon="2.39832">
        <ele>61.20000076294</ele>
        <time>2015-10-19T20:15:32Z</time>
      </trkpt>
      <trkpt lat="48.84549" lon="2.39802">
        <ele>63.400001525879</ele>
        <time>2015-10-19T20:15:37Z</time>
      </trkpt>
      <trkpt lat="48.84556" lon="2.39771">
        <ele>65.599998474121</ele>
        <time>2015-10-19T20:15:42Z</time>
      </trkpt>
      <trkpt lat="48.84559" lon="2.3974">
        <ele>67.800003051758</ele>
        <time>2015-10-19T20:15:47Z</time>
      </trkpt>
      <trkpt lat="48.84564" lon="2.39712">
        <ele>69.199996948242</ele>
        <time>2015-10-19T20:15:51Z</time>
      </trkpt>
      <trkpt lat="48.84568" lon="2.39678">
        <ele>70.599998474121</ele>
        <time>2015-10-19T20:15:56Z</time>
      </trkpt>
      <trkpt lat="48.8457" lon="2.39646">
        <ele>69.400001525879</ele>
        <time>2015-10-19T20:16:00Z</time>
      </trkpt>
      <trkpt lat="48.84565" lon="2.39616">
        <ele>63.79999923706</ele>
        <time>2015-10-19T20:16:04Z</time>
      </trkpt>
      <trkpt lat="48.84561" lon="2.39587">
        <ele>58.599998474121</ele>
        <time>2015-10-19T20:16:08Z</time>
      </trkpt>
      <trkpt lat="48.84562" lon="2.39579">
        <ele>58.20000076294</ele>
        <time>2015-10-19T20:16:09Z</time>
      </trkpt>
      <trkpt lat="48.84564" lon="2.39551">
        <ele>56.400001525879</ele>
        <time>2015-10-19T20:16:13Z</time>
      </trkpt>
      <trkpt lat="48.84566" lon="2.39537">
        <ele>55.599998474121</ele>
        <time>2015-10-19T20:16:16Z</time>
      </trkpt>
      <trkpt lat="48.84576" lon="2.39514">
        <ele>54.400001525879</ele>
        <time>2015-10-19T20:16:23Z</time>
      </trkpt>
      <trkpt lat="48.84579" lon="2.39511">
        <ele>53.599998474121</ele>
        <time>2015-10-19T20:16:25Z</time>
      </trkpt>
      <trkpt lat="48.84585" lon="2.395">
        <ele>53</ele>
        <time>2015-10-19T20:16:29Z</time>
      </trkpt>
      <trkpt lat="48.8459" lon="2.39493">
        <ele>52.599998474121</ele>
        <time>2015-10-19T20:16:32Z</time>
      </trkpt>
      <trkpt lat="48.84608" lon="2.39477">
        <ele>54.20000076294</ele>
        <time>2015-10-19T20:16:39Z</time>
      </trkpt>
      <trkpt lat="48.84622" lon="2.39457">
        <ele>55</ele>
        <time>2015-10-19T20:16:45Z</time>
      </trkpt>
      <trkpt lat="48.84638" lon="2.39443">
        <ele>55.79999923706</ele>
        <time>2015-10-19T20:16:50Z</time>
      </trkpt>
      <trkpt lat="48.84653" lon="2.39427">
        <ele>56.79999923706</ele>
        <time>2015-10-19T20:16:55Z</time>
      </trkpt>
      <trkpt lat="48.84667" lon="2.39409">
        <ele>57.599998474121</ele>
        <time>2015-10-19T20:17:00Z</time>
      </trkpt>
      <trkpt lat="48.84684" lon="2.39392">
        <ele>57.79999923706</ele>
        <time>2015-10-19T20:17:05Z</time>
      </trkpt>
      <trkpt lat="48.847" lon="2.39372">
        <ele>57.79999923706</ele>
        <time>2015-10-19T20:17:10Z</time>
      </trkpt>
      <trkpt lat="48.84715" lon="2.39351">
        <ele>56.599998474121</ele>
        <time>2015-10-19T20:17:15Z</time>
      </trkpt>
      <trkpt lat="48.84734" lon="2.39334">
        <ele>55.400001525879</ele>
        <time>2015-10-19T20:17:20Z</time>
      </trkpt>
      <trkpt lat="48.8475" lon="2.39319">
        <ele>54.400001525879</ele>
        <time>2015-10-19T20:17:24Z</time>
      </trkpt>
      <trkpt lat="48.84768" lon="2.39299">
        <ele>53</ele>
        <time>2015-10-19T20:17:29Z</time>
      </trkpt>
      <trkpt lat="48.84785" lon="2.39283">
        <ele>54.400001525879</ele>
        <time>2015-10-19T20:17:35Z</time>
      </trkpt>
      <trkpt lat="48.84801" lon="2.39267">
        <ele>52.599998474121</ele>
        <time>2015-10-19T20:17:40Z</time>
      </trkpt>
      <trkpt lat="48.84816" lon="2.39254">
        <ele>51.79999923706</ele>
        <time>2015-10-19T20:17:45Z</time>
      </trkpt>
      <trkpt lat="48.84832" lon="2.3924">
        <ele>50.79999923706</ele>
        <time>2015-10-19T20:17:50Z</time>
      </trkpt>
      <trkpt lat="48.84848" lon="2.39222">
        <ele>49.599998474121</ele>
        <time>2015-10-19T20:17:55Z</time>
      </trkpt>
      <trkpt lat="48.84866" lon="2.39208">
        <ele>48.599998474121</ele>
        <time>2015-10-19T20:18:00Z</time>
      </trkpt>
      <trkpt lat="48.84885" lon="2.39191">
        <ele>47.20000076294</ele>
        <time>2015-10-19T20:18:05Z</time>
      </trkpt>
      <trkpt lat="48.84895" lon="2.39163">
        <ele>45.599998474121</ele>
        <time>2015-10-19T20:18:10Z</time>
      </trkpt>
      <trkpt lat="48.84902" lon="2.39131">
        <ele>42</ele>
        <time>2015-10-19T20:18:15Z</time>
      </trkpt>
      <trkpt lat="48.84907" lon="2.39102">
        <ele>39.400001525879</ele>
        <time>2015-10-19T20:18:19Z</time>
      </trkpt>
      <trkpt lat="48.84913" lon="2.39072">
        <ele>38.20000076294</ele>
        <time>2015-10-19T20:18:23Z</time>
      </trkpt>
      <trkpt lat="48.84919" lon="2.39042">
        <ele>36.599998474121</ele>
        <time>2015-10-19T20:18:27Z</time>
      </trkpt>
      <trkpt lat="48.84927" lon="2.3901">
        <ele>35.400001525879</ele>
        <time>2015-10-19T20:18:31Z</time>
      </trkpt>
      <trkpt lat="48.84934" lon="2.38979">
        <ele>34.400001525879</ele>
        <time>2015-10-19T20:18:35Z</time>
      </trkpt>
      <trkpt lat="48.84938" lon="2.38947">
        <ele>32.599998474121</ele>
        <time>2015-10-19T20:18:39Z</time>
      </trkpt>
      <trkpt lat="48.84945" lon="2.38925">
        <ele>32</ele>
        <time>2015-10-19T20:18:42Z</time>
      </trkpt>
      <trkpt lat="48.8495" lon="2.38902">
        <ele>31.39999961853</ele>
        <time>2015-10-19T20:18:45Z</time>
      </trkpt>
      <trkpt lat="48.84958" lon="2.38872">
        <ele>30.799999237061</ele>
        <time>2015-10-19T20:18:49Z</time>
      </trkpt>
      <trkpt lat="48.84962" lon="2.38849">
        <ele>29.799999237061</ele>
        <time>2015-10-19T20:18:52Z</time>
      </trkpt>
      <trkpt lat="48.84966" lon="2.38816">
        <ele>28.39999961853</ele>
        <time>2015-10-19T20:18:56Z</time>
      </trkpt>
      <trkpt lat="48.84971" lon="2.38784">
        <ele>27.39999961853</ele>
        <time>2015-10-19T20:19:00Z</time>
      </trkpt>
      <trkpt lat="48.84976" lon="2.38761">
        <ele>26.60000038147</ele>
        <time>2015-10-19T20:19:03Z</time>
      </trkpt>
      <trkpt lat="48.84982" lon="2.38728">
        <ele>25.39999961853</ele>
        <time>2015-10-19T20:19:07Z</time>
      </trkpt>
      <trkpt lat="48.84986" lon="2.38694">
        <ele>23.39999961853</ele>
        <time>2015-10-19T20:19:11Z</time>
      </trkpt>
      <trkpt lat="48.84992" lon="2.38662">
        <ele>21.799999237061</ele>
        <time>2015-10-19T20:19:15Z</time>
      </trkpt>
      <trkpt lat="48.84998" lon="2.3863">
        <ele>21.39999961853</ele>
        <time>2015-10-19T20:19:19Z</time>
      </trkpt>
      <trkpt lat="48.85" lon="2.38596">
        <ele>20.39999961853</ele>
        <time>2015-10-19T20:19:23Z</time>
      </trkpt>
      <trkpt lat="48.85005" lon="2.38563">
        <ele>19</ele>
        <time>2015-10-19T20:19:27Z</time>
      </trkpt>
      <trkpt lat="48.85011" lon="2.38534">
        <ele>18.799999237061</ele>
        <time>2015-10-19T20:19:31Z</time>
      </trkpt>
      <trkpt lat="48.85019" lon="2.38504">
        <ele>19.799999237061</ele>
        <time>2015-10-19T20:19:35Z</time>
      </trkpt>
      <trkpt lat="48.8502" lon="2.38496">
        <ele>19.60000038147</ele>
        <time>2015-10-19T20:19:36Z</time>
      </trkpt>
      <trkpt lat="48.85026" lon="2.3847">
        <ele>20</ele>
        <time>2015-10-19T20:19:40Z</time>
      </trkpt>
      <trkpt lat="48.85028" lon="2.38445">
        <ele>19.799999237061</ele>
        <time>2015-10-19T20:19:44Z</time>
      </trkpt>
      <trkpt lat="48.85032" lon="2.38414">
        <ele>19.799999237061</ele>
        <time>2015-10-19T20:19:49Z</time>
      </trkpt>
      <trkpt lat="48.85035" lon="2.38387">
        <ele>19.60000038147</ele>
        <time>2015-10-19T20:19:53Z</time>
      </trkpt>
      <trkpt lat="48.85037" lon="2.38353">
        <ele>20</ele>
        <time>2015-10-19T20:19:58Z</time>
      </trkpt>
      <trkpt lat="48.85036" lon="2.38347">
        <ele>20</ele>
        <time>2015-10-19T20:19:59Z</time>
      </trkpt>
      <trkpt lat="48.85034" lon="2.38319">
        <ele>19.200000762939</ele>
        <time>2015-10-19T20:20:03Z</time>
      </trkpt>
      <trkpt lat="48.85035" lon="2.38311">
        <ele>19</ele>
        <time>2015-10-19T20:20:04Z</time>
      </trkpt>
      <trkpt lat="48.85039" lon="2.3828">
        <ele>21.39999961853</ele>
        <time>2015-10-19T20:20:08Z</time>
      </trkpt>
      <trkpt lat="48.8504" lon="2.38251">
        <ele>23</ele>
        <time>2015-10-19T20:20:12Z</time>
      </trkpt>
      <trkpt lat="48.85041" lon="2.3822">
        <ele>26</ele>
        <time>2015-10-19T20:20:16Z</time>
      </trkpt>
      <trkpt lat="48.85044" lon="2.38192">
        <ele>29.39999961853</ele>
        <time>2015-10-19T20:20:20Z</time>
      </trkpt>
      <trkpt lat="48.85048" lon="2.38178">
        <ele>30.60000038147</ele>
        <time>2015-10-19T20:20:22Z</time>
      </trkpt>
      <trkpt lat="48.85055" lon="2.38149">
        <ele>30.39999961853</ele>
        <time>2015-10-19T20:20:26Z</time>
      </trkpt>
      <trkpt lat="48.85057" lon="2.38135">
        <ele>30.799999237061</ele>
        <time>2015-10-19T20:20:28Z</time>
      </trkpt>
      <trkpt lat="48.85057" lon="2.38121">
        <ele>31.60000038147</ele>
        <time>2015-10-19T20:20:30Z</time>
      </trkpt>
      <trkpt lat="48.85058" lon="2.38089">
        <ele>33.79999923706</ele>
        <time>2015-10-19T20:20:35Z</time>
      </trkpt>
      <trkpt lat="48.85061" lon="2.38061">
        <ele>35.79999923706</ele>
        <time>2015-10-19T20:20:39Z</time>
      </trkpt>
      <trkpt lat="48.85063" lon="2.38046">
        <ele>36.599998474121</ele>
        <time>2015-10-19T20:20:41Z</time>
      </trkpt>
      <trkpt lat="48.85065" lon="2.38017">
        <ele>38.599998474121</ele>
        <time>2015-10-19T20:20:45Z</time>
      </trkpt>
      <trkpt lat="48.8507" lon="2.37988">
        <ele>40.599998474121</ele>
        <time>2015-10-19T20:20:49Z</time>
      </trkpt>
      <trkpt lat="48.85072" lon="2.37981">
        <ele>41</ele>
        <time>2015-10-19T20:20:50Z</time>
      </trkpt>
      <trkpt lat="48.85076" lon="2.3796">
        <ele>41.400001525879</ele>
        <time>2015-10-19T20:20:53Z</time>
      </trkpt>
      <trkpt lat="48.85078" lon="2.37931">
        <ele>40.79999923706</ele>
        <time>2015-10-19T20:20:57Z</time>
      </trkpt>
      <trkpt lat="48.85084" lon="2.37902">
        <ele>41</ele>
        <time>2015-10-19T20:21:01Z</time>
      </trkpt>
      <trkpt lat="48.85087" lon="2.37887">
        <ele>41.20000076294</ele>
        <time>2015-10-19T20:21:03Z</time>
      </trkpt>
      <trkpt lat="48.85082" lon="2.37866">
        <ele>35</ele>
        <time>2015-10-19T20:21:06Z</time>
      </trkpt>
      <trkpt lat="48.85088" lon="2.3784">
        <ele>32</ele>
        <time>2015-10-19T20:21:10Z</time>
      </trkpt>
      <trkpt lat="48.85097" lon="2.3781">
        <ele>30.60000038147</ele>
        <time>2015-10-19T20:21:14Z</time>
      </trkpt>
      <trkpt lat="48.85103" lon="2.37778">
        <ele>29</ele>
        <time>2015-10-19T20:21:18Z</time>
      </trkpt>
      <trkpt lat="48.85106" lon="2.37763">
        <ele>28.39999961853</ele>
        <time>2015-10-19T20:21:20Z</time>
      </trkpt>
      <trkpt lat="48.85112" lon="2.37735">
        <ele>27.60000038147</ele>
        <time>2015-10-19T20:21:24Z</time>
      </trkpt>
      <trkpt lat="48.85123" lon="2.37707">
        <ele>26</ele>
        <time>2015-10-19T20:21:28Z</time>
      </trkpt>
      <trkpt lat="48.85134" lon="2.37677">
        <ele>24.39999961853</ele>
        <time>2015-10-19T20:21:32Z</time>
      </trkpt>
      <trkpt lat="48.85139" lon="2.37654">
        <ele>24.200000762939</ele>
        <time>2015-10-19T20:21:35Z</time>
      </trkpt>
      <trkpt lat="48.8514" lon="2.37622">
        <ele>23.39999961853</ele>
        <time>2015-10-19T20:21:39Z</time>
      </trkpt>
      <trkpt lat="48.85141" lon="2.37616">
        <ele>22.799999237061</ele>
        <time>2015-10-19T20:21:40Z</time>
      </trkpt>
      <trkpt lat="48.85145" lon="2.37605">
        <ele>23</ele>
        <time>2015-10-19T20:21:42Z</time>
      </trkpt>
      <trkpt lat="48.85153" lon="2.37577">
        <ele>22.60000038147</ele>
        <time>2015-10-19T20:21:47Z</time>
      </trkpt>
      <trkpt lat="48.85159" lon="2.37568">
        <ele>22.200000762939</ele>
        <time>2015-10-19T20:21:49Z</time>
      </trkpt>
      <trkpt lat="48.85175" lon="2.37547">
        <ele>21.799999237061</ele>
        <time>2015-10-19T20:21:53Z</time>
      </trkpt>
      <trkpt lat="48.85184" lon="2.37514">
        <ele>21</ele>
        <time>2015-10-19T20:21:58Z</time>
      </trkpt>
      <trkpt lat="48.85192" lon="2.37487">
        <ele>19.799999237061</ele>
        <time>2015-10-19T20:22:02Z</time>
      </trkpt>
      <trkpt lat="48.85201" lon="2.3746">
        <ele>19.200000762939</ele>
        <time>2015-10-19T20:22:06Z</time>
      </trkpt>
      <trkpt lat="48.85205" lon="2.37438">
        <ele>18.799999237061</ele>
        <time>2015-10-19T20:22:09Z</time>
      </trkpt>
      <trkpt lat="48.85211" lon="2.37403">
        <ele>20</ele>
        <time>2015-10-19T20:22:14Z</time>
      </trkpt>
      <trkpt lat="48.85213" lon="2.37374">
        <ele>21.200000762939</ele>
        <time>2015-10-19T20:22:18Z</time>
      </trkpt>
      <trkpt lat="48.85216" lon="2.3736">
        <ele>21.799999237061</ele>
        <time>2015-10-19T20:22:20Z</time>
      </trkpt>
      <trkpt lat="48.85224" lon="2.37333">
        <ele>22.799999237061</ele>
        <time>2015-10-19T20:22:24Z</time>
      </trkpt>
      <trkpt lat="48.85225" lon="2.37325">
        <ele>23.200000762939</ele>
        <time>2015-10-19T20:22:25Z</time>
      </trkpt>
      <trkpt lat="48.85232" lon="2.37298">
        <ele>24.39999961853</ele>
        <time>2015-10-19T20:22:29Z</time>
      </trkpt>
      <trkpt lat="48.8524" lon="2.37273">
        <ele>25.799999237061</ele>
        <time>2015-10-19T20:22:33Z</time>
      </trkpt>
      <trkpt lat="48.85247" lon="2.37254">
        <ele>26.39999961853</ele>
        <time>2015-10-19T20:22:36Z</time>
      </trkpt>
      <trkpt lat="48.85253" lon="2.37227">
        <ele>27.200000762939</ele>
        <time>2015-10-19T20:22:40Z</time>
      </trkpt>
      <trkpt lat="48.85261" lon="2.37195">
        <ele>27.39999961853</ele>
        <time>2015-10-19T20:22:45Z</time>
      </trkpt>
      <trkpt lat="48.85266" lon="2.37166">
        <ele>28</ele>
        <time>2015-10-19T20:22:50Z</time>
      </trkpt>
      <trkpt lat="48.85274" lon="2.37136">
        <ele>30.799999237061</ele>
        <time>2015-10-19T20:22:56Z</time>
      </trkpt>
      <trkpt lat="48.85284" lon="2.3711">
        <ele>35</ele>
        <time>2015-10-19T20:23:03Z</time>
      </trkpt>
      <trkpt lat="48.85285" lon="2.37084">
        <ele>47.400001525879</ele>
        <time>2015-10-19T20:23:13Z</time>
      </trkpt>
      <trkpt lat="48.85298" lon="2.37065">
        <ele>49.79999923706</ele>
        <time>2015-10-19T20:23:19Z</time>
      </trkpt>
      <trkpt lat="48.85304" lon="2.37037">
        <ele>53.599998474121</ele>
        <time>2015-10-19T20:23:27Z</time>
      </trkpt>
      <trkpt lat="48.85315" lon="2.37013">
        <ele>56</ele>
        <time>2015-10-19T20:23:35Z</time>
      </trkpt>
      <trkpt lat="48.85317" lon="2.37001">
        <ele>56.79999923706</ele>
        <time>2015-10-19T20:23:38Z</time>
      </trkpt>
      <trkpt lat="48.85319" lon="2.36988">
        <ele>57.20000076294</ele>
        <time>2015-10-19T20:23:42Z</time>
      </trkpt>
      <trkpt lat="48.85323" lon="2.36983">
        <ele>56.400001525879</ele>
        <time>2015-10-19T20:23:45Z</time>
      </trkpt>
      <trkpt lat="48.85338" lon="2.36977">
        <ele>45.599998474121</ele>
        <time>2015-10-19T20:24:27Z</time>
      </trkpt>
      <trkpt lat="48.85346" lon="2.36979">
        <ele>41.20000076294</ele>
        <time>2015-10-19T20:24:57Z</time>
      </trkpt>
      <trkpt lat="48.85363" lon="2.36963">
        <ele>38.599998474121</ele>
        <time>2015-10-19T20:25:18Z</time>
      </trkpt>
      <trkpt lat="48.85369" lon="2.36937">
        <ele>37.599998474121</ele>
        <time>2015-10-19T20:25:28Z</time>
      </trkpt>
      <trkpt lat="48.85373" lon="2.36912">
        <ele>36</ele>
        <time>2015-10-19T20:25:37Z</time>
      </trkpt>
      <trkpt lat="48.85365" lon="2.36894">
        <ele>35.20000076294</ele>
        <time>2015-10-19T20:26:17Z</time>
      </trkpt>
      <trkpt lat="48.85371" lon="2.36876">
        <ele>36.400001525879</ele>
        <time>2015-10-19T20:26:41Z</time>
      </trkpt>
      <trkpt lat="48.85374" lon="2.36846">
        <ele>36.400001525879</ele>
        <time>2015-10-19T20:26:55Z</time>
      </trkpt>
      <trkpt lat="48.85378" lon="2.36816">
        <ele>36</ele>
        <time>2015-10-19T20:27:01Z</time>
      </trkpt>
      <trkpt lat="48.85381" lon="2.36785">
        <ele>35.79999923706</ele>
        <time>2015-10-19T20:27:06Z</time>
      </trkpt>
      <trkpt lat="48.85384" lon="2.36753">
        <ele>36</ele>
        <time>2015-10-19T20:27:11Z</time>
      </trkpt>
      <trkpt lat="48.8538" lon="2.36737">
        <ele>37</ele>
        <time>2015-10-19T20:27:15Z</time>
      </trkpt>
      <trkpt lat="48.85364" lon="2.36725">
        <ele>38.400001525879</ele>
        <time>2015-10-19T20:27:24Z</time>
      </trkpt>
      <trkpt lat="48.85351" lon="2.3672">
        <ele>41.599998474121</ele>
        <time>2015-10-19T20:27:32Z</time>
      </trkpt>
      <trkpt lat="48.85345" lon="2.3669">
        <ele>42.79999923706</ele>
        <time>2015-10-19T20:27:38Z</time>
      </trkpt>
      <trkpt lat="48.85348" lon="2.36662">
        <ele>44.20000076294</ele>
        <time>2015-10-19T20:27:42Z</time>
      </trkpt>
      <trkpt lat="48.85361" lon="2.36636">
        <ele>44.599998474121</ele>
        <time>2015-10-19T20:27:45Z</time>
      </trkpt>
      <trkpt lat="48.85369" lon="2.36609">
        <ele>44.599998474121</ele>
        <time>2015-10-19T20:27:49Z</time>
      </trkpt>
      <trkpt lat="48.85375" lon="2.36581">
        <ele>45</ele>
        <time>2015-10-19T20:27:54Z</time>
      </trkpt>
      <trkpt lat="48.85383" lon="2.36556">
        <ele>45.400001525879</ele>
        <time>2015-10-19T20:27:58Z</time>
      </trkpt>
      <trkpt lat="48.85392" lon="2.3653">
        <ele>45.400001525879</ele>
        <time>2015-10-19T20:28:02Z</time>
      </trkpt>
      <trkpt lat="48.85399" lon="2.36498">
        <ele>44.20000076294</ele>
        <time>2015-10-19T20:28:06Z</time>
      </trkpt>
      <trkpt lat="48.85399" lon="2.3649">
        <ele>43.400001525879</ele>
        <time>2015-10-19T20:28:07Z</time>
      </trkpt>
      <trkpt lat="48.85408" lon="2.36459">
        <ele>42</ele>
        <time>2015-10-19T20:28:11Z</time>
      </trkpt>
      <trkpt lat="48.85418" lon="2.36435">
        <ele>41.400001525879</ele>
        <time>2015-10-19T20:28:14Z</time>
      </trkpt>
      <trkpt lat="48.85427" lon="2.36411">
        <ele>40.599998474121</ele>
        <time>2015-10-19T20:28:17Z</time>
      </trkpt>
      <trkpt lat="48.85432" lon="2.36376">
        <ele>38.400001525879</ele>
        <time>2015-10-19T20:28:21Z</time>
      </trkpt>
      <trkpt lat="48.8544" lon="2.3635">
        <ele>37.79999923706</ele>
        <time>2015-10-19T20:28:24Z</time>
      </trkpt>
      <trkpt lat="48.85451" lon="2.36318">
        <ele>37</ele>
        <time>2015-10-19T20:28:28Z</time>
      </trkpt>
      <trkpt lat="48.85461" lon="2.36288">
        <ele>36.599998474121</ele>
        <time>2015-10-19T20:28:32Z</time>
      </trkpt>
      <trkpt lat="48.85473" lon="2.36259">
        <ele>36</ele>
        <time>2015-10-19T20:28:36Z</time>
      </trkpt>
      <trkpt lat="48.85487" lon="2.36233">
        <ele>35.79999923706</ele>
        <time>2015-10-19T20:28:40Z</time>
      </trkpt>
      <trkpt lat="48.85489" lon="2.36227">
        <ele>35.79999923706</ele>
        <time>2015-10-19T20:28:41Z</time>
      </trkpt>
      <trkpt lat="48.85496" lon="2.36201">
        <ele>35.20000076294</ele>
        <time>2015-10-19T20:28:45Z</time>
      </trkpt>
      <trkpt lat="48.85505" lon="2.36171">
        <ele>33.79999923706</ele>
        <time>2015-10-19T20:28:49Z</time>
      </trkpt>
      <trkpt lat="48.85517" lon="2.36146">
        <ele>32.79999923706</ele>
        <time>2015-10-19T20:28:53Z</time>
      </trkpt>
      <trkpt lat="48.8553" lon="2.3612">
        <ele>32.599998474121</ele>
        <time>2015-10-19T20:28:57Z</time>
      </trkpt>
      <trkpt lat="48.85538" lon="2.361">
        <ele>33.20000076294</ele>
        <time>2015-10-19T20:29:00Z</time>
      </trkpt>
      <trkpt lat="48.85547" lon="2.36072">
        <ele>33.599998474121</ele>
        <time>2015-10-19T20:29:04Z</time>
      </trkpt>
      <trkpt lat="48.85551" lon="2.36057">
        <ele>33.79999923706</ele>
        <time>2015-10-19T20:29:06Z</time>
      </trkpt>
      <trkpt lat="48.85556" lon="2.36026">
        <ele>34</ele>
        <time>2015-10-19T20:29:10Z</time>
      </trkpt>
      <trkpt lat="48.8556" lon="2.36012">
        <ele>34.20000076294</ele>
        <time>2015-10-19T20:29:12Z</time>
      </trkpt>
      <trkpt lat="48.85561" lon="2.35979">
        <ele>33.20000076294</ele>
        <time>2015-10-19T20:29:16Z</time>
      </trkpt>
      <trkpt lat="48.85563" lon="2.3597">
        <ele>33.20000076294</ele>
        <time>2015-10-19T20:29:17Z</time>
      </trkpt>
      <trkpt lat="48.85572" lon="2.3594">
        <ele>32.79999923706</ele>
        <time>2015-10-19T20:29:21Z</time>
      </trkpt>
      <trkpt lat="48.8558" lon="2.35908">
        <ele>31.60000038147</ele>
        <time>2015-10-19T20:29:25Z</time>
      </trkpt>
      <trkpt lat="48.85588" lon="2.35877">
        <ele>31</ele>
        <time>2015-10-19T20:29:29Z</time>
      </trkpt>
      <trkpt lat="48.85598" lon="2.35847">
        <ele>29.799999237061</ele>
        <time>2015-10-19T20:29:33Z</time>
      </trkpt>
      <trkpt lat="48.85607" lon="2.3582">
        <ele>29.60000038147</ele>
        <time>2015-10-19T20:29:37Z</time>
      </trkpt>
      <trkpt lat="48.85607" lon="2.35814">
        <ele>28.799999237061</ele>
        <time>2015-10-19T20:29:38Z</time>
      </trkpt>
      <trkpt lat="48.85614" lon="2.35781">
        <ele>26.39999961853</ele>
        <time>2015-10-19T20:29:43Z</time>
      </trkpt>
      <trkpt lat="48.85617" lon="2.35767">
        <ele>26.200000762939</ele>
        <time>2015-10-19T20:29:45Z</time>
      </trkpt>
      <trkpt lat="48.85624" lon="2.35748">
        <ele>26</ele>
        <time>2015-10-19T20:29:48Z</time>
      </trkpt>
      <trkpt lat="48.85635" lon="2.35723">
        <ele>25.60000038147</ele>
        <time>2015-10-19T20:29:52Z</time>
      </trkpt>
      <trkpt lat="48.8564" lon="2.35709">
        <ele>25.200000762939</ele>
        <time>2015-10-19T20:29:54Z</time>
      </trkpt>
      <trkpt lat="48.85651" lon="2.35684">
        <ele>25</ele>
        <time>2015-10-19T20:29:58Z</time>
      </trkpt>
      <trkpt lat="48.85658" lon="2.35652">
        <ele>24.60000038147</ele>
        <time>2015-10-19T20:30:03Z</time>
      </trkpt>
      <trkpt lat="48.85661" lon="2.35642">
        <ele>24.200000762939</ele>
        <time>2015-10-19T20:30:05Z</time>
      </trkpt>
      <trkpt lat="48.85671" lon="2.35619">
        <ele>24</ele>
        <time>2015-10-19T20:30:09Z</time>
      </trkpt>
      <trkpt lat="48.85667" lon="2.35598">
        <ele>21.39999961853</ele>
        <time>2015-10-19T20:30:12Z</time>
      </trkpt>
      <trkpt lat="48.85666" lon="2.35562">
        <ele>18.39999961853</ele>
        <time>2015-10-19T20:30:17Z</time>
      </trkpt>
      <trkpt lat="48.85673" lon="2.35537">
        <ele>18</ele>
        <time>2015-10-19T20:30:21Z</time>
      </trkpt>
      <trkpt lat="48.8568" lon="2.35508">
        <ele>17.799999237061</ele>
        <time>2015-10-19T20:30:25Z</time>
      </trkpt>
      <trkpt lat="48.85689" lon="2.35479">
        <ele>17.39999961853</ele>
        <time>2015-10-19T20:30:29Z</time>
      </trkpt>
      <trkpt lat="48.85699" lon="2.3545">
        <ele>17.39999961853</ele>
        <time>2015-10-19T20:30:33Z</time>
      </trkpt>
      <trkpt lat="48.8571" lon="2.35423">
        <ele>18</ele>
        <time>2015-10-19T20:30:37Z</time>
      </trkpt>
      <trkpt lat="48.85705" lon="2.35404">
        <ele>17.39999961853</ele>
        <time>2015-10-19T20:30:40Z</time>
      </trkpt>
      <trkpt lat="48.85702" lon="2.35392">
        <ele>18.200000762939</ele>
        <time>2015-10-19T20:30:44Z</time>
      </trkpt>
      <trkpt lat="48.85705" lon="2.3537">
        <ele>19.200000762939</ele>
        <time>2015-10-19T20:30:48Z</time>
      </trkpt>
      <trkpt lat="48.85712" lon="2.35343">
        <ele>19</ele>
        <time>2015-10-19T20:30:52Z</time>
      </trkpt>
      <trkpt lat="48.85718" lon="2.3532">
        <ele>19.60000038147</ele>
        <time>2015-10-19T20:30:55Z</time>
      </trkpt>
      <trkpt lat="48.85726" lon="2.35291">
        <ele>19.799999237061</ele>
        <time>2015-10-19T20:30:59Z</time>
      </trkpt>
      <trkpt lat="48.85732" lon="2.35263">
        <ele>20.799999237061</ele>
        <time>2015-10-19T20:31:03Z</time>
      </trkpt>
      <trkpt lat="48.85735" lon="2.35244">
        <ele>21.60000038147</ele>
        <time>2015-10-19T20:31:06Z</time>
      </trkpt>
      <trkpt lat="48.85737" lon="2.35232">
        <ele>21.799999237061</ele>
        <time>2015-10-19T20:31:08Z</time>
      </trkpt>
      <trkpt lat="48.85739" lon="2.35214">
        <ele>23.200000762939</ele>
        <time>2015-10-19T20:31:11Z</time>
      </trkpt>
      <trkpt lat="48.85742" lon="2.35194">
        <ele>24</ele>
        <time>2015-10-19T20:31:14Z</time>
      </trkpt>
      <trkpt lat="48.85746" lon="2.35173">
        <ele>23.799999237061</ele>
        <time>2015-10-19T20:31:17Z</time>
      </trkpt>
      <trkpt lat="48.85752" lon="2.35152">
        <ele>23.39999961853</ele>
        <time>2015-10-19T20:31:20Z</time>
      </trkpt>
      <trkpt lat="48.85762" lon="2.35124">
        <ele>25</ele>
        <time>2015-10-19T20:31:24Z</time>
      </trkpt>
      <trkpt lat="48.85773" lon="2.35094">
        <ele>23.60000038147</ele>
        <time>2015-10-19T20:31:28Z</time>
      </trkpt>
      <trkpt lat="48.85781" lon="2.35069">
        <ele>23.39999961853</ele>
        <time>2015-10-19T20:31:31Z</time>
      </trkpt>
      <trkpt lat="48.85792" lon="2.35036">
        <ele>23.60000038147</ele>
        <time>2015-10-19T20:31:35Z</time>
      </trkpt>
      <trkpt lat="48.85794" lon="2.35008">
        <ele>25.60000038147</ele>
        <time>2015-10-19T20:31:38Z</time>
      </trkpt>
      <trkpt lat="48.85805" lon="2.34983">
        <ele>27</ele>
        <time>2015-10-19T20:31:41Z</time>
      </trkpt>
      <trkpt lat="48.8581" lon="2.34966">
        <ele>27.799999237061</ele>
        <time>2015-10-19T20:31:43Z</time>
      </trkpt>
      <trkpt lat="48.85815" lon="2.34938">
        <ele>29.799999237061</ele>
        <time>2015-10-19T20:31:46Z</time>
      </trkpt>
      <trkpt lat="48.85823" lon="2.34913">
        <ele>29.799999237061</ele>
        <time>2015-10-19T20:31:49Z</time>
      </trkpt>
      <trkpt lat="48.85827" lon="2.34906">
        <ele>29.799999237061</ele>
        <time>2015-10-19T20:31:50Z</time>
      </trkpt>
      <trkpt lat="48.85835" lon="2.34882">
        <ele>28.200000762939</ele>
        <time>2015-10-19T20:31:53Z</time>
      </trkpt>
      <trkpt lat="48.85845" lon="2.34849">
        <ele>27.799999237061</ele>
        <time>2015-10-19T20:31:57Z</time>
      </trkpt>
      <trkpt lat="48.85854" lon="2.34822">
        <ele>28.799999237061</ele>
        <time>2015-10-19T20:32:01Z</time>
      </trkpt>
      <trkpt lat="48.85859" lon="2.34809">
        <ele>29.200000762939</ele>
        <time>2015-10-19T20:32:04Z</time>
      </trkpt>
      <trkpt lat="48.85868" lon="2.34784">
        <ele>31.200000762939</ele>
        <time>2015-10-19T20:32:09Z</time>
      </trkpt>
      <trkpt lat="48.85874" lon="2.34765">
        <ele>33.599998474121</ele>
        <time>2015-10-19T20:32:13Z</time>
      </trkpt>
      <trkpt lat="48.85875" lon="2.3476">
        <ele>34.20000076294</ele>
        <time>2015-10-19T20:32:14Z</time>
      </trkpt>
      <trkpt lat="48.85878" lon="2.34748">
        <ele>36.79999923706</ele>
        <time>2015-10-19T20:32:18Z</time>
      </trkpt>
      <trkpt lat="48.85885" lon="2.34742">
        <ele>38.400001525879</ele>
        <time>2015-10-19T20:32:22Z</time>
      </trkpt>
      <trkpt lat="48.85902" lon="2.34727">
        <ele>42.599998474121</ele>
        <time>2015-10-19T20:32:29Z</time>
      </trkpt>
      <trkpt lat="48.85917" lon="2.3471">
        <ele>46</ele>
        <time>2015-10-19T20:32:35Z</time>
      </trkpt>
      <trkpt lat="48.85926" lon="2.34702">
        <ele>48</ele>
        <time>2015-10-19T20:32:39Z</time>
      </trkpt>
      <trkpt lat="48.85945" lon="2.34709">
        <ele>44</ele>
        <time>2015-10-19T20:32:43Z</time>
      </trkpt>
      <trkpt lat="48.85952" lon="2.34714">
        <ele>44.599998474121</ele>
        <time>2015-10-19T20:32:46Z</time>
      </trkpt>
      <trkpt lat="48.85953" lon="2.34717">
        <ele>45.599998474121</ele>
        <time>2015-10-19T20:32:48Z</time>
      </trkpt>
      <trkpt lat="48.85951" lon="2.34722">
        <ele>48.79999923706</ele>
        <time>2015-10-19T20:32:53Z</time>
      </trkpt>
      <trkpt lat="48.85951" lon="2.34723">
        <ele>49.599998474121</ele>
        <time>2015-10-19T20:32:54Z</time>
      </trkpt>
      <trkpt lat="48.85956" lon="2.34725">
        <ele>51.20000076294</ele>
        <time>2015-10-19T20:33:02Z</time>
      </trkpt>
      <trkpt lat="48.85957" lon="2.34731">
        <ele>54.20000076294</ele>
        <time>2015-10-19T20:33:14Z</time>
      </trkpt>
      <trkpt lat="48.8596" lon="2.34728">
        <ele>54.20000076294</ele>
        <time>2015-10-19T20:33:17Z</time>
      </trkpt>
      <trkpt lat="48.85972" lon="2.34725">
        <ele>55.400001525879</ele>
        <time>2015-10-19T20:33:30Z</time>
      </trkpt>
      <trkpt lat="48.85974" lon="2.34726">
        <ele>55.79999923706</ele>
        <time>2015-10-19T20:33:33Z</time>
      </trkpt>
      <trkpt lat="48.85969" lon="2.34723">
        <ele>57.400001525879</ele>
        <time>2015-10-19T20:33:39Z</time>
      </trkpt>
      <trkpt lat="48.85964" lon="2.34721">
        <ele>57.79999923706</ele>
        <time>2015-10-19T20:33:41Z</time>
      </trkpt>
      <trkpt lat="48.85958" lon="2.34716">
        <ele>60</ele>
        <time>2015-10-19T20:33:48Z</time>
      </trkpt>
    </trkseg>
  </trk>
  <trk>
    <name><![CDATA[lundi 2015 10 12]]></name>
    <extensions>
      <line xmlns="http://www.topografix.com/GPX/gpx_style/0/2">
        <color>000000</color>
      </line>
    </extensions>
    <trkseg>
      <trkpt lat="48.8577" lon="2.35099">
        <ele>9</ele>
        <time>2015-10-12T18:22:30Z</time>
      </trkpt>
      <trkpt lat="48.85733" lon="2.35139">
        <ele>72.400001525879</ele>
        <time>2015-10-12T18:22:33Z</time>
      </trkpt>
      <trkpt lat="48.85761" lon="2.35136">
        <ele>8.8000001907349</ele>
        <time>2015-10-12T18:22:41Z</time>
      </trkpt>
      <trkpt lat="48.85765" lon="2.35144">
        <ele>13</ele>
        <time>2015-10-12T18:22:42Z</time>
      </trkpt>
      <trkpt lat="48.85753" lon="2.35157">
        <ele>24.200000762939</ele>
        <time>2015-10-12T18:22:48Z</time>
      </trkpt>
      <trkpt lat="48.85737" lon="2.35179">
        <ele>27</ele>
        <time>2015-10-12T18:22:58Z</time>
      </trkpt>
      <trkpt lat="48.85737" lon="2.35193">
        <ele>25</ele>
        <time>2015-10-12T18:23:01Z</time>
      </trkpt>
      <trkpt lat="48.85738" lon="2.35208">
        <ele>23</ele>
        <time>2015-10-12T18:23:04Z</time>
      </trkpt>
      <trkpt lat="48.8574" lon="2.35226">
        <ele>20.799999237061</ele>
        <time>2015-10-12T18:23:07Z</time>
      </trkpt>
      <trkpt lat="48.8575" lon="2.35243">
        <ele>19.60000038147</ele>
        <time>2015-10-12T18:23:11Z</time>
      </trkpt>
      <trkpt lat="48.85764" lon="2.35261">
        <ele>18.200000762939</ele>
        <time>2015-10-12T18:23:16Z</time>
      </trkpt>
      <trkpt lat="48.85779" lon="2.35281">
        <ele>15.199999809265</ele>
        <time>2015-10-12T18:23:22Z</time>
      </trkpt>
      <trkpt lat="48.85785" lon="2.35294">
        <ele>13.199999809265</ele>
        <time>2015-10-12T18:23:25Z</time>
      </trkpt>
      <trkpt lat="48.85786" lon="2.35316">
        <ele>12.199999809265</ele>
        <time>2015-10-12T18:23:29Z</time>
      </trkpt>
      <trkpt lat="48.85778" lon="2.35341">
        <ele>11.39999961853</ele>
        <time>2015-10-12T18:23:34Z</time>
      </trkpt>
      <trkpt lat="48.85767" lon="2.35368">
        <ele>12.199999809265</ele>
        <time>2015-10-12T18:23:39Z</time>
      </trkpt>
      <trkpt lat="48.85761" lon="2.35396">
        <ele>15.60000038147</ele>
        <time>2015-10-12T18:23:45Z</time>
      </trkpt>
      <trkpt lat="48.85755" lon="2.35423">
        <ele>18.60000038147</ele>
        <time>2015-10-12T18:23:53Z</time>
      </trkpt>
      <trkpt lat="48.85742" lon="2.35446">
        <ele>21</ele>
        <time>2015-10-12T18:23:59Z</time>
      </trkpt>
      <trkpt lat="48.85731" lon="2.35471">
        <ele>23.200000762939</ele>
        <time>2015-10-12T18:24:04Z</time>
      </trkpt>
      <trkpt lat="48.85721" lon="2.35495">
        <ele>26</ele>
        <time>2015-10-12T18:24:09Z</time>
      </trkpt>
      <trkpt lat="48.85709" lon="2.35524">
        <ele>27.200000762939</ele>
        <time>2015-10-12T18:24:15Z</time>
      </trkpt>
      <trkpt lat="48.85701" lon="2.35557">
        <ele>25.39999961853</ele>
        <time>2015-10-12T18:24:20Z</time>
      </trkpt>
      <trkpt lat="48.85698" lon="2.35568">
        <ele>26</ele>
        <time>2015-10-12T18:24:22Z</time>
      </trkpt>
      <trkpt lat="48.85704" lon="2.35594">
        <ele>28</ele>
        <time>2015-10-12T18:24:28Z</time>
      </trkpt>
      <trkpt lat="48.85717" lon="2.35613">
        <ele>29.200000762939</ele>
        <time>2015-10-12T18:24:33Z</time>
      </trkpt>
      <trkpt lat="48.85731" lon="2.35639">
        <ele>30.60000038147</ele>
        <time>2015-10-12T18:24:39Z</time>
      </trkpt>
      <trkpt lat="48.85745" lon="2.35658">
        <ele>31.60000038147</ele>
        <time>2015-10-12T18:24:44Z</time>
      </trkpt>
      <trkpt lat="48.85762" lon="2.35676">
        <ele>32.400001525879</ele>
        <time>2015-10-12T18:24:49Z</time>
      </trkpt>
      <trkpt lat="48.85778" lon="2.35674">
        <ele>31.799999237061</ele>
        <time>2015-10-12T18:24:52Z</time>
      </trkpt>
      <trkpt lat="48.85782" lon="2.35693">
        <ele>32</ele>
        <time>2015-10-12T18:24:57Z</time>
      </trkpt>
      <trkpt lat="48.8579" lon="2.35723">
        <ele>33.20000076294</ele>
        <time>2015-10-12T18:25:04Z</time>
      </trkpt>
      <trkpt lat="48.85803" lon="2.35744">
        <ele>34.599998474121</ele>
        <time>2015-10-12T18:25:09Z</time>
      </trkpt>
      <trkpt lat="48.85819" lon="2.35765">
        <ele>35.599998474121</ele>
        <time>2015-10-12T18:25:14Z</time>
      </trkpt>
      <trkpt lat="48.85837" lon="2.35781">
        <ele>36.20000076294</ele>
        <time>2015-10-12T18:25:19Z</time>
      </trkpt>
      <trkpt lat="48.8586" lon="2.35792">
        <ele>36.20000076294</ele>
        <time>2015-10-12T18:25:25Z</time>
      </trkpt>
      <trkpt lat="48.85846" lon="2.35814">
        <ele>36.599998474121</ele>
        <time>2015-10-12T18:25:30Z</time>
      </trkpt>
      <trkpt lat="48.85844" lon="2.3584">
        <ele>37</ele>
        <time>2015-10-12T18:25:35Z</time>
      </trkpt>
      <trkpt lat="48.85855" lon="2.35864">
        <ele>36.599998474121</ele>
        <time>2015-10-12T18:25:40Z</time>
      </trkpt>
      <trkpt lat="48.85871" lon="2.35875">
        <ele>36.79999923706</ele>
        <time>2015-10-12T18:25:45Z</time>
      </trkpt>
      <trkpt lat="48.85888" lon="2.35892">
        <ele>38.400001525879</ele>
        <time>2015-10-12T18:25:51Z</time>
      </trkpt>
      <trkpt lat="48.85902" lon="2.35912">
        <ele>39.79999923706</ele>
        <time>2015-10-12T18:25:57Z</time>
      </trkpt>
      <trkpt lat="48.85915" lon="2.35931">
        <ele>41.20000076294</ele>
        <time>2015-10-12T18:26:02Z</time>
      </trkpt>
      <trkpt lat="48.85929" lon="2.35952">
        <ele>42.400001525879</ele>
        <time>2015-10-12T18:26:07Z</time>
      </trkpt>
      <trkpt lat="48.85939" lon="2.35976">
        <ele>43.599998474121</ele>
        <time>2015-10-12T18:26:12Z</time>
      </trkpt>
      <trkpt lat="48.85953" lon="2.35995">
        <ele>44.400001525879</ele>
        <time>2015-10-12T18:26:16Z</time>
      </trkpt>
      <trkpt lat="48.85967" lon="2.36016">
        <ele>44.79999923706</ele>
        <time>2015-10-12T18:26:20Z</time>
      </trkpt>
      <trkpt lat="48.85984" lon="2.36037">
        <ele>44.599998474121</ele>
        <time>2015-10-12T18:26:24Z</time>
      </trkpt>
      <trkpt lat="48.86002" lon="2.36056">
        <ele>44.20000076294</ele>
        <time>2015-10-12T18:26:28Z</time>
      </trkpt>
      <trkpt lat="48.86012" lon="2.36078">
        <ele>43.79999923706</ele>
        <time>2015-10-12T18:26:33Z</time>
      </trkpt>
      <trkpt lat="48.86013" lon="2.36082">
        <ele>43.599998474121</ele>
        <time>2015-10-12T18:26:34Z</time>
      </trkpt>
      <trkpt lat="48.86025" lon="2.36109">
        <ele>42.599998474121</ele>
        <time>2015-10-12T18:26:40Z</time>
      </trkpt>
      <trkpt lat="48.86037" lon="2.36135">
        <ele>42.599998474121</ele>
        <time>2015-10-12T18:26:46Z</time>
      </trkpt>
      <trkpt lat="48.86047" lon="2.36162">
        <ele>43.599998474121</ele>
        <time>2015-10-12T18:26:51Z</time>
      </trkpt>
      <trkpt lat="48.86059" lon="2.36189">
        <ele>44</ele>
        <time>2015-10-12T18:26:57Z</time>
      </trkpt>
      <trkpt lat="48.8607" lon="2.36213">
        <ele>42.79999923706</ele>
        <time>2015-10-12T18:27:02Z</time>
      </trkpt>
      <trkpt lat="48.8608" lon="2.36236">
        <ele>43</ele>
        <time>2015-10-12T18:27:10Z</time>
      </trkpt>
      <trkpt lat="48.86092" lon="2.36262">
        <ele>44.400001525879</ele>
        <time>2015-10-12T18:27:17Z</time>
      </trkpt>
      <trkpt lat="48.86106" lon="2.3628">
        <ele>44.400001525879</ele>
        <time>2015-10-12T18:27:22Z</time>
      </trkpt>
      <trkpt lat="48.86118" lon="2.36305">
        <ele>44.20000076294</ele>
        <time>2015-10-12T18:27:27Z</time>
      </trkpt>
      <trkpt lat="48.86129" lon="2.36332">
        <ele>43.599998474121</ele>
        <time>2015-10-12T18:27:32Z</time>
      </trkpt>
      <trkpt lat="48.86152" lon="2.36347">
        <ele>42</ele>
        <time>2015-10-12T18:27:37Z</time>
      </trkpt>
      <trkpt lat="48.86165" lon="2.36369">
        <ele>40.79999923706</ele>
        <time>2015-10-12T18:27:42Z</time>
      </trkpt>
      <trkpt lat="48.86173" lon="2.36394">
        <ele>39.20000076294</ele>
        <time>2015-10-12T18:27:47Z</time>
      </trkpt>
      <trkpt lat="48.86184" lon="2.36418">
        <ele>38.79999923706</ele>
        <time>2015-10-12T18:27:52Z</time>
      </trkpt>
      <trkpt lat="48.862" lon="2.36443">
        <ele>38</ele>
        <time>2015-10-12T18:27:58Z</time>
      </trkpt>
      <trkpt lat="48.86212" lon="2.36467">
        <ele>37</ele>
        <time>2015-10-12T18:28:03Z</time>
      </trkpt>
      <trkpt lat="48.86226" lon="2.36488">
        <ele>36.400001525879</ele>
        <time>2015-10-12T18:28:07Z</time>
      </trkpt>
      <trkpt lat="48.86239" lon="2.36514">
        <ele>35.20000076294</ele>
        <time>2015-10-12T18:28:12Z</time>
      </trkpt>
      <trkpt lat="48.8625" lon="2.36536">
        <ele>34.79999923706</ele>
        <time>2015-10-12T18:28:16Z</time>
      </trkpt>
      <trkpt lat="48.86261" lon="2.36559">
        <ele>34.79999923706</ele>
        <time>2015-10-12T18:28:20Z</time>
      </trkpt>
      <trkpt lat="48.86271" lon="2.36589">
        <ele>33.599998474121</ele>
        <time>2015-10-12T18:28:25Z</time>
      </trkpt>
      <trkpt lat="48.86281" lon="2.36614">
        <ele>33</ele>
        <time>2015-10-12T18:28:29Z</time>
      </trkpt>
      <trkpt lat="48.86292" lon="2.3664">
        <ele>33</ele>
        <time>2015-10-12T18:28:34Z</time>
      </trkpt>
      <trkpt lat="48.863" lon="2.36653">
        <ele>32.79999923706</ele>
        <time>2015-10-12T18:28:38Z</time>
      </trkpt>
      <trkpt lat="48.86308" lon="2.36661">
        <ele>33.400001525879</ele>
        <time>2015-10-12T18:28:43Z</time>
      </trkpt>
      <trkpt lat="48.86312" lon="2.36667">
        <ele>33.400001525879</ele>
        <time>2015-10-12T18:28:47Z</time>
      </trkpt>
      <trkpt lat="48.86325" lon="2.36672">
        <ele>34.79999923706</ele>
        <time>2015-10-12T18:29:05Z</time>
      </trkpt>
      <trkpt lat="48.86342" lon="2.36662">
        <ele>33.79999923706</ele>
        <time>2015-10-12T18:29:10Z</time>
      </trkpt>
      <trkpt lat="48.8636" lon="2.36648">
        <ele>35</ele>
        <time>2015-10-12T18:29:16Z</time>
      </trkpt>
      <trkpt lat="48.86379" lon="2.36632">
        <ele>35.599998474121</ele>
        <time>2015-10-12T18:29:22Z</time>
      </trkpt>
      <trkpt lat="48.86396" lon="2.3662">
        <ele>36.20000076294</ele>
        <time>2015-10-12T18:29:27Z</time>
      </trkpt>
      <trkpt lat="48.86415" lon="2.36607">
        <ele>35.79999923706</ele>
        <time>2015-10-12T18:29:33Z</time>
      </trkpt>
      <trkpt lat="48.86435" lon="2.36594">
        <ele>35.400001525879</ele>
        <time>2015-10-12T18:29:38Z</time>
      </trkpt>
      <trkpt lat="48.86452" lon="2.36581">
        <ele>35.599998474121</ele>
        <time>2015-10-12T18:29:42Z</time>
      </trkpt>
      <trkpt lat="48.86469" lon="2.36568">
        <ele>37.599998474121</ele>
        <time>2015-10-12T18:29:46Z</time>
      </trkpt>
      <trkpt lat="48.86488" lon="2.36556">
        <ele>38.400001525879</ele>
        <time>2015-10-12T18:29:50Z</time>
      </trkpt>
      <trkpt lat="48.86507" lon="2.36544">
        <ele>39.79999923706</ele>
        <time>2015-10-12T18:29:54Z</time>
      </trkpt>
      <trkpt lat="48.86512" lon="2.36542">
        <ele>38.79999923706</ele>
        <time>2015-10-12T18:29:55Z</time>
      </trkpt>
      <trkpt lat="48.8652" lon="2.36538">
        <ele>39</ele>
        <time>2015-10-12T18:29:57Z</time>
      </trkpt>
      <trkpt lat="48.86538" lon="2.36527">
        <ele>39.20000076294</ele>
        <time>2015-10-12T18:30:01Z</time>
      </trkpt>
      <trkpt lat="48.86557" lon="2.36516">
        <ele>41.400001525879</ele>
        <time>2015-10-12T18:30:05Z</time>
      </trkpt>
      <trkpt lat="48.86577" lon="2.36505">
        <ele>40.400001525879</ele>
        <time>2015-10-12T18:30:09Z</time>
      </trkpt>
      <trkpt lat="48.86596" lon="2.36493">
        <ele>41</ele>
        <time>2015-10-12T18:30:13Z</time>
      </trkpt>
      <trkpt lat="48.86605" lon="2.36488">
        <ele>41</ele>
        <time>2015-10-12T18:30:15Z</time>
      </trkpt>
      <trkpt lat="48.86623" lon="2.36478">
        <ele>41.599998474121</ele>
        <time>2015-10-12T18:30:19Z</time>
      </trkpt>
      <trkpt lat="48.8664" lon="2.3647">
        <ele>41.599998474121</ele>
        <time>2015-10-12T18:30:24Z</time>
      </trkpt>
      <trkpt lat="48.86642" lon="2.3647">
        <ele>42</ele>
        <time>2015-10-12T18:30:25Z</time>
      </trkpt>
      <trkpt lat="48.86643" lon="2.3647">
        <ele>43</ele>
        <time>2015-10-12T18:30:27Z</time>
      </trkpt>
      <trkpt lat="48.86645" lon="2.36476">
        <ele>43.400001525879</ele>
        <time>2015-10-12T18:30:36Z</time>
      </trkpt>
      <trkpt lat="48.86657" lon="2.36482">
        <ele>42.79999923706</ele>
        <time>2015-10-12T18:31:01Z</time>
      </trkpt>
      <trkpt lat="48.86673" lon="2.36477">
        <ele>45</ele>
        <time>2015-10-12T18:31:11Z</time>
      </trkpt>
      <trkpt lat="48.86681" lon="2.36471">
        <ele>45</ele>
        <time>2015-10-12T18:31:18Z</time>
      </trkpt>
      <trkpt lat="48.86686" lon="2.36475">
        <ele>43.400001525879</ele>
        <time>2015-10-12T18:31:26Z</time>
      </trkpt>
      <trkpt lat="48.86684" lon="2.36484">
        <ele>36.79999923706</ele>
        <time>2015-10-12T18:32:22Z</time>
      </trkpt>
      <trkpt lat="48.86689" lon="2.36477">
        <ele>35.79999923706</ele>
        <time>2015-10-12T18:34:05Z</time>
      </trkpt>
      <trkpt lat="48.86693" lon="2.36469">
        <ele>34.20000076294</ele>
        <time>2015-10-12T18:35:10Z</time>
      </trkpt>
      <trkpt lat="48.86711" lon="2.36464">
        <ele>34.400001525879</ele>
        <time>2015-10-12T18:35:19Z</time>
      </trkpt>
      <trkpt lat="48.86718" lon="2.3646">
        <ele>34.20000076294</ele>
        <time>2015-10-12T18:35:22Z</time>
      </trkpt>
      <trkpt lat="48.86733" lon="2.36441">
        <ele>33.20000076294</ele>
        <time>2015-10-12T18:35:29Z</time>
      </trkpt>
      <trkpt lat="48.86752" lon="2.36433">
        <ele>29.60000038147</ele>
        <time>2015-10-12T18:35:35Z</time>
      </trkpt>
      <trkpt lat="48.8677" lon="2.36442">
        <ele>28.60000038147</ele>
        <time>2015-10-12T18:35:41Z</time>
      </trkpt>
      <trkpt lat="48.86784" lon="2.3646">
        <ele>27.60000038147</ele>
        <time>2015-10-12T18:35:46Z</time>
      </trkpt>
      <trkpt lat="48.86794" lon="2.36484">
        <ele>28.60000038147</ele>
        <time>2015-10-12T18:35:51Z</time>
      </trkpt>
      <trkpt lat="48.86804" lon="2.3651">
        <ele>33.599998474121</ele>
        <time>2015-10-12T18:35:56Z</time>
      </trkpt>
      <trkpt lat="48.86813" lon="2.36539">
        <ele>36.79999923706</ele>
        <time>2015-10-12T18:36:01Z</time>
      </trkpt>
      <trkpt lat="48.86821" lon="2.36567">
        <ele>38.20000076294</ele>
        <time>2015-10-12T18:36:06Z</time>
      </trkpt>
      <trkpt lat="48.86834" lon="2.36592">
        <ele>39.599998474121</ele>
        <time>2015-10-12T18:36:11Z</time>
      </trkpt>
      <trkpt lat="48.86845" lon="2.36619">
        <ele>40.20000076294</ele>
        <time>2015-10-12T18:36:17Z</time>
      </trkpt>
      <trkpt lat="48.86853" lon="2.36644">
        <ele>42.599998474121</ele>
        <time>2015-10-12T18:36:22Z</time>
      </trkpt>
      <trkpt lat="48.8686" lon="2.36672">
        <ele>43</ele>
        <time>2015-10-12T18:36:27Z</time>
      </trkpt>
      <trkpt lat="48.86868" lon="2.36697">
        <ele>44.20000076294</ele>
        <time>2015-10-12T18:36:34Z</time>
      </trkpt>
      <trkpt lat="48.86867" lon="2.36711">
        <ele>46.400001525879</ele>
        <time>2015-10-12T18:36:39Z</time>
      </trkpt>
      <trkpt lat="48.86874" lon="2.36728">
        <ele>45.79999923706</ele>
        <time>2015-10-12T18:36:45Z</time>
      </trkpt>
      <trkpt lat="48.8688" lon="2.36754">
        <ele>47.400001525879</ele>
        <time>2015-10-12T18:36:54Z</time>
      </trkpt>
      <trkpt lat="48.86886" lon="2.36768">
        <ele>49.599998474121</ele>
        <time>2015-10-12T18:37:02Z</time>
      </trkpt>
      <trkpt lat="48.86892" lon="2.36785">
        <ele>51.79999923706</ele>
        <time>2015-10-12T18:37:10Z</time>
      </trkpt>
      <trkpt lat="48.86891" lon="2.36786">
        <ele>52.20000076294</ele>
        <time>2015-10-12T18:37:11Z</time>
      </trkpt>
      <trkpt lat="48.86878" lon="2.36805">
        <ele>52.599998474121</ele>
        <time>2015-10-12T18:37:17Z</time>
      </trkpt>
      <trkpt lat="48.86871" lon="2.36824">
        <ele>53.400001525879</ele>
        <time>2015-10-12T18:37:21Z</time>
      </trkpt>
      <trkpt lat="48.86863" lon="2.36854">
        <ele>53.400001525879</ele>
        <time>2015-10-12T18:37:26Z</time>
      </trkpt>
      <trkpt lat="48.86858" lon="2.36884">
        <ele>54.400001525879</ele>
        <time>2015-10-12T18:37:31Z</time>
      </trkpt>
      <trkpt lat="48.86854" lon="2.36914">
        <ele>54.79999923706</ele>
        <time>2015-10-12T18:37:36Z</time>
      </trkpt>
      <trkpt lat="48.86852" lon="2.36942">
        <ele>54.400001525879</ele>
        <time>2015-10-12T18:37:41Z</time>
      </trkpt>
      <trkpt lat="48.86847" lon="2.36972">
        <ele>54.599998474121</ele>
        <time>2015-10-12T18:37:47Z</time>
      </trkpt>
      <trkpt lat="48.86839" lon="2.37002">
        <ele>57.20000076294</ele>
        <time>2015-10-12T18:37:53Z</time>
      </trkpt>
      <trkpt lat="48.86836" lon="2.37032">
        <ele>60</ele>
        <time>2015-10-12T18:37:58Z</time>
      </trkpt>
      <trkpt lat="48.86834" lon="2.37062">
        <ele>62.599998474121</ele>
        <time>2015-10-12T18:38:03Z</time>
      </trkpt>
      <trkpt lat="48.86831" lon="2.37093">
        <ele>63</ele>
        <time>2015-10-12T18:38:08Z</time>
      </trkpt>
      <trkpt lat="48.86825" lon="2.37122">
        <ele>61.79999923706</ele>
        <time>2015-10-12T18:38:13Z</time>
      </trkpt>
      <trkpt lat="48.86821" lon="2.3715">
        <ele>62.79999923706</ele>
        <time>2015-10-12T18:38:18Z</time>
      </trkpt>
      <trkpt lat="48.86817" lon="2.37179">
        <ele>63.400001525879</ele>
        <time>2015-10-12T18:38:23Z</time>
      </trkpt>
      <trkpt lat="48.86815" lon="2.37209">
        <ele>64.599998474121</ele>
        <time>2015-10-12T18:38:29Z</time>
      </trkpt>
      <trkpt lat="48.86818" lon="2.37213">
        <ele>65.400001525879</ele>
        <time>2015-10-12T18:38:32Z</time>
      </trkpt>
      <trkpt lat="48.8683" lon="2.37217">
        <ele>58.79999923706</ele>
        <time>2015-10-12T18:38:52Z</time>
      </trkpt>
      <trkpt lat="48.8685" lon="2.37207">
        <ele>57.79999923706</ele>
        <time>2015-10-12T18:39:01Z</time>
      </trkpt>
      <trkpt lat="48.86869" lon="2.37194">
        <ele>58.20000076294</ele>
        <time>2015-10-12T18:39:06Z</time>
      </trkpt>
      <trkpt lat="48.86885" lon="2.37182">
        <ele>57.20000076294</ele>
        <time>2015-10-12T18:39:10Z</time>
      </trkpt>
      <trkpt lat="48.86902" lon="2.37168">
        <ele>57.599998474121</ele>
        <time>2015-10-12T18:39:14Z</time>
      </trkpt>
      <trkpt lat="48.86921" lon="2.37155">
        <ele>57.599998474121</ele>
        <time>2015-10-12T18:39:19Z</time>
      </trkpt>
      <trkpt lat="48.86942" lon="2.37142">
        <ele>58.20000076294</ele>
        <time>2015-10-12T18:39:24Z</time>
      </trkpt>
      <trkpt lat="48.86959" lon="2.37132">
        <ele>58</ele>
        <time>2015-10-12T18:39:28Z</time>
      </trkpt>
      <trkpt lat="48.86977" lon="2.37117">
        <ele>56.79999923706</ele>
        <time>2015-10-12T18:39:32Z</time>
      </trkpt>
      <trkpt lat="48.86996" lon="2.37102">
        <ele>56.20000076294</ele>
        <time>2015-10-12T18:39:36Z</time>
      </trkpt>
      <trkpt lat="48.87015" lon="2.3709">
        <ele>54.400001525879</ele>
        <time>2015-10-12T18:39:40Z</time>
      </trkpt>
      <trkpt lat="48.87034" lon="2.37076">
        <ele>52.79999923706</ele>
        <time>2015-10-12T18:39:44Z</time>
      </trkpt>
      <trkpt lat="48.87053" lon="2.37062">
        <ele>49.79999923706</ele>
        <time>2015-10-12T18:39:48Z</time>
      </trkpt>
      <trkpt lat="48.87071" lon="2.37049">
        <ele>47</ele>
        <time>2015-10-12T18:39:52Z</time>
      </trkpt>
      <trkpt lat="48.87091" lon="2.37034">
        <ele>44.400001525879</ele>
        <time>2015-10-12T18:39:57Z</time>
      </trkpt>
      <trkpt lat="48.8711" lon="2.37021">
        <ele>40.20000076294</ele>
        <time>2015-10-12T18:40:02Z</time>
      </trkpt>
      <trkpt lat="48.8712" lon="2.37015">
        <ele>38.400001525879</ele>
        <time>2015-10-12T18:40:05Z</time>
      </trkpt>
      <trkpt lat="48.87128" lon="2.37027">
        <ele>39</ele>
        <time>2015-10-12T18:40:09Z</time>
      </trkpt>
      <trkpt lat="48.87131" lon="2.37039">
        <ele>40</ele>
        <time>2015-10-12T18:40:11Z</time>
      </trkpt>
      <trkpt lat="48.87141" lon="2.37065">
        <ele>42.20000076294</ele>
        <time>2015-10-12T18:40:16Z</time>
      </trkpt>
      <trkpt lat="48.87151" lon="2.37089">
        <ele>42.599998474121</ele>
        <time>2015-10-12T18:40:21Z</time>
      </trkpt>
      <trkpt lat="48.8716" lon="2.37112">
        <ele>42.79999923706</ele>
        <time>2015-10-12T18:40:26Z</time>
      </trkpt>
      <trkpt lat="48.87171" lon="2.37139">
        <ele>42.599998474121</ele>
        <time>2015-10-12T18:40:31Z</time>
      </trkpt>
      <trkpt lat="48.87179" lon="2.37164">
        <ele>42.400001525879</ele>
        <time>2015-10-12T18:40:36Z</time>
      </trkpt>
      <trkpt lat="48.87187" lon="2.37187">
        <ele>41</ele>
        <time>2015-10-12T18:40:49Z</time>
      </trkpt>
      <trkpt lat="48.87189" lon="2.37186">
        <ele>40.79999923706</ele>
        <time>2015-10-12T18:40:50Z</time>
      </trkpt>
      <trkpt lat="48.87205" lon="2.37172">
        <ele>41.20000076294</ele>
        <time>2015-10-12T18:40:57Z</time>
      </trkpt>
      <trkpt lat="48.87219" lon="2.37155">
        <ele>43</ele>
        <time>2015-10-12T18:41:02Z</time>
      </trkpt>
      <trkpt lat="48.87237" lon="2.37141">
        <ele>45</ele>
        <time>2015-10-12T18:41:08Z</time>
      </trkpt>
      <trkpt lat="48.87247" lon="2.37135">
        <ele>46.79999923706</ele>
        <time>2015-10-12T18:41:12Z</time>
      </trkpt>
      <trkpt lat="48.87257" lon="2.37159">
        <ele>48</ele>
        <time>2015-10-12T18:41:17Z</time>
      </trkpt>
      <trkpt lat="48.87269" lon="2.37184">
        <ele>48.79999923706</ele>
        <time>2015-10-12T18:41:22Z</time>
      </trkpt>
      <trkpt lat="48.8728" lon="2.37207">
        <ele>49.400001525879</ele>
        <time>2015-10-12T18:41:26Z</time>
      </trkpt>
      <trkpt lat="48.87291" lon="2.37232">
        <ele>49.20000076294</ele>
        <time>2015-10-12T18:41:30Z</time>
      </trkpt>
      <trkpt lat="48.87302" lon="2.3726">
        <ele>51</ele>
        <time>2015-10-12T18:41:35Z</time>
      </trkpt>
      <trkpt lat="48.87314" lon="2.37286">
        <ele>51.20000076294</ele>
        <time>2015-10-12T18:41:40Z</time>
      </trkpt>
      <trkpt lat="48.87326" lon="2.3731">
        <ele>50.79999923706</ele>
        <time>2015-10-12T18:41:45Z</time>
      </trkpt>
      <trkpt lat="48.87335" lon="2.37337">
        <ele>51.599998474121</ele>
        <time>2015-10-12T18:41:51Z</time>
      </trkpt>
      <trkpt lat="48.87349" lon="2.37359">
        <ele>53.20000076294</ele>
        <time>2015-10-12T18:42:00Z</time>
      </trkpt>
      <trkpt lat="48.87356" lon="2.37366">
        <ele>55</ele>
        <time>2015-10-12T18:42:07Z</time>
      </trkpt>
      <trkpt lat="48.87368" lon="2.37353">
        <ele>58.20000076294</ele>
        <time>2015-10-12T18:42:25Z</time>
      </trkpt>
      <trkpt lat="48.87381" lon="2.3733">
        <ele>56.79999923706</ele>
        <time>2015-10-12T18:42:32Z</time>
      </trkpt>
      <trkpt lat="48.87394" lon="2.3731">
        <ele>53.599998474121</ele>
        <time>2015-10-12T18:42:38Z</time>
      </trkpt>
      <trkpt lat="48.87409" lon="2.37289">
        <ele>52.599998474121</ele>
        <time>2015-10-12T18:42:44Z</time>
      </trkpt>
      <trkpt lat="48.87415" lon="2.37274">
        <ele>52.400001525879</ele>
        <time>2015-10-12T18:42:48Z</time>
      </trkpt>
      <trkpt lat="48.87424" lon="2.37263">
        <ele>51.599998474121</ele>
        <time>2015-10-12T18:42:55Z</time>
      </trkpt>
      <trkpt lat="48.87434" lon="2.37288">
        <ele>49.79999923706</ele>
        <time>2015-10-12T18:43:03Z</time>
      </trkpt>
      <trkpt lat="48.87446" lon="2.3731">
        <ele>49.20000076294</ele>
        <time>2015-10-12T18:43:10Z</time>
      </trkpt>
      <trkpt lat="48.87449" lon="2.3731">
        <ele>49</ele>
        <time>2015-10-12T18:43:11Z</time>
      </trkpt>
      <trkpt lat="48.87455" lon="2.37312">
        <ele>48.79999923706</ele>
        <time>2015-10-12T18:43:14Z</time>
      </trkpt>
      <trkpt lat="48.87465" lon="2.37286">
        <ele>47.400001525879</ele>
        <time>2015-10-12T18:43:21Z</time>
      </trkpt>
      <trkpt lat="48.87469" lon="2.3726">
        <ele>45.599998474121</ele>
        <time>2015-10-12T18:43:26Z</time>
      </trkpt>
      <trkpt lat="48.87472" lon="2.37232">
        <ele>43.400001525879</ele>
        <time>2015-10-12T18:43:31Z</time>
      </trkpt>
      <trkpt lat="48.87478" lon="2.37201">
        <ele>41.400001525879</ele>
        <time>2015-10-12T18:43:36Z</time>
      </trkpt>
      <trkpt lat="48.8748" lon="2.37169">
        <ele>39.79999923706</ele>
        <time>2015-10-12T18:43:41Z</time>
      </trkpt>
      <trkpt lat="48.87488" lon="2.37138">
        <ele>38</ele>
        <time>2015-10-12T18:43:46Z</time>
      </trkpt>
      <trkpt lat="48.87496" lon="2.37113">
        <ele>36.599998474121</ele>
        <time>2015-10-12T18:43:50Z</time>
      </trkpt>
      <trkpt lat="48.87504" lon="2.37087">
        <ele>34.79999923706</ele>
        <time>2015-10-12T18:43:54Z</time>
      </trkpt>
      <trkpt lat="48.87508" lon="2.37068">
        <ele>33.599998474121</ele>
        <time>2015-10-12T18:43:57Z</time>
      </trkpt>
      <trkpt lat="48.87519" lon="2.37043">
        <ele>32.400001525879</ele>
        <time>2015-10-12T18:44:02Z</time>
      </trkpt>
      <trkpt lat="48.87532" lon="2.37037">
        <ele>34.400001525879</ele>
        <time>2015-10-12T18:44:06Z</time>
      </trkpt>
      <trkpt lat="48.87535" lon="2.37036">
        <ele>35.599998474121</ele>
        <time>2015-10-12T18:44:07Z</time>
      </trkpt>
      <trkpt lat="48.87535" lon="2.37009">
        <ele>41.79999923706</ele>
        <time>2015-10-12T18:44:19Z</time>
      </trkpt>
      <trkpt lat="48.87537" lon="2.3698">
        <ele>41.599998474121</ele>
        <time>2015-10-12T18:44:24Z</time>
      </trkpt>
      <trkpt lat="48.87539" lon="2.36951">
        <ele>40.400001525879</ele>
        <time>2015-10-12T18:44:29Z</time>
      </trkpt>
      <trkpt lat="48.8754" lon="2.36924">
        <ele>40.20000076294</ele>
        <time>2015-10-12T18:44:34Z</time>
      </trkpt>
      <trkpt lat="48.87544" lon="2.36922">
        <ele>40.20000076294</ele>
        <time>2015-10-12T18:44:35Z</time>
      </trkpt>
      <trkpt lat="48.8756" lon="2.36908">
        <ele>40.79999923706</ele>
        <time>2015-10-12T18:44:41Z</time>
      </trkpt>
      <trkpt lat="48.87576" lon="2.36892">
        <ele>41</ele>
        <time>2015-10-12T18:44:47Z</time>
      </trkpt>
      <trkpt lat="48.87587" lon="2.36869">
        <ele>43.599998474121</ele>
        <time>2015-10-12T18:44:52Z</time>
      </trkpt>
      <trkpt lat="48.87604" lon="2.36855">
        <ele>44.20000076294</ele>
        <time>2015-10-12T18:44:58Z</time>
      </trkpt>
      <trkpt lat="48.87617" lon="2.36834">
        <ele>44.599998474121</ele>
        <time>2015-10-12T18:45:05Z</time>
      </trkpt>
      <trkpt lat="48.87627" lon="2.36808">
        <ele>44</ele>
        <time>2015-10-12T18:45:12Z</time>
      </trkpt>
      <trkpt lat="48.87639" lon="2.36783">
        <ele>42.400001525879</ele>
        <time>2015-10-12T18:45:17Z</time>
      </trkpt>
      <trkpt lat="48.8765" lon="2.36758">
        <ele>41.20000076294</ele>
        <time>2015-10-12T18:45:21Z</time>
      </trkpt>
      <trkpt lat="48.87661" lon="2.36732">
        <ele>39.20000076294</ele>
        <time>2015-10-12T18:45:25Z</time>
      </trkpt>
      <trkpt lat="48.87671" lon="2.36708">
        <ele>38.20000076294</ele>
        <time>2015-10-12T18:45:29Z</time>
      </trkpt>
      <trkpt lat="48.87683" lon="2.3668">
        <ele>35.79999923706</ele>
        <time>2015-10-12T18:45:34Z</time>
      </trkpt>
      <trkpt lat="48.87692" lon="2.36656">
        <ele>33.400001525879</ele>
        <time>2015-10-12T18:45:38Z</time>
      </trkpt>
      <trkpt lat="48.87702" lon="2.36632">
        <ele>32</ele>
        <time>2015-10-12T18:45:42Z</time>
      </trkpt>
      <trkpt lat="48.87705" lon="2.36627">
        <ele>31.200000762939</ele>
        <time>2015-10-12T18:45:43Z</time>
      </trkpt>
      <trkpt lat="48.87719" lon="2.3661">
        <ele>29.60000038147</ele>
        <time>2015-10-12T18:45:47Z</time>
      </trkpt>
      <trkpt lat="48.8773" lon="2.36595">
        <ele>29</ele>
        <time>2015-10-12T18:45:51Z</time>
      </trkpt>
      <trkpt lat="48.87737" lon="2.36584">
        <ele>29</ele>
        <time>2015-10-12T18:45:55Z</time>
      </trkpt>
      <trkpt lat="48.87742" lon="2.36578">
        <ele>29.200000762939</ele>
        <time>2015-10-12T18:45:58Z</time>
      </trkpt>
      <trkpt lat="48.87747" lon="2.36574">
        <ele>29.60000038147</ele>
        <time>2015-10-12T18:46:00Z</time>
      </trkpt>
      <trkpt lat="48.8776" lon="2.36552">
        <ele>30.799999237061</ele>
        <time>2015-10-12T18:46:08Z</time>
      </trkpt>
      <trkpt lat="48.87763" lon="2.36543">
        <ele>31.799999237061</ele>
        <time>2015-10-12T18:46:11Z</time>
      </trkpt>
      <trkpt lat="48.87782" lon="2.36528">
        <ele>33.20000076294</ele>
        <time>2015-10-12T18:46:18Z</time>
      </trkpt>
      <trkpt lat="48.87785" lon="2.36524">
        <ele>33.400001525879</ele>
        <time>2015-10-12T18:46:19Z</time>
      </trkpt>
      <trkpt lat="48.87802" lon="2.36503">
        <ele>33.79999923706</ele>
        <time>2015-10-12T18:46:24Z</time>
      </trkpt>
      <trkpt lat="48.87817" lon="2.36487">
        <ele>32.79999923706</ele>
        <time>2015-10-12T18:46:28Z</time>
      </trkpt>
      <trkpt lat="48.87832" lon="2.36468">
        <ele>31.200000762939</ele>
        <time>2015-10-12T18:46:33Z</time>
      </trkpt>
      <trkpt lat="48.87848" lon="2.36448">
        <ele>29.39999961853</ele>
        <time>2015-10-12T18:46:38Z</time>
      </trkpt>
      <trkpt lat="48.87863" lon="2.36425">
        <ele>26.200000762939</ele>
        <time>2015-10-12T18:46:44Z</time>
      </trkpt>
      <trkpt lat="48.87875" lon="2.36401">
        <ele>23.39999961853</ele>
        <time>2015-10-12T18:46:50Z</time>
      </trkpt>
      <trkpt lat="48.8789" lon="2.36378">
        <ele>19.60000038147</ele>
        <time>2015-10-12T18:46:56Z</time>
      </trkpt>
      <trkpt lat="48.87903" lon="2.36355">
        <ele>16.39999961853</ele>
        <time>2015-10-12T18:47:01Z</time>
      </trkpt>
      <trkpt lat="48.87915" lon="2.36331">
        <ele>14.39999961853</ele>
        <time>2015-10-12T18:47:06Z</time>
      </trkpt>
      <trkpt lat="48.87926" lon="2.36306">
        <ele>14.60000038147</ele>
        <time>2015-10-12T18:47:12Z</time>
      </trkpt>
      <trkpt lat="48.87928" lon="2.36291">
        <ele>14.800000190735</ele>
        <time>2015-10-12T18:47:18Z</time>
      </trkpt>
      <trkpt lat="48.87918" lon="2.36269">
        <ele>17.200000762939</ele>
        <time>2015-10-12T18:47:24Z</time>
      </trkpt>
      <trkpt lat="48.87909" lon="2.36252">
        <ele>17.60000038147</ele>
        <time>2015-10-12T18:47:29Z</time>
      </trkpt>
      <trkpt lat="48.87922" lon="2.36238">
        <ele>20.200000762939</ele>
        <time>2015-10-12T18:47:36Z</time>
      </trkpt>
      <trkpt lat="48.87941" lon="2.36235">
        <ele>25.200000762939</ele>
        <time>2015-10-12T18:47:43Z</time>
      </trkpt>
      <trkpt lat="48.8796" lon="2.36229">
        <ele>33.20000076294</ele>
        <time>2015-10-12T18:47:50Z</time>
      </trkpt>
      <trkpt lat="48.87981" lon="2.36226">
        <ele>40.599998474121</ele>
        <time>2015-10-12T18:47:56Z</time>
      </trkpt>
      <trkpt lat="48.88001" lon="2.36222">
        <ele>54</ele>
        <time>2015-10-12T18:48:02Z</time>
      </trkpt>
      <trkpt lat="48.8802" lon="2.3622">
        <ele>59.79999923706</ele>
        <time>2015-10-12T18:48:08Z</time>
      </trkpt>
      <trkpt lat="48.88038" lon="2.36217">
        <ele>62.79999923706</ele>
        <time>2015-10-12T18:48:14Z</time>
      </trkpt>
      <trkpt lat="48.88055" lon="2.36207">
        <ele>62</ele>
        <time>2015-10-12T18:48:20Z</time>
      </trkpt>
      <trkpt lat="48.88073" lon="2.36205">
        <ele>64.599998474121</ele>
        <time>2015-10-12T18:48:27Z</time>
      </trkpt>
      <trkpt lat="48.88093" lon="2.362">
        <ele>66.400001525879</ele>
        <time>2015-10-12T18:48:33Z</time>
      </trkpt>
      <trkpt lat="48.88114" lon="2.36191">
        <ele>65.599998474121</ele>
        <time>2015-10-12T18:48:38Z</time>
      </trkpt>
      <trkpt lat="48.8813" lon="2.36182">
        <ele>66.599998474121</ele>
        <time>2015-10-12T18:48:43Z</time>
      </trkpt>
      <trkpt lat="48.8813" lon="2.36161">
        <ele>66.800003051758</ele>
        <time>2015-10-12T18:48:49Z</time>
      </trkpt>
      <trkpt lat="48.88117" lon="2.36135">
        <ele>71.199996948242</ele>
        <time>2015-10-12T18:48:55Z</time>
      </trkpt>
      <trkpt lat="48.88105" lon="2.36111">
        <ele>71.400001525879</ele>
        <time>2015-10-12T18:49:00Z</time>
      </trkpt>
      <trkpt lat="48.88095" lon="2.36082">
        <ele>71.800003051758</ele>
        <time>2015-10-12T18:49:05Z</time>
      </trkpt>
      <trkpt lat="48.88085" lon="2.3606">
        <ele>71.199996948242</ele>
        <time>2015-10-12T18:49:09Z</time>
      </trkpt>
      <trkpt lat="48.88074" lon="2.36037">
        <ele>71.400001525879</ele>
        <time>2015-10-12T18:49:13Z</time>
      </trkpt>
      <trkpt lat="48.88064" lon="2.36013">
        <ele>71</ele>
        <time>2015-10-12T18:49:17Z</time>
      </trkpt>
      <trkpt lat="48.88054" lon="2.35989">
        <ele>70.199996948242</ele>
        <time>2015-10-12T18:49:21Z</time>
      </trkpt>
      <trkpt lat="48.88043" lon="2.35964">
        <ele>70.199996948242</ele>
        <time>2015-10-12T18:49:25Z</time>
      </trkpt>
      <trkpt lat="48.88027" lon="2.35941">
        <ele>69.800003051758</ele>
        <time>2015-10-12T18:49:29Z</time>
      </trkpt>
      <trkpt lat="48.88011" lon="2.35919">
        <ele>69.400001525879</ele>
        <time>2015-10-12T18:49:33Z</time>
      </trkpt>
      <trkpt lat="48.88002" lon="2.35901">
        <ele>69</ele>
        <time>2015-10-12T18:49:36Z</time>
      </trkpt>
      <trkpt lat="48.87989" lon="2.35881">
        <ele>70.800003051758</ele>
        <time>2015-10-12T18:49:40Z</time>
      </trkpt>
      <trkpt lat="48.87981" lon="2.35869">
        <ele>70.599998474121</ele>
        <time>2015-10-12T18:49:43Z</time>
      </trkpt>
      <trkpt lat="48.87971" lon="2.35844">
        <ele>70.199996948242</ele>
        <time>2015-10-12T18:49:50Z</time>
      </trkpt>
      <trkpt lat="48.87968" lon="2.35837">
        <ele>69.800003051758</ele>
        <time>2015-10-12T18:49:52Z</time>
      </trkpt>
      <trkpt lat="48.87965" lon="2.35834">
        <ele>69.800003051758</ele>
        <time>2015-10-12T18:49:53Z</time>
      </trkpt>
      <trkpt lat="48.87955" lon="2.35814">
        <ele>70</ele>
        <time>2015-10-12T18:49:59Z</time>
      </trkpt>
      <trkpt lat="48.87948" lon="2.35787">
        <ele>67</ele>
        <time>2015-10-12T18:50:07Z</time>
      </trkpt>
      <trkpt lat="48.87948" lon="2.35755">
        <ele>62.599998474121</ele>
        <time>2015-10-12T18:50:13Z</time>
      </trkpt>
      <trkpt lat="48.87955" lon="2.35729">
        <ele>58.79999923706</ele>
        <time>2015-10-12T18:50:19Z</time>
      </trkpt>
      <trkpt lat="48.87961" lon="2.35702">
        <ele>55.400001525879</ele>
        <time>2015-10-12T18:50:24Z</time>
      </trkpt>
      <trkpt lat="48.87971" lon="2.35671">
        <ele>51</ele>
        <time>2015-10-12T18:50:29Z</time>
      </trkpt>
      <trkpt lat="48.87978" lon="2.35644">
        <ele>48.400001525879</ele>
        <time>2015-10-12T18:50:33Z</time>
      </trkpt>
      <trkpt lat="48.87983" lon="2.35615">
        <ele>45.599998474121</ele>
        <time>2015-10-12T18:50:37Z</time>
      </trkpt>
      <trkpt lat="48.87989" lon="2.35586">
        <ele>44.20000076294</ele>
        <time>2015-10-12T18:50:41Z</time>
      </trkpt>
      <trkpt lat="48.87992" lon="2.35558">
        <ele>42.599998474121</ele>
        <time>2015-10-12T18:50:46Z</time>
      </trkpt>
      <trkpt lat="48.87992" lon="2.3553">
        <ele>40.79999923706</ele>
        <time>2015-10-12T18:50:52Z</time>
      </trkpt>
      <trkpt lat="48.87993" lon="2.35526">
        <ele>40.599998474121</ele>
        <time>2015-10-12T18:50:53Z</time>
      </trkpt>
      <trkpt lat="48.87998" lon="2.35496">
        <ele>41.79999923706</ele>
        <time>2015-10-12T18:51:01Z</time>
      </trkpt>
      <trkpt lat="48.88004" lon="2.35467">
        <ele>40.79999923706</ele>
        <time>2015-10-12T18:51:08Z</time>
      </trkpt>
      <trkpt lat="48.88009" lon="2.35438">
        <ele>44</ele>
        <time>2015-10-12T18:51:15Z</time>
      </trkpt>
      <trkpt lat="48.88015" lon="2.35411">
        <ele>42.79999923706</ele>
        <time>2015-10-12T18:51:23Z</time>
      </trkpt>
      <trkpt lat="48.88021" lon="2.35385">
        <ele>43</ele>
        <time>2015-10-12T18:51:31Z</time>
      </trkpt>
      <trkpt lat="48.88022" lon="2.35375">
        <ele>43.20000076294</ele>
        <time>2015-10-12T18:51:34Z</time>
      </trkpt>
      <trkpt lat="48.88026" lon="2.35364">
        <ele>42.400001525879</ele>
        <time>2015-10-12T18:51:38Z</time>
      </trkpt>
      <trkpt lat="48.88034" lon="2.35337">
        <ele>40.599998474121</ele>
        <time>2015-10-12T18:51:44Z</time>
      </trkpt>
      <trkpt lat="48.88042" lon="2.35308">
        <ele>39.599998474121</ele>
        <time>2015-10-12T18:51:50Z</time>
      </trkpt>
      <trkpt lat="48.88049" lon="2.35279">
        <ele>40</ele>
        <time>2015-10-12T18:51:56Z</time>
      </trkpt>
      <trkpt lat="48.88059" lon="2.35256">
        <ele>42.20000076294</ele>
        <time>2015-10-12T18:52:04Z</time>
      </trkpt>
      <trkpt lat="48.88066" lon="2.35239">
        <ele>43.400001525879</ele>
        <time>2015-10-12T18:52:12Z</time>
      </trkpt>
      <trkpt lat="48.8805" lon="2.35242">
        <ele>45</ele>
        <time>2015-10-12T18:52:32Z</time>
      </trkpt>
      <trkpt lat="48.88035" lon="2.3523">
        <ele>50.79999923706</ele>
        <time>2015-10-12T18:53:14Z</time>
      </trkpt>
      <trkpt lat="48.88018" lon="2.3522">
        <ele>52</ele>
        <time>2015-10-12T18:53:22Z</time>
      </trkpt>
      <trkpt lat="48.87998" lon="2.35216">
        <ele>52.20000076294</ele>
        <time>2015-10-12T18:53:31Z</time>
      </trkpt>
      <trkpt lat="48.87978" lon="2.35213">
        <ele>51.599998474121</ele>
        <time>2015-10-12T18:53:39Z</time>
      </trkpt>
      <trkpt lat="48.8796" lon="2.35206">
        <ele>51.400001525879</ele>
        <time>2015-10-12T18:53:46Z</time>
      </trkpt>
      <trkpt lat="48.87949" lon="2.35181">
        <ele>50.79999923706</ele>
        <time>2015-10-12T18:53:53Z</time>
      </trkpt>
      <trkpt lat="48.87936" lon="2.35164">
        <ele>50.400001525879</ele>
        <time>2015-10-12T18:53:58Z</time>
      </trkpt>
      <trkpt lat="48.87918" lon="2.35159">
        <ele>49.599998474121</ele>
        <time>2015-10-12T18:54:03Z</time>
      </trkpt>
      <trkpt lat="48.87897" lon="2.35155">
        <ele>48</ele>
        <time>2015-10-12T18:54:09Z</time>
      </trkpt>
      <trkpt lat="48.87878" lon="2.3515">
        <ele>46.20000076294</ele>
        <time>2015-10-12T18:54:16Z</time>
      </trkpt>
      <trkpt lat="48.87867" lon="2.35147">
        <ele>44.79999923706</ele>
        <time>2015-10-12T18:54:24Z</time>
      </trkpt>
      <trkpt lat="48.87865" lon="2.35147">
        <ele>44.599998474121</ele>
        <time>2015-10-12T18:54:27Z</time>
      </trkpt>
      <trkpt lat="48.87861" lon="2.35159">
        <ele>45.20000076294</ele>
        <time>2015-10-12T18:54:38Z</time>
      </trkpt>
      <trkpt lat="48.87854" lon="2.35151">
        <ele>45.79999923706</ele>
        <time>2015-10-12T18:54:54Z</time>
      </trkpt>
      <trkpt lat="48.87835" lon="2.35146">
        <ele>48.400001525879</ele>
        <time>2015-10-12T18:55:05Z</time>
      </trkpt>
      <trkpt lat="48.87828" lon="2.35136">
        <ele>48.79999923706</ele>
        <time>2015-10-12T18:55:08Z</time>
      </trkpt>
      <trkpt lat="48.87814" lon="2.35123">
        <ele>47.599998474121</ele>
        <time>2015-10-12T18:55:16Z</time>
      </trkpt>
      <trkpt lat="48.87816" lon="2.35117">
        <ele>47</ele>
        <time>2015-10-12T18:55:19Z</time>
      </trkpt>
      <trkpt lat="48.8783" lon="2.35094">
        <ele>45</ele>
        <time>2015-10-12T18:55:27Z</time>
      </trkpt>
      <trkpt lat="48.87842" lon="2.35073">
        <ele>44.400001525879</ele>
        <time>2015-10-12T18:55:33Z</time>
      </trkpt>
      <trkpt lat="48.87857" lon="2.35056">
        <ele>43.599998474121</ele>
        <time>2015-10-12T18:55:41Z</time>
      </trkpt>
      <trkpt lat="48.87858" lon="2.35056">
        <ele>43.400001525879</ele>
        <time>2015-10-12T18:55:43Z</time>
      </trkpt>
      <trkpt lat="48.87864" lon="2.3504">
        <ele>51</ele>
        <time>2015-10-12T18:56:42Z</time>
      </trkpt>
      <trkpt lat="48.87857" lon="2.35046">
        <ele>52.599998474121</ele>
        <time>2015-10-12T18:58:03Z</time>
      </trkpt>
      <trkpt lat="48.87856" lon="2.35058">
        <ele>53.79999923706</ele>
        <time>2015-10-12T18:58:56Z</time>
      </trkpt>
      <trkpt lat="48.87861" lon="2.35066">
        <ele>54</ele>
        <time>2015-10-12T18:59:02Z</time>
      </trkpt>
      <trkpt lat="48.87873" lon="2.35035">
        <ele>54.20000076294</ele>
        <time>2015-10-12T18:59:10Z</time>
      </trkpt>
      <trkpt lat="48.87874" lon="2.3503">
        <ele>54.20000076294</ele>
        <time>2015-10-12T18:59:11Z</time>
      </trkpt>
      <trkpt lat="48.87881" lon="2.35014">
        <ele>54.20000076294</ele>
        <time>2015-10-12T18:59:14Z</time>
      </trkpt>
      <trkpt lat="48.87892" lon="2.3499">
        <ele>54.400001525879</ele>
        <time>2015-10-12T18:59:20Z</time>
      </trkpt>
      <trkpt lat="48.87904" lon="2.34965">
        <ele>54</ele>
        <time>2015-10-12T18:59:26Z</time>
      </trkpt>
      <trkpt lat="48.87914" lon="2.34941">
        <ele>54.20000076294</ele>
        <time>2015-10-12T18:59:32Z</time>
      </trkpt>
      <trkpt lat="48.87919" lon="2.34934">
        <ele>54</ele>
        <time>2015-10-12T18:59:34Z</time>
      </trkpt>
      <trkpt lat="48.87937" lon="2.34937">
        <ele>53.599998474121</ele>
        <time>2015-10-12T18:59:40Z</time>
      </trkpt>
      <trkpt lat="48.8794" lon="2.34938">
        <ele>53.400001525879</ele>
        <time>2015-10-12T18:59:41Z</time>
      </trkpt>
      <trkpt lat="48.87959" lon="2.34942">
        <ele>53.20000076294</ele>
        <time>2015-10-12T18:59:47Z</time>
      </trkpt>
      <trkpt lat="48.87976" lon="2.34956">
        <ele>54</ele>
        <time>2015-10-12T18:59:53Z</time>
      </trkpt>
      <trkpt lat="48.87993" lon="2.34967">
        <ele>56.79999923706</ele>
        <time>2015-10-12T18:59:59Z</time>
      </trkpt>
      <trkpt lat="48.88012" lon="2.3498">
        <ele>59.79999923706</ele>
        <time>2015-10-12T19:00:05Z</time>
      </trkpt>
      <trkpt lat="48.88029" lon="2.34992">
        <ele>61</ele>
        <time>2015-10-12T19:00:10Z</time>
      </trkpt>
      <trkpt lat="48.8805" lon="2.34996">
        <ele>62.20000076294</ele>
        <time>2015-10-12T19:00:15Z</time>
      </trkpt>
      <trkpt lat="48.8807" lon="2.34996">
        <ele>64.800003051758</ele>
        <time>2015-10-12T19:00:20Z</time>
      </trkpt>
      <trkpt lat="48.88092" lon="2.34991">
        <ele>68</ele>
        <time>2015-10-12T19:00:25Z</time>
      </trkpt>
      <trkpt lat="48.88113" lon="2.34983">
        <ele>71.800003051758</ele>
        <time>2015-10-12T19:00:30Z</time>
      </trkpt>
      <trkpt lat="48.88131" lon="2.34978">
        <ele>76.199996948242</ele>
        <time>2015-10-12T19:00:35Z</time>
      </trkpt>
      <trkpt lat="48.8815" lon="2.34972">
        <ele>83</ele>
        <time>2015-10-12T19:00:40Z</time>
      </trkpt>
      <trkpt lat="48.88168" lon="2.34973">
        <ele>90.400001525879</ele>
        <time>2015-10-12T19:00:45Z</time>
      </trkpt>
      <trkpt lat="48.88188" lon="2.3497">
        <ele>96.199996948242</ele>
        <time>2015-10-12T19:00:50Z</time>
      </trkpt>
      <trkpt lat="48.88206" lon="2.34964">
        <ele>99.199996948242</ele>
        <time>2015-10-12T19:00:54Z</time>
      </trkpt>
      <trkpt lat="48.88225" lon="2.34951">
        <ele>101.80000305176</ele>
        <time>2015-10-12T19:00:59Z</time>
      </trkpt>
      <trkpt lat="48.88234" lon="2.34927">
        <ele>100.19999694824</ele>
        <time>2015-10-12T19:01:06Z</time>
      </trkpt>
      <trkpt lat="48.88239" lon="2.34898">
        <ele>96.599998474121</ele>
        <time>2015-10-12T19:01:13Z</time>
      </trkpt>
      <trkpt lat="48.88241" lon="2.3487">
        <ele>97</ele>
        <time>2015-10-12T19:01:19Z</time>
      </trkpt>
      <trkpt lat="48.88249" lon="2.3484">
        <ele>87.400001525879</ele>
        <time>2015-10-12T19:01:27Z</time>
      </trkpt>
      <trkpt lat="48.88252" lon="2.34809">
        <ele>80.800003051758</ele>
        <time>2015-10-12T19:01:34Z</time>
      </trkpt>
      <trkpt lat="48.88252" lon="2.34778">
        <ele>78</ele>
        <time>2015-10-12T19:01:41Z</time>
      </trkpt>
      <trkpt lat="48.88252" lon="2.3475">
        <ele>74</ele>
        <time>2015-10-12T19:01:48Z</time>
      </trkpt>
      <trkpt lat="48.88253" lon="2.34723">
        <ele>72</ele>
        <time>2015-10-12T19:01:54Z</time>
      </trkpt>
      <trkpt lat="48.88251" lon="2.34694">
        <ele>70.599998474121</ele>
        <time>2015-10-12T19:02:01Z</time>
      </trkpt>
      <trkpt lat="48.88249" lon="2.34681">
        <ele>71.199996948242</ele>
        <time>2015-10-12T19:02:08Z</time>
      </trkpt>
      <trkpt lat="48.88243" lon="2.34684">
        <ele>70.599998474121</ele>
        <time>2015-10-12T19:02:21Z</time>
      </trkpt>
      <trkpt lat="48.88226" lon="2.34675">
        <ele>69.599998474121</ele>
        <time>2015-10-12T19:02:29Z</time>
      </trkpt>
      <trkpt lat="48.88223" lon="2.34675">
        <ele>69.400001525879</ele>
        <time>2015-10-12T19:02:30Z</time>
      </trkpt>
      <trkpt lat="48.88204" lon="2.34668">
        <ele>68.400001525879</ele>
        <time>2015-10-12T19:02:36Z</time>
      </trkpt>
      <trkpt lat="48.88192" lon="2.34648">
        <ele>67</ele>
        <time>2015-10-12T19:02:41Z</time>
      </trkpt>
      <trkpt lat="48.88186" lon="2.34617">
        <ele>62.20000076294</ele>
        <time>2015-10-12T19:02:47Z</time>
      </trkpt>
      <trkpt lat="48.88181" lon="2.3459">
        <ele>57.599998474121</ele>
        <time>2015-10-12T19:02:52Z</time>
      </trkpt>
      <trkpt lat="48.88175" lon="2.3456">
        <ele>53.599998474121</ele>
        <time>2015-10-12T19:02:58Z</time>
      </trkpt>
      <trkpt lat="48.88176" lon="2.3453">
        <ele>50.79999923706</ele>
        <time>2015-10-12T19:03:03Z</time>
      </trkpt>
      <trkpt lat="48.8818" lon="2.34501">
        <ele>46.79999923706</ele>
        <time>2015-10-12T19:03:09Z</time>
      </trkpt>
      <trkpt lat="48.88175" lon="2.34475">
        <ele>48.599998474121</ele>
        <time>2015-10-12T19:03:15Z</time>
      </trkpt>
      <trkpt lat="48.88162" lon="2.34455">
        <ele>45.79999923706</ele>
        <time>2015-10-12T19:03:23Z</time>
      </trkpt>
      <trkpt lat="48.88147" lon="2.34438">
        <ele>44.20000076294</ele>
        <time>2015-10-12T19:03:32Z</time>
      </trkpt>
      <trkpt lat="48.88127" lon="2.34431">
        <ele>41.400001525879</ele>
        <time>2015-10-12T19:03:39Z</time>
      </trkpt>
      <trkpt lat="48.88106" lon="2.3442">
        <ele>39.599998474121</ele>
        <time>2015-10-12T19:03:45Z</time>
      </trkpt>
      <trkpt lat="48.88084" lon="2.34411">
        <ele>37.400001525879</ele>
        <time>2015-10-12T19:03:50Z</time>
      </trkpt>
      <trkpt lat="48.88065" lon="2.34405">
        <ele>36.400001525879</ele>
        <time>2015-10-12T19:03:54Z</time>
      </trkpt>
      <trkpt lat="48.88045" lon="2.34393">
        <ele>35.20000076294</ele>
        <time>2015-10-12T19:03:59Z</time>
      </trkpt>
      <trkpt lat="48.88025" lon="2.34384">
        <ele>35.400001525879</ele>
        <time>2015-10-12T19:04:04Z</time>
      </trkpt>
      <trkpt lat="48.88006" lon="2.34378">
        <ele>32.79999923706</ele>
        <time>2015-10-12T19:04:08Z</time>
      </trkpt>
      <trkpt lat="48.87986" lon="2.34373">
        <ele>31</ele>
        <time>2015-10-12T19:04:13Z</time>
      </trkpt>
      <trkpt lat="48.87967" lon="2.34357">
        <ele>29.799999237061</ele>
        <time>2015-10-12T19:04:18Z</time>
      </trkpt>
      <trkpt lat="48.87949" lon="2.34346">
        <ele>29.200000762939</ele>
        <time>2015-10-12T19:04:23Z</time>
      </trkpt>
      <trkpt lat="48.8793" lon="2.3433">
        <ele>29.200000762939</ele>
        <time>2015-10-12T19:04:29Z</time>
      </trkpt>
      <trkpt lat="48.87911" lon="2.34322">
        <ele>27.60000038147</ele>
        <time>2015-10-12T19:04:34Z</time>
      </trkpt>
      <trkpt lat="48.87893" lon="2.3431">
        <ele>25.799999237061</ele>
        <time>2015-10-12T19:04:39Z</time>
      </trkpt>
      <trkpt lat="48.87874" lon="2.34295">
        <ele>24</ele>
        <time>2015-10-12T19:04:44Z</time>
      </trkpt>
      <trkpt lat="48.87854" lon="2.34288">
        <ele>21.799999237061</ele>
        <time>2015-10-12T19:04:49Z</time>
      </trkpt>
      <trkpt lat="48.87835" lon="2.34279">
        <ele>18.799999237061</ele>
        <time>2015-10-12T19:04:54Z</time>
      </trkpt>
      <trkpt lat="48.87819" lon="2.34266">
        <ele>17</ele>
        <time>2015-10-12T19:04:58Z</time>
      </trkpt>
      <trkpt lat="48.87802" lon="2.34253">
        <ele>15.199999809265</ele>
        <time>2015-10-12T19:05:02Z</time>
      </trkpt>
      <trkpt lat="48.87783" lon="2.34249">
        <ele>12.60000038147</ele>
        <time>2015-10-12T19:05:06Z</time>
      </trkpt>
      <trkpt lat="48.87765" lon="2.3425">
        <ele>10.39999961853</ele>
        <time>2015-10-12T19:05:10Z</time>
      </trkpt>
      <trkpt lat="48.87753" lon="2.34253">
        <ele>9.1999998092651</ele>
        <time>2015-10-12T19:05:13Z</time>
      </trkpt>
      <trkpt lat="48.87734" lon="2.34245">
        <ele>7.5999999046326</ele>
        <time>2015-10-12T19:05:19Z</time>
      </trkpt>
      <trkpt lat="48.87715" lon="2.34242">
        <ele>10.60000038147</ele>
        <time>2015-10-12T19:05:23Z</time>
      </trkpt>
      <trkpt lat="48.87702" lon="2.34218">
        <ele>13.800000190735</ele>
        <time>2015-10-12T19:05:27Z</time>
      </trkpt>
      <trkpt lat="48.87698" lon="2.34204">
        <ele>13.60000038147</ele>
        <time>2015-10-12T19:05:29Z</time>
      </trkpt>
      <trkpt lat="48.87686" lon="2.34176">
        <ele>12.800000190735</ele>
        <time>2015-10-12T19:05:33Z</time>
      </trkpt>
      <trkpt lat="48.8767" lon="2.34154">
        <ele>15.199999809265</ele>
        <time>2015-10-12T19:05:37Z</time>
      </trkpt>
      <trkpt lat="48.87655" lon="2.34136">
        <ele>17.799999237061</ele>
        <time>2015-10-12T19:05:41Z</time>
      </trkpt>
      <trkpt lat="48.87655" lon="2.34103">
        <ele>17.200000762939</ele>
        <time>2015-10-12T19:05:45Z</time>
      </trkpt>
      <trkpt lat="48.87658" lon="2.34072">
        <ele>16</ele>
        <time>2015-10-12T19:05:49Z</time>
      </trkpt>
      <trkpt lat="48.87657" lon="2.34057">
        <ele>15.60000038147</ele>
        <time>2015-10-12T19:05:51Z</time>
      </trkpt>
      <trkpt lat="48.87654" lon="2.34026">
        <ele>15</ele>
        <time>2015-10-12T19:05:56Z</time>
      </trkpt>
      <trkpt lat="48.87659" lon="2.34004">
        <ele>14.60000038147</ele>
        <time>2015-10-12T19:06:00Z</time>
      </trkpt>
      <trkpt lat="48.87669" lon="2.33973">
        <ele>13.800000190735</ele>
        <time>2015-10-12T19:06:06Z</time>
      </trkpt>
      <trkpt lat="48.87674" lon="2.33958">
        <ele>13</ele>
        <time>2015-10-12T19:06:14Z</time>
      </trkpt>
      <trkpt lat="48.87669" lon="2.33948">
        <ele>16.200000762939</ele>
        <time>2015-10-12T19:06:29Z</time>
      </trkpt>
      <trkpt lat="48.87677" lon="2.33928">
        <ele>19.39999961853</ele>
        <time>2015-10-12T19:06:53Z</time>
      </trkpt>
      <trkpt lat="48.87686" lon="2.339">
        <ele>19.60000038147</ele>
        <time>2015-10-12T19:07:00Z</time>
      </trkpt>
      <trkpt lat="48.8769" lon="2.33868">
        <ele>20.60000038147</ele>
        <time>2015-10-12T19:07:05Z</time>
      </trkpt>
      <trkpt lat="48.87691" lon="2.33855">
        <ele>20.200000762939</ele>
        <time>2015-10-12T19:07:07Z</time>
      </trkpt>
      <trkpt lat="48.87693" lon="2.33824">
        <ele>19.60000038147</ele>
        <time>2015-10-12T19:07:11Z</time>
      </trkpt>
      <trkpt lat="48.87694" lon="2.33792">
        <ele>19</ele>
        <time>2015-10-12T19:07:15Z</time>
      </trkpt>
      <trkpt lat="48.8769" lon="2.33759">
        <ele>17.799999237061</ele>
        <time>2015-10-12T19:07:19Z</time>
      </trkpt>
      <trkpt lat="48.87683" lon="2.33726">
        <ele>16.39999961853</ele>
        <time>2015-10-12T19:07:23Z</time>
      </trkpt>
      <trkpt lat="48.87684" lon="2.33717">
        <ele>16.200000762939</ele>
        <time>2015-10-12T19:07:24Z</time>
      </trkpt>
      <trkpt lat="48.87683" lon="2.33684">
        <ele>14.60000038147</ele>
        <time>2015-10-12T19:07:28Z</time>
      </trkpt>
      <trkpt lat="48.87684" lon="2.3366">
        <ele>14.199999809265</ele>
        <time>2015-10-12T19:07:31Z</time>
      </trkpt>
      <trkpt lat="48.87682" lon="2.33629">
        <ele>13.39999961853</ele>
        <time>2015-10-12T19:07:35Z</time>
      </trkpt>
      <trkpt lat="48.87683" lon="2.33599">
        <ele>12.60000038147</ele>
        <time>2015-10-12T19:07:39Z</time>
      </trkpt>
      <trkpt lat="48.87683" lon="2.3357">
        <ele>12</ele>
        <time>2015-10-12T19:07:43Z</time>
      </trkpt>
      <trkpt lat="48.87692" lon="2.33551">
        <ele>11.39999961853</ele>
        <time>2015-10-12T19:07:46Z</time>
      </trkpt>
      <trkpt lat="48.87698" lon="2.33544">
        <ele>11.199999809265</ele>
        <time>2015-10-12T19:07:48Z</time>
      </trkpt>
      <trkpt lat="48.87704" lon="2.33542">
        <ele>10.199999809265</ele>
        <time>2015-10-12T19:07:52Z</time>
      </trkpt>
      <trkpt lat="48.87692" lon="2.33546">
        <ele>11</ele>
        <time>2015-10-12T19:08:00Z</time>
      </trkpt>
      <trkpt lat="48.8769" lon="2.33525">
        <ele>10</ele>
        <time>2015-10-12T19:08:04Z</time>
      </trkpt>
      <trkpt lat="48.87692" lon="2.33492">
        <ele>8.3999996185303</ele>
        <time>2015-10-12T19:08:09Z</time>
      </trkpt>
      <trkpt lat="48.87691" lon="2.3346">
        <ele>6.1999998092651</ele>
        <time>2015-10-12T19:08:14Z</time>
      </trkpt>
      <trkpt lat="48.87691" lon="2.33427">
        <ele>4.4000000953674</ele>
        <time>2015-10-12T19:08:19Z</time>
      </trkpt>
      <trkpt lat="48.8769" lon="2.33399">
        <ele>2.7999999523163</ele>
        <time>2015-10-12T19:08:23Z</time>
      </trkpt>
      <trkpt lat="48.87691" lon="2.33366">
        <ele>2.4000000953674</ele>
        <time>2015-10-12T19:08:27Z</time>
      </trkpt>
      <trkpt lat="48.87691" lon="2.33334">
        <ele>2.5999999046326</ele>
        <time>2015-10-12T19:08:31Z</time>
      </trkpt>
      <trkpt lat="48.8769" lon="2.33304">
        <ele>2.5999999046326</ele>
        <time>2015-10-12T19:08:35Z</time>
      </trkpt>
      <trkpt lat="48.87691" lon="2.33274">
        <ele>2.5999999046326</ele>
        <time>2015-10-12T19:08:39Z</time>
      </trkpt>
      <trkpt lat="48.87689" lon="2.33243">
        <ele>2</ele>
        <time>2015-10-12T19:08:44Z</time>
      </trkpt>
      <trkpt lat="48.87701" lon="2.33226">
        <ele>2.4000000953674</ele>
        <time>2015-10-12T19:08:52Z</time>
      </trkpt>
      <trkpt lat="48.87712" lon="2.33213">
        <ele>4.4000000953674</ele>
        <time>2015-10-12T19:08:57Z</time>
      </trkpt>
      <trkpt lat="48.87729" lon="2.33201">
        <ele>7.5999999046326</ele>
        <time>2015-10-12T19:09:05Z</time>
      </trkpt>
      <trkpt lat="48.87749" lon="2.33196">
        <ele>12</ele>
        <time>2015-10-12T19:09:15Z</time>
      </trkpt>
      <trkpt lat="48.87769" lon="2.33186">
        <ele>15.800000190735</ele>
        <time>2015-10-12T19:09:22Z</time>
      </trkpt>
      <trkpt lat="48.87778" lon="2.3316">
        <ele>17.799999237061</ele>
        <time>2015-10-12T19:09:27Z</time>
      </trkpt>
      <trkpt lat="48.87782" lon="2.33129">
        <ele>18.799999237061</ele>
        <time>2015-10-12T19:09:33Z</time>
      </trkpt>
      <trkpt lat="48.87779" lon="2.33101">
        <ele>18</ele>
        <time>2015-10-12T19:09:39Z</time>
      </trkpt>
      <trkpt lat="48.87766" lon="2.33079">
        <ele>19.60000038147</ele>
        <time>2015-10-12T19:09:45Z</time>
      </trkpt>
      <trkpt lat="48.87762" lon="2.33059">
        <ele>21.799999237061</ele>
        <time>2015-10-12T19:09:51Z</time>
      </trkpt>
      <trkpt lat="48.87772" lon="2.33037">
        <ele>23</ele>
        <time>2015-10-12T19:10:00Z</time>
      </trkpt>
      <trkpt lat="48.87792" lon="2.33027">
        <ele>24.799999237061</ele>
        <time>2015-10-12T19:10:06Z</time>
      </trkpt>
      <trkpt lat="48.87808" lon="2.33011">
        <ele>26.799999237061</ele>
        <time>2015-10-12T19:10:12Z</time>
      </trkpt>
      <trkpt lat="48.8782" lon="2.32983">
        <ele>28</ele>
        <time>2015-10-12T19:10:17Z</time>
      </trkpt>
      <trkpt lat="48.87822" lon="2.32956">
        <ele>28.799999237061</ele>
        <time>2015-10-12T19:10:21Z</time>
      </trkpt>
      <trkpt lat="48.87823" lon="2.32922">
        <ele>28.39999961853</ele>
        <time>2015-10-12T19:10:26Z</time>
      </trkpt>
      <trkpt lat="48.87821" lon="2.32895">
        <ele>28.39999961853</ele>
        <time>2015-10-12T19:10:30Z</time>
      </trkpt>
      <trkpt lat="48.87818" lon="2.32866">
        <ele>28.200000762939</ele>
        <time>2015-10-12T19:10:34Z</time>
      </trkpt>
      <trkpt lat="48.87814" lon="2.32834">
        <ele>27.60000038147</ele>
        <time>2015-10-12T19:10:39Z</time>
      </trkpt>
      <trkpt lat="48.87811" lon="2.32806">
        <ele>27</ele>
        <time>2015-10-12T19:10:43Z</time>
      </trkpt>
      <trkpt lat="48.87808" lon="2.32779">
        <ele>26.60000038147</ele>
        <time>2015-10-12T19:10:47Z</time>
      </trkpt>
      <trkpt lat="48.87805" lon="2.32752">
        <ele>26.200000762939</ele>
        <time>2015-10-12T19:10:51Z</time>
      </trkpt>
      <trkpt lat="48.87804" lon="2.32723">
        <ele>26.39999961853</ele>
        <time>2015-10-12T19:10:56Z</time>
      </trkpt>
      <trkpt lat="48.878" lon="2.32702">
        <ele>25.60000038147</ele>
        <time>2015-10-12T19:11:02Z</time>
      </trkpt>
      <trkpt lat="48.87801" lon="2.32688">
        <ele>25.200000762939</ele>
        <time>2015-10-12T19:11:06Z</time>
      </trkpt>
      <trkpt lat="48.87805" lon="2.3266">
        <ele>24.39999961853</ele>
        <time>2015-10-12T19:11:12Z</time>
      </trkpt>
      <trkpt lat="48.87814" lon="2.32631">
        <ele>23.200000762939</ele>
        <time>2015-10-12T19:11:18Z</time>
      </trkpt>
      <trkpt lat="48.87821" lon="2.32603">
        <ele>22.799999237061</ele>
        <time>2015-10-12T19:11:23Z</time>
      </trkpt>
      <trkpt lat="48.8783" lon="2.32576">
        <ele>22</ele>
        <time>2015-10-12T19:11:28Z</time>
      </trkpt>
      <trkpt lat="48.87837" lon="2.32548">
        <ele>21.60000038147</ele>
        <time>2015-10-12T19:11:34Z</time>
      </trkpt>
      <trkpt lat="48.87847" lon="2.32524">
        <ele>22</ele>
        <time>2015-10-12T19:11:39Z</time>
      </trkpt>
      <trkpt lat="48.87858" lon="2.325">
        <ele>22.39999961853</ele>
        <time>2015-10-12T19:11:44Z</time>
      </trkpt>
      <trkpt lat="48.87869" lon="2.32474">
        <ele>24.200000762939</ele>
        <time>2015-10-12T19:11:50Z</time>
      </trkpt>
      <trkpt lat="48.87878" lon="2.32448">
        <ele>25.39999961853</ele>
        <time>2015-10-12T19:11:56Z</time>
      </trkpt>
      <trkpt lat="48.87884" lon="2.32419">
        <ele>28.200000762939</ele>
        <time>2015-10-12T19:12:03Z</time>
      </trkpt>
      <trkpt lat="48.87891" lon="2.32392">
        <ele>32.599998474121</ele>
        <time>2015-10-12T19:12:09Z</time>
      </trkpt>
      <trkpt lat="48.879" lon="2.32366">
        <ele>35.599998474121</ele>
        <time>2015-10-12T19:12:15Z</time>
      </trkpt>
      <trkpt lat="48.87911" lon="2.32343">
        <ele>38.599998474121</ele>
        <time>2015-10-12T19:12:22Z</time>
      </trkpt>
      <trkpt lat="48.87916" lon="2.32311">
        <ele>40.20000076294</ele>
        <time>2015-10-12T19:12:28Z</time>
      </trkpt>
      <trkpt lat="48.87924" lon="2.32282">
        <ele>41.20000076294</ele>
        <time>2015-10-12T19:12:33Z</time>
      </trkpt>
      <trkpt lat="48.87934" lon="2.32255">
        <ele>41.400001525879</ele>
        <time>2015-10-12T19:12:38Z</time>
      </trkpt>
      <trkpt lat="48.87945" lon="2.32228">
        <ele>41.599998474121</ele>
        <time>2015-10-12T19:12:43Z</time>
      </trkpt>
      <trkpt lat="48.87955" lon="2.32205">
        <ele>42.599998474121</ele>
        <time>2015-10-12T19:12:48Z</time>
      </trkpt>
      <trkpt lat="48.87964" lon="2.32179">
        <ele>44.400001525879</ele>
        <time>2015-10-12T19:12:54Z</time>
      </trkpt>
      <trkpt lat="48.87971" lon="2.3215">
        <ele>47</ele>
        <time>2015-10-12T19:13:00Z</time>
      </trkpt>
      <trkpt lat="48.8798" lon="2.32123">
        <ele>50</ele>
        <time>2015-10-12T19:13:05Z</time>
      </trkpt>
      <trkpt lat="48.87989" lon="2.32095">
        <ele>53.79999923706</ele>
        <time>2015-10-12T19:13:10Z</time>
      </trkpt>
      <trkpt lat="48.88" lon="2.32067">
        <ele>52.599998474121</ele>
        <time>2015-10-12T19:13:16Z</time>
      </trkpt>
      <trkpt lat="48.88009" lon="2.32041">
        <ele>54.599998474121</ele>
        <time>2015-10-12T19:13:21Z</time>
      </trkpt>
      <trkpt lat="48.88017" lon="2.32011">
        <ele>55.79999923706</ele>
        <time>2015-10-12T19:13:26Z</time>
      </trkpt>
      <trkpt lat="48.88026" lon="2.31984">
        <ele>56.400001525879</ele>
        <time>2015-10-12T19:13:31Z</time>
      </trkpt>
      <trkpt lat="48.88036" lon="2.31957">
        <ele>57</ele>
        <time>2015-10-12T19:13:36Z</time>
      </trkpt>
      <trkpt lat="48.88046" lon="2.31929">
        <ele>57.20000076294</ele>
        <time>2015-10-12T19:13:41Z</time>
      </trkpt>
      <trkpt lat="48.88054" lon="2.319">
        <ele>56.400001525879</ele>
        <time>2015-10-12T19:13:46Z</time>
      </trkpt>
      <trkpt lat="48.88064" lon="2.3187">
        <ele>57.400001525879</ele>
        <time>2015-10-12T19:13:51Z</time>
      </trkpt>
      <trkpt lat="48.88072" lon="2.3184">
        <ele>57.20000076294</ele>
        <time>2015-10-12T19:13:56Z</time>
      </trkpt>
      <trkpt lat="48.88078" lon="2.31814">
        <ele>57.20000076294</ele>
        <time>2015-10-12T19:14:00Z</time>
      </trkpt>
      <trkpt lat="48.88085" lon="2.31788">
        <ele>57.400001525879</ele>
        <time>2015-10-12T19:14:04Z</time>
      </trkpt>
      <trkpt lat="48.88095" lon="2.31757">
        <ele>58.599998474121</ele>
        <time>2015-10-12T19:14:09Z</time>
      </trkpt>
      <trkpt lat="48.88104" lon="2.31728">
        <ele>58.20000076294</ele>
        <time>2015-10-12T19:14:14Z</time>
      </trkpt>
      <trkpt lat="48.88113" lon="2.31702">
        <ele>58.20000076294</ele>
        <time>2015-10-12T19:14:19Z</time>
      </trkpt>
      <trkpt lat="48.88119" lon="2.31681">
        <ele>55.79999923706</ele>
        <time>2015-10-12T19:14:25Z</time>
      </trkpt>
      <trkpt lat="48.88122" lon="2.31673">
        <ele>54.599998474121</ele>
        <time>2015-10-12T19:14:28Z</time>
      </trkpt>
      <trkpt lat="48.88122" lon="2.31666">
        <ele>52.20000076294</ele>
        <time>2015-10-12T19:14:32Z</time>
      </trkpt>
      <trkpt lat="48.88121" lon="2.31666">
        <ele>51.79999923706</ele>
        <time>2015-10-12T19:14:33Z</time>
      </trkpt>
      <trkpt lat="48.88127" lon="2.31645">
        <ele>51.400001525879</ele>
        <time>2015-10-12T19:14:51Z</time>
      </trkpt>
      <trkpt lat="48.88128" lon="2.31615">
        <ele>54.20000076294</ele>
        <time>2015-10-12T19:14:59Z</time>
      </trkpt>
      <trkpt lat="48.88124" lon="2.31586">
        <ele>52.599998474121</ele>
        <time>2015-10-12T19:15:05Z</time>
      </trkpt>
      <trkpt lat="48.88127" lon="2.31581">
        <ele>52.20000076294</ele>
        <time>2015-10-12T19:15:06Z</time>
      </trkpt>
      <trkpt lat="48.88125" lon="2.31554">
        <ele>49</ele>
        <time>2015-10-12T19:15:17Z</time>
      </trkpt>
      <trkpt lat="48.88106" lon="2.31543">
        <ele>43.79999923706</ele>
        <time>2015-10-12T19:15:25Z</time>
      </trkpt>
      <trkpt lat="48.881" lon="2.31544">
        <ele>43.400001525879</ele>
        <time>2015-10-12T19:15:27Z</time>
      </trkpt>
      <trkpt lat="48.88082" lon="2.31545">
        <ele>42.400001525879</ele>
        <time>2015-10-12T19:15:32Z</time>
      </trkpt>
      <trkpt lat="48.8806" lon="2.31546">
        <ele>41.599998474121</ele>
        <time>2015-10-12T19:15:37Z</time>
      </trkpt>
      <trkpt lat="48.8804" lon="2.31547">
        <ele>41.79999923706</ele>
        <time>2015-10-12T19:15:41Z</time>
      </trkpt>
      <trkpt lat="48.8802" lon="2.31549">
        <ele>42.20000076294</ele>
        <time>2015-10-12T19:15:45Z</time>
      </trkpt>
      <trkpt lat="48.87999" lon="2.31551">
        <ele>42</ele>
        <time>2015-10-12T19:15:50Z</time>
      </trkpt>
      <trkpt lat="48.87981" lon="2.3155">
        <ele>42</ele>
        <time>2015-10-12T19:15:54Z</time>
      </trkpt>
      <trkpt lat="48.87963" lon="2.31552">
        <ele>42</ele>
        <time>2015-10-12T19:15:58Z</time>
      </trkpt>
      <trkpt lat="48.87944" lon="2.31554">
        <ele>41.599998474121</ele>
        <time>2015-10-12T19:16:02Z</time>
      </trkpt>
      <trkpt lat="48.87924" lon="2.31559">
        <ele>40.79999923706</ele>
        <time>2015-10-12T19:16:06Z</time>
      </trkpt>
      <trkpt lat="48.87905" lon="2.31561">
        <ele>39.599998474121</ele>
        <time>2015-10-12T19:16:10Z</time>
      </trkpt>
      <trkpt lat="48.87886" lon="2.31563">
        <ele>39.599998474121</ele>
        <time>2015-10-12T19:16:14Z</time>
      </trkpt>
      <trkpt lat="48.87865" lon="2.31565">
        <ele>39.599998474121</ele>
        <time>2015-10-12T19:16:19Z</time>
      </trkpt>
      <trkpt lat="48.87857" lon="2.31565">
        <ele>38.20000076294</ele>
        <time>2015-10-12T19:16:22Z</time>
      </trkpt>
      <trkpt lat="48.87847" lon="2.31562">
        <ele>37.20000076294</ele>
        <time>2015-10-12T19:16:25Z</time>
      </trkpt>
      <trkpt lat="48.87834" lon="2.31563">
        <ele>36.20000076294</ele>
        <time>2015-10-12T19:16:29Z</time>
      </trkpt>
      <trkpt lat="48.87815" lon="2.31569">
        <ele>34.20000076294</ele>
        <time>2015-10-12T19:16:34Z</time>
      </trkpt>
      <trkpt lat="48.87795" lon="2.31581">
        <ele>31.799999237061</ele>
        <time>2015-10-12T19:16:39Z</time>
      </trkpt>
      <trkpt lat="48.87777" lon="2.31584">
        <ele>30</ele>
        <time>2015-10-12T19:16:44Z</time>
      </trkpt>
      <trkpt lat="48.87756" lon="2.31578">
        <ele>32</ele>
        <time>2015-10-12T19:16:49Z</time>
      </trkpt>
      <trkpt lat="48.87734" lon="2.31576">
        <ele>30</ele>
        <time>2015-10-12T19:16:54Z</time>
      </trkpt>
      <trkpt lat="48.87715" lon="2.31577">
        <ele>28</ele>
        <time>2015-10-12T19:16:58Z</time>
      </trkpt>
      <trkpt lat="48.87696" lon="2.31579">
        <ele>26.39999961853</ele>
        <time>2015-10-12T19:17:02Z</time>
      </trkpt>
      <trkpt lat="48.87676" lon="2.31582">
        <ele>25.200000762939</ele>
        <time>2015-10-12T19:17:06Z</time>
      </trkpt>
      <trkpt lat="48.87662" lon="2.31581">
        <ele>25</ele>
        <time>2015-10-12T19:17:09Z</time>
      </trkpt>
      <trkpt lat="48.87652" lon="2.31581">
        <ele>24.200000762939</ele>
        <time>2015-10-12T19:17:11Z</time>
      </trkpt>
      <trkpt lat="48.87632" lon="2.3158">
        <ele>22.39999961853</ele>
        <time>2015-10-12T19:17:15Z</time>
      </trkpt>
      <trkpt lat="48.87613" lon="2.31581">
        <ele>20.799999237061</ele>
        <time>2015-10-12T19:17:19Z</time>
      </trkpt>
      <trkpt lat="48.87593" lon="2.31583">
        <ele>18.799999237061</ele>
        <time>2015-10-12T19:17:23Z</time>
      </trkpt>
      <trkpt lat="48.87574" lon="2.31585">
        <ele>17</ele>
        <time>2015-10-12T19:17:27Z</time>
      </trkpt>
      <trkpt lat="48.87569" lon="2.31586">
        <ele>16.799999237061</ele>
        <time>2015-10-12T19:17:28Z</time>
      </trkpt>
      <trkpt lat="48.87556" lon="2.31588">
        <ele>14.199999809265</ele>
        <time>2015-10-12T19:17:32Z</time>
      </trkpt>
      <trkpt lat="48.87552" lon="2.31589">
        <ele>13.39999961853</ele>
        <time>2015-10-12T19:17:34Z</time>
      </trkpt>
      <trkpt lat="48.87543" lon="2.31588">
        <ele>14.199999809265</ele>
        <time>2015-10-12T19:17:38Z</time>
      </trkpt>
      <trkpt lat="48.87541" lon="2.31587">
        <ele>14.199999809265</ele>
        <time>2015-10-12T19:17:39Z</time>
      </trkpt>
      <trkpt lat="48.87537" lon="2.31588">
        <ele>14.39999961853</ele>
        <time>2015-10-12T19:17:42Z</time>
      </trkpt>
      <trkpt lat="48.87528" lon="2.31584">
        <ele>19.39999961853</ele>
        <time>2015-10-12T19:17:46Z</time>
      </trkpt>
      <trkpt lat="48.87507" lon="2.31584">
        <ele>18.799999237061</ele>
        <time>2015-10-12T19:17:54Z</time>
      </trkpt>
      <trkpt lat="48.87485" lon="2.31588">
        <ele>15.800000190735</ele>
        <time>2015-10-12T19:18:00Z</time>
      </trkpt>
      <trkpt lat="48.87464" lon="2.31595">
        <ele>13.39999961853</ele>
        <time>2015-10-12T19:18:05Z</time>
      </trkpt>
      <trkpt lat="48.87445" lon="2.31595">
        <ele>11.199999809265</ele>
        <time>2015-10-12T19:18:09Z</time>
      </trkpt>
      <trkpt lat="48.87426" lon="2.316">
        <ele>10.39999961853</ele>
        <time>2015-10-12T19:18:13Z</time>
      </trkpt>
      <trkpt lat="48.87407" lon="2.316">
        <ele>10.60000038147</ele>
        <time>2015-10-12T19:18:17Z</time>
      </trkpt>
      <trkpt lat="48.87397" lon="2.31603">
        <ele>9.3999996185303</ele>
        <time>2015-10-12T19:18:24Z</time>
      </trkpt>
      <trkpt lat="48.87378" lon="2.31601">
        <ele>8.6000003814697</ele>
        <time>2015-10-12T19:18:34Z</time>
      </trkpt>
      <trkpt lat="48.87358" lon="2.31606">
        <ele>5.5999999046326</ele>
        <time>2015-10-12T19:18:40Z</time>
      </trkpt>
      <trkpt lat="48.87339" lon="2.31606">
        <ele>3</ele>
        <time>2015-10-12T19:18:45Z</time>
      </trkpt>
      <trkpt lat="48.87316" lon="2.31609">
        <ele>0.60000002384186</ele>
        <time>2015-10-12T19:18:50Z</time>
      </trkpt>
      <trkpt lat="48.87297" lon="2.31612">
        <ele>-0.40000000596046</ele>
        <time>2015-10-12T19:18:54Z</time>
      </trkpt>
      <trkpt lat="48.87294" lon="2.31613">
        <ele>-0.40000000596046</ele>
        <time>2015-10-12T19:18:55Z</time>
      </trkpt>
      <trkpt lat="48.87295" lon="2.3164">
        <ele>-0.80000001192093</ele>
        <time>2015-10-12T19:19:00Z</time>
      </trkpt>
      <trkpt lat="48.87299" lon="2.31668">
        <ele>-1.2000000476837</ele>
        <time>2015-10-12T19:19:04Z</time>
      </trkpt>
      <trkpt lat="48.87303" lon="2.31698">
        <ele>-1.6000000238419</ele>
        <time>2015-10-12T19:19:08Z</time>
      </trkpt>
      <trkpt lat="48.87305" lon="2.3173">
        <ele>-1.3999999761581</ele>
        <time>2015-10-12T19:19:12Z</time>
      </trkpt>
      <trkpt lat="48.87311" lon="2.31763">
        <ele>-1.7999999523163</ele>
        <time>2015-10-12T19:19:16Z</time>
      </trkpt>
      <trkpt lat="48.87319" lon="2.31793">
        <ele>-1.3999999761581</ele>
        <time>2015-10-12T19:19:20Z</time>
      </trkpt>
      <trkpt lat="48.87319" lon="2.318">
        <ele>-1.6000000238419</ele>
        <time>2015-10-12T19:19:21Z</time>
      </trkpt>
      <trkpt lat="48.87323" lon="2.31833">
        <ele>-1.2000000476837</ele>
        <time>2015-10-12T19:19:26Z</time>
      </trkpt>
      <trkpt lat="48.87326" lon="2.31858">
        <ele>-1.3999999761581</ele>
        <time>2015-10-12T19:19:30Z</time>
      </trkpt>
      <trkpt lat="48.87328" lon="2.31884">
        <ele>-1.3999999761581</ele>
        <time>2015-10-12T19:19:34Z</time>
      </trkpt>
      <trkpt lat="48.87331" lon="2.31918">
        <ele>-2.2000000476837</ele>
        <time>2015-10-12T19:19:39Z</time>
      </trkpt>
      <trkpt lat="48.87333" lon="2.31951">
        <ele>-3</ele>
        <time>2015-10-12T19:19:44Z</time>
      </trkpt>
      <trkpt lat="48.87336" lon="2.31982">
        <ele>-3.7999999523163</ele>
        <time>2015-10-12T19:19:49Z</time>
      </trkpt>
      <trkpt lat="48.87337" lon="2.31994">
        <ele>-4</ele>
        <time>2015-10-12T19:19:51Z</time>
      </trkpt>
      <trkpt lat="48.87342" lon="2.32024">
        <ele>-3.4000000953674</ele>
        <time>2015-10-12T19:19:57Z</time>
      </trkpt>
      <trkpt lat="48.87344" lon="2.32038">
        <ele>-3.5999999046326</ele>
        <time>2015-10-12T19:20:00Z</time>
      </trkpt>
      <trkpt lat="48.87347" lon="2.32047">
        <ele>-3.4000000953674</ele>
        <time>2015-10-12T19:20:03Z</time>
      </trkpt>
      <trkpt lat="48.87352" lon="2.32052">
        <ele>1.3999999761581</ele>
        <time>2015-10-12T19:20:11Z</time>
      </trkpt>
      <trkpt lat="48.87356" lon="2.32053">
        <ele>3.5999999046326</ele>
        <time>2015-10-12T19:20:17Z</time>
      </trkpt>
      <trkpt lat="48.87355" lon="2.32077">
        <ele>9.1999998092651</ele>
        <time>2015-10-12T19:20:38Z</time>
      </trkpt>
      <trkpt lat="48.8735" lon="2.32107">
        <ele>12.800000190735</ele>
        <time>2015-10-12T19:20:45Z</time>
      </trkpt>
      <trkpt lat="48.87352" lon="2.32136">
        <ele>14.800000190735</ele>
        <time>2015-10-12T19:20:50Z</time>
      </trkpt>
      <trkpt lat="48.87354" lon="2.32167">
        <ele>16</ele>
        <time>2015-10-12T19:20:55Z</time>
      </trkpt>
      <trkpt lat="48.87355" lon="2.32201">
        <ele>17.60000038147</ele>
        <time>2015-10-12T19:21:00Z</time>
      </trkpt>
      <trkpt lat="48.87357" lon="2.32229">
        <ele>18.60000038147</ele>
        <time>2015-10-12T19:21:04Z</time>
      </trkpt>
      <trkpt lat="48.8736" lon="2.32259">
        <ele>22.60000038147</ele>
        <time>2015-10-12T19:21:09Z</time>
      </trkpt>
      <trkpt lat="48.87354" lon="2.32289">
        <ele>25.60000038147</ele>
        <time>2015-10-12T19:21:13Z</time>
      </trkpt>
      <trkpt lat="48.87352" lon="2.32317">
        <ele>28</ele>
        <time>2015-10-12T19:21:17Z</time>
      </trkpt>
      <trkpt lat="48.87354" lon="2.32348">
        <ele>30</ele>
        <time>2015-10-12T19:21:21Z</time>
      </trkpt>
      <trkpt lat="48.87355" lon="2.32367">
        <ele>31.39999961853</ele>
        <time>2015-10-12T19:21:24Z</time>
      </trkpt>
      <trkpt lat="48.87358" lon="2.32397">
        <ele>33.20000076294</ele>
        <time>2015-10-12T19:21:28Z</time>
      </trkpt>
      <trkpt lat="48.87357" lon="2.32427">
        <ele>34.599998474121</ele>
        <time>2015-10-12T19:21:33Z</time>
      </trkpt>
      <trkpt lat="48.87358" lon="2.3246">
        <ele>35.79999923706</ele>
        <time>2015-10-12T19:21:38Z</time>
      </trkpt>
      <trkpt lat="48.87359" lon="2.32491">
        <ele>37</ele>
        <time>2015-10-12T19:21:43Z</time>
      </trkpt>
      <trkpt lat="48.87351" lon="2.32516">
        <ele>38</ele>
        <time>2015-10-12T19:21:47Z</time>
      </trkpt>
      <trkpt lat="48.87334" lon="2.32515">
        <ele>40.400001525879</ele>
        <time>2015-10-12T19:21:54Z</time>
      </trkpt>
      <trkpt lat="48.87316" lon="2.32511">
        <ele>42.20000076294</ele>
        <time>2015-10-12T19:21:59Z</time>
      </trkpt>
      <trkpt lat="48.87298" lon="2.32507">
        <ele>43.79999923706</ele>
        <time>2015-10-12T19:22:03Z</time>
      </trkpt>
      <trkpt lat="48.87278" lon="2.32503">
        <ele>45.79999923706</ele>
        <time>2015-10-12T19:22:08Z</time>
      </trkpt>
      <trkpt lat="48.87257" lon="2.32498">
        <ele>46.599998474121</ele>
        <time>2015-10-12T19:22:14Z</time>
      </trkpt>
      <trkpt lat="48.87246" lon="2.32508">
        <ele>48</ele>
        <time>2015-10-12T19:22:21Z</time>
      </trkpt>
      <trkpt lat="48.87152" lon="2.3259">
        <ele>37.20000076294</ele>
        <time>2015-10-12T19:23:15Z</time>
      </trkpt>
      <trkpt lat="48.87133" lon="2.32582">
        <ele>29.799999237061</ele>
        <time>2015-10-12T19:23:35Z</time>
      </trkpt>
      <trkpt lat="48.87117" lon="2.32564">
        <ele>29.39999961853</ele>
        <time>2015-10-12T19:23:43Z</time>
      </trkpt>
      <trkpt lat="48.87102" lon="2.32549">
        <ele>30.200000762939</ele>
        <time>2015-10-12T19:23:54Z</time>
      </trkpt>
      <trkpt lat="48.87092" lon="2.3254">
        <ele>30.200000762939</ele>
        <time>2015-10-12T19:24:03Z</time>
      </trkpt>
      <trkpt lat="48.87078" lon="2.32516">
        <ele>34</ele>
        <time>2015-10-12T19:24:12Z</time>
      </trkpt>
      <trkpt lat="48.87074" lon="2.32517">
        <ele>34.400001525879</ele>
        <time>2015-10-12T19:24:14Z</time>
      </trkpt>
      <trkpt lat="48.87055" lon="2.32524">
        <ele>40</ele>
        <time>2015-10-12T19:24:24Z</time>
      </trkpt>
      <trkpt lat="48.87049" lon="2.32521">
        <ele>41</ele>
        <time>2015-10-12T19:24:27Z</time>
      </trkpt>
      <trkpt lat="48.87039" lon="2.32513">
        <ele>41</ele>
        <time>2015-10-12T19:24:31Z</time>
      </trkpt>
      <trkpt lat="48.8702" lon="2.32502">
        <ele>39.20000076294</ele>
        <time>2015-10-12T19:24:37Z</time>
      </trkpt>
      <trkpt lat="48.86999" lon="2.32493">
        <ele>36.20000076294</ele>
        <time>2015-10-12T19:24:43Z</time>
      </trkpt>
      <trkpt lat="48.86979" lon="2.32485">
        <ele>35.79999923706</ele>
        <time>2015-10-12T19:24:48Z</time>
      </trkpt>
      <trkpt lat="48.86959" lon="2.3248">
        <ele>33.20000076294</ele>
        <time>2015-10-12T19:24:53Z</time>
      </trkpt>
      <trkpt lat="48.86944" lon="2.32473">
        <ele>30.799999237061</ele>
        <time>2015-10-12T19:24:59Z</time>
      </trkpt>
      <trkpt lat="48.86943" lon="2.32477">
        <ele>29.60000038147</ele>
        <time>2015-10-12T19:25:03Z</time>
      </trkpt>
      <trkpt lat="48.86943" lon="2.32503">
        <ele>26</ele>
        <time>2015-10-12T19:25:16Z</time>
      </trkpt>
      <trkpt lat="48.86936" lon="2.32516">
        <ele>25.799999237061</ele>
        <time>2015-10-12T19:25:21Z</time>
      </trkpt>
      <trkpt lat="48.86918" lon="2.32528">
        <ele>24.799999237061</ele>
        <time>2015-10-12T19:25:27Z</time>
      </trkpt>
      <trkpt lat="48.86906" lon="2.32532">
        <ele>24.200000762939</ele>
        <time>2015-10-12T19:25:30Z</time>
      </trkpt>
      <trkpt lat="48.86886" lon="2.32542">
        <ele>23.39999961853</ele>
        <time>2015-10-12T19:25:37Z</time>
      </trkpt>
      <trkpt lat="48.86869" lon="2.32557">
        <ele>23.39999961853</ele>
        <time>2015-10-12T19:25:42Z</time>
      </trkpt>
      <trkpt lat="48.86849" lon="2.3257">
        <ele>23</ele>
        <time>2015-10-12T19:25:47Z</time>
      </trkpt>
      <trkpt lat="48.86832" lon="2.32578">
        <ele>22.39999961853</ele>
        <time>2015-10-12T19:25:51Z</time>
      </trkpt>
      <trkpt lat="48.86812" lon="2.32585">
        <ele>21.60000038147</ele>
        <time>2015-10-12T19:25:56Z</time>
      </trkpt>
      <trkpt lat="48.86794" lon="2.32589">
        <ele>20.799999237061</ele>
        <time>2015-10-12T19:26:00Z</time>
      </trkpt>
      <trkpt lat="48.86774" lon="2.32593">
        <ele>20</ele>
        <time>2015-10-12T19:26:04Z</time>
      </trkpt>
      <trkpt lat="48.86758" lon="2.32608">
        <ele>21</ele>
        <time>2015-10-12T19:26:08Z</time>
      </trkpt>
      <trkpt lat="48.86751" lon="2.32609">
        <ele>21.60000038147</ele>
        <time>2015-10-12T19:26:10Z</time>
      </trkpt>
      <trkpt lat="48.86734" lon="2.32594">
        <ele>22.799999237061</ele>
        <time>2015-10-12T19:26:15Z</time>
      </trkpt>
      <trkpt lat="48.86715" lon="2.32583">
        <ele>22.799999237061</ele>
        <time>2015-10-12T19:26:19Z</time>
      </trkpt>
      <trkpt lat="48.86696" lon="2.32574">
        <ele>22.39999961853</ele>
        <time>2015-10-12T19:26:23Z</time>
      </trkpt>
      <trkpt lat="48.86678" lon="2.3256">
        <ele>21.799999237061</ele>
        <time>2015-10-12T19:26:28Z</time>
      </trkpt>
      <trkpt lat="48.86682" lon="2.32538">
        <ele>21.60000038147</ele>
        <time>2015-10-12T19:26:32Z</time>
      </trkpt>
      <trkpt lat="48.86691" lon="2.32511">
        <ele>21.200000762939</ele>
        <time>2015-10-12T19:26:37Z</time>
      </trkpt>
      <trkpt lat="48.86699" lon="2.32484">
        <ele>20.799999237061</ele>
        <time>2015-10-12T19:26:42Z</time>
      </trkpt>
      <trkpt lat="48.867" lon="2.32471">
        <ele>20.39999961853</ele>
        <time>2015-10-12T19:26:44Z</time>
      </trkpt>
      <trkpt lat="48.86688" lon="2.32446">
        <ele>19.200000762939</ele>
        <time>2015-10-12T19:26:49Z</time>
      </trkpt>
      <trkpt lat="48.8667" lon="2.32437">
        <ele>18.200000762939</ele>
        <time>2015-10-12T19:26:54Z</time>
      </trkpt>
      <trkpt lat="48.86652" lon="2.32431">
        <ele>17.200000762939</ele>
        <time>2015-10-12T19:26:59Z</time>
      </trkpt>
      <trkpt lat="48.86644" lon="2.32421">
        <ele>16.60000038147</ele>
        <time>2015-10-12T19:27:02Z</time>
      </trkpt>
      <trkpt lat="48.86639" lon="2.3239">
        <ele>17.39999961853</ele>
        <time>2015-10-12T19:27:08Z</time>
      </trkpt>
      <trkpt lat="48.86637" lon="2.32358">
        <ele>19.39999961853</ele>
        <time>2015-10-12T19:27:14Z</time>
      </trkpt>
      <trkpt lat="48.86626" lon="2.32332">
        <ele>17.799999237061</ele>
        <time>2015-10-12T19:27:20Z</time>
      </trkpt>
      <trkpt lat="48.86608" lon="2.32313">
        <ele>16.60000038147</ele>
        <time>2015-10-12T19:27:26Z</time>
      </trkpt>
      <trkpt lat="48.86591" lon="2.323">
        <ele>18.60000038147</ele>
        <time>2015-10-12T19:27:31Z</time>
      </trkpt>
      <trkpt lat="48.86575" lon="2.32285">
        <ele>22</ele>
        <time>2015-10-12T19:27:36Z</time>
      </trkpt>
      <trkpt lat="48.86557" lon="2.32271">
        <ele>22.39999961853</ele>
        <time>2015-10-12T19:27:41Z</time>
      </trkpt>
      <trkpt lat="48.86539" lon="2.32257">
        <ele>23.200000762939</ele>
        <time>2015-10-12T19:27:46Z</time>
      </trkpt>
      <trkpt lat="48.8652" lon="2.32245">
        <ele>24.200000762939</ele>
        <time>2015-10-12T19:27:51Z</time>
      </trkpt>
      <trkpt lat="48.86503" lon="2.32234">
        <ele>24.200000762939</ele>
        <time>2015-10-12T19:27:56Z</time>
      </trkpt>
      <trkpt lat="48.86486" lon="2.32223">
        <ele>24.200000762939</ele>
        <time>2015-10-12T19:28:02Z</time>
      </trkpt>
      <trkpt lat="48.86469" lon="2.32211">
        <ele>24.39999961853</ele>
        <time>2015-10-12T19:28:07Z</time>
      </trkpt>
      <trkpt lat="48.86451" lon="2.32197">
        <ele>24.60000038147</ele>
        <time>2015-10-12T19:28:12Z</time>
      </trkpt>
      <trkpt lat="48.86433" lon="2.32181">
        <ele>25.200000762939</ele>
        <time>2015-10-12T19:28:17Z</time>
      </trkpt>
      <trkpt lat="48.86416" lon="2.32167">
        <ele>25</ele>
        <time>2015-10-12T19:28:22Z</time>
      </trkpt>
      <trkpt lat="48.86398" lon="2.32151">
        <ele>25.60000038147</ele>
        <time>2015-10-12T19:28:28Z</time>
      </trkpt>
      <trkpt lat="48.86392" lon="2.32147">
        <ele>27.39999961853</ele>
        <time>2015-10-12T19:28:31Z</time>
      </trkpt>
      <trkpt lat="48.86391" lon="2.3214">
        <ele>28.799999237061</ele>
        <time>2015-10-12T19:28:34Z</time>
      </trkpt>
      <trkpt lat="48.86398" lon="2.32125">
        <ele>28</ele>
        <time>2015-10-12T19:29:32Z</time>
      </trkpt>
      <trkpt lat="48.86405" lon="2.32096">
        <ele>29.799999237061</ele>
        <time>2015-10-12T19:29:40Z</time>
      </trkpt>
      <trkpt lat="48.86414" lon="2.32071">
        <ele>31.39999961853</ele>
        <time>2015-10-12T19:29:46Z</time>
      </trkpt>
      <trkpt lat="48.86419" lon="2.3205">
        <ele>32.599998474121</ele>
        <time>2015-10-12T19:29:51Z</time>
      </trkpt>
      <trkpt lat="48.86404" lon="2.32034">
        <ele>31.799999237061</ele>
        <time>2015-10-12T19:30:10Z</time>
      </trkpt>
      <trkpt lat="48.86389" lon="2.32015">
        <ele>31.39999961853</ele>
        <time>2015-10-12T19:30:20Z</time>
      </trkpt>
      <trkpt lat="48.8637" lon="2.32003">
        <ele>31.39999961853</ele>
        <time>2015-10-12T19:30:27Z</time>
      </trkpt>
      <trkpt lat="48.86353" lon="2.31991">
        <ele>31.39999961853</ele>
        <time>2015-10-12T19:30:33Z</time>
      </trkpt>
      <trkpt lat="48.86337" lon="2.31979">
        <ele>32.599998474121</ele>
        <time>2015-10-12T19:30:38Z</time>
      </trkpt>
      <trkpt lat="48.86319" lon="2.31967">
        <ele>31.799999237061</ele>
        <time>2015-10-12T19:30:43Z</time>
      </trkpt>
      <trkpt lat="48.86303" lon="2.31953">
        <ele>31.39999961853</ele>
        <time>2015-10-12T19:30:48Z</time>
      </trkpt>
      <trkpt lat="48.86285" lon="2.3194">
        <ele>30</ele>
        <time>2015-10-12T19:30:54Z</time>
      </trkpt>
      <trkpt lat="48.86268" lon="2.31929">
        <ele>28.799999237061</ele>
        <time>2015-10-12T19:31:00Z</time>
      </trkpt>
      <trkpt lat="48.8625" lon="2.31942">
        <ele>27.200000762939</ele>
        <time>2015-10-12T19:31:07Z</time>
      </trkpt>
      <trkpt lat="48.86249" lon="2.31944">
        <ele>27</ele>
        <time>2015-10-12T19:31:08Z</time>
      </trkpt>
      <trkpt lat="48.86247" lon="2.31945">
        <ele>26.799999237061</ele>
        <time>2015-10-12T19:31:09Z</time>
      </trkpt>
      <trkpt lat="48.86232" lon="2.31955">
        <ele>25.799999237061</ele>
        <time>2015-10-12T19:31:35Z</time>
      </trkpt>
      <trkpt lat="48.86214" lon="2.31951">
        <ele>25</ele>
        <time>2015-10-12T19:31:41Z</time>
      </trkpt>
      <trkpt lat="48.86195" lon="2.31944">
        <ele>24.200000762939</ele>
        <time>2015-10-12T19:31:46Z</time>
      </trkpt>
      <trkpt lat="48.86173" lon="2.31934">
        <ele>23.60000038147</ele>
        <time>2015-10-12T19:31:51Z</time>
      </trkpt>
      <trkpt lat="48.86154" lon="2.31927">
        <ele>22</ele>
        <time>2015-10-12T19:31:55Z</time>
      </trkpt>
      <trkpt lat="48.86136" lon="2.3192">
        <ele>19.799999237061</ele>
        <time>2015-10-12T19:31:59Z</time>
      </trkpt>
      <trkpt lat="48.86118" lon="2.31914">
        <ele>18</ele>
        <time>2015-10-12T19:32:03Z</time>
      </trkpt>
      <trkpt lat="48.86098" lon="2.31909">
        <ele>16.39999961853</ele>
        <time>2015-10-12T19:32:08Z</time>
      </trkpt>
      <trkpt lat="48.86083" lon="2.31904">
        <ele>14.800000190735</ele>
        <time>2015-10-12T19:32:12Z</time>
      </trkpt>
      <trkpt lat="48.86072" lon="2.319">
        <ele>13</ele>
        <time>2015-10-12T19:32:16Z</time>
      </trkpt>
      <trkpt lat="48.86059" lon="2.31888">
        <ele>11.39999961853</ele>
        <time>2015-10-12T19:32:23Z</time>
      </trkpt>
      <trkpt lat="48.86042" lon="2.31875">
        <ele>9.1999998092651</ele>
        <time>2015-10-12T19:32:31Z</time>
      </trkpt>
      <trkpt lat="48.86032" lon="2.31864">
        <ele>8.8000001907349</ele>
        <time>2015-10-12T19:32:35Z</time>
      </trkpt>
      <trkpt lat="48.86027" lon="2.3185">
        <ele>9</ele>
        <time>2015-10-12T19:32:39Z</time>
      </trkpt>
      <trkpt lat="48.86028" lon="2.31844">
        <ele>8.8000001907349</ele>
        <time>2015-10-12T19:32:41Z</time>
      </trkpt>
      <trkpt lat="48.8602" lon="2.3183">
        <ele>9.6000003814697</ele>
        <time>2015-10-12T19:32:48Z</time>
      </trkpt>
      <trkpt lat="48.86" lon="2.31827">
        <ele>11.800000190735</ele>
        <time>2015-10-12T19:32:54Z</time>
      </trkpt>
      <trkpt lat="48.85981" lon="2.31826">
        <ele>12</ele>
        <time>2015-10-12T19:33:02Z</time>
      </trkpt>
      <trkpt lat="48.85962" lon="2.31819">
        <ele>11.800000190735</ele>
        <time>2015-10-12T19:33:09Z</time>
      </trkpt>
      <trkpt lat="48.85941" lon="2.31815">
        <ele>10.800000190735</ele>
        <time>2015-10-12T19:33:15Z</time>
      </trkpt>
      <trkpt lat="48.85922" lon="2.31812">
        <ele>10.199999809265</ele>
        <time>2015-10-12T19:33:20Z</time>
      </trkpt>
      <trkpt lat="48.85901" lon="2.31804">
        <ele>9.3999996185303</ele>
        <time>2015-10-12T19:33:25Z</time>
      </trkpt>
      <trkpt lat="48.8588" lon="2.31799">
        <ele>8.8000001907349</ele>
        <time>2015-10-12T19:33:30Z</time>
      </trkpt>
      <trkpt lat="48.8586" lon="2.31798">
        <ele>8.6000003814697</ele>
        <time>2015-10-12T19:33:34Z</time>
      </trkpt>
      <trkpt lat="48.85842" lon="2.31793">
        <ele>8.1999998092651</ele>
        <time>2015-10-12T19:33:38Z</time>
      </trkpt>
      <trkpt lat="48.85822" lon="2.31791">
        <ele>7.8000001907349</ele>
        <time>2015-10-12T19:33:43Z</time>
      </trkpt>
      <trkpt lat="48.85802" lon="2.31785">
        <ele>6.8000001907349</ele>
        <time>2015-10-12T19:33:48Z</time>
      </trkpt>
      <trkpt lat="48.85784" lon="2.3178">
        <ele>6</ele>
        <time>2015-10-12T19:33:53Z</time>
      </trkpt>
      <trkpt lat="48.85764" lon="2.31777">
        <ele>5.1999998092651</ele>
        <time>2015-10-12T19:33:58Z</time>
      </trkpt>
      <trkpt lat="48.85744" lon="2.31775">
        <ele>4.8000001907349</ele>
        <time>2015-10-12T19:34:02Z</time>
      </trkpt>
      <trkpt lat="48.85724" lon="2.31771">
        <ele>4.1999998092651</ele>
        <time>2015-10-12T19:34:07Z</time>
      </trkpt>
      <trkpt lat="48.85703" lon="2.31765">
        <ele>4</ele>
        <time>2015-10-12T19:34:12Z</time>
      </trkpt>
      <trkpt lat="48.85683" lon="2.31756">
        <ele>2.7999999523163</ele>
        <time>2015-10-12T19:34:17Z</time>
      </trkpt>
      <trkpt lat="48.85664" lon="2.31747">
        <ele>1.7999999523163</ele>
        <time>2015-10-12T19:34:22Z</time>
      </trkpt>
      <trkpt lat="48.85643" lon="2.31738">
        <ele>1.2000000476837</ele>
        <time>2015-10-12T19:34:27Z</time>
      </trkpt>
      <trkpt lat="48.85622" lon="2.31732">
        <ele>0.40000000596046</ele>
        <time>2015-10-12T19:34:32Z</time>
      </trkpt>
      <trkpt lat="48.856" lon="2.31728">
        <ele>0.40000000596046</ele>
        <time>2015-10-12T19:34:38Z</time>
      </trkpt>
      <trkpt lat="48.85588" lon="2.31724">
        <ele>0.40000000596046</ele>
        <time>2015-10-12T19:34:42Z</time>
      </trkpt>
      <trkpt lat="48.85585" lon="2.31709">
        <ele>2</ele>
        <time>2015-10-12T19:34:46Z</time>
      </trkpt>
      <trkpt lat="48.85584" lon="2.31707">
        <ele>3</ele>
        <time>2015-10-12T19:34:48Z</time>
      </trkpt>
      <trkpt lat="48.85574" lon="2.31729">
        <ele>8.6000003814697</ele>
        <time>2015-10-12T19:35:01Z</time>
      </trkpt>
      <trkpt lat="48.85566" lon="2.3176">
        <ele>9.8000001907349</ele>
        <time>2015-10-12T19:35:06Z</time>
      </trkpt>
      <trkpt lat="48.85559" lon="2.31785">
        <ele>11</ele>
        <time>2015-10-12T19:35:10Z</time>
      </trkpt>
      <trkpt lat="48.85554" lon="2.31813">
        <ele>12.39999961853</ele>
        <time>2015-10-12T19:35:14Z</time>
      </trkpt>
      <trkpt lat="48.85542" lon="2.31841">
        <ele>14</ele>
        <time>2015-10-12T19:35:18Z</time>
      </trkpt>
      <trkpt lat="48.85533" lon="2.3187">
        <ele>15.199999809265</ele>
        <time>2015-10-12T19:35:22Z</time>
      </trkpt>
      <trkpt lat="48.85531" lon="2.3188">
        <ele>15.39999961853</ele>
        <time>2015-10-12T19:35:23Z</time>
      </trkpt>
      <trkpt lat="48.85523" lon="2.31909">
        <ele>17.799999237061</ele>
        <time>2015-10-12T19:35:27Z</time>
      </trkpt>
      <trkpt lat="48.85514" lon="2.31938">
        <ele>20.799999237061</ele>
        <time>2015-10-12T19:35:31Z</time>
      </trkpt>
      <trkpt lat="48.85503" lon="2.31966">
        <ele>25.200000762939</ele>
        <time>2015-10-12T19:35:36Z</time>
      </trkpt>
      <trkpt lat="48.85499" lon="2.31985">
        <ele>32.599998474121</ele>
        <time>2015-10-12T19:35:40Z</time>
      </trkpt>
      <trkpt lat="48.85511" lon="2.32003">
        <ele>39</ele>
        <time>2015-10-12T19:35:46Z</time>
      </trkpt>
      <trkpt lat="48.85525" lon="2.32008">
        <ele>41.599998474121</ele>
        <time>2015-10-12T19:35:50Z</time>
      </trkpt>
      <trkpt lat="48.85528" lon="2.32009">
        <ele>42.20000076294</ele>
        <time>2015-10-12T19:35:51Z</time>
      </trkpt>
      <trkpt lat="48.85544" lon="2.32024">
        <ele>44</ele>
        <time>2015-10-12T19:35:56Z</time>
      </trkpt>
      <trkpt lat="48.85564" lon="2.3204">
        <ele>46</ele>
        <time>2015-10-12T19:36:01Z</time>
      </trkpt>
      <trkpt lat="48.85582" lon="2.32061">
        <ele>47.599998474121</ele>
        <time>2015-10-12T19:36:05Z</time>
      </trkpt>
      <trkpt lat="48.85599" lon="2.32076">
        <ele>49</ele>
        <time>2015-10-12T19:36:09Z</time>
      </trkpt>
      <trkpt lat="48.85617" lon="2.32094">
        <ele>50.400001525879</ele>
        <time>2015-10-12T19:36:14Z</time>
      </trkpt>
      <trkpt lat="48.8564" lon="2.32099">
        <ele>51.20000076294</ele>
        <time>2015-10-12T19:36:19Z</time>
      </trkpt>
      <trkpt lat="48.85644" lon="2.32102">
        <ele>50.400001525879</ele>
        <time>2015-10-12T19:36:20Z</time>
      </trkpt>
      <trkpt lat="48.85641" lon="2.32126">
        <ele>49.400001525879</ele>
        <time>2015-10-12T19:36:24Z</time>
      </trkpt>
      <trkpt lat="48.85632" lon="2.32157">
        <ele>52.599998474121</ele>
        <time>2015-10-12T19:36:29Z</time>
      </trkpt>
      <trkpt lat="48.85624" lon="2.32183">
        <ele>56.20000076294</ele>
        <time>2015-10-12T19:36:33Z</time>
      </trkpt>
      <trkpt lat="48.85616" lon="2.32209">
        <ele>58.79999923706</ele>
        <time>2015-10-12T19:36:37Z</time>
      </trkpt>
      <trkpt lat="48.85609" lon="2.32238">
        <ele>59.20000076294</ele>
        <time>2015-10-12T19:36:41Z</time>
      </trkpt>
      <trkpt lat="48.85602" lon="2.32266">
        <ele>60</ele>
        <time>2015-10-12T19:36:45Z</time>
      </trkpt>
      <trkpt lat="48.85592" lon="2.3229">
        <ele>62</ele>
        <time>2015-10-12T19:36:49Z</time>
      </trkpt>
      <trkpt lat="48.85582" lon="2.32314">
        <ele>64.400001525879</ele>
        <time>2015-10-12T19:36:53Z</time>
      </trkpt>
      <trkpt lat="48.85571" lon="2.3234">
        <ele>65.800003051758</ele>
        <time>2015-10-12T19:36:57Z</time>
      </trkpt>
      <trkpt lat="48.85561" lon="2.32358">
        <ele>68.599998474121</ele>
        <time>2015-10-12T19:37:01Z</time>
      </trkpt>
      <trkpt lat="48.85547" lon="2.3238">
        <ele>72.599998474121</ele>
        <time>2015-10-12T19:37:06Z</time>
      </trkpt>
      <trkpt lat="48.85535" lon="2.32401">
        <ele>76</ele>
        <time>2015-10-12T19:37:10Z</time>
      </trkpt>
      <trkpt lat="48.85521" lon="2.32424">
        <ele>79.400001525879</ele>
        <time>2015-10-12T19:37:15Z</time>
      </trkpt>
      <trkpt lat="48.85519" lon="2.32429">
        <ele>80</ele>
        <time>2015-10-12T19:37:16Z</time>
      </trkpt>
      <trkpt lat="48.85504" lon="2.32438">
        <ele>63</ele>
        <time>2015-10-12T19:37:32Z</time>
      </trkpt>
      <trkpt lat="48.85486" lon="2.32435">
        <ele>58.599998474121</ele>
        <time>2015-10-12T19:37:38Z</time>
      </trkpt>
      <trkpt lat="48.85465" lon="2.3243">
        <ele>55.20000076294</ele>
        <time>2015-10-12T19:37:43Z</time>
      </trkpt>
      <trkpt lat="48.85446" lon="2.3242">
        <ele>53</ele>
        <time>2015-10-12T19:37:48Z</time>
      </trkpt>
      <trkpt lat="48.85428" lon="2.32413">
        <ele>52.20000076294</ele>
        <time>2015-10-12T19:37:53Z</time>
      </trkpt>
      <trkpt lat="48.85417" lon="2.32401">
        <ele>52.400001525879</ele>
        <time>2015-10-12T19:38:01Z</time>
      </trkpt>
      <trkpt lat="48.85401" lon="2.32393">
        <ele>53.599998474121</ele>
        <time>2015-10-12T19:38:16Z</time>
      </trkpt>
      <trkpt lat="48.8538" lon="2.3239">
        <ele>52.599998474121</ele>
        <time>2015-10-12T19:38:23Z</time>
      </trkpt>
      <trkpt lat="48.85359" lon="2.32386">
        <ele>51.79999923706</ele>
        <time>2015-10-12T19:38:29Z</time>
      </trkpt>
      <trkpt lat="48.85339" lon="2.3238">
        <ele>50.79999923706</ele>
        <time>2015-10-12T19:38:33Z</time>
      </trkpt>
      <trkpt lat="48.85317" lon="2.32377">
        <ele>50.20000076294</ele>
        <time>2015-10-12T19:38:38Z</time>
      </trkpt>
      <trkpt lat="48.85299" lon="2.32373">
        <ele>49.79999923706</ele>
        <time>2015-10-12T19:38:42Z</time>
      </trkpt>
      <trkpt lat="48.85277" lon="2.32367">
        <ele>49.400001525879</ele>
        <time>2015-10-12T19:38:45Z</time>
      </trkpt>
      <trkpt lat="48.85258" lon="2.32362">
        <ele>49.599998474121</ele>
        <time>2015-10-12T19:38:48Z</time>
      </trkpt>
      <trkpt lat="48.85235" lon="2.32365">
        <ele>49.79999923706</ele>
        <time>2015-10-12T19:38:52Z</time>
      </trkpt>
      <trkpt lat="48.85215" lon="2.32366">
        <ele>49</ele>
        <time>2015-10-12T19:38:56Z</time>
      </trkpt>
      <trkpt lat="48.85195" lon="2.32367">
        <ele>48</ele>
        <time>2015-10-12T19:39:00Z</time>
      </trkpt>
      <trkpt lat="48.85183" lon="2.32368">
        <ele>47.400001525879</ele>
        <time>2015-10-12T19:39:03Z</time>
      </trkpt>
      <trkpt lat="48.85161" lon="2.32377">
        <ele>46.20000076294</ele>
        <time>2015-10-12T19:39:08Z</time>
      </trkpt>
      <trkpt lat="48.85144" lon="2.32386">
        <ele>46.20000076294</ele>
        <time>2015-10-12T19:39:12Z</time>
      </trkpt>
      <trkpt lat="48.85123" lon="2.32397">
        <ele>46.20000076294</ele>
        <time>2015-10-12T19:39:17Z</time>
      </trkpt>
      <trkpt lat="48.85104" lon="2.32402">
        <ele>46.599998474121</ele>
        <time>2015-10-12T19:39:21Z</time>
      </trkpt>
      <trkpt lat="48.85084" lon="2.3241">
        <ele>47</ele>
        <time>2015-10-12T19:39:26Z</time>
      </trkpt>
      <trkpt lat="48.85063" lon="2.32414">
        <ele>47.79999923706</ele>
        <time>2015-10-12T19:39:32Z</time>
      </trkpt>
      <trkpt lat="48.85049" lon="2.32417">
        <ele>47.20000076294</ele>
        <time>2015-10-12T19:39:36Z</time>
      </trkpt>
      <trkpt lat="48.85031" lon="2.32415">
        <ele>47.79999923706</ele>
        <time>2015-10-12T19:39:41Z</time>
      </trkpt>
      <trkpt lat="48.85016" lon="2.32391">
        <ele>45.79999923706</ele>
        <time>2015-10-12T19:39:45Z</time>
      </trkpt>
      <trkpt lat="48.85013" lon="2.32385">
        <ele>45.599998474121</ele>
        <time>2015-10-12T19:39:46Z</time>
      </trkpt>
      <trkpt lat="48.85002" lon="2.32364">
        <ele>45.400001525879</ele>
        <time>2015-10-12T19:39:50Z</time>
      </trkpt>
      <trkpt lat="48.84988" lon="2.3234">
        <ele>46</ele>
        <time>2015-10-12T19:39:55Z</time>
      </trkpt>
      <trkpt lat="48.84975" lon="2.32314">
        <ele>45</ele>
        <time>2015-10-12T19:40:00Z</time>
      </trkpt>
      <trkpt lat="48.84963" lon="2.32291">
        <ele>44</ele>
        <time>2015-10-12T19:40:04Z</time>
      </trkpt>
      <trkpt lat="48.84952" lon="2.32267">
        <ele>42.79999923706</ele>
        <time>2015-10-12T19:40:08Z</time>
      </trkpt>
      <trkpt lat="48.84941" lon="2.32242">
        <ele>41.400001525879</ele>
        <time>2015-10-12T19:40:12Z</time>
      </trkpt>
      <trkpt lat="48.84936" lon="2.32229">
        <ele>40.79999923706</ele>
        <time>2015-10-12T19:40:14Z</time>
      </trkpt>
      <trkpt lat="48.84925" lon="2.32204">
        <ele>40.20000076294</ele>
        <time>2015-10-12T19:40:18Z</time>
      </trkpt>
      <trkpt lat="48.84913" lon="2.32181">
        <ele>38.400001525879</ele>
        <time>2015-10-12T19:40:22Z</time>
      </trkpt>
      <trkpt lat="48.84898" lon="2.32164">
        <ele>34.400001525879</ele>
        <time>2015-10-12T19:40:26Z</time>
      </trkpt>
      <trkpt lat="48.84884" lon="2.32145">
        <ele>32.599998474121</ele>
        <time>2015-10-12T19:40:30Z</time>
      </trkpt>
      <trkpt lat="48.8487" lon="2.32125">
        <ele>31.200000762939</ele>
        <time>2015-10-12T19:40:34Z</time>
      </trkpt>
      <trkpt lat="48.84855" lon="2.32108">
        <ele>29.60000038147</ele>
        <time>2015-10-12T19:40:38Z</time>
      </trkpt>
      <trkpt lat="48.84842" lon="2.32088">
        <ele>28.799999237061</ele>
        <time>2015-10-12T19:40:42Z</time>
      </trkpt>
      <trkpt lat="48.84827" lon="2.32067">
        <ele>28</ele>
        <time>2015-10-12T19:40:46Z</time>
      </trkpt>
      <trkpt lat="48.84813" lon="2.32046">
        <ele>26.39999961853</ele>
        <time>2015-10-12T19:40:50Z</time>
      </trkpt>
      <trkpt lat="48.84803" lon="2.32032">
        <ele>25.60000038147</ele>
        <time>2015-10-12T19:40:53Z</time>
      </trkpt>
      <trkpt lat="48.84793" lon="2.32006">
        <ele>25.200000762939</ele>
        <time>2015-10-12T19:40:57Z</time>
      </trkpt>
      <trkpt lat="48.84783" lon="2.31983">
        <ele>26</ele>
        <time>2015-10-12T19:41:01Z</time>
      </trkpt>
      <trkpt lat="48.84775" lon="2.31955">
        <ele>25.799999237061</ele>
        <time>2015-10-12T19:41:05Z</time>
      </trkpt>
      <trkpt lat="48.84766" lon="2.31929">
        <ele>25.799999237061</ele>
        <time>2015-10-12T19:41:09Z</time>
      </trkpt>
      <trkpt lat="48.84756" lon="2.31899">
        <ele>27</ele>
        <time>2015-10-12T19:41:14Z</time>
      </trkpt>
      <trkpt lat="48.84744" lon="2.31877">
        <ele>26</ele>
        <time>2015-10-12T19:41:17Z</time>
      </trkpt>
      <trkpt lat="48.84732" lon="2.31857">
        <ele>25.39999961853</ele>
        <time>2015-10-12T19:41:20Z</time>
      </trkpt>
      <trkpt lat="48.84718" lon="2.31831">
        <ele>25</ele>
        <time>2015-10-12T19:41:24Z</time>
      </trkpt>
      <trkpt lat="48.84707" lon="2.31803">
        <ele>25.799999237061</ele>
        <time>2015-10-12T19:41:28Z</time>
      </trkpt>
      <trkpt lat="48.84697" lon="2.31776">
        <ele>26.799999237061</ele>
        <time>2015-10-12T19:41:32Z</time>
      </trkpt>
      <trkpt lat="48.84694" lon="2.3176">
        <ele>28</ele>
        <time>2015-10-12T19:41:34Z</time>
      </trkpt>
      <trkpt lat="48.84684" lon="2.31733">
        <ele>29.799999237061</ele>
        <time>2015-10-12T19:41:38Z</time>
      </trkpt>
      <trkpt lat="48.84681" lon="2.31721">
        <ele>30.39999961853</ele>
        <time>2015-10-12T19:41:40Z</time>
      </trkpt>
      <trkpt lat="48.8468" lon="2.31704">
        <ele>30.60000038147</ele>
        <time>2015-10-12T19:41:42Z</time>
      </trkpt>
      <trkpt lat="48.84676" lon="2.31691">
        <ele>30.799999237061</ele>
        <time>2015-10-12T19:41:45Z</time>
      </trkpt>
      <trkpt lat="48.84665" lon="2.31666">
        <ele>32.599998474121</ele>
        <time>2015-10-12T19:41:51Z</time>
      </trkpt>
      <trkpt lat="48.84664" lon="2.31655">
        <ele>33.20000076294</ele>
        <time>2015-10-12T19:41:53Z</time>
      </trkpt>
      <trkpt lat="48.84658" lon="2.31641">
        <ele>33.599998474121</ele>
        <time>2015-10-12T19:41:56Z</time>
      </trkpt>
      <trkpt lat="48.84652" lon="2.31621">
        <ele>34.599998474121</ele>
        <time>2015-10-12T19:42:00Z</time>
      </trkpt>
      <trkpt lat="48.84646" lon="2.3159">
        <ele>38.400001525879</ele>
        <time>2015-10-12T19:42:05Z</time>
      </trkpt>
      <trkpt lat="48.84642" lon="2.31577">
        <ele>40</ele>
        <time>2015-10-12T19:42:07Z</time>
      </trkpt>
      <trkpt lat="48.8463" lon="2.31551">
        <ele>39.79999923706</ele>
        <time>2015-10-12T19:42:12Z</time>
      </trkpt>
      <trkpt lat="48.84626" lon="2.31546">
        <ele>38.79999923706</ele>
        <time>2015-10-12T19:42:13Z</time>
      </trkpt>
      <trkpt lat="48.84612" lon="2.31527">
        <ele>34</ele>
        <time>2015-10-12T19:42:17Z</time>
      </trkpt>
      <trkpt lat="48.84601" lon="2.315">
        <ele>31.60000038147</ele>
        <time>2015-10-12T19:42:21Z</time>
      </trkpt>
      <trkpt lat="48.84593" lon="2.31469">
        <ele>31</ele>
        <time>2015-10-12T19:42:25Z</time>
      </trkpt>
      <trkpt lat="48.84584" lon="2.31437">
        <ele>30.39999961853</ele>
        <time>2015-10-12T19:42:29Z</time>
      </trkpt>
      <trkpt lat="48.84585" lon="2.31402">
        <ele>32.20000076294</ele>
        <time>2015-10-12T19:42:32Z</time>
      </trkpt>
      <trkpt lat="48.84582" lon="2.31384">
        <ele>32.79999923706</ele>
        <time>2015-10-12T19:42:34Z</time>
      </trkpt>
      <trkpt lat="48.84575" lon="2.3135">
        <ele>32.79999923706</ele>
        <time>2015-10-12T19:42:38Z</time>
      </trkpt>
      <trkpt lat="48.84565" lon="2.31319">
        <ele>31.799999237061</ele>
        <time>2015-10-12T19:42:42Z</time>
      </trkpt>
      <trkpt lat="48.84556" lon="2.31289">
        <ele>31.39999961853</ele>
        <time>2015-10-12T19:42:46Z</time>
      </trkpt>
      <trkpt lat="48.84548" lon="2.3126">
        <ele>31.39999961853</ele>
        <time>2015-10-12T19:42:50Z</time>
      </trkpt>
      <trkpt lat="48.8454" lon="2.31231">
        <ele>31.60000038147</ele>
        <time>2015-10-12T19:42:54Z</time>
      </trkpt>
      <trkpt lat="48.84534" lon="2.31212">
        <ele>31.39999961853</ele>
        <time>2015-10-12T19:42:57Z</time>
      </trkpt>
      <trkpt lat="48.84531" lon="2.31184">
        <ele>31.39999961853</ele>
        <time>2015-10-12T19:43:01Z</time>
      </trkpt>
      <trkpt lat="48.84525" lon="2.31152">
        <ele>31.60000038147</ele>
        <time>2015-10-12T19:43:06Z</time>
      </trkpt>
      <trkpt lat="48.84523" lon="2.31135">
        <ele>32</ele>
        <time>2015-10-12T19:43:09Z</time>
      </trkpt>
      <trkpt lat="48.84522" lon="2.31124">
        <ele>31.60000038147</ele>
        <time>2015-10-12T19:43:12Z</time>
      </trkpt>
      <trkpt lat="48.8452" lon="2.31108">
        <ele>32.400001525879</ele>
        <time>2015-10-12T19:43:18Z</time>
      </trkpt>
      <trkpt lat="48.84518" lon="2.31101">
        <ele>32.599998474121</ele>
        <time>2015-10-12T19:43:20Z</time>
      </trkpt>
      <trkpt lat="48.84509" lon="2.31077">
        <ele>32.599998474121</ele>
        <time>2015-10-12T19:43:27Z</time>
      </trkpt>
      <trkpt lat="48.84506" lon="2.31071">
        <ele>32.79999923706</ele>
        <time>2015-10-12T19:43:29Z</time>
      </trkpt>
      <trkpt lat="48.84495" lon="2.31046">
        <ele>32</ele>
        <time>2015-10-12T19:43:35Z</time>
      </trkpt>
      <trkpt lat="48.84485" lon="2.31018">
        <ele>32</ele>
        <time>2015-10-12T19:43:40Z</time>
      </trkpt>
      <trkpt lat="48.84476" lon="2.30995">
        <ele>33</ele>
        <time>2015-10-12T19:43:44Z</time>
      </trkpt>
      <trkpt lat="48.84466" lon="2.30969">
        <ele>33.599998474121</ele>
        <time>2015-10-12T19:43:48Z</time>
      </trkpt>
      <trkpt lat="48.84455" lon="2.30944">
        <ele>34.599998474121</ele>
        <time>2015-10-12T19:43:52Z</time>
      </trkpt>
      <trkpt lat="48.84445" lon="2.3092">
        <ele>36.400001525879</ele>
        <time>2015-10-12T19:43:56Z</time>
      </trkpt>
      <trkpt lat="48.84435" lon="2.30893">
        <ele>38</ele>
        <time>2015-10-12T19:44:00Z</time>
      </trkpt>
      <trkpt lat="48.84432" lon="2.30887">
        <ele>38.20000076294</ele>
        <time>2015-10-12T19:44:01Z</time>
      </trkpt>
      <trkpt lat="48.84422" lon="2.30857">
        <ele>39.400001525879</ele>
        <time>2015-10-12T19:44:05Z</time>
      </trkpt>
      <trkpt lat="48.84412" lon="2.30827">
        <ele>40.599998474121</ele>
        <time>2015-10-12T19:44:09Z</time>
      </trkpt>
      <trkpt lat="48.84401" lon="2.30797">
        <ele>40.599998474121</ele>
        <time>2015-10-12T19:44:13Z</time>
      </trkpt>
      <trkpt lat="48.84392" lon="2.30767">
        <ele>41</ele>
        <time>2015-10-12T19:44:17Z</time>
      </trkpt>
      <trkpt lat="48.84384" lon="2.30737">
        <ele>42.599998474121</ele>
        <time>2015-10-12T19:44:21Z</time>
      </trkpt>
      <trkpt lat="48.84375" lon="2.3071">
        <ele>43.599998474121</ele>
        <time>2015-10-12T19:44:25Z</time>
      </trkpt>
      <trkpt lat="48.84372" lon="2.30705">
        <ele>43.79999923706</ele>
        <time>2015-10-12T19:44:26Z</time>
      </trkpt>
      <trkpt lat="48.84368" lon="2.30686">
        <ele>44.79999923706</ele>
        <time>2015-10-12T19:44:29Z</time>
      </trkpt>
      <trkpt lat="48.8436" lon="2.30659">
        <ele>46.79999923706</ele>
        <time>2015-10-12T19:44:33Z</time>
      </trkpt>
      <trkpt lat="48.84355" lon="2.30646">
        <ele>47.79999923706</ele>
        <time>2015-10-12T19:44:35Z</time>
      </trkpt>
      <trkpt lat="48.84349" lon="2.30619">
        <ele>48.599998474121</ele>
        <time>2015-10-12T19:44:38Z</time>
      </trkpt>
      <trkpt lat="48.8434" lon="2.30591">
        <ele>49.599998474121</ele>
        <time>2015-10-12T19:44:42Z</time>
      </trkpt>
      <trkpt lat="48.84337" lon="2.30585">
        <ele>49.79999923706</ele>
        <time>2015-10-12T19:44:43Z</time>
      </trkpt>
      <trkpt lat="48.84328" lon="2.30557">
        <ele>50.79999923706</ele>
        <time>2015-10-12T19:44:47Z</time>
      </trkpt>
      <trkpt lat="48.84317" lon="2.30528">
        <ele>51.79999923706</ele>
        <time>2015-10-12T19:44:51Z</time>
      </trkpt>
      <trkpt lat="48.84308" lon="2.30499">
        <ele>52</ele>
        <time>2015-10-12T19:44:55Z</time>
      </trkpt>
      <trkpt lat="48.84304" lon="2.30486">
        <ele>52.400001525879</ele>
        <time>2015-10-12T19:44:57Z</time>
      </trkpt>
      <trkpt lat="48.84297" lon="2.30457">
        <ele>53.20000076294</ele>
        <time>2015-10-12T19:45:01Z</time>
      </trkpt>
      <trkpt lat="48.84287" lon="2.30429">
        <ele>54.20000076294</ele>
        <time>2015-10-12T19:45:05Z</time>
      </trkpt>
      <trkpt lat="48.84277" lon="2.304">
        <ele>55.20000076294</ele>
        <time>2015-10-12T19:45:09Z</time>
      </trkpt>
      <trkpt lat="48.84272" lon="2.30387">
        <ele>55.599998474121</ele>
        <time>2015-10-12T19:45:11Z</time>
      </trkpt>
      <trkpt lat="48.84267" lon="2.30372">
        <ele>54.599998474121</ele>
        <time>2015-10-12T19:45:13Z</time>
      </trkpt>
      <trkpt lat="48.84257" lon="2.30341">
        <ele>50.599998474121</ele>
        <time>2015-10-12T19:45:17Z</time>
      </trkpt>
      <trkpt lat="48.84248" lon="2.3032">
        <ele>49.400001525879</ele>
        <time>2015-10-12T19:45:21Z</time>
      </trkpt>
      <trkpt lat="48.84242" lon="2.30297">
        <ele>49</ele>
        <time>2015-10-12T19:45:25Z</time>
      </trkpt>
      <trkpt lat="48.84234" lon="2.30271">
        <ele>49</ele>
        <time>2015-10-12T19:45:29Z</time>
      </trkpt>
      <trkpt lat="48.84228" lon="2.3024">
        <ele>49.79999923706</ele>
        <time>2015-10-12T19:45:33Z</time>
      </trkpt>
      <trkpt lat="48.84221" lon="2.30214">
        <ele>50</ele>
        <time>2015-10-12T19:45:37Z</time>
      </trkpt>
      <trkpt lat="48.84214" lon="2.30187">
        <ele>48</ele>
        <time>2015-10-12T19:45:41Z</time>
      </trkpt>
      <trkpt lat="48.8421" lon="2.30174">
        <ele>47.599998474121</ele>
        <time>2015-10-12T19:45:43Z</time>
      </trkpt>
      <trkpt lat="48.84204" lon="2.30144">
        <ele>46</ele>
        <time>2015-10-12T19:45:47Z</time>
      </trkpt>
      <trkpt lat="48.84197" lon="2.30115">
        <ele>46.400001525879</ele>
        <time>2015-10-12T19:45:51Z</time>
      </trkpt>
      <trkpt lat="48.84189" lon="2.30086">
        <ele>46.400001525879</ele>
        <time>2015-10-12T19:45:55Z</time>
      </trkpt>
      <trkpt lat="48.84184" lon="2.30065">
        <ele>47.400001525879</ele>
        <time>2015-10-12T19:45:58Z</time>
      </trkpt>
      <trkpt lat="48.84172" lon="2.30039">
        <ele>47</ele>
        <time>2015-10-12T19:46:02Z</time>
      </trkpt>
      <trkpt lat="48.84161" lon="2.3001">
        <ele>46.20000076294</ele>
        <time>2015-10-12T19:46:07Z</time>
      </trkpt>
      <trkpt lat="48.84155" lon="2.29982">
        <ele>45.400001525879</ele>
        <time>2015-10-12T19:46:12Z</time>
      </trkpt>
      <trkpt lat="48.84149" lon="2.29955">
        <ele>43.599998474121</ele>
        <time>2015-10-12T19:46:18Z</time>
      </trkpt>
      <trkpt lat="48.84157" lon="2.2993">
        <ele>44.79999923706</ele>
        <time>2015-10-12T19:46:22Z</time>
      </trkpt>
      <trkpt lat="48.8416" lon="2.29924">
        <ele>44.79999923706</ele>
        <time>2015-10-12T19:46:28Z</time>
      </trkpt>
      <trkpt lat="48.8416" lon="2.29924">
        <ele>45</ele>
        <time>2015-10-12T19:46:29Z</time>
      </trkpt>
      <trkpt lat="48.8416" lon="2.29916">
        <ele>46</ele>
        <time>2015-10-12T19:46:33Z</time>
      </trkpt>
      <trkpt lat="48.84153" lon="2.29888">
        <ele>45</ele>
        <time>2015-10-12T19:46:41Z</time>
      </trkpt>
      <trkpt lat="48.84143" lon="2.29858">
        <ele>40.400001525879</ele>
        <time>2015-10-12T19:46:47Z</time>
      </trkpt>
      <trkpt lat="48.84134" lon="2.29828">
        <ele>38.599998474121</ele>
        <time>2015-10-12T19:46:52Z</time>
      </trkpt>
      <trkpt lat="48.84123" lon="2.29804">
        <ele>38.400001525879</ele>
        <time>2015-10-12T19:46:56Z</time>
      </trkpt>
      <trkpt lat="48.84113" lon="2.29777">
        <ele>39.20000076294</ele>
        <time>2015-10-12T19:47:00Z</time>
      </trkpt>
      <trkpt lat="48.84099" lon="2.29749">
        <ele>40</ele>
        <time>2015-10-12T19:47:04Z</time>
      </trkpt>
      <trkpt lat="48.84089" lon="2.2972">
        <ele>40.79999923706</ele>
        <time>2015-10-12T19:47:08Z</time>
      </trkpt>
      <trkpt lat="48.84078" lon="2.29694">
        <ele>41.79999923706</ele>
        <time>2015-10-12T19:47:12Z</time>
      </trkpt>
      <trkpt lat="48.84068" lon="2.29669">
        <ele>43.20000076294</ele>
        <time>2015-10-12T19:47:16Z</time>
      </trkpt>
      <trkpt lat="48.84055" lon="2.29643">
        <ele>43.79999923706</ele>
        <time>2015-10-12T19:47:20Z</time>
      </trkpt>
      <trkpt lat="48.84043" lon="2.29614">
        <ele>43.79999923706</ele>
        <time>2015-10-12T19:47:24Z</time>
      </trkpt>
      <trkpt lat="48.84034" lon="2.29586">
        <ele>43.20000076294</ele>
        <time>2015-10-12T19:47:28Z</time>
      </trkpt>
      <trkpt lat="48.84021" lon="2.29558">
        <ele>40.20000076294</ele>
        <time>2015-10-12T19:47:32Z</time>
      </trkpt>
      <trkpt lat="48.84018" lon="2.29551">
        <ele>39.599998474121</ele>
        <time>2015-10-12T19:47:33Z</time>
      </trkpt>
      <trkpt lat="48.84008" lon="2.29522">
        <ele>38.79999923706</ele>
        <time>2015-10-12T19:47:37Z</time>
      </trkpt>
      <trkpt lat="48.84002" lon="2.29486">
        <ele>40.20000076294</ele>
        <time>2015-10-12T19:47:41Z</time>
      </trkpt>
      <trkpt lat="48.84" lon="2.29462">
        <ele>43.20000076294</ele>
        <time>2015-10-12T19:47:44Z</time>
      </trkpt>
      <trkpt lat="48.83993" lon="2.29434">
        <ele>44.79999923706</ele>
        <time>2015-10-12T19:47:48Z</time>
      </trkpt>
      <trkpt lat="48.83986" lon="2.29402">
        <ele>46</ele>
        <time>2015-10-12T19:47:52Z</time>
      </trkpt>
      <trkpt lat="48.83977" lon="2.29375">
        <ele>47.20000076294</ele>
        <time>2015-10-12T19:47:56Z</time>
      </trkpt>
      <trkpt lat="48.83975" lon="2.29368">
        <ele>47.79999923706</ele>
        <time>2015-10-12T19:47:57Z</time>
      </trkpt>
      <trkpt lat="48.83968" lon="2.29339">
        <ele>50.20000076294</ele>
        <time>2015-10-12T19:48:01Z</time>
      </trkpt>
      <trkpt lat="48.83958" lon="2.29316">
        <ele>51</ele>
        <time>2015-10-12T19:48:05Z</time>
      </trkpt>
      <trkpt lat="48.83951" lon="2.29303">
        <ele>48</ele>
        <time>2015-10-12T19:48:07Z</time>
      </trkpt>
      <trkpt lat="48.83938" lon="2.29279">
        <ele>44.400001525879</ele>
        <time>2015-10-12T19:48:11Z</time>
      </trkpt>
      <trkpt lat="48.83935" lon="2.29274">
        <ele>43.400001525879</ele>
        <time>2015-10-12T19:48:12Z</time>
      </trkpt>
      <trkpt lat="48.83924" lon="2.29248">
        <ele>41</ele>
        <time>2015-10-12T19:48:17Z</time>
      </trkpt>
      <trkpt lat="48.83918" lon="2.29239">
        <ele>39.599998474121</ele>
        <time>2015-10-12T19:48:20Z</time>
      </trkpt>
      <trkpt lat="48.83914" lon="2.29232">
        <ele>38.599998474121</ele>
        <time>2015-10-12T19:48:25Z</time>
      </trkpt>
      <trkpt lat="48.83915" lon="2.2923">
        <ele>38.79999923706</ele>
        <time>2015-10-12T19:48:27Z</time>
      </trkpt>
      <trkpt lat="48.83929" lon="2.292">
        <ele>37</ele>
        <time>2015-10-12T19:48:50Z</time>
      </trkpt>
      <trkpt lat="48.83923" lon="2.2918">
        <ele>30.799999237061</ele>
        <time>2015-10-12T19:49:56Z</time>
      </trkpt>
      <trkpt lat="48.83912" lon="2.29154">
        <ele>32.20000076294</ele>
        <time>2015-10-12T19:50:02Z</time>
      </trkpt>
      <trkpt lat="48.83897" lon="2.2913">
        <ele>31.799999237061</ele>
        <time>2015-10-12T19:50:07Z</time>
      </trkpt>
      <trkpt lat="48.83888" lon="2.29099">
        <ele>32</ele>
        <time>2015-10-12T19:50:12Z</time>
      </trkpt>
      <trkpt lat="48.8388" lon="2.29073">
        <ele>32.20000076294</ele>
        <time>2015-10-12T19:50:16Z</time>
      </trkpt>
      <trkpt lat="48.83871" lon="2.29049">
        <ele>32.599998474121</ele>
        <time>2015-10-12T19:50:20Z</time>
      </trkpt>
      <trkpt lat="48.83859" lon="2.29024">
        <ele>33.400001525879</ele>
        <time>2015-10-12T19:50:25Z</time>
      </trkpt>
      <trkpt lat="48.83846" lon="2.28993">
        <ele>32.599998474121</ele>
        <time>2015-10-12T19:50:30Z</time>
      </trkpt>
      <trkpt lat="48.83836" lon="2.28972">
        <ele>31.39999961853</ele>
        <time>2015-10-12T19:50:34Z</time>
      </trkpt>
      <trkpt lat="48.83829" lon="2.2894">
        <ele>30.799999237061</ele>
        <time>2015-10-12T19:50:39Z</time>
      </trkpt>
      <trkpt lat="48.83822" lon="2.28909">
        <ele>30.799999237061</ele>
        <time>2015-10-12T19:50:44Z</time>
      </trkpt>
      <trkpt lat="48.83816" lon="2.28877">
        <ele>31.200000762939</ele>
        <time>2015-10-12T19:50:49Z</time>
      </trkpt>
      <trkpt lat="48.83808" lon="2.2885">
        <ele>32</ele>
        <time>2015-10-12T19:50:53Z</time>
      </trkpt>
      <trkpt lat="48.83802" lon="2.28821">
        <ele>33.20000076294</ele>
        <time>2015-10-12T19:50:57Z</time>
      </trkpt>
      <trkpt lat="48.83795" lon="2.2879">
        <ele>33</ele>
        <time>2015-10-12T19:51:01Z</time>
      </trkpt>
      <trkpt lat="48.83787" lon="2.28759">
        <ele>33.79999923706</ele>
        <time>2015-10-12T19:51:05Z</time>
      </trkpt>
      <trkpt lat="48.83779" lon="2.2873">
        <ele>34</ele>
        <time>2015-10-12T19:51:09Z</time>
      </trkpt>
      <trkpt lat="48.83772" lon="2.287">
        <ele>34.599998474121</ele>
        <time>2015-10-12T19:51:13Z</time>
      </trkpt>
      <trkpt lat="48.83766" lon="2.28677">
        <ele>34.79999923706</ele>
        <time>2015-10-12T19:51:16Z</time>
      </trkpt>
      <trkpt lat="48.83757" lon="2.28645">
        <ele>34.599998474121</ele>
        <time>2015-10-12T19:51:20Z</time>
      </trkpt>
      <trkpt lat="48.8375" lon="2.2862">
        <ele>33</ele>
        <time>2015-10-12T19:51:23Z</time>
      </trkpt>
      <trkpt lat="48.83739" lon="2.2859">
        <ele>31</ele>
        <time>2015-10-12T19:51:27Z</time>
      </trkpt>
      <trkpt lat="48.83737" lon="2.28582">
        <ele>30.200000762939</ele>
        <time>2015-10-12T19:51:28Z</time>
      </trkpt>
      <trkpt lat="48.83728" lon="2.28555">
        <ele>28.39999961853</ele>
        <time>2015-10-12T19:51:32Z</time>
      </trkpt>
      <trkpt lat="48.8372" lon="2.28528">
        <ele>28.200000762939</ele>
        <time>2015-10-12T19:51:36Z</time>
      </trkpt>
      <trkpt lat="48.83719" lon="2.2852">
        <ele>28.200000762939</ele>
        <time>2015-10-12T19:51:37Z</time>
      </trkpt>
      <trkpt lat="48.8371" lon="2.28491">
        <ele>28.60000038147</ele>
        <time>2015-10-12T19:51:41Z</time>
      </trkpt>
      <trkpt lat="48.837" lon="2.28463">
        <ele>29.60000038147</ele>
        <time>2015-10-12T19:51:45Z</time>
      </trkpt>
      <trkpt lat="48.83689" lon="2.28435">
        <ele>29.39999961853</ele>
        <time>2015-10-12T19:51:49Z</time>
      </trkpt>
      <trkpt lat="48.8368" lon="2.28411">
        <ele>29.200000762939</ele>
        <time>2015-10-12T19:51:53Z</time>
      </trkpt>
      <trkpt lat="48.83673" lon="2.28386">
        <ele>30.200000762939</ele>
        <time>2015-10-12T19:51:57Z</time>
      </trkpt>
      <trkpt lat="48.83671" lon="2.2838">
        <ele>30.60000038147</ele>
        <time>2015-10-12T19:51:58Z</time>
      </trkpt>
      <trkpt lat="48.83668" lon="2.28361">
        <ele>31.799999237061</ele>
        <time>2015-10-12T19:52:01Z</time>
      </trkpt>
      <trkpt lat="48.83657" lon="2.28333">
        <ele>30.60000038147</ele>
        <time>2015-10-12T19:52:05Z</time>
      </trkpt>
      <trkpt lat="48.83648" lon="2.28315">
        <ele>31.39999961853</ele>
        <time>2015-10-12T19:52:08Z</time>
      </trkpt>
      <trkpt lat="48.83643" lon="2.2828">
        <ele>33.20000076294</ele>
        <time>2015-10-12T19:52:12Z</time>
      </trkpt>
      <trkpt lat="48.83641" lon="2.28274">
        <ele>33.599998474121</ele>
        <time>2015-10-12T19:52:13Z</time>
      </trkpt>
      <trkpt lat="48.83634" lon="2.28245">
        <ele>34.599998474121</ele>
        <time>2015-10-12T19:52:17Z</time>
      </trkpt>
      <trkpt lat="48.83623" lon="2.28221">
        <ele>34.599998474121</ele>
        <time>2015-10-12T19:52:21Z</time>
      </trkpt>
      <trkpt lat="48.83609" lon="2.28196">
        <ele>33.400001525879</ele>
        <time>2015-10-12T19:52:25Z</time>
      </trkpt>
      <trkpt lat="48.83598" lon="2.28173">
        <ele>33</ele>
        <time>2015-10-12T19:52:29Z</time>
      </trkpt>
      <trkpt lat="48.83592" lon="2.28162">
        <ele>32.79999923706</ele>
        <time>2015-10-12T19:52:32Z</time>
      </trkpt>
      <trkpt lat="48.83572" lon="2.28153">
        <ele>34.20000076294</ele>
        <time>2015-10-12T19:52:41Z</time>
      </trkpt>
      <trkpt lat="48.8357" lon="2.28151">
        <ele>34</ele>
        <time>2015-10-12T19:52:42Z</time>
      </trkpt>
      <trkpt lat="48.83568" lon="2.2815">
        <ele>34.20000076294</ele>
        <time>2015-10-12T19:52:43Z</time>
      </trkpt>
      <trkpt lat="48.83564" lon="2.28147">
        <ele>34.599998474121</ele>
        <time>2015-10-12T19:52:45Z</time>
      </trkpt>
      <trkpt lat="48.83556" lon="2.2813">
        <ele>36.20000076294</ele>
        <time>2015-10-12T19:52:53Z</time>
      </trkpt>
      <trkpt lat="48.83543" lon="2.2812">
        <ele>38.20000076294</ele>
        <time>2015-10-12T19:53:02Z</time>
      </trkpt>
      <trkpt lat="48.83533" lon="2.28143">
        <ele>44.20000076294</ele>
        <time>2015-10-12T19:53:13Z</time>
      </trkpt>
      <trkpt lat="48.83525" lon="2.28168">
        <ele>50</ele>
        <time>2015-10-12T19:53:20Z</time>
      </trkpt>
      <trkpt lat="48.83509" lon="2.28191">
        <ele>67.199996948242</ele>
        <time>2015-10-12T19:53:29Z</time>
      </trkpt>
      <trkpt lat="48.83501" lon="2.2822">
        <ele>77.400001525879</ele>
        <time>2015-10-12T19:53:35Z</time>
      </trkpt>
      <trkpt lat="48.83493" lon="2.28248">
        <ele>85.800003051758</ele>
        <time>2015-10-12T19:53:40Z</time>
      </trkpt>
      <trkpt lat="48.83482" lon="2.28274">
        <ele>93.199996948242</ele>
        <time>2015-10-12T19:53:46Z</time>
      </trkpt>
      <trkpt lat="48.83473" lon="2.283">
        <ele>102.40000152588</ele>
        <time>2015-10-12T19:53:51Z</time>
      </trkpt>
      <trkpt lat="48.83466" lon="2.28327">
        <ele>121.40000152588</ele>
        <time>2015-10-12T19:53:57Z</time>
      </trkpt>
      <trkpt lat="48.83462" lon="2.28356">
        <ele>130.80000305176</ele>
        <time>2015-10-12T19:54:02Z</time>
      </trkpt>
      <trkpt lat="48.8345" lon="2.28379">
        <ele>138.39999389648</ele>
        <time>2015-10-12T19:54:08Z</time>
      </trkpt>
      <trkpt lat="48.83438" lon="2.28403">
        <ele>146.19999694824</ele>
        <time>2015-10-12T19:54:14Z</time>
      </trkpt>
      <trkpt lat="48.83427" lon="2.28427">
        <ele>149.60000610352</ele>
        <time>2015-10-12T19:54:19Z</time>
      </trkpt>
      <trkpt lat="48.8342" lon="2.28455">
        <ele>151.19999694824</ele>
        <time>2015-10-12T19:54:23Z</time>
      </trkpt>
      <trkpt lat="48.8341" lon="2.28483">
        <ele>153.19999694824</ele>
        <time>2015-10-12T19:54:28Z</time>
      </trkpt>
      <trkpt lat="48.83401" lon="2.28509">
        <ele>155.39999389648</ele>
        <time>2015-10-12T19:54:34Z</time>
      </trkpt>
      <trkpt lat="48.83386" lon="2.28533">
        <ele>159.39999389648</ele>
        <time>2015-10-12T19:54:41Z</time>
      </trkpt>
      <trkpt lat="48.83372" lon="2.28556">
        <ele>163.80000305176</ele>
        <time>2015-10-12T19:54:47Z</time>
      </trkpt>
      <trkpt lat="48.83359" lon="2.28577">
        <ele>170.60000610352</ele>
        <time>2015-10-12T19:54:53Z</time>
      </trkpt>
      <trkpt lat="48.8335" lon="2.28605">
        <ele>177.80000305176</ele>
        <time>2015-10-12T19:55:01Z</time>
      </trkpt>
      <trkpt lat="48.83341" lon="2.2863">
        <ele>180.39999389648</ele>
        <time>2015-10-12T19:55:08Z</time>
      </trkpt>
      <trkpt lat="48.83329" lon="2.28651">
        <ele>183.19999694824</ele>
        <time>2015-10-12T19:55:14Z</time>
      </trkpt>
      <trkpt lat="48.83319" lon="2.28674">
        <ele>185.80000305176</ele>
        <time>2015-10-12T19:55:20Z</time>
      </trkpt>
      <trkpt lat="48.83304" lon="2.28695">
        <ele>191.80000305176</ele>
        <time>2015-10-12T19:55:27Z</time>
      </trkpt>
      <trkpt lat="48.83288" lon="2.28714">
        <ele>197.60000610352</ele>
        <time>2015-10-12T19:55:34Z</time>
      </trkpt>
      <trkpt lat="48.83279" lon="2.28739">
        <ele>200.80000305176</ele>
        <time>2015-10-12T19:55:41Z</time>
      </trkpt>
      <trkpt lat="48.83273" lon="2.28768">
        <ele>196.19999694824</ele>
        <time>2015-10-12T19:55:49Z</time>
      </trkpt>
      <trkpt lat="48.83277" lon="2.28815">
        <ele>170</ele>
        <time>2015-10-12T19:56:00Z</time>
      </trkpt>
      <trkpt lat="48.83278" lon="2.28822">
        <ele>162</ele>
        <time>2015-10-12T19:56:03Z</time>
      </trkpt>
      <trkpt lat="48.8328" lon="2.28828">
        <ele>137.19999694824</ele>
        <time>2015-10-12T19:56:42Z</time>
      </trkpt>
      <trkpt lat="48.83294" lon="2.2885">
        <ele>135</ele>
        <time>2015-10-12T19:56:48Z</time>
      </trkpt>
      <trkpt lat="48.83305" lon="2.28873">
        <ele>133</ele>
        <time>2015-10-12T19:56:54Z</time>
      </trkpt>
      <trkpt lat="48.8332" lon="2.28897">
        <ele>131.60000610352</ele>
        <time>2015-10-12T19:57:01Z</time>
      </trkpt>
      <trkpt lat="48.83332" lon="2.28923">
        <ele>128.39999389648</ele>
        <time>2015-10-12T19:57:07Z</time>
      </trkpt>
      <trkpt lat="48.83346" lon="2.28938">
        <ele>126.40000152588</ele>
        <time>2015-10-12T19:57:12Z</time>
      </trkpt>
      <trkpt lat="48.83363" lon="2.28955">
        <ele>124.80000305176</ele>
        <time>2015-10-12T19:57:18Z</time>
      </trkpt>
      <trkpt lat="48.83379" lon="2.28977">
        <ele>122</ele>
        <time>2015-10-12T19:57:24Z</time>
      </trkpt>
      <trkpt lat="48.83386" lon="2.29003">
        <ele>120.80000305176</ele>
        <time>2015-10-12T19:57:29Z</time>
      </trkpt>
      <trkpt lat="48.83393" lon="2.2903">
        <ele>119.59999847412</ele>
        <time>2015-10-12T19:57:34Z</time>
      </trkpt>
      <trkpt lat="48.83401" lon="2.29055">
        <ele>118</ele>
        <time>2015-10-12T19:57:39Z</time>
      </trkpt>
      <trkpt lat="48.83411" lon="2.29082">
        <ele>115.59999847412</ele>
        <time>2015-10-12T19:57:44Z</time>
      </trkpt>
      <trkpt lat="48.8343" lon="2.29098">
        <ele>112</ele>
        <time>2015-10-12T19:57:47Z</time>
      </trkpt>
      <trkpt lat="48.83445" lon="2.29119">
        <ele>109.59999847412</ele>
        <time>2015-10-12T19:57:51Z</time>
      </trkpt>
      <trkpt lat="48.83463" lon="2.29132">
        <ele>108.59999847412</ele>
        <time>2015-10-12T19:57:54Z</time>
      </trkpt>
      <trkpt lat="48.83472" lon="2.29143">
        <ele>107.40000152588</ele>
        <time>2015-10-12T19:57:56Z</time>
      </trkpt>
      <trkpt lat="48.83486" lon="2.2917">
        <ele>102.40000152588</ele>
        <time>2015-10-12T19:58:01Z</time>
      </trkpt>
      <trkpt lat="48.83497" lon="2.29189">
        <ele>97.800003051758</ele>
        <time>2015-10-12T19:58:04Z</time>
      </trkpt>
      <trkpt lat="48.83514" lon="2.29214">
        <ele>89.800003051758</ele>
        <time>2015-10-12T19:58:07Z</time>
      </trkpt>
      <trkpt lat="48.83528" lon="2.29237">
        <ele>85</ele>
        <time>2015-10-12T19:58:11Z</time>
      </trkpt>
      <trkpt lat="48.83542" lon="2.29256">
        <ele>81</ele>
        <time>2015-10-12T19:58:14Z</time>
      </trkpt>
      <trkpt lat="48.8355" lon="2.29269">
        <ele>79</ele>
        <time>2015-10-12T19:58:16Z</time>
      </trkpt>
      <trkpt lat="48.83564" lon="2.29296">
        <ele>75.800003051758</ele>
        <time>2015-10-12T19:58:20Z</time>
      </trkpt>
      <trkpt lat="48.83577" lon="2.29318">
        <ele>73</ele>
        <time>2015-10-12T19:58:24Z</time>
      </trkpt>
      <trkpt lat="48.83591" lon="2.2934">
        <ele>69.800003051758</ele>
        <time>2015-10-12T19:58:28Z</time>
      </trkpt>
      <trkpt lat="48.83594" lon="2.29347">
        <ele>69</ele>
        <time>2015-10-12T19:58:29Z</time>
      </trkpt>
      <trkpt lat="48.83602" lon="2.29363">
        <ele>67.800003051758</ele>
        <time>2015-10-12T19:58:32Z</time>
      </trkpt>
      <trkpt lat="48.83609" lon="2.29388">
        <ele>63.599998474121</ele>
        <time>2015-10-12T19:58:36Z</time>
      </trkpt>
      <trkpt lat="48.83619" lon="2.29413">
        <ele>59.599998474121</ele>
        <time>2015-10-12T19:58:40Z</time>
      </trkpt>
      <trkpt lat="48.83625" lon="2.2943">
        <ele>58.400001525879</ele>
        <time>2015-10-12T19:58:43Z</time>
      </trkpt>
      <trkpt lat="48.83636" lon="2.29458">
        <ele>57.400001525879</ele>
        <time>2015-10-12T19:58:47Z</time>
      </trkpt>
      <trkpt lat="48.8365" lon="2.29487">
        <ele>55.400001525879</ele>
        <time>2015-10-12T19:58:51Z</time>
      </trkpt>
      <trkpt lat="48.83663" lon="2.29513">
        <ele>53.20000076294</ele>
        <time>2015-10-12T19:58:55Z</time>
      </trkpt>
      <trkpt lat="48.83671" lon="2.29526">
        <ele>52.400001525879</ele>
        <time>2015-10-12T19:58:57Z</time>
      </trkpt>
      <trkpt lat="48.83683" lon="2.29554">
        <ele>51.400001525879</ele>
        <time>2015-10-12T19:59:01Z</time>
      </trkpt>
      <trkpt lat="48.8369" lon="2.29566">
        <ele>50.20000076294</ele>
        <time>2015-10-12T19:59:03Z</time>
      </trkpt>
      <trkpt lat="48.83701" lon="2.29591">
        <ele>48.400001525879</ele>
        <time>2015-10-12T19:59:07Z</time>
      </trkpt>
      <trkpt lat="48.83709" lon="2.29611">
        <ele>47.400001525879</ele>
        <time>2015-10-12T19:59:10Z</time>
      </trkpt>
      <trkpt lat="48.83707" lon="2.29623">
        <ele>46.400001525879</ele>
        <time>2015-10-12T19:59:12Z</time>
      </trkpt>
      <trkpt lat="48.83714" lon="2.29632">
        <ele>46</ele>
        <time>2015-10-12T19:59:16Z</time>
      </trkpt>
      <trkpt lat="48.83725" lon="2.29644">
        <ele>45.79999923706</ele>
        <time>2015-10-12T19:59:20Z</time>
      </trkpt>
      <trkpt lat="48.83727" lon="2.29649">
        <ele>46.20000076294</ele>
        <time>2015-10-12T19:59:21Z</time>
      </trkpt>
      <trkpt lat="48.83732" lon="2.29657">
        <ele>43.400001525879</ele>
        <time>2015-10-12T19:59:23Z</time>
      </trkpt>
      <trkpt lat="48.83737" lon="2.29669">
        <ele>41.20000076294</ele>
        <time>2015-10-12T19:59:26Z</time>
      </trkpt>
      <trkpt lat="48.83743" lon="2.29689">
        <ele>39.20000076294</ele>
        <time>2015-10-12T19:59:30Z</time>
      </trkpt>
      <trkpt lat="48.83747" lon="2.29696">
        <ele>38.400001525879</ele>
        <time>2015-10-12T19:59:32Z</time>
      </trkpt>
      <trkpt lat="48.8376" lon="2.29712">
        <ele>38.599998474121</ele>
        <time>2015-10-12T19:59:36Z</time>
      </trkpt>
      <trkpt lat="48.83765" lon="2.29721">
        <ele>38.400001525879</ele>
        <time>2015-10-12T19:59:38Z</time>
      </trkpt>
      <trkpt lat="48.83768" lon="2.29735">
        <ele>38</ele>
        <time>2015-10-12T19:59:41Z</time>
      </trkpt>
      <trkpt lat="48.83777" lon="2.29751">
        <ele>37</ele>
        <time>2015-10-12T19:59:45Z</time>
      </trkpt>
      <trkpt lat="48.83784" lon="2.29759">
        <ele>36.20000076294</ele>
        <time>2015-10-12T19:59:47Z</time>
      </trkpt>
      <trkpt lat="48.83791" lon="2.29783">
        <ele>34.20000076294</ele>
        <time>2015-10-12T19:59:52Z</time>
      </trkpt>
      <trkpt lat="48.83801" lon="2.29807">
        <ele>32.79999923706</ele>
        <time>2015-10-12T19:59:57Z</time>
      </trkpt>
      <trkpt lat="48.83819" lon="2.29824">
        <ele>31.799999237061</ele>
        <time>2015-10-12T20:00:01Z</time>
      </trkpt>
      <trkpt lat="48.8383" lon="2.29851">
        <ele>28.799999237061</ele>
        <time>2015-10-12T20:00:05Z</time>
      </trkpt>
      <trkpt lat="48.83842" lon="2.2988">
        <ele>27.200000762939</ele>
        <time>2015-10-12T20:00:09Z</time>
      </trkpt>
      <trkpt lat="48.83858" lon="2.29902">
        <ele>26</ele>
        <time>2015-10-12T20:00:13Z</time>
      </trkpt>
      <trkpt lat="48.83861" lon="2.29908">
        <ele>25.799999237061</ele>
        <time>2015-10-12T20:00:14Z</time>
      </trkpt>
      <trkpt lat="48.83876" lon="2.29931">
        <ele>24.200000762939</ele>
        <time>2015-10-12T20:00:18Z</time>
      </trkpt>
      <trkpt lat="48.83878" lon="2.29939">
        <ele>23.799999237061</ele>
        <time>2015-10-12T20:00:19Z</time>
      </trkpt>
      <trkpt lat="48.83888" lon="2.29963">
        <ele>22.60000038147</ele>
        <time>2015-10-12T20:00:23Z</time>
      </trkpt>
      <trkpt lat="48.83892" lon="2.29968">
        <ele>22.200000762939</ele>
        <time>2015-10-12T20:00:24Z</time>
      </trkpt>
      <trkpt lat="48.83904" lon="2.29984">
        <ele>21</ele>
        <time>2015-10-12T20:00:27Z</time>
      </trkpt>
      <trkpt lat="48.83916" lon="2.30008">
        <ele>19.60000038147</ele>
        <time>2015-10-12T20:00:31Z</time>
      </trkpt>
      <trkpt lat="48.83925" lon="2.30032">
        <ele>18.60000038147</ele>
        <time>2015-10-12T20:00:35Z</time>
      </trkpt>
      <trkpt lat="48.83933" lon="2.30049">
        <ele>18.39999961853</ele>
        <time>2015-10-12T20:00:38Z</time>
      </trkpt>
      <trkpt lat="48.83942" lon="2.30078">
        <ele>17.60000038147</ele>
        <time>2015-10-12T20:00:43Z</time>
      </trkpt>
      <trkpt lat="48.83947" lon="2.30094">
        <ele>17</ele>
        <time>2015-10-12T20:00:46Z</time>
      </trkpt>
      <trkpt lat="48.83954" lon="2.30119">
        <ele>16.60000038147</ele>
        <time>2015-10-12T20:00:50Z</time>
      </trkpt>
      <trkpt lat="48.83959" lon="2.30132">
        <ele>16.799999237061</ele>
        <time>2015-10-12T20:00:52Z</time>
      </trkpt>
      <trkpt lat="48.83968" lon="2.3016">
        <ele>15.60000038147</ele>
        <time>2015-10-12T20:00:56Z</time>
      </trkpt>
      <trkpt lat="48.83975" lon="2.30181">
        <ele>16</ele>
        <time>2015-10-12T20:00:59Z</time>
      </trkpt>
      <trkpt lat="48.83987" lon="2.30209">
        <ele>17</ele>
        <time>2015-10-12T20:01:03Z</time>
      </trkpt>
      <trkpt lat="48.83998" lon="2.30237">
        <ele>22.799999237061</ele>
        <time>2015-10-12T20:01:07Z</time>
      </trkpt>
      <trkpt lat="48.84001" lon="2.30244">
        <ele>23.799999237061</ele>
        <time>2015-10-12T20:01:08Z</time>
      </trkpt>
      <trkpt lat="48.84008" lon="2.30272">
        <ele>30.799999237061</ele>
        <time>2015-10-12T20:01:12Z</time>
      </trkpt>
      <trkpt lat="48.84015" lon="2.30302">
        <ele>34.599998474121</ele>
        <time>2015-10-12T20:01:16Z</time>
      </trkpt>
      <trkpt lat="48.84023" lon="2.30332">
        <ele>41.400001525879</ele>
        <time>2015-10-12T20:01:20Z</time>
      </trkpt>
      <trkpt lat="48.8403" lon="2.30359">
        <ele>46.20000076294</ele>
        <time>2015-10-12T20:01:24Z</time>
      </trkpt>
      <trkpt lat="48.84035" lon="2.3039">
        <ele>53.20000076294</ele>
        <time>2015-10-12T20:01:29Z</time>
      </trkpt>
      <trkpt lat="48.84036" lon="2.30394">
        <ele>54.599998474121</ele>
        <time>2015-10-12T20:01:30Z</time>
      </trkpt>
      <trkpt lat="48.84038" lon="2.30401">
        <ele>57.79999923706</ele>
        <time>2015-10-12T20:01:33Z</time>
      </trkpt>
      <trkpt lat="48.84038" lon="2.30403">
        <ele>60.79999923706</ele>
        <time>2015-10-12T20:01:35Z</time>
      </trkpt>
      <trkpt lat="48.84048" lon="2.30431">
        <ele>67.800003051758</ele>
        <time>2015-10-12T20:01:48Z</time>
      </trkpt>
      <trkpt lat="48.84055" lon="2.30461">
        <ele>71.800003051758</ele>
        <time>2015-10-12T20:01:53Z</time>
      </trkpt>
      <trkpt lat="48.84065" lon="2.30493">
        <ele>75</ele>
        <time>2015-10-12T20:01:58Z</time>
      </trkpt>
      <trkpt lat="48.84072" lon="2.3052">
        <ele>75.400001525879</ele>
        <time>2015-10-12T20:02:01Z</time>
      </trkpt>
      <trkpt lat="48.84079" lon="2.30545">
        <ele>77.199996948242</ele>
        <time>2015-10-12T20:02:04Z</time>
      </trkpt>
      <trkpt lat="48.84087" lon="2.30571">
        <ele>77.800003051758</ele>
        <time>2015-10-12T20:02:07Z</time>
      </trkpt>
      <trkpt lat="48.84095" lon="2.30604">
        <ele>78.400001525879</ele>
        <time>2015-10-12T20:02:11Z</time>
      </trkpt>
      <trkpt lat="48.84102" lon="2.30629">
        <ele>78.400001525879</ele>
        <time>2015-10-12T20:02:14Z</time>
      </trkpt>
      <trkpt lat="48.84106" lon="2.30645">
        <ele>77.800003051758</ele>
        <time>2015-10-12T20:02:17Z</time>
      </trkpt>
      <trkpt lat="48.84107" lon="2.30655">
        <ele>76.800003051758</ele>
        <time>2015-10-12T20:02:21Z</time>
      </trkpt>
      <trkpt lat="48.84116" lon="2.30684">
        <ele>73.599998474121</ele>
        <time>2015-10-12T20:02:27Z</time>
      </trkpt>
      <trkpt lat="48.84126" lon="2.30713">
        <ele>73.199996948242</ele>
        <time>2015-10-12T20:02:32Z</time>
      </trkpt>
      <trkpt lat="48.8413" lon="2.3072">
        <ele>73</ele>
        <time>2015-10-12T20:02:33Z</time>
      </trkpt>
      <trkpt lat="48.84134" lon="2.30733">
        <ele>73.199996948242</ele>
        <time>2015-10-12T20:02:35Z</time>
      </trkpt>
      <trkpt lat="48.84143" lon="2.30761">
        <ele>71.599998474121</ele>
        <time>2015-10-12T20:02:39Z</time>
      </trkpt>
      <trkpt lat="48.84151" lon="2.30776">
        <ele>71.199996948242</ele>
        <time>2015-10-12T20:02:42Z</time>
      </trkpt>
      <trkpt lat="48.84161" lon="2.308">
        <ele>70.199996948242</ele>
        <time>2015-10-12T20:02:46Z</time>
      </trkpt>
      <trkpt lat="48.84163" lon="2.30808">
        <ele>69.800003051758</ele>
        <time>2015-10-12T20:02:47Z</time>
      </trkpt>
      <trkpt lat="48.84172" lon="2.30837">
        <ele>68</ele>
        <time>2015-10-12T20:02:51Z</time>
      </trkpt>
      <trkpt lat="48.8418" lon="2.30868">
        <ele>65.800003051758</ele>
        <time>2015-10-12T20:02:55Z</time>
      </trkpt>
      <trkpt lat="48.84189" lon="2.30898">
        <ele>64</ele>
        <time>2015-10-12T20:02:59Z</time>
      </trkpt>
      <trkpt lat="48.84196" lon="2.30921">
        <ele>62.599998474121</ele>
        <time>2015-10-12T20:03:02Z</time>
      </trkpt>
      <trkpt lat="48.84203" lon="2.30948">
        <ele>60.400001525879</ele>
        <time>2015-10-12T20:03:06Z</time>
      </trkpt>
      <trkpt lat="48.84209" lon="2.30975">
        <ele>58</ele>
        <time>2015-10-12T20:03:10Z</time>
      </trkpt>
      <trkpt lat="48.84219" lon="2.31001">
        <ele>55</ele>
        <time>2015-10-12T20:03:14Z</time>
      </trkpt>
      <trkpt lat="48.84222" lon="2.31007">
        <ele>54.20000076294</ele>
        <time>2015-10-12T20:03:15Z</time>
      </trkpt>
      <trkpt lat="48.84229" lon="2.31026">
        <ele>53.20000076294</ele>
        <time>2015-10-12T20:03:18Z</time>
      </trkpt>
      <trkpt lat="48.84236" lon="2.31043">
        <ele>52</ele>
        <time>2015-10-12T20:03:21Z</time>
      </trkpt>
      <trkpt lat="48.84243" lon="2.31069">
        <ele>49</ele>
        <time>2015-10-12T20:03:25Z</time>
      </trkpt>
      <trkpt lat="48.84253" lon="2.31099">
        <ele>46.20000076294</ele>
        <time>2015-10-12T20:03:30Z</time>
      </trkpt>
      <trkpt lat="48.84255" lon="2.31111">
        <ele>44.599998474121</ele>
        <time>2015-10-12T20:03:32Z</time>
      </trkpt>
      <trkpt lat="48.84261" lon="2.31136">
        <ele>43.79999923706</ele>
        <time>2015-10-12T20:03:36Z</time>
      </trkpt>
      <trkpt lat="48.84268" lon="2.31167">
        <ele>42</ele>
        <time>2015-10-12T20:03:41Z</time>
      </trkpt>
      <trkpt lat="48.8427" lon="2.31173">
        <ele>41.79999923706</ele>
        <time>2015-10-12T20:03:42Z</time>
      </trkpt>
      <trkpt lat="48.84273" lon="2.31184">
        <ele>41.20000076294</ele>
        <time>2015-10-12T20:03:44Z</time>
      </trkpt>
      <trkpt lat="48.84276" lon="2.31201">
        <ele>40.20000076294</ele>
        <time>2015-10-12T20:03:47Z</time>
      </trkpt>
      <trkpt lat="48.8428" lon="2.31215">
        <ele>40.400001525879</ele>
        <time>2015-10-12T20:03:51Z</time>
      </trkpt>
      <trkpt lat="48.84283" lon="2.31225">
        <ele>40.400001525879</ele>
        <time>2015-10-12T20:03:54Z</time>
      </trkpt>
      <trkpt lat="48.84288" lon="2.31237">
        <ele>38</ele>
        <time>2015-10-12T20:03:57Z</time>
      </trkpt>
      <trkpt lat="48.84293" lon="2.31253">
        <ele>36.79999923706</ele>
        <time>2015-10-12T20:04:00Z</time>
      </trkpt>
      <trkpt lat="48.84301" lon="2.31277">
        <ele>36.20000076294</ele>
        <time>2015-10-12T20:04:04Z</time>
      </trkpt>
      <trkpt lat="48.84309" lon="2.31302">
        <ele>38.599998474121</ele>
        <time>2015-10-12T20:04:08Z</time>
      </trkpt>
      <trkpt lat="48.84316" lon="2.31328">
        <ele>37.20000076294</ele>
        <time>2015-10-12T20:04:12Z</time>
      </trkpt>
      <trkpt lat="48.84318" lon="2.31334">
        <ele>37</ele>
        <time>2015-10-12T20:04:13Z</time>
      </trkpt>
      <trkpt lat="48.84324" lon="2.3136">
        <ele>36.79999923706</ele>
        <time>2015-10-12T20:04:17Z</time>
      </trkpt>
      <trkpt lat="48.84332" lon="2.31388">
        <ele>36</ele>
        <time>2015-10-12T20:04:21Z</time>
      </trkpt>
      <trkpt lat="48.84342" lon="2.31407">
        <ele>36</ele>
        <time>2015-10-12T20:04:24Z</time>
      </trkpt>
      <trkpt lat="48.84351" lon="2.31434">
        <ele>36</ele>
        <time>2015-10-12T20:04:28Z</time>
      </trkpt>
      <trkpt lat="48.8436" lon="2.31462">
        <ele>43.599998474121</ele>
        <time>2015-10-12T20:04:33Z</time>
      </trkpt>
      <trkpt lat="48.84368" lon="2.31495">
        <ele>46</ele>
        <time>2015-10-12T20:04:38Z</time>
      </trkpt>
      <trkpt lat="48.84376" lon="2.31522">
        <ele>45.79999923706</ele>
        <time>2015-10-12T20:04:42Z</time>
      </trkpt>
      <trkpt lat="48.84384" lon="2.31548">
        <ele>46</ele>
        <time>2015-10-12T20:04:46Z</time>
      </trkpt>
      <trkpt lat="48.84388" lon="2.31561">
        <ele>45.79999923706</ele>
        <time>2015-10-12T20:04:48Z</time>
      </trkpt>
      <trkpt lat="48.84392" lon="2.31573">
        <ele>45.400001525879</ele>
        <time>2015-10-12T20:04:50Z</time>
      </trkpt>
      <trkpt lat="48.84401" lon="2.316">
        <ele>44.400001525879</ele>
        <time>2015-10-12T20:04:54Z</time>
      </trkpt>
      <trkpt lat="48.84409" lon="2.31626">
        <ele>44.20000076294</ele>
        <time>2015-10-12T20:04:58Z</time>
      </trkpt>
      <trkpt lat="48.84413" lon="2.31639">
        <ele>44.20000076294</ele>
        <time>2015-10-12T20:05:00Z</time>
      </trkpt>
      <trkpt lat="48.8442" lon="2.31667">
        <ele>44.20000076294</ele>
        <time>2015-10-12T20:05:04Z</time>
      </trkpt>
      <trkpt lat="48.84424" lon="2.3168">
        <ele>44.20000076294</ele>
        <time>2015-10-12T20:05:06Z</time>
      </trkpt>
      <trkpt lat="48.84433" lon="2.31708">
        <ele>44.400001525879</ele>
        <time>2015-10-12T20:05:10Z</time>
      </trkpt>
      <trkpt lat="48.84438" lon="2.3173">
        <ele>44.79999923706</ele>
        <time>2015-10-12T20:05:13Z</time>
      </trkpt>
      <trkpt lat="48.84443" lon="2.31758">
        <ele>45.599998474121</ele>
        <time>2015-10-12T20:05:17Z</time>
      </trkpt>
      <trkpt lat="48.84446" lon="2.31786">
        <ele>45.20000076294</ele>
        <time>2015-10-12T20:05:21Z</time>
      </trkpt>
      <trkpt lat="48.84447" lon="2.31794">
        <ele>45.20000076294</ele>
        <time>2015-10-12T20:05:22Z</time>
      </trkpt>
      <trkpt lat="48.84454" lon="2.31825">
        <ele>45.79999923706</ele>
        <time>2015-10-12T20:05:26Z</time>
      </trkpt>
      <trkpt lat="48.84461" lon="2.31857">
        <ele>45.400001525879</ele>
        <time>2015-10-12T20:05:30Z</time>
      </trkpt>
      <trkpt lat="48.8447" lon="2.31886">
        <ele>44.599998474121</ele>
        <time>2015-10-12T20:05:34Z</time>
      </trkpt>
      <trkpt lat="48.84478" lon="2.31916">
        <ele>44.20000076294</ele>
        <time>2015-10-12T20:05:38Z</time>
      </trkpt>
      <trkpt lat="48.84486" lon="2.31946">
        <ele>45.599998474121</ele>
        <time>2015-10-12T20:05:42Z</time>
      </trkpt>
      <trkpt lat="48.84492" lon="2.31974">
        <ele>46.400001525879</ele>
        <time>2015-10-12T20:05:46Z</time>
      </trkpt>
      <trkpt lat="48.84499" lon="2.31994">
        <ele>46.400001525879</ele>
        <time>2015-10-12T20:05:49Z</time>
      </trkpt>
      <trkpt lat="48.8451" lon="2.32017">
        <ele>46.599998474121</ele>
        <time>2015-10-12T20:05:53Z</time>
      </trkpt>
      <trkpt lat="48.84512" lon="2.32023">
        <ele>46.79999923706</ele>
        <time>2015-10-12T20:05:54Z</time>
      </trkpt>
      <trkpt lat="48.84522" lon="2.32048">
        <ele>48.20000076294</ele>
        <time>2015-10-12T20:05:58Z</time>
      </trkpt>
      <trkpt lat="48.8453" lon="2.32078">
        <ele>49.20000076294</ele>
        <time>2015-10-12T20:06:02Z</time>
      </trkpt>
      <trkpt lat="48.8454" lon="2.32109">
        <ele>49.20000076294</ele>
        <time>2015-10-12T20:06:06Z</time>
      </trkpt>
      <trkpt lat="48.84549" lon="2.3214">
        <ele>48.599998474121</ele>
        <time>2015-10-12T20:06:10Z</time>
      </trkpt>
      <trkpt lat="48.84557" lon="2.32172">
        <ele>48.400001525879</ele>
        <time>2015-10-12T20:06:14Z</time>
      </trkpt>
      <trkpt lat="48.84568" lon="2.32201">
        <ele>47.79999923706</ele>
        <time>2015-10-12T20:06:18Z</time>
      </trkpt>
      <trkpt lat="48.8458" lon="2.32228">
        <ele>47.599998474121</ele>
        <time>2015-10-12T20:06:22Z</time>
      </trkpt>
      <trkpt lat="48.8459" lon="2.32257">
        <ele>48.400001525879</ele>
        <time>2015-10-12T20:06:26Z</time>
      </trkpt>
      <trkpt lat="48.846" lon="2.32286">
        <ele>48.79999923706</ele>
        <time>2015-10-12T20:06:30Z</time>
      </trkpt>
      <trkpt lat="48.84608" lon="2.32315">
        <ele>49.79999923706</ele>
        <time>2015-10-12T20:06:34Z</time>
      </trkpt>
      <trkpt lat="48.84613" lon="2.32335">
        <ele>50.20000076294</ele>
        <time>2015-10-12T20:06:37Z</time>
      </trkpt>
      <trkpt lat="48.84618" lon="2.32363">
        <ele>49.400001525879</ele>
        <time>2015-10-12T20:06:41Z</time>
      </trkpt>
      <trkpt lat="48.84623" lon="2.32395">
        <ele>47.79999923706</ele>
        <time>2015-10-12T20:06:45Z</time>
      </trkpt>
      <trkpt lat="48.84626" lon="2.32411">
        <ele>47.400001525879</ele>
        <time>2015-10-12T20:06:47Z</time>
      </trkpt>
      <trkpt lat="48.84632" lon="2.32441">
        <ele>47.599998474121</ele>
        <time>2015-10-12T20:06:51Z</time>
      </trkpt>
      <trkpt lat="48.8464" lon="2.32471">
        <ele>46.400001525879</ele>
        <time>2015-10-12T20:06:55Z</time>
      </trkpt>
      <trkpt lat="48.84643" lon="2.32486">
        <ele>45.79999923706</ele>
        <time>2015-10-12T20:06:57Z</time>
      </trkpt>
      <trkpt lat="48.84651" lon="2.32516">
        <ele>43.599998474121</ele>
        <time>2015-10-12T20:07:01Z</time>
      </trkpt>
      <trkpt lat="48.84661" lon="2.32546">
        <ele>41.599998474121</ele>
        <time>2015-10-12T20:07:05Z</time>
      </trkpt>
      <trkpt lat="48.84673" lon="2.32577">
        <ele>42</ele>
        <time>2015-10-12T20:07:09Z</time>
      </trkpt>
      <trkpt lat="48.84684" lon="2.32607">
        <ele>42.20000076294</ele>
        <time>2015-10-12T20:07:13Z</time>
      </trkpt>
      <trkpt lat="48.84691" lon="2.32637">
        <ele>43.79999923706</ele>
        <time>2015-10-12T20:07:17Z</time>
      </trkpt>
      <trkpt lat="48.84693" lon="2.32643">
        <ele>44.20000076294</ele>
        <time>2015-10-12T20:07:18Z</time>
      </trkpt>
      <trkpt lat="48.847" lon="2.32668">
        <ele>45.20000076294</ele>
        <time>2015-10-12T20:07:23Z</time>
      </trkpt>
      <trkpt lat="48.847" lon="2.32691">
        <ele>43</ele>
        <time>2015-10-12T20:07:30Z</time>
      </trkpt>
      <trkpt lat="48.84704" lon="2.32696">
        <ele>42</ele>
        <time>2015-10-12T20:07:31Z</time>
      </trkpt>
      <trkpt lat="48.84708" lon="2.327">
        <ele>41.20000076294</ele>
        <time>2015-10-12T20:07:32Z</time>
      </trkpt>
      <trkpt lat="48.84722" lon="2.32726">
        <ele>38.79999923706</ele>
        <time>2015-10-12T20:07:37Z</time>
      </trkpt>
      <trkpt lat="48.84724" lon="2.32733">
        <ele>38.400001525879</ele>
        <time>2015-10-12T20:07:38Z</time>
      </trkpt>
      <trkpt lat="48.84731" lon="2.32763">
        <ele>38.599998474121</ele>
        <time>2015-10-12T20:07:43Z</time>
      </trkpt>
      <trkpt lat="48.84733" lon="2.32769">
        <ele>38.599998474121</ele>
        <time>2015-10-12T20:07:44Z</time>
      </trkpt>
      <trkpt lat="48.84739" lon="2.32794">
        <ele>40</ele>
        <time>2015-10-12T20:07:50Z</time>
      </trkpt>
      <trkpt lat="48.84745" lon="2.32823">
        <ele>40</ele>
        <time>2015-10-12T20:07:57Z</time>
      </trkpt>
      <trkpt lat="48.84749" lon="2.32836">
        <ele>40.79999923706</ele>
        <time>2015-10-12T20:07:59Z</time>
      </trkpt>
      <trkpt lat="48.84756" lon="2.32865">
        <ele>41</ele>
        <time>2015-10-12T20:08:03Z</time>
      </trkpt>
      <trkpt lat="48.84762" lon="2.32895">
        <ele>41</ele>
        <time>2015-10-12T20:08:07Z</time>
      </trkpt>
      <trkpt lat="48.8477" lon="2.32923">
        <ele>41.20000076294</ele>
        <time>2015-10-12T20:08:11Z</time>
      </trkpt>
      <trkpt lat="48.84781" lon="2.32946">
        <ele>41.599998474121</ele>
        <time>2015-10-12T20:08:15Z</time>
      </trkpt>
      <trkpt lat="48.84788" lon="2.32966">
        <ele>41.79999923706</ele>
        <time>2015-10-12T20:08:18Z</time>
      </trkpt>
      <trkpt lat="48.84796" lon="2.32994">
        <ele>42</ele>
        <time>2015-10-12T20:08:22Z</time>
      </trkpt>
      <trkpt lat="48.84806" lon="2.33024">
        <ele>42.599998474121</ele>
        <time>2015-10-12T20:08:26Z</time>
      </trkpt>
      <trkpt lat="48.84816" lon="2.33055">
        <ele>43.599998474121</ele>
        <time>2015-10-12T20:08:30Z</time>
      </trkpt>
      <trkpt lat="48.84824" lon="2.33086">
        <ele>43.400001525879</ele>
        <time>2015-10-12T20:08:34Z</time>
      </trkpt>
      <trkpt lat="48.84832" lon="2.33108">
        <ele>43.20000076294</ele>
        <time>2015-10-12T20:08:37Z</time>
      </trkpt>
      <trkpt lat="48.8484" lon="2.33139">
        <ele>42.79999923706</ele>
        <time>2015-10-12T20:08:41Z</time>
      </trkpt>
      <trkpt lat="48.84847" lon="2.33167">
        <ele>42.400001525879</ele>
        <time>2015-10-12T20:08:45Z</time>
      </trkpt>
      <trkpt lat="48.84852" lon="2.33194">
        <ele>42.599998474121</ele>
        <time>2015-10-12T20:08:49Z</time>
      </trkpt>
      <trkpt lat="48.8486" lon="2.33224">
        <ele>43</ele>
        <time>2015-10-12T20:08:55Z</time>
      </trkpt>
      <trkpt lat="48.84866" lon="2.33245">
        <ele>42.79999923706</ele>
        <time>2015-10-12T20:09:00Z</time>
      </trkpt>
      <trkpt lat="48.84872" lon="2.33275">
        <ele>42.599998474121</ele>
        <time>2015-10-12T20:09:05Z</time>
      </trkpt>
      <trkpt lat="48.84875" lon="2.33289">
        <ele>42.20000076294</ele>
        <time>2015-10-12T20:09:07Z</time>
      </trkpt>
      <trkpt lat="48.84881" lon="2.33318">
        <ele>41.599998474121</ele>
        <time>2015-10-12T20:09:11Z</time>
      </trkpt>
      <trkpt lat="48.84889" lon="2.3335">
        <ele>41.20000076294</ele>
        <time>2015-10-12T20:09:15Z</time>
      </trkpt>
      <trkpt lat="48.84896" lon="2.33382">
        <ele>41.599998474121</ele>
        <time>2015-10-12T20:09:19Z</time>
      </trkpt>
      <trkpt lat="48.84903" lon="2.33415">
        <ele>41.599998474121</ele>
        <time>2015-10-12T20:09:23Z</time>
      </trkpt>
      <trkpt lat="48.84907" lon="2.33448">
        <ele>41.400001525879</ele>
        <time>2015-10-12T20:09:27Z</time>
      </trkpt>
      <trkpt lat="48.84911" lon="2.33479">
        <ele>40.79999923706</ele>
        <time>2015-10-12T20:09:31Z</time>
      </trkpt>
      <trkpt lat="48.84916" lon="2.3351">
        <ele>40.400001525879</ele>
        <time>2015-10-12T20:09:35Z</time>
      </trkpt>
      <trkpt lat="48.84921" lon="2.33544">
        <ele>40.20000076294</ele>
        <time>2015-10-12T20:09:39Z</time>
      </trkpt>
      <trkpt lat="48.84925" lon="2.33577">
        <ele>40</ele>
        <time>2015-10-12T20:09:43Z</time>
      </trkpt>
      <trkpt lat="48.8493" lon="2.33608">
        <ele>40.20000076294</ele>
        <time>2015-10-12T20:09:47Z</time>
      </trkpt>
      <trkpt lat="48.84931" lon="2.33641">
        <ele>40.79999923706</ele>
        <time>2015-10-12T20:09:51Z</time>
      </trkpt>
      <trkpt lat="48.84931" lon="2.33673">
        <ele>40.79999923706</ele>
        <time>2015-10-12T20:09:55Z</time>
      </trkpt>
      <trkpt lat="48.84932" lon="2.33704">
        <ele>40.599998474121</ele>
        <time>2015-10-12T20:09:59Z</time>
      </trkpt>
      <trkpt lat="48.84931" lon="2.33734">
        <ele>41.599998474121</ele>
        <time>2015-10-12T20:10:03Z</time>
      </trkpt>
      <trkpt lat="48.8493" lon="2.33763">
        <ele>42.400001525879</ele>
        <time>2015-10-12T20:10:07Z</time>
      </trkpt>
      <trkpt lat="48.84927" lon="2.33788">
        <ele>42.20000076294</ele>
        <time>2015-10-12T20:10:11Z</time>
      </trkpt>
      <trkpt lat="48.84926" lon="2.33822">
        <ele>43</ele>
        <time>2015-10-12T20:10:16Z</time>
      </trkpt>
      <trkpt lat="48.8492" lon="2.33849">
        <ele>45.20000076294</ele>
        <time>2015-10-12T20:10:20Z</time>
      </trkpt>
      <trkpt lat="48.84919" lon="2.33856">
        <ele>45.599998474121</ele>
        <time>2015-10-12T20:10:21Z</time>
      </trkpt>
      <trkpt lat="48.84917" lon="2.33869">
        <ele>46</ele>
        <time>2015-10-12T20:10:23Z</time>
      </trkpt>
      <trkpt lat="48.84915" lon="2.3389">
        <ele>47.79999923706</ele>
        <time>2015-10-12T20:10:27Z</time>
      </trkpt>
      <trkpt lat="48.84915" lon="2.33898">
        <ele>48.79999923706</ele>
        <time>2015-10-12T20:10:29Z</time>
      </trkpt>
      <trkpt lat="48.84916" lon="2.33917">
        <ele>49.79999923706</ele>
        <time>2015-10-12T20:10:33Z</time>
      </trkpt>
      <trkpt lat="48.84916" lon="2.33923">
        <ele>50</ele>
        <time>2015-10-12T20:10:34Z</time>
      </trkpt>
      <trkpt lat="48.84912" lon="2.33952">
        <ele>51.79999923706</ele>
        <time>2015-10-12T20:10:39Z</time>
      </trkpt>
      <trkpt lat="48.8491" lon="2.33963">
        <ele>52.400001525879</ele>
        <time>2015-10-12T20:10:41Z</time>
      </trkpt>
      <trkpt lat="48.84903" lon="2.33991">
        <ele>54.20000076294</ele>
        <time>2015-10-12T20:10:46Z</time>
      </trkpt>
      <trkpt lat="48.84896" lon="2.34016">
        <ele>58</ele>
        <time>2015-10-12T20:10:51Z</time>
      </trkpt>
      <trkpt lat="48.84895" lon="2.34022">
        <ele>58.79999923706</ele>
        <time>2015-10-12T20:10:52Z</time>
      </trkpt>
      <trkpt lat="48.84895" lon="2.34038">
        <ele>60</ele>
        <time>2015-10-12T20:10:55Z</time>
      </trkpt>
      <trkpt lat="48.84894" lon="2.34071">
        <ele>61.599998474121</ele>
        <time>2015-10-12T20:11:00Z</time>
      </trkpt>
      <trkpt lat="48.84892" lon="2.34105">
        <ele>62.79999923706</ele>
        <time>2015-10-12T20:11:04Z</time>
      </trkpt>
      <trkpt lat="48.84891" lon="2.34135">
        <ele>63.20000076294</ele>
        <time>2015-10-12T20:11:08Z</time>
      </trkpt>
      <trkpt lat="48.84891" lon="2.34146">
        <ele>63</ele>
        <time>2015-10-12T20:11:10Z</time>
      </trkpt>
      <trkpt lat="48.84885" lon="2.34156">
        <ele>53.400001525879</ele>
        <time>2015-10-12T20:12:07Z</time>
      </trkpt>
      <trkpt lat="48.84883" lon="2.34151">
        <ele>52.400001525879</ele>
        <time>2015-10-12T20:13:35Z</time>
      </trkpt>
      <trkpt lat="48.84889" lon="2.34161">
        <ele>55.20000076294</ele>
        <time>2015-10-12T20:14:50Z</time>
      </trkpt>
      <trkpt lat="48.84904" lon="2.3418">
        <ele>54.79999923706</ele>
        <time>2015-10-12T20:14:59Z</time>
      </trkpt>
      <trkpt lat="48.84923" lon="2.34193">
        <ele>54.400001525879</ele>
        <time>2015-10-12T20:15:05Z</time>
      </trkpt>
      <trkpt lat="48.84939" lon="2.34204">
        <ele>52.400001525879</ele>
        <time>2015-10-12T20:15:09Z</time>
      </trkpt>
      <trkpt lat="48.84958" lon="2.34217">
        <ele>50.20000076294</ele>
        <time>2015-10-12T20:15:14Z</time>
      </trkpt>
      <trkpt lat="48.84976" lon="2.34225">
        <ele>49.20000076294</ele>
        <time>2015-10-12T20:15:18Z</time>
      </trkpt>
      <trkpt lat="48.84997" lon="2.34234">
        <ele>48.400001525879</ele>
        <time>2015-10-12T20:15:23Z</time>
      </trkpt>
      <trkpt lat="48.85016" lon="2.34243">
        <ele>48.400001525879</ele>
        <time>2015-10-12T20:15:27Z</time>
      </trkpt>
      <trkpt lat="48.85033" lon="2.34252">
        <ele>49.20000076294</ele>
        <time>2015-10-12T20:15:31Z</time>
      </trkpt>
      <trkpt lat="48.85053" lon="2.34259">
        <ele>50.20000076294</ele>
        <time>2015-10-12T20:15:35Z</time>
      </trkpt>
      <trkpt lat="48.85074" lon="2.34264">
        <ele>51.79999923706</ele>
        <time>2015-10-12T20:15:39Z</time>
      </trkpt>
      <trkpt lat="48.8508" lon="2.34266">
        <ele>52.599998474121</ele>
        <time>2015-10-12T20:15:40Z</time>
      </trkpt>
      <trkpt lat="48.851" lon="2.34273">
        <ele>55.20000076294</ele>
        <time>2015-10-12T20:15:44Z</time>
      </trkpt>
      <trkpt lat="48.85111" lon="2.34273">
        <ele>58.599998474121</ele>
        <time>2015-10-12T20:15:47Z</time>
      </trkpt>
      <trkpt lat="48.85115" lon="2.34273">
        <ele>61.599998474121</ele>
        <time>2015-10-12T20:15:49Z</time>
      </trkpt>
      <trkpt lat="48.85118" lon="2.34274">
        <ele>65.800003051758</ele>
        <time>2015-10-12T20:15:52Z</time>
      </trkpt>
      <trkpt lat="48.85119" lon="2.34281">
        <ele>65.800003051758</ele>
        <time>2015-10-12T20:15:57Z</time>
      </trkpt>
      <trkpt lat="48.85122" lon="2.34288">
        <ele>64.199996948242</ele>
        <time>2015-10-12T20:16:01Z</time>
      </trkpt>
      <trkpt lat="48.85123" lon="2.34293">
        <ele>62.400001525879</ele>
        <time>2015-10-12T20:16:02Z</time>
      </trkpt>
      <trkpt lat="48.85124" lon="2.34296">
        <ele>61.400001525879</ele>
        <time>2015-10-12T20:16:05Z</time>
      </trkpt>
      <trkpt lat="48.85141" lon="2.34306">
        <ele>57.400001525879</ele>
        <time>2015-10-12T20:16:17Z</time>
      </trkpt>
      <trkpt lat="48.85163" lon="2.34314">
        <ele>57.20000076294</ele>
        <time>2015-10-12T20:16:22Z</time>
      </trkpt>
      <trkpt lat="48.85181" lon="2.34322">
        <ele>57.79999923706</ele>
        <time>2015-10-12T20:16:26Z</time>
      </trkpt>
      <trkpt lat="48.85201" lon="2.34328">
        <ele>59.599998474121</ele>
        <time>2015-10-12T20:16:30Z</time>
      </trkpt>
      <trkpt lat="48.85219" lon="2.34335">
        <ele>62.400001525879</ele>
        <time>2015-10-12T20:16:34Z</time>
      </trkpt>
      <trkpt lat="48.85241" lon="2.3434">
        <ele>66.599998474121</ele>
        <time>2015-10-12T20:16:39Z</time>
      </trkpt>
      <trkpt lat="48.85265" lon="2.34352">
        <ele>53.20000076294</ele>
        <time>2015-10-12T20:16:44Z</time>
      </trkpt>
      <trkpt lat="48.85276" lon="2.34357">
        <ele>50.400001525879</ele>
        <time>2015-10-12T20:16:46Z</time>
      </trkpt>
      <trkpt lat="48.85296" lon="2.34366">
        <ele>48</ele>
        <time>2015-10-12T20:16:50Z</time>
      </trkpt>
      <trkpt lat="48.85317" lon="2.34375">
        <ele>46</ele>
        <time>2015-10-12T20:16:54Z</time>
      </trkpt>
      <trkpt lat="48.85337" lon="2.34388">
        <ele>45.400001525879</ele>
        <time>2015-10-12T20:16:58Z</time>
      </trkpt>
      <trkpt lat="48.85342" lon="2.34392">
        <ele>45.79999923706</ele>
        <time>2015-10-12T20:16:59Z</time>
      </trkpt>
      <trkpt lat="48.8536" lon="2.34404">
        <ele>45.79999923706</ele>
        <time>2015-10-12T20:17:03Z</time>
      </trkpt>
      <trkpt lat="48.85362" lon="2.34407">
        <ele>45.400001525879</ele>
        <time>2015-10-12T20:17:04Z</time>
      </trkpt>
      <trkpt lat="48.85367" lon="2.34414">
        <ele>44</ele>
        <time>2015-10-12T20:17:07Z</time>
      </trkpt>
      <trkpt lat="48.85375" lon="2.34437">
        <ele>33</ele>
        <time>2015-10-12T20:17:42Z</time>
      </trkpt>
      <trkpt lat="48.85394" lon="2.3445">
        <ele>33.20000076294</ele>
        <time>2015-10-12T20:17:49Z</time>
      </trkpt>
      <trkpt lat="48.85411" lon="2.34467">
        <ele>33.79999923706</ele>
        <time>2015-10-12T20:17:54Z</time>
      </trkpt>
      <trkpt lat="48.85427" lon="2.34482">
        <ele>35.20000076294</ele>
        <time>2015-10-12T20:17:58Z</time>
      </trkpt>
      <trkpt lat="48.85443" lon="2.34497">
        <ele>36.400001525879</ele>
        <time>2015-10-12T20:18:02Z</time>
      </trkpt>
      <trkpt lat="48.85458" lon="2.34513">
        <ele>37.79999923706</ele>
        <time>2015-10-12T20:18:06Z</time>
      </trkpt>
      <trkpt lat="48.85474" lon="2.34524">
        <ele>40.20000076294</ele>
        <time>2015-10-12T20:18:10Z</time>
      </trkpt>
      <trkpt lat="48.85493" lon="2.34536">
        <ele>43.400001525879</ele>
        <time>2015-10-12T20:18:15Z</time>
      </trkpt>
      <trkpt lat="48.85511" lon="2.34551">
        <ele>46.20000076294</ele>
        <time>2015-10-12T20:18:19Z</time>
      </trkpt>
      <trkpt lat="48.85527" lon="2.34568">
        <ele>46.79999923706</ele>
        <time>2015-10-12T20:18:22Z</time>
      </trkpt>
      <trkpt lat="48.85542" lon="2.34582">
        <ele>44</ele>
        <time>2015-10-12T20:18:24Z</time>
      </trkpt>
      <trkpt lat="48.85556" lon="2.34594">
        <ele>39.79999923706</ele>
        <time>2015-10-12T20:18:26Z</time>
      </trkpt>
      <trkpt lat="48.85566" lon="2.34603">
        <ele>40.400001525879</ele>
        <time>2015-10-12T20:18:28Z</time>
      </trkpt>
      <trkpt lat="48.85587" lon="2.34616">
        <ele>39.79999923706</ele>
        <time>2015-10-12T20:18:32Z</time>
      </trkpt>
      <trkpt lat="48.85608" lon="2.34627">
        <ele>38</ele>
        <time>2015-10-12T20:18:36Z</time>
      </trkpt>
      <trkpt lat="48.85617" lon="2.34632">
        <ele>37</ele>
        <time>2015-10-12T20:18:38Z</time>
      </trkpt>
      <trkpt lat="48.85639" lon="2.34634">
        <ele>36.20000076294</ele>
        <time>2015-10-12T20:18:43Z</time>
      </trkpt>
      <trkpt lat="48.85647" lon="2.34638">
        <ele>37.79999923706</ele>
        <time>2015-10-12T20:18:45Z</time>
      </trkpt>
      <trkpt lat="48.85666" lon="2.34648">
        <ele>39.79999923706</ele>
        <time>2015-10-12T20:18:50Z</time>
      </trkpt>
      <trkpt lat="48.85685" lon="2.34658">
        <ele>41.599998474121</ele>
        <time>2015-10-12T20:18:55Z</time>
      </trkpt>
      <trkpt lat="48.85704" lon="2.34667">
        <ele>43.599998474121</ele>
        <time>2015-10-12T20:19:00Z</time>
      </trkpt>
      <trkpt lat="48.85708" lon="2.34668">
        <ele>43.599998474121</ele>
        <time>2015-10-12T20:19:01Z</time>
      </trkpt>
      <trkpt lat="48.8572" lon="2.34668">
        <ele>44.400001525879</ele>
        <time>2015-10-12T20:19:05Z</time>
      </trkpt>
      <trkpt lat="48.8574" lon="2.34664">
        <ele>43.79999923706</ele>
        <time>2015-10-12T20:19:14Z</time>
      </trkpt>
      <trkpt lat="48.85752" lon="2.34676">
        <ele>44.79999923706</ele>
        <time>2015-10-12T20:19:18Z</time>
      </trkpt>
      <trkpt lat="48.8577" lon="2.34686">
        <ele>45.79999923706</ele>
        <time>2015-10-12T20:19:23Z</time>
      </trkpt>
      <trkpt lat="48.85789" lon="2.34696">
        <ele>47.79999923706</ele>
        <time>2015-10-12T20:19:28Z</time>
      </trkpt>
      <trkpt lat="48.85809" lon="2.34703">
        <ele>51</ele>
        <time>2015-10-12T20:19:33Z</time>
      </trkpt>
      <trkpt lat="48.85831" lon="2.34704">
        <ele>54.20000076294</ele>
        <time>2015-10-12T20:19:38Z</time>
      </trkpt>
      <trkpt lat="48.8585" lon="2.34707">
        <ele>57.599998474121</ele>
        <time>2015-10-12T20:19:42Z</time>
      </trkpt>
      <trkpt lat="48.85869" lon="2.34709">
        <ele>59.599998474121</ele>
        <time>2015-10-12T20:19:46Z</time>
      </trkpt>
      <trkpt lat="48.85891" lon="2.34703">
        <ele>64.400001525879</ele>
        <time>2015-10-12T20:19:51Z</time>
      </trkpt>
      <trkpt lat="48.85908" lon="2.34692">
        <ele>68.800003051758</ele>
        <time>2015-10-12T20:19:55Z</time>
      </trkpt>
      <trkpt lat="48.85929" lon="2.34681">
        <ele>73.199996948242</ele>
        <time>2015-10-12T20:20:00Z</time>
      </trkpt>
      <trkpt lat="48.85934" lon="2.34678">
        <ele>74.800003051758</ele>
        <time>2015-10-12T20:20:02Z</time>
      </trkpt>
      <trkpt lat="48.85944" lon="2.34682">
        <ele>81.199996948242</ele>
        <time>2015-10-12T20:20:08Z</time>
      </trkpt>
      <trkpt lat="48.85945" lon="2.34684">
        <ele>80.800003051758</ele>
        <time>2015-10-12T20:20:09Z</time>
      </trkpt>
      <trkpt lat="48.85953" lon="2.34698">
        <ele>87</ele>
        <time>2015-10-12T20:20:24Z</time>
      </trkpt>
    </trkseg>
  </trk>
  <trk>
    <name><![CDATA[lundi 2015 10 26]]></name>
    <extensions>
      <line xmlns="http://www.topografix.com/GPX/gpx_style/0/2">
        <color>000000</color>
      </line>
    </extensions>
    <trkseg>
      <trkpt lat="48.85747" lon="2.34722">
        <ele>40.400001525879</ele>
        <time>2015-10-26T19:20:49Z</time>
      </trkpt>
      <trkpt lat="48.85752" lon="2.34719">
        <ele>40</ele>
        <time>2015-10-26T19:20:54Z</time>
      </trkpt>
      <trkpt lat="48.85753" lon="2.34718">
        <ele>39.79999923706</ele>
        <time>2015-10-26T19:20:56Z</time>
      </trkpt>
      <trkpt lat="48.85764" lon="2.34725">
        <ele>39.599998474121</ele>
        <time>2015-10-26T19:21:02Z</time>
      </trkpt>
      <trkpt lat="48.85766" lon="2.34725">
        <ele>39.599998474121</ele>
        <time>2015-10-26T19:21:03Z</time>
      </trkpt>
      <trkpt lat="48.85777" lon="2.34729">
        <ele>39.79999923706</ele>
        <time>2015-10-26T19:21:08Z</time>
      </trkpt>
      <trkpt lat="48.85794" lon="2.3473">
        <ele>41.20000076294</ele>
        <time>2015-10-26T19:21:13Z</time>
      </trkpt>
      <trkpt lat="48.85815" lon="2.34729">
        <ele>42.79999923706</ele>
        <time>2015-10-26T19:21:18Z</time>
      </trkpt>
      <trkpt lat="48.85833" lon="2.34735">
        <ele>44.599998474121</ele>
        <time>2015-10-26T19:21:22Z</time>
      </trkpt>
      <trkpt lat="48.85836" lon="2.34735">
        <ele>44.79999923706</ele>
        <time>2015-10-26T19:21:23Z</time>
      </trkpt>
      <trkpt lat="48.8585" lon="2.34739">
        <ele>46.400001525879</ele>
        <time>2015-10-26T19:21:27Z</time>
      </trkpt>
      <trkpt lat="48.85859" lon="2.34743">
        <ele>47</ele>
        <time>2015-10-26T19:21:32Z</time>
      </trkpt>
      <trkpt lat="48.85861" lon="2.34746">
        <ele>46.79999923706</ele>
        <time>2015-10-26T19:21:36Z</time>
      </trkpt>
      <trkpt lat="48.85871" lon="2.34758">
        <ele>47</ele>
        <time>2015-10-26T19:22:05Z</time>
      </trkpt>
      <trkpt lat="48.85877" lon="2.34765">
        <ele>47</ele>
        <time>2015-10-26T19:22:10Z</time>
      </trkpt>
      <trkpt lat="48.85878" lon="2.34767">
        <ele>47.20000076294</ele>
        <time>2015-10-26T19:22:11Z</time>
      </trkpt>
      <trkpt lat="48.85886" lon="2.34773">
        <ele>47.20000076294</ele>
        <time>2015-10-26T19:22:16Z</time>
      </trkpt>
      <trkpt lat="48.85901" lon="2.34776">
        <ele>46.79999923706</ele>
        <time>2015-10-26T19:22:21Z</time>
      </trkpt>
      <trkpt lat="48.85911" lon="2.3478">
        <ele>46.599998474121</ele>
        <time>2015-10-26T19:22:25Z</time>
      </trkpt>
      <trkpt lat="48.85925" lon="2.34786">
        <ele>46.400001525879</ele>
        <time>2015-10-26T19:22:29Z</time>
      </trkpt>
      <trkpt lat="48.85939" lon="2.3479">
        <ele>46</ele>
        <time>2015-10-26T19:22:33Z</time>
      </trkpt>
      <trkpt lat="48.8595" lon="2.34793">
        <ele>46.20000076294</ele>
        <time>2015-10-26T19:22:37Z</time>
      </trkpt>
      <trkpt lat="48.85962" lon="2.34799">
        <ele>46.400001525879</ele>
        <time>2015-10-26T19:22:42Z</time>
      </trkpt>
      <trkpt lat="48.85965" lon="2.34799">
        <ele>46.400001525879</ele>
        <time>2015-10-26T19:22:43Z</time>
      </trkpt>
      <trkpt lat="48.85971" lon="2.34804">
        <ele>46.79999923706</ele>
        <time>2015-10-26T19:22:47Z</time>
      </trkpt>
      <trkpt lat="48.85973" lon="2.34806">
        <ele>46.79999923706</ele>
        <time>2015-10-26T19:22:50Z</time>
      </trkpt>
      <trkpt lat="48.8598" lon="2.34809">
        <ele>47</ele>
        <time>2015-10-26T19:22:54Z</time>
      </trkpt>
      <trkpt lat="48.85989" lon="2.34814">
        <ele>47.20000076294</ele>
        <time>2015-10-26T19:22:58Z</time>
      </trkpt>
      <trkpt lat="48.85991" lon="2.34815">
        <ele>47.20000076294</ele>
        <time>2015-10-26T19:22:59Z</time>
      </trkpt>
      <trkpt lat="48.85996" lon="2.34817">
        <ele>47.400001525879</ele>
        <time>2015-10-26T19:23:01Z</time>
      </trkpt>
      <trkpt lat="48.86005" lon="2.34826">
        <ele>47.79999923706</ele>
        <time>2015-10-26T19:23:06Z</time>
      </trkpt>
      <trkpt lat="48.86006" lon="2.34827">
        <ele>47.79999923706</ele>
        <time>2015-10-26T19:23:07Z</time>
      </trkpt>
      <trkpt lat="48.86012" lon="2.34833">
        <ele>48</ele>
        <time>2015-10-26T19:23:10Z</time>
      </trkpt>
      <trkpt lat="48.86026" lon="2.34832">
        <ele>48</ele>
        <time>2015-10-26T19:23:15Z</time>
      </trkpt>
      <trkpt lat="48.86044" lon="2.3484">
        <ele>47.400001525879</ele>
        <time>2015-10-26T19:23:20Z</time>
      </trkpt>
      <trkpt lat="48.86062" lon="2.3485">
        <ele>47</ele>
        <time>2015-10-26T19:23:26Z</time>
      </trkpt>
      <trkpt lat="48.86075" lon="2.34858">
        <ele>46.79999923706</ele>
        <time>2015-10-26T19:23:30Z</time>
      </trkpt>
      <trkpt lat="48.86085" lon="2.34861">
        <ele>46.400001525879</ele>
        <time>2015-10-26T19:23:34Z</time>
      </trkpt>
      <trkpt lat="48.86101" lon="2.34871">
        <ele>46.20000076294</ele>
        <time>2015-10-26T19:23:40Z</time>
      </trkpt>
      <trkpt lat="48.86116" lon="2.34883">
        <ele>46.20000076294</ele>
        <time>2015-10-26T19:23:45Z</time>
      </trkpt>
      <trkpt lat="48.86131" lon="2.34887">
        <ele>46</ele>
        <time>2015-10-26T19:23:49Z</time>
      </trkpt>
      <trkpt lat="48.86132" lon="2.34889">
        <ele>46</ele>
        <time>2015-10-26T19:23:50Z</time>
      </trkpt>
      <trkpt lat="48.86146" lon="2.34902">
        <ele>46.20000076294</ele>
        <time>2015-10-26T19:23:56Z</time>
      </trkpt>
      <trkpt lat="48.86149" lon="2.34902">
        <ele>46.20000076294</ele>
        <time>2015-10-26T19:23:57Z</time>
      </trkpt>
      <trkpt lat="48.86158" lon="2.34905">
        <ele>46.20000076294</ele>
        <time>2015-10-26T19:24:00Z</time>
      </trkpt>
      <trkpt lat="48.86178" lon="2.34916">
        <ele>46.20000076294</ele>
        <time>2015-10-26T19:24:06Z</time>
      </trkpt>
      <trkpt lat="48.86194" lon="2.34925">
        <ele>46.20000076294</ele>
        <time>2015-10-26T19:24:11Z</time>
      </trkpt>
      <trkpt lat="48.86203" lon="2.3493">
        <ele>46.400001525879</ele>
        <time>2015-10-26T19:24:14Z</time>
      </trkpt>
      <trkpt lat="48.86214" lon="2.34934">
        <ele>46.400001525879</ele>
        <time>2015-10-26T19:24:18Z</time>
      </trkpt>
      <trkpt lat="48.86216" lon="2.34934">
        <ele>46.400001525879</ele>
        <time>2015-10-26T19:24:19Z</time>
      </trkpt>
      <trkpt lat="48.86221" lon="2.34933">
        <ele>46.400001525879</ele>
        <time>2015-10-26T19:24:21Z</time>
      </trkpt>
      <trkpt lat="48.86241" lon="2.34946">
        <ele>46.79999923706</ele>
        <time>2015-10-26T19:24:27Z</time>
      </trkpt>
      <trkpt lat="48.86258" lon="2.34954">
        <ele>47</ele>
        <time>2015-10-26T19:24:32Z</time>
      </trkpt>
      <trkpt lat="48.86283" lon="2.34964">
        <ele>47.400001525879</ele>
        <time>2015-10-26T19:24:42Z</time>
      </trkpt>
      <trkpt lat="48.86295" lon="2.34972">
        <ele>48</ele>
        <time>2015-10-26T19:24:46Z</time>
      </trkpt>
      <trkpt lat="48.86304" lon="2.34976">
        <ele>48.20000076294</ele>
        <time>2015-10-26T19:24:50Z</time>
      </trkpt>
      <trkpt lat="48.86315" lon="2.34978">
        <ele>48.599998474121</ele>
        <time>2015-10-26T19:24:54Z</time>
      </trkpt>
      <trkpt lat="48.86327" lon="2.34984">
        <ele>49</ele>
        <time>2015-10-26T19:24:58Z</time>
      </trkpt>
      <trkpt lat="48.8634" lon="2.34994">
        <ele>49.599998474121</ele>
        <time>2015-10-26T19:25:03Z</time>
      </trkpt>
      <trkpt lat="48.86344" lon="2.35002">
        <ele>49.599998474121</ele>
        <time>2015-10-26T19:25:07Z</time>
      </trkpt>
      <trkpt lat="48.86344" lon="2.35005">
        <ele>49.599998474121</ele>
        <time>2015-10-26T19:25:09Z</time>
      </trkpt>
      <trkpt lat="48.86342" lon="2.35009">
        <ele>49.400001525879</ele>
        <time>2015-10-26T19:25:18Z</time>
      </trkpt>
      <trkpt lat="48.86343" lon="2.35008">
        <ele>49.400001525879</ele>
        <time>2015-10-26T19:25:23Z</time>
      </trkpt>
      <trkpt lat="48.8636" lon="2.35008">
        <ele>49.599998474121</ele>
        <time>2015-10-26T19:25:31Z</time>
      </trkpt>
      <trkpt lat="48.86374" lon="2.35009">
        <ele>49.400001525879</ele>
        <time>2015-10-26T19:25:37Z</time>
      </trkpt>
      <trkpt lat="48.86387" lon="2.35011">
        <ele>49</ele>
        <time>2015-10-26T19:25:43Z</time>
      </trkpt>
      <trkpt lat="48.8639" lon="2.3501">
        <ele>48.79999923706</ele>
        <time>2015-10-26T19:25:46Z</time>
      </trkpt>
      <trkpt lat="48.86391" lon="2.35008">
        <ele>49</ele>
        <time>2015-10-26T19:25:47Z</time>
      </trkpt>
      <trkpt lat="48.864" lon="2.35008">
        <ele>48.599998474121</ele>
        <time>2015-10-26T19:25:51Z</time>
      </trkpt>
      <trkpt lat="48.86402" lon="2.35009">
        <ele>48.599998474121</ele>
        <time>2015-10-26T19:25:52Z</time>
      </trkpt>
      <trkpt lat="48.86415" lon="2.35026">
        <ele>47.79999923706</ele>
        <time>2015-10-26T19:25:59Z</time>
      </trkpt>
      <trkpt lat="48.86416" lon="2.3504">
        <ele>47.599998474121</ele>
        <time>2015-10-26T19:26:03Z</time>
      </trkpt>
      <trkpt lat="48.86417" lon="2.35044">
        <ele>47.400001525879</ele>
        <time>2015-10-26T19:26:06Z</time>
      </trkpt>
      <trkpt lat="48.86417" lon="2.35045">
        <ele>47.400001525879</ele>
        <time>2015-10-26T19:26:07Z</time>
      </trkpt>
      <trkpt lat="48.8642" lon="2.35054">
        <ele>47</ele>
        <time>2015-10-26T19:26:09Z</time>
      </trkpt>
      <trkpt lat="48.86423" lon="2.35075">
        <ele>46.599998474121</ele>
        <time>2015-10-26T19:26:13Z</time>
      </trkpt>
      <trkpt lat="48.86428" lon="2.35096">
        <ele>46.400001525879</ele>
        <time>2015-10-26T19:26:18Z</time>
      </trkpt>
      <trkpt lat="48.8643" lon="2.351">
        <ele>46.400001525879</ele>
        <time>2015-10-26T19:26:19Z</time>
      </trkpt>
      <trkpt lat="48.86445" lon="2.35098">
        <ele>46</ele>
        <time>2015-10-26T19:26:23Z</time>
      </trkpt>
      <trkpt lat="48.86468" lon="2.3511">
        <ele>45.599998474121</ele>
        <time>2015-10-26T19:26:29Z</time>
      </trkpt>
      <trkpt lat="48.86481" lon="2.35115">
        <ele>45.599998474121</ele>
        <time>2015-10-26T19:26:32Z</time>
      </trkpt>
      <trkpt lat="48.86489" lon="2.35122">
        <ele>45.599998474121</ele>
        <time>2015-10-26T19:26:35Z</time>
      </trkpt>
      <trkpt lat="48.86509" lon="2.35135">
        <ele>45.400001525879</ele>
        <time>2015-10-26T19:26:40Z</time>
      </trkpt>
      <trkpt lat="48.86512" lon="2.35141">
        <ele>45.20000076294</ele>
        <time>2015-10-26T19:26:41Z</time>
      </trkpt>
      <trkpt lat="48.8652" lon="2.35148">
        <ele>45.20000076294</ele>
        <time>2015-10-26T19:26:43Z</time>
      </trkpt>
      <trkpt lat="48.86536" lon="2.35154">
        <ele>45.79999923706</ele>
        <time>2015-10-26T19:26:47Z</time>
      </trkpt>
      <trkpt lat="48.8654" lon="2.35156">
        <ele>46</ele>
        <time>2015-10-26T19:26:48Z</time>
      </trkpt>
      <trkpt lat="48.86544" lon="2.35157">
        <ele>46</ele>
        <time>2015-10-26T19:26:49Z</time>
      </trkpt>
      <trkpt lat="48.86563" lon="2.35165">
        <ele>47</ele>
        <time>2015-10-26T19:26:54Z</time>
      </trkpt>
      <trkpt lat="48.86568" lon="2.35168">
        <ele>47.20000076294</ele>
        <time>2015-10-26T19:26:57Z</time>
      </trkpt>
      <trkpt lat="48.86573" lon="2.35158">
        <ele>47.400001525879</ele>
        <time>2015-10-26T19:27:01Z</time>
      </trkpt>
      <trkpt lat="48.86577" lon="2.35141">
        <ele>47.79999923706</ele>
        <time>2015-10-26T19:27:05Z</time>
      </trkpt>
      <trkpt lat="48.86577" lon="2.35139">
        <ele>47.79999923706</ele>
        <time>2015-10-26T19:27:06Z</time>
      </trkpt>
      <trkpt lat="48.86576" lon="2.35133">
        <ele>47.79999923706</ele>
        <time>2015-10-26T19:27:08Z</time>
      </trkpt>
      <trkpt lat="48.86593" lon="2.35094">
        <ele>47.20000076294</ele>
        <time>2015-10-26T19:27:26Z</time>
      </trkpt>
      <trkpt lat="48.86594" lon="2.35094">
        <ele>47.20000076294</ele>
        <time>2015-10-26T19:27:27Z</time>
      </trkpt>
      <trkpt lat="48.8662" lon="2.35101">
        <ele>47.20000076294</ele>
        <time>2015-10-26T19:27:36Z</time>
      </trkpt>
      <trkpt lat="48.86634" lon="2.35111">
        <ele>47</ele>
        <time>2015-10-26T19:27:40Z</time>
      </trkpt>
      <trkpt lat="48.86644" lon="2.35119">
        <ele>47</ele>
        <time>2015-10-26T19:27:42Z</time>
      </trkpt>
      <trkpt lat="48.86652" lon="2.35122">
        <ele>47</ele>
        <time>2015-10-26T19:27:45Z</time>
      </trkpt>
      <trkpt lat="48.86667" lon="2.35125">
        <ele>47.20000076294</ele>
        <time>2015-10-26T19:27:49Z</time>
      </trkpt>
      <trkpt lat="48.86672" lon="2.35127">
        <ele>47.20000076294</ele>
        <time>2015-10-26T19:27:50Z</time>
      </trkpt>
      <trkpt lat="48.8668" lon="2.35132">
        <ele>47.20000076294</ele>
        <time>2015-10-26T19:27:52Z</time>
      </trkpt>
      <trkpt lat="48.86694" lon="2.35141">
        <ele>47.400001525879</ele>
        <time>2015-10-26T19:27:56Z</time>
      </trkpt>
      <trkpt lat="48.86715" lon="2.35153">
        <ele>47.79999923706</ele>
        <time>2015-10-26T19:28:01Z</time>
      </trkpt>
      <trkpt lat="48.86719" lon="2.35157">
        <ele>47.79999923706</ele>
        <time>2015-10-26T19:28:02Z</time>
      </trkpt>
      <trkpt lat="48.86735" lon="2.3516">
        <ele>48.20000076294</ele>
        <time>2015-10-26T19:28:06Z</time>
      </trkpt>
      <trkpt lat="48.86741" lon="2.35161">
        <ele>48.20000076294</ele>
        <time>2015-10-26T19:28:08Z</time>
      </trkpt>
      <trkpt lat="48.86755" lon="2.35164">
        <ele>48.599998474121</ele>
        <time>2015-10-26T19:28:13Z</time>
      </trkpt>
      <trkpt lat="48.8677" lon="2.3517">
        <ele>48.79999923706</ele>
        <time>2015-10-26T19:28:18Z</time>
      </trkpt>
      <trkpt lat="48.86786" lon="2.35177">
        <ele>48.79999923706</ele>
        <time>2015-10-26T19:28:23Z</time>
      </trkpt>
      <trkpt lat="48.86801" lon="2.35185">
        <ele>48.79999923706</ele>
        <time>2015-10-26T19:28:26Z</time>
      </trkpt>
      <trkpt lat="48.8682" lon="2.35193">
        <ele>48.599998474121</ele>
        <time>2015-10-26T19:28:31Z</time>
      </trkpt>
      <trkpt lat="48.86828" lon="2.35196">
        <ele>48.599998474121</ele>
        <time>2015-10-26T19:28:33Z</time>
      </trkpt>
      <trkpt lat="48.86842" lon="2.35201">
        <ele>48.599998474121</ele>
        <time>2015-10-26T19:28:37Z</time>
      </trkpt>
      <trkpt lat="48.86863" lon="2.35214">
        <ele>48.400001525879</ele>
        <time>2015-10-26T19:28:43Z</time>
      </trkpt>
      <trkpt lat="48.86875" lon="2.35215">
        <ele>48.20000076294</ele>
        <time>2015-10-26T19:28:47Z</time>
      </trkpt>
      <trkpt lat="48.86879" lon="2.35211">
        <ele>48.20000076294</ele>
        <time>2015-10-26T19:28:48Z</time>
      </trkpt>
      <trkpt lat="48.86884" lon="2.35192">
        <ele>48.400001525879</ele>
        <time>2015-10-26T19:28:53Z</time>
      </trkpt>
      <trkpt lat="48.86885" lon="2.35187">
        <ele>48.599998474121</ele>
        <time>2015-10-26T19:28:54Z</time>
      </trkpt>
      <trkpt lat="48.86884" lon="2.35183">
        <ele>48.599998474121</ele>
        <time>2015-10-26T19:28:55Z</time>
      </trkpt>
      <trkpt lat="48.86885" lon="2.3517">
        <ele>49.20000076294</ele>
        <time>2015-10-26T19:28:58Z</time>
      </trkpt>
      <trkpt lat="48.86883" lon="2.35166">
        <ele>49.20000076294</ele>
        <time>2015-10-26T19:28:59Z</time>
      </trkpt>
      <trkpt lat="48.86875" lon="2.35142">
        <ele>49.400001525879</ele>
        <time>2015-10-26T19:29:04Z</time>
      </trkpt>
      <trkpt lat="48.86866" lon="2.35112">
        <ele>49.79999923706</ele>
        <time>2015-10-26T19:29:10Z</time>
      </trkpt>
      <trkpt lat="48.86862" lon="2.35104">
        <ele>49.79999923706</ele>
        <time>2015-10-26T19:29:12Z</time>
      </trkpt>
      <trkpt lat="48.86855" lon="2.35077">
        <ele>50</ele>
        <time>2015-10-26T19:29:18Z</time>
      </trkpt>
      <trkpt lat="48.86849" lon="2.35057">
        <ele>50.20000076294</ele>
        <time>2015-10-26T19:29:22Z</time>
      </trkpt>
      <trkpt lat="48.8684" lon="2.35042">
        <ele>50.20000076294</ele>
        <time>2015-10-26T19:29:27Z</time>
      </trkpt>
      <trkpt lat="48.86835" lon="2.35031">
        <ele>50.20000076294</ele>
        <time>2015-10-26T19:29:31Z</time>
      </trkpt>
      <trkpt lat="48.86828" lon="2.35019">
        <ele>50.20000076294</ele>
        <time>2015-10-26T19:29:35Z</time>
      </trkpt>
      <trkpt lat="48.86827" lon="2.35008">
        <ele>50.400001525879</ele>
        <time>2015-10-26T19:29:38Z</time>
      </trkpt>
      <trkpt lat="48.86838" lon="2.34996">
        <ele>51.20000076294</ele>
        <time>2015-10-26T19:29:42Z</time>
      </trkpt>
      <trkpt lat="48.86844" lon="2.3499">
        <ele>51.400001525879</ele>
        <time>2015-10-26T19:29:44Z</time>
      </trkpt>
      <trkpt lat="48.86839" lon="2.34968">
        <ele>51.20000076294</ele>
        <time>2015-10-26T19:29:48Z</time>
      </trkpt>
      <trkpt lat="48.86836" lon="2.34945">
        <ele>51.20000076294</ele>
        <time>2015-10-26T19:29:53Z</time>
      </trkpt>
      <trkpt lat="48.8683" lon="2.34928">
        <ele>51</ele>
        <time>2015-10-26T19:29:56Z</time>
      </trkpt>
      <trkpt lat="48.86828" lon="2.34923">
        <ele>50.79999923706</ele>
        <time>2015-10-26T19:29:57Z</time>
      </trkpt>
      <trkpt lat="48.86821" lon="2.34894">
        <ele>50.599998474121</ele>
        <time>2015-10-26T19:30:02Z</time>
      </trkpt>
      <trkpt lat="48.86814" lon="2.34879">
        <ele>50.400001525879</ele>
        <time>2015-10-26T19:30:05Z</time>
      </trkpt>
      <trkpt lat="48.8681" lon="2.34869">
        <ele>50.20000076294</ele>
        <time>2015-10-26T19:30:07Z</time>
      </trkpt>
      <trkpt lat="48.86803" lon="2.34842">
        <ele>50</ele>
        <time>2015-10-26T19:30:11Z</time>
      </trkpt>
      <trkpt lat="48.86802" lon="2.34836">
        <ele>50</ele>
        <time>2015-10-26T19:30:12Z</time>
      </trkpt>
      <trkpt lat="48.86794" lon="2.348">
        <ele>49.599998474121</ele>
        <time>2015-10-26T19:30:18Z</time>
      </trkpt>
      <trkpt lat="48.86792" lon="2.34794">
        <ele>49.400001525879</ele>
        <time>2015-10-26T19:30:19Z</time>
      </trkpt>
      <trkpt lat="48.86787" lon="2.3477">
        <ele>49</ele>
        <time>2015-10-26T19:30:24Z</time>
      </trkpt>
      <trkpt lat="48.8678" lon="2.34745">
        <ele>48.599998474121</ele>
        <time>2015-10-26T19:30:29Z</time>
      </trkpt>
      <trkpt lat="48.86775" lon="2.34715">
        <ele>49</ele>
        <time>2015-10-26T19:30:34Z</time>
      </trkpt>
      <trkpt lat="48.86767" lon="2.34693">
        <ele>49.20000076294</ele>
        <time>2015-10-26T19:30:38Z</time>
      </trkpt>
      <trkpt lat="48.86757" lon="2.34664">
        <ele>49.599998474121</ele>
        <time>2015-10-26T19:30:44Z</time>
      </trkpt>
      <trkpt lat="48.86753" lon="2.34649">
        <ele>49.400001525879</ele>
        <time>2015-10-26T19:30:48Z</time>
      </trkpt>
      <trkpt lat="48.86755" lon="2.34633">
        <ele>49.400001525879</ele>
        <time>2015-10-26T19:30:52Z</time>
      </trkpt>
      <trkpt lat="48.8676" lon="2.34612">
        <ele>49.599998474121</ele>
        <time>2015-10-26T19:30:56Z</time>
      </trkpt>
      <trkpt lat="48.86765" lon="2.34591">
        <ele>49.79999923706</ele>
        <time>2015-10-26T19:31:00Z</time>
      </trkpt>
      <trkpt lat="48.86769" lon="2.34575">
        <ele>50</ele>
        <time>2015-10-26T19:31:04Z</time>
      </trkpt>
      <trkpt lat="48.86778" lon="2.34549">
        <ele>50.599998474121</ele>
        <time>2015-10-26T19:31:10Z</time>
      </trkpt>
      <trkpt lat="48.86782" lon="2.34542">
        <ele>50.79999923706</ele>
        <time>2015-10-26T19:31:12Z</time>
      </trkpt>
      <trkpt lat="48.86796" lon="2.34543">
        <ele>50.400001525879</ele>
        <time>2015-10-26T19:31:16Z</time>
      </trkpt>
      <trkpt lat="48.86816" lon="2.34544">
        <ele>49.79999923706</ele>
        <time>2015-10-26T19:31:20Z</time>
      </trkpt>
      <trkpt lat="48.86827" lon="2.34544">
        <ele>49.400001525879</ele>
        <time>2015-10-26T19:31:22Z</time>
      </trkpt>
      <trkpt lat="48.8684" lon="2.34547">
        <ele>48.599998474121</ele>
        <time>2015-10-26T19:31:24Z</time>
      </trkpt>
      <trkpt lat="48.86857" lon="2.34548">
        <ele>47.599998474121</ele>
        <time>2015-10-26T19:31:27Z</time>
      </trkpt>
      <trkpt lat="48.86871" lon="2.34558">
        <ele>48</ele>
        <time>2015-10-26T19:31:31Z</time>
      </trkpt>
      <trkpt lat="48.86893" lon="2.34567">
        <ele>48.79999923706</ele>
        <time>2015-10-26T19:31:36Z</time>
      </trkpt>
      <trkpt lat="48.86897" lon="2.34567">
        <ele>48.79999923706</ele>
        <time>2015-10-26T19:31:37Z</time>
      </trkpt>
      <trkpt lat="48.86911" lon="2.34567">
        <ele>49.20000076294</ele>
        <time>2015-10-26T19:31:41Z</time>
      </trkpt>
      <trkpt lat="48.86916" lon="2.34569">
        <ele>49.20000076294</ele>
        <time>2015-10-26T19:31:42Z</time>
      </trkpt>
      <trkpt lat="48.86923" lon="2.34569">
        <ele>49.400001525879</ele>
        <time>2015-10-26T19:31:45Z</time>
      </trkpt>
      <trkpt lat="48.86926" lon="2.34561">
        <ele>49.400001525879</ele>
        <time>2015-10-26T19:31:46Z</time>
      </trkpt>
      <trkpt lat="48.86937" lon="2.3453">
        <ele>49.400001525879</ele>
        <time>2015-10-26T19:31:52Z</time>
      </trkpt>
      <trkpt lat="48.86939" lon="2.34517">
        <ele>49.20000076294</ele>
        <time>2015-10-26T19:31:54Z</time>
      </trkpt>
      <trkpt lat="48.86952" lon="2.34508">
        <ele>49.20000076294</ele>
        <time>2015-10-26T19:31:58Z</time>
      </trkpt>
      <trkpt lat="48.86956" lon="2.34509">
        <ele>49</ele>
        <time>2015-10-26T19:31:59Z</time>
      </trkpt>
      <trkpt lat="48.86975" lon="2.34518">
        <ele>49</ele>
        <time>2015-10-26T19:32:03Z</time>
      </trkpt>
      <trkpt lat="48.86979" lon="2.34519">
        <ele>49</ele>
        <time>2015-10-26T19:32:04Z</time>
      </trkpt>
      <trkpt lat="48.86991" lon="2.34527">
        <ele>49</ele>
        <time>2015-10-26T19:32:07Z</time>
      </trkpt>
      <trkpt lat="48.87004" lon="2.34535">
        <ele>49.20000076294</ele>
        <time>2015-10-26T19:32:11Z</time>
      </trkpt>
      <trkpt lat="48.87019" lon="2.34551">
        <ele>49.400001525879</ele>
        <time>2015-10-26T19:32:16Z</time>
      </trkpt>
      <trkpt lat="48.87032" lon="2.34559">
        <ele>49.79999923706</ele>
        <time>2015-10-26T19:32:20Z</time>
      </trkpt>
      <trkpt lat="48.87035" lon="2.3456">
        <ele>50</ele>
        <time>2015-10-26T19:32:22Z</time>
      </trkpt>
      <trkpt lat="48.87043" lon="2.34545">
        <ele>49.79999923706</ele>
        <time>2015-10-26T19:32:26Z</time>
      </trkpt>
      <trkpt lat="48.87044" lon="2.34543">
        <ele>49.79999923706</ele>
        <time>2015-10-26T19:32:27Z</time>
      </trkpt>
      <trkpt lat="48.8705" lon="2.34516">
        <ele>49.400001525879</ele>
        <time>2015-10-26T19:32:31Z</time>
      </trkpt>
      <trkpt lat="48.87056" lon="2.3449">
        <ele>49.20000076294</ele>
        <time>2015-10-26T19:32:35Z</time>
      </trkpt>
      <trkpt lat="48.87059" lon="2.34473">
        <ele>49</ele>
        <time>2015-10-26T19:32:37Z</time>
      </trkpt>
      <trkpt lat="48.87068" lon="2.34439">
        <ele>48.400001525879</ele>
        <time>2015-10-26T19:32:42Z</time>
      </trkpt>
      <trkpt lat="48.87073" lon="2.34409">
        <ele>47.599998474121</ele>
        <time>2015-10-26T19:32:46Z</time>
      </trkpt>
      <trkpt lat="48.87079" lon="2.34375">
        <ele>48</ele>
        <time>2015-10-26T19:32:51Z</time>
      </trkpt>
      <trkpt lat="48.87084" lon="2.34348">
        <ele>48</ele>
        <time>2015-10-26T19:32:55Z</time>
      </trkpt>
      <trkpt lat="48.87086" lon="2.34341">
        <ele>48</ele>
        <time>2015-10-26T19:32:56Z</time>
      </trkpt>
      <trkpt lat="48.87093" lon="2.34302">
        <ele>47.79999923706</ele>
        <time>2015-10-26T19:33:02Z</time>
      </trkpt>
      <trkpt lat="48.87095" lon="2.34296">
        <ele>47.79999923706</ele>
        <time>2015-10-26T19:33:03Z</time>
      </trkpt>
      <trkpt lat="48.87101" lon="2.34283">
        <ele>48</ele>
        <time>2015-10-26T19:33:07Z</time>
      </trkpt>
      <trkpt lat="48.87116" lon="2.34285">
        <ele>47.79999923706</ele>
        <time>2015-10-26T19:33:12Z</time>
      </trkpt>
      <trkpt lat="48.87129" lon="2.34287">
        <ele>47.79999923706</ele>
        <time>2015-10-26T19:33:16Z</time>
      </trkpt>
      <trkpt lat="48.87137" lon="2.34299">
        <ele>47.599998474121</ele>
        <time>2015-10-26T19:33:20Z</time>
      </trkpt>
      <trkpt lat="48.87137" lon="2.34306">
        <ele>47.599998474121</ele>
        <time>2015-10-26T19:33:25Z</time>
      </trkpt>
      <trkpt lat="48.87137" lon="2.34312">
        <ele>47.599998474121</ele>
        <time>2015-10-26T19:33:38Z</time>
      </trkpt>
      <trkpt lat="48.87146" lon="2.34315">
        <ele>47.599998474121</ele>
        <time>2015-10-26T19:33:43Z</time>
      </trkpt>
      <trkpt lat="48.8716" lon="2.34317">
        <ele>47.400001525879</ele>
        <time>2015-10-26T19:33:48Z</time>
      </trkpt>
      <trkpt lat="48.87181" lon="2.34319">
        <ele>47.20000076294</ele>
        <time>2015-10-26T19:33:53Z</time>
      </trkpt>
      <trkpt lat="48.872" lon="2.34321">
        <ele>47</ele>
        <time>2015-10-26T19:33:57Z</time>
      </trkpt>
      <trkpt lat="48.87205" lon="2.34322">
        <ele>47</ele>
        <time>2015-10-26T19:33:58Z</time>
      </trkpt>
      <trkpt lat="48.8722" lon="2.34328">
        <ele>46.79999923706</ele>
        <time>2015-10-26T19:34:01Z</time>
      </trkpt>
      <trkpt lat="48.87227" lon="2.3433">
        <ele>46.599998474121</ele>
        <time>2015-10-26T19:34:03Z</time>
      </trkpt>
      <trkpt lat="48.87232" lon="2.34328">
        <ele>46.599998474121</ele>
        <time>2015-10-26T19:34:05Z</time>
      </trkpt>
      <trkpt lat="48.87244" lon="2.34327">
        <ele>46.400001525879</ele>
        <time>2015-10-26T19:34:09Z</time>
      </trkpt>
      <trkpt lat="48.87261" lon="2.34325">
        <ele>46.20000076294</ele>
        <time>2015-10-26T19:34:14Z</time>
      </trkpt>
      <trkpt lat="48.87278" lon="2.34318">
        <ele>46.400001525879</ele>
        <time>2015-10-26T19:34:18Z</time>
      </trkpt>
      <trkpt lat="48.87295" lon="2.3431">
        <ele>46.400001525879</ele>
        <time>2015-10-26T19:34:23Z</time>
      </trkpt>
      <trkpt lat="48.873" lon="2.3431">
        <ele>46.599998474121</ele>
        <time>2015-10-26T19:34:25Z</time>
      </trkpt>
      <trkpt lat="48.87304" lon="2.34276">
        <ele>47.20000076294</ele>
        <time>2015-10-26T19:34:31Z</time>
      </trkpt>
      <trkpt lat="48.87304" lon="2.34253">
        <ele>47.599998474121</ele>
        <time>2015-10-26T19:34:35Z</time>
      </trkpt>
      <trkpt lat="48.87308" lon="2.34232">
        <ele>47.400001525879</ele>
        <time>2015-10-26T19:34:38Z</time>
      </trkpt>
      <trkpt lat="48.87311" lon="2.34198">
        <ele>47</ele>
        <time>2015-10-26T19:34:43Z</time>
      </trkpt>
      <trkpt lat="48.87312" lon="2.34184">
        <ele>47</ele>
        <time>2015-10-26T19:34:45Z</time>
      </trkpt>
      <trkpt lat="48.87318" lon="2.34167">
        <ele>47</ele>
        <time>2015-10-26T19:34:48Z</time>
      </trkpt>
      <trkpt lat="48.8732" lon="2.34142">
        <ele>47.20000076294</ele>
        <time>2015-10-26T19:34:52Z</time>
      </trkpt>
      <trkpt lat="48.87321" lon="2.34126">
        <ele>47.400001525879</ele>
        <time>2015-10-26T19:34:55Z</time>
      </trkpt>
      <trkpt lat="48.87316" lon="2.34102">
        <ele>47.20000076294</ele>
        <time>2015-10-26T19:35:00Z</time>
      </trkpt>
      <trkpt lat="48.87303" lon="2.34098">
        <ele>47.400001525879</ele>
        <time>2015-10-26T19:35:03Z</time>
      </trkpt>
      <trkpt lat="48.87301" lon="2.34096">
        <ele>47.599998474121</ele>
        <time>2015-10-26T19:35:04Z</time>
      </trkpt>
      <trkpt lat="48.87297" lon="2.34095">
        <ele>47.599998474121</ele>
        <time>2015-10-26T19:35:05Z</time>
      </trkpt>
      <trkpt lat="48.87288" lon="2.34083">
        <ele>47.599998474121</ele>
        <time>2015-10-26T19:35:09Z</time>
      </trkpt>
      <trkpt lat="48.87289" lon="2.34059">
        <ele>47.400001525879</ele>
        <time>2015-10-26T19:35:13Z</time>
      </trkpt>
      <trkpt lat="48.87292" lon="2.34039">
        <ele>47</ele>
        <time>2015-10-26T19:35:16Z</time>
      </trkpt>
      <trkpt lat="48.873" lon="2.34008">
        <ele>46.599998474121</ele>
        <time>2015-10-26T19:35:21Z</time>
      </trkpt>
      <trkpt lat="48.87307" lon="2.33983">
        <ele>47.20000076294</ele>
        <time>2015-10-26T19:35:25Z</time>
      </trkpt>
      <trkpt lat="48.87315" lon="2.33958">
        <ele>48.400001525879</ele>
        <time>2015-10-26T19:35:29Z</time>
      </trkpt>
      <trkpt lat="48.87317" lon="2.33947">
        <ele>48.599998474121</ele>
        <time>2015-10-26T19:35:31Z</time>
      </trkpt>
      <trkpt lat="48.87318" lon="2.33936">
        <ele>48.79999923706</ele>
        <time>2015-10-26T19:35:33Z</time>
      </trkpt>
      <trkpt lat="48.87325" lon="2.33919">
        <ele>49</ele>
        <time>2015-10-26T19:35:36Z</time>
      </trkpt>
      <trkpt lat="48.87326" lon="2.33893">
        <ele>49</ele>
        <time>2015-10-26T19:35:42Z</time>
      </trkpt>
      <trkpt lat="48.8733" lon="2.33872">
        <ele>49</ele>
        <time>2015-10-26T19:35:46Z</time>
      </trkpt>
      <trkpt lat="48.87334" lon="2.33844">
        <ele>48.79999923706</ele>
        <time>2015-10-26T19:35:51Z</time>
      </trkpt>
      <trkpt lat="48.87341" lon="2.33816">
        <ele>49</ele>
        <time>2015-10-26T19:35:56Z</time>
      </trkpt>
      <trkpt lat="48.87345" lon="2.33792">
        <ele>49.599998474121</ele>
        <time>2015-10-26T19:36:00Z</time>
      </trkpt>
      <trkpt lat="48.87334" lon="2.33778">
        <ele>50.400001525879</ele>
        <time>2015-10-26T19:36:05Z</time>
      </trkpt>
      <trkpt lat="48.87326" lon="2.33777">
        <ele>50.599998474121</ele>
        <time>2015-10-26T19:36:06Z</time>
      </trkpt>
      <trkpt lat="48.87305" lon="2.33767">
        <ele>51.599998474121</ele>
        <time>2015-10-26T19:36:12Z</time>
      </trkpt>
      <trkpt lat="48.87304" lon="2.33766">
        <ele>51.599998474121</ele>
        <time>2015-10-26T19:36:13Z</time>
      </trkpt>
      <trkpt lat="48.87306" lon="2.33748">
        <ele>52.20000076294</ele>
        <time>2015-10-26T19:36:17Z</time>
      </trkpt>
      <trkpt lat="48.87307" lon="2.33744">
        <ele>52.20000076294</ele>
        <time>2015-10-26T19:36:18Z</time>
      </trkpt>
      <trkpt lat="48.87307" lon="2.33738">
        <ele>52</ele>
        <time>2015-10-26T19:36:19Z</time>
      </trkpt>
      <trkpt lat="48.87315" lon="2.33709">
        <ele>51.599998474121</ele>
        <time>2015-10-26T19:36:24Z</time>
      </trkpt>
      <trkpt lat="48.87318" lon="2.3369">
        <ele>52.20000076294</ele>
        <time>2015-10-26T19:36:27Z</time>
      </trkpt>
      <trkpt lat="48.87321" lon="2.33675">
        <ele>52.79999923706</ele>
        <time>2015-10-26T19:36:30Z</time>
      </trkpt>
      <trkpt lat="48.87331" lon="2.33645">
        <ele>53.20000076294</ele>
        <time>2015-10-26T19:36:35Z</time>
      </trkpt>
      <trkpt lat="48.87334" lon="2.3364">
        <ele>53.20000076294</ele>
        <time>2015-10-26T19:36:36Z</time>
      </trkpt>
      <trkpt lat="48.87345" lon="2.33626">
        <ele>53.599998474121</ele>
        <time>2015-10-26T19:36:40Z</time>
      </trkpt>
      <trkpt lat="48.87364" lon="2.33631">
        <ele>53.400001525879</ele>
        <time>2015-10-26T19:36:44Z</time>
      </trkpt>
      <trkpt lat="48.87376" lon="2.33635">
        <ele>52.400001525879</ele>
        <time>2015-10-26T19:36:47Z</time>
      </trkpt>
      <trkpt lat="48.87384" lon="2.33614">
        <ele>51.79999923706</ele>
        <time>2015-10-26T19:36:51Z</time>
      </trkpt>
      <trkpt lat="48.8738" lon="2.33599">
        <ele>52.20000076294</ele>
        <time>2015-10-26T19:36:53Z</time>
      </trkpt>
      <trkpt lat="48.8737" lon="2.33566">
        <ele>52.599998474121</ele>
        <time>2015-10-26T19:36:58Z</time>
      </trkpt>
      <trkpt lat="48.87367" lon="2.33552">
        <ele>52.20000076294</ele>
        <time>2015-10-26T19:37:01Z</time>
      </trkpt>
      <trkpt lat="48.87372" lon="2.33538">
        <ele>51.20000076294</ele>
        <time>2015-10-26T19:37:05Z</time>
      </trkpt>
      <trkpt lat="48.87374" lon="2.33537">
        <ele>51</ele>
        <time>2015-10-26T19:37:06Z</time>
      </trkpt>
      <trkpt lat="48.87387" lon="2.33535">
        <ele>50.400001525879</ele>
        <time>2015-10-26T19:37:10Z</time>
      </trkpt>
      <trkpt lat="48.87406" lon="2.33532">
        <ele>49.400001525879</ele>
        <time>2015-10-26T19:37:16Z</time>
      </trkpt>
      <trkpt lat="48.87418" lon="2.33534">
        <ele>49</ele>
        <time>2015-10-26T19:37:19Z</time>
      </trkpt>
      <trkpt lat="48.8744" lon="2.33533">
        <ele>48.400001525879</ele>
        <time>2015-10-26T19:37:24Z</time>
      </trkpt>
      <trkpt lat="48.87443" lon="2.33533">
        <ele>48.20000076294</ele>
        <time>2015-10-26T19:37:25Z</time>
      </trkpt>
      <trkpt lat="48.87466" lon="2.33532">
        <ele>47</ele>
        <time>2015-10-26T19:37:28Z</time>
      </trkpt>
      <trkpt lat="48.8747" lon="2.33528">
        <ele>46.599998474121</ele>
        <time>2015-10-26T19:37:33Z</time>
      </trkpt>
      <trkpt lat="48.87494" lon="2.33528">
        <ele>46</ele>
        <time>2015-10-26T19:37:38Z</time>
      </trkpt>
      <trkpt lat="48.87503" lon="2.3353">
        <ele>45.79999923706</ele>
        <time>2015-10-26T19:37:40Z</time>
      </trkpt>
      <trkpt lat="48.87514" lon="2.33522">
        <ele>45.599998474121</ele>
        <time>2015-10-26T19:37:43Z</time>
      </trkpt>
      <trkpt lat="48.87515" lon="2.33513">
        <ele>45.400001525879</ele>
        <time>2015-10-26T19:37:44Z</time>
      </trkpt>
      <trkpt lat="48.87521" lon="2.33469">
        <ele>45.599998474121</ele>
        <time>2015-10-26T19:37:49Z</time>
      </trkpt>
      <trkpt lat="48.87523" lon="2.33447">
        <ele>46.20000076294</ele>
        <time>2015-10-26T19:37:52Z</time>
      </trkpt>
      <trkpt lat="48.87524" lon="2.33437">
        <ele>46.400001525879</ele>
        <time>2015-10-26T19:37:53Z</time>
      </trkpt>
      <trkpt lat="48.87526" lon="2.33396">
        <ele>47.400001525879</ele>
        <time>2015-10-26T19:37:59Z</time>
      </trkpt>
      <trkpt lat="48.87528" lon="2.33382">
        <ele>47.599998474121</ele>
        <time>2015-10-26T19:38:01Z</time>
      </trkpt>
      <trkpt lat="48.87527" lon="2.33346">
        <ele>48.400001525879</ele>
        <time>2015-10-26T19:38:06Z</time>
      </trkpt>
      <trkpt lat="48.87527" lon="2.33335">
        <ele>48.79999923706</ele>
        <time>2015-10-26T19:38:08Z</time>
      </trkpt>
      <trkpt lat="48.87529" lon="2.33301">
        <ele>47.599998474121</ele>
        <time>2015-10-26T19:38:13Z</time>
      </trkpt>
      <trkpt lat="48.87531" lon="2.3327">
        <ele>46.20000076294</ele>
        <time>2015-10-26T19:38:18Z</time>
      </trkpt>
      <trkpt lat="48.87531" lon="2.33264">
        <ele>46</ele>
        <time>2015-10-26T19:38:19Z</time>
      </trkpt>
      <trkpt lat="48.87529" lon="2.33227">
        <ele>46.20000076294</ele>
        <time>2015-10-26T19:38:26Z</time>
      </trkpt>
      <trkpt lat="48.87523" lon="2.33202">
        <ele>46.599998474121</ele>
        <time>2015-10-26T19:38:31Z</time>
      </trkpt>
      <trkpt lat="48.87517" lon="2.3318">
        <ele>47.20000076294</ele>
        <time>2015-10-26T19:38:35Z</time>
      </trkpt>
      <trkpt lat="48.87509" lon="2.33155">
        <ele>47.400001525879</ele>
        <time>2015-10-26T19:38:41Z</time>
      </trkpt>
      <trkpt lat="48.87507" lon="2.33151">
        <ele>47.20000076294</ele>
        <time>2015-10-26T19:38:44Z</time>
      </trkpt>
      <trkpt lat="48.87503" lon="2.33135">
        <ele>47</ele>
        <time>2015-10-26T19:38:49Z</time>
      </trkpt>
      <trkpt lat="48.87495" lon="2.33115">
        <ele>46.79999923706</ele>
        <time>2015-10-26T19:38:54Z</time>
      </trkpt>
      <trkpt lat="48.87486" lon="2.3309">
        <ele>46.599998474121</ele>
        <time>2015-10-26T19:38:59Z</time>
      </trkpt>
      <trkpt lat="48.87476" lon="2.33061">
        <ele>46.20000076294</ele>
        <time>2015-10-26T19:39:04Z</time>
      </trkpt>
      <trkpt lat="48.8747" lon="2.33046">
        <ele>45.79999923706</ele>
        <time>2015-10-26T19:39:07Z</time>
      </trkpt>
      <trkpt lat="48.87467" lon="2.33028">
        <ele>45.400001525879</ele>
        <time>2015-10-26T19:39:10Z</time>
      </trkpt>
      <trkpt lat="48.87468" lon="2.32993">
        <ele>45</ele>
        <time>2015-10-26T19:39:15Z</time>
      </trkpt>
      <trkpt lat="48.87469" lon="2.32973">
        <ele>47.400001525879</ele>
        <time>2015-10-26T19:39:18Z</time>
      </trkpt>
      <trkpt lat="48.8747" lon="2.32958">
        <ele>48.79999923706</ele>
        <time>2015-10-26T19:39:20Z</time>
      </trkpt>
      <trkpt lat="48.8747" lon="2.32951">
        <ele>49.599998474121</ele>
        <time>2015-10-26T19:39:21Z</time>
      </trkpt>
      <trkpt lat="48.87468" lon="2.32932">
        <ele>50.599998474121</ele>
        <time>2015-10-26T19:39:24Z</time>
      </trkpt>
      <trkpt lat="48.87468" lon="2.32918">
        <ele>50.599998474121</ele>
        <time>2015-10-26T19:39:26Z</time>
      </trkpt>
      <trkpt lat="48.87467" lon="2.32904">
        <ele>50.20000076294</ele>
        <time>2015-10-26T19:39:29Z</time>
      </trkpt>
      <trkpt lat="48.8747" lon="2.32879">
        <ele>48.79999923706</ele>
        <time>2015-10-26T19:39:33Z</time>
      </trkpt>
      <trkpt lat="48.8747" lon="2.3286">
        <ele>47.79999923706</ele>
        <time>2015-10-26T19:39:37Z</time>
      </trkpt>
      <trkpt lat="48.87452" lon="2.32849">
        <ele>49.400001525879</ele>
        <time>2015-10-26T19:39:43Z</time>
      </trkpt>
      <trkpt lat="48.87438" lon="2.3285">
        <ele>51</ele>
        <time>2015-10-26T19:39:47Z</time>
      </trkpt>
      <trkpt lat="48.87437" lon="2.32851">
        <ele>51</ele>
        <time>2015-10-26T19:39:48Z</time>
      </trkpt>
      <trkpt lat="48.87432" lon="2.32851">
        <ele>50.79999923706</ele>
        <time>2015-10-26T19:39:51Z</time>
      </trkpt>
      <trkpt lat="48.8742" lon="2.32851">
        <ele>50.599998474121</ele>
        <time>2015-10-26T19:39:55Z</time>
      </trkpt>
      <trkpt lat="48.87401" lon="2.3285">
        <ele>50</ele>
        <time>2015-10-26T19:40:00Z</time>
      </trkpt>
      <trkpt lat="48.87383" lon="2.3284">
        <ele>49</ele>
        <time>2015-10-26T19:40:06Z</time>
      </trkpt>
      <trkpt lat="48.87379" lon="2.32836">
        <ele>48.79999923706</ele>
        <time>2015-10-26T19:40:10Z</time>
      </trkpt>
      <trkpt lat="48.87377" lon="2.32834">
        <ele>48.599998474121</ele>
        <time>2015-10-26T19:40:16Z</time>
      </trkpt>
      <trkpt lat="48.8738" lon="2.32815">
        <ele>48.599998474121</ele>
        <time>2015-10-26T19:40:21Z</time>
      </trkpt>
      <trkpt lat="48.87381" lon="2.32812">
        <ele>48.599998474121</ele>
        <time>2015-10-26T19:40:22Z</time>
      </trkpt>
      <trkpt lat="48.87385" lon="2.32782">
        <ele>48.599998474121</ele>
        <time>2015-10-26T19:40:27Z</time>
      </trkpt>
      <trkpt lat="48.87387" lon="2.32752">
        <ele>48.400001525879</ele>
        <time>2015-10-26T19:40:32Z</time>
      </trkpt>
      <trkpt lat="48.87386" lon="2.32722">
        <ele>48.400001525879</ele>
        <time>2015-10-26T19:40:43Z</time>
      </trkpt>
      <trkpt lat="48.87382" lon="2.32709">
        <ele>48.400001525879</ele>
        <time>2015-10-26T19:41:11Z</time>
      </trkpt>
      <trkpt lat="48.87382" lon="2.32686">
        <ele>48.20000076294</ele>
        <time>2015-10-26T19:41:16Z</time>
      </trkpt>
      <trkpt lat="48.87387" lon="2.32659">
        <ele>47.400001525879</ele>
        <time>2015-10-26T19:41:21Z</time>
      </trkpt>
      <trkpt lat="48.87395" lon="2.32622">
        <ele>48</ele>
        <time>2015-10-26T19:41:27Z</time>
      </trkpt>
      <trkpt lat="48.87396" lon="2.32615">
        <ele>48</ele>
        <time>2015-10-26T19:41:28Z</time>
      </trkpt>
      <trkpt lat="48.87402" lon="2.32583">
        <ele>47.400001525879</ele>
        <time>2015-10-26T19:41:33Z</time>
      </trkpt>
      <trkpt lat="48.87408" lon="2.32553">
        <ele>46</ele>
        <time>2015-10-26T19:41:37Z</time>
      </trkpt>
      <trkpt lat="48.87413" lon="2.32526">
        <ele>44.599998474121</ele>
        <time>2015-10-26T19:41:41Z</time>
      </trkpt>
      <trkpt lat="48.87415" lon="2.3251">
        <ele>44</ele>
        <time>2015-10-26T19:41:43Z</time>
      </trkpt>
      <trkpt lat="48.87417" lon="2.32496">
        <ele>43.400001525879</ele>
        <time>2015-10-26T19:41:45Z</time>
      </trkpt>
      <trkpt lat="48.87422" lon="2.32458">
        <ele>42.79999923706</ele>
        <time>2015-10-26T19:41:50Z</time>
      </trkpt>
      <trkpt lat="48.87428" lon="2.32424">
        <ele>43.20000076294</ele>
        <time>2015-10-26T19:41:54Z</time>
      </trkpt>
      <trkpt lat="48.8743" lon="2.32416">
        <ele>43.20000076294</ele>
        <time>2015-10-26T19:41:55Z</time>
      </trkpt>
      <trkpt lat="48.87431" lon="2.32394">
        <ele>43</ele>
        <time>2015-10-26T19:41:58Z</time>
      </trkpt>
      <trkpt lat="48.87433" lon="2.32355">
        <ele>43</ele>
        <time>2015-10-26T19:42:03Z</time>
      </trkpt>
      <trkpt lat="48.87434" lon="2.32348">
        <ele>43</ele>
        <time>2015-10-26T19:42:04Z</time>
      </trkpt>
      <trkpt lat="48.87438" lon="2.32314">
        <ele>43.599998474121</ele>
        <time>2015-10-26T19:42:09Z</time>
      </trkpt>
      <trkpt lat="48.87439" lon="2.32298">
        <ele>44.20000076294</ele>
        <time>2015-10-26T19:42:11Z</time>
      </trkpt>
      <trkpt lat="48.87446" lon="2.3226">
        <ele>45.599998474121</ele>
        <time>2015-10-26T19:42:16Z</time>
      </trkpt>
      <trkpt lat="48.87447" lon="2.32252">
        <ele>46</ele>
        <time>2015-10-26T19:42:17Z</time>
      </trkpt>
      <trkpt lat="48.87449" lon="2.32236">
        <ele>46.599998474121</ele>
        <time>2015-10-26T19:42:19Z</time>
      </trkpt>
      <trkpt lat="48.87449" lon="2.32229">
        <ele>46.79999923706</ele>
        <time>2015-10-26T19:42:20Z</time>
      </trkpt>
      <trkpt lat="48.87456" lon="2.32191">
        <ele>48.20000076294</ele>
        <time>2015-10-26T19:42:24Z</time>
      </trkpt>
      <trkpt lat="48.87461" lon="2.32157">
        <ele>48.400001525879</ele>
        <time>2015-10-26T19:42:28Z</time>
      </trkpt>
      <trkpt lat="48.87466" lon="2.32125">
        <ele>48</ele>
        <time>2015-10-26T19:42:32Z</time>
      </trkpt>
      <trkpt lat="48.87471" lon="2.32094">
        <ele>47.20000076294</ele>
        <time>2015-10-26T19:42:36Z</time>
      </trkpt>
      <trkpt lat="48.87473" lon="2.32066">
        <ele>46.400001525879</ele>
        <time>2015-10-26T19:42:40Z</time>
      </trkpt>
      <trkpt lat="48.87476" lon="2.32035">
        <ele>45.599998474121</ele>
        <time>2015-10-26T19:42:45Z</time>
      </trkpt>
      <trkpt lat="48.87477" lon="2.32025">
        <ele>45.599998474121</ele>
        <time>2015-10-26T19:42:47Z</time>
      </trkpt>
      <trkpt lat="48.87482" lon="2.32008">
        <ele>45.79999923706</ele>
        <time>2015-10-26T19:42:54Z</time>
      </trkpt>
      <trkpt lat="48.87483" lon="2.31994">
        <ele>46</ele>
        <time>2015-10-26T19:43:01Z</time>
      </trkpt>
      <trkpt lat="48.87482" lon="2.31987">
        <ele>46</ele>
        <time>2015-10-26T19:43:07Z</time>
      </trkpt>
      <trkpt lat="48.87474" lon="2.31977">
        <ele>46</ele>
        <time>2015-10-26T19:43:14Z</time>
      </trkpt>
      <trkpt lat="48.87463" lon="2.31959">
        <ele>46</ele>
        <time>2015-10-26T19:43:20Z</time>
      </trkpt>
      <trkpt lat="48.87455" lon="2.31938">
        <ele>46</ele>
        <time>2015-10-26T19:43:25Z</time>
      </trkpt>
      <trkpt lat="48.8745" lon="2.3191">
        <ele>45.79999923706</ele>
        <time>2015-10-26T19:43:30Z</time>
      </trkpt>
      <trkpt lat="48.87445" lon="2.31882">
        <ele>45.79999923706</ele>
        <time>2015-10-26T19:43:34Z</time>
      </trkpt>
      <trkpt lat="48.87441" lon="2.31855">
        <ele>46</ele>
        <time>2015-10-26T19:43:38Z</time>
      </trkpt>
      <trkpt lat="48.87436" lon="2.31823">
        <ele>45.79999923706</ele>
        <time>2015-10-26T19:43:42Z</time>
      </trkpt>
      <trkpt lat="48.87431" lon="2.31791">
        <ele>45.599998474121</ele>
        <time>2015-10-26T19:43:46Z</time>
      </trkpt>
      <trkpt lat="48.87426" lon="2.3176">
        <ele>45.400001525879</ele>
        <time>2015-10-26T19:43:50Z</time>
      </trkpt>
      <trkpt lat="48.87421" lon="2.31729">
        <ele>45.400001525879</ele>
        <time>2015-10-26T19:43:54Z</time>
      </trkpt>
      <trkpt lat="48.87419" lon="2.31722">
        <ele>45.400001525879</ele>
        <time>2015-10-26T19:43:55Z</time>
      </trkpt>
      <trkpt lat="48.87418" lon="2.31718">
        <ele>45.400001525879</ele>
        <time>2015-10-26T19:43:56Z</time>
      </trkpt>
      <trkpt lat="48.87411" lon="2.31676">
        <ele>46.400001525879</ele>
        <time>2015-10-26T19:44:01Z</time>
      </trkpt>
      <trkpt lat="48.87408" lon="2.31646">
        <ele>47.599998474121</ele>
        <time>2015-10-26T19:44:05Z</time>
      </trkpt>
      <trkpt lat="48.87407" lon="2.31639">
        <ele>47.79999923706</ele>
        <time>2015-10-26T19:44:06Z</time>
      </trkpt>
      <trkpt lat="48.87401" lon="2.31601">
        <ele>47.79999923706</ele>
        <time>2015-10-26T19:44:11Z</time>
      </trkpt>
      <trkpt lat="48.874" lon="2.31592">
        <ele>47.599998474121</ele>
        <time>2015-10-26T19:44:12Z</time>
      </trkpt>
      <trkpt lat="48.87394" lon="2.31561">
        <ele>48</ele>
        <time>2015-10-26T19:44:16Z</time>
      </trkpt>
      <trkpt lat="48.87393" lon="2.31553">
        <ele>48.20000076294</ele>
        <time>2015-10-26T19:44:17Z</time>
      </trkpt>
      <trkpt lat="48.87386" lon="2.31519">
        <ele>49</ele>
        <time>2015-10-26T19:44:21Z</time>
      </trkpt>
      <trkpt lat="48.87384" lon="2.31512">
        <ele>49.20000076294</ele>
        <time>2015-10-26T19:44:22Z</time>
      </trkpt>
      <trkpt lat="48.87378" lon="2.31468">
        <ele>49.400001525879</ele>
        <time>2015-10-26T19:44:27Z</time>
      </trkpt>
      <trkpt lat="48.87372" lon="2.31435">
        <ele>48.79999923706</ele>
        <time>2015-10-26T19:44:31Z</time>
      </trkpt>
      <trkpt lat="48.87371" lon="2.31429">
        <ele>48.79999923706</ele>
        <time>2015-10-26T19:44:32Z</time>
      </trkpt>
      <trkpt lat="48.87361" lon="2.31392">
        <ele>48.400001525879</ele>
        <time>2015-10-26T19:44:36Z</time>
      </trkpt>
      <trkpt lat="48.87353" lon="2.31349">
        <ele>48.599998474121</ele>
        <time>2015-10-26T19:44:41Z</time>
      </trkpt>
      <trkpt lat="48.87351" lon="2.31339">
        <ele>48.599998474121</ele>
        <time>2015-10-26T19:44:42Z</time>
      </trkpt>
      <trkpt lat="48.87346" lon="2.31311">
        <ele>48.20000076294</ele>
        <time>2015-10-26T19:44:45Z</time>
      </trkpt>
      <trkpt lat="48.87344" lon="2.31302">
        <ele>48</ele>
        <time>2015-10-26T19:44:46Z</time>
      </trkpt>
      <trkpt lat="48.87339" lon="2.31266">
        <ele>47.400001525879</ele>
        <time>2015-10-26T19:44:50Z</time>
      </trkpt>
      <trkpt lat="48.87332" lon="2.31231">
        <ele>47.400001525879</ele>
        <time>2015-10-26T19:44:54Z</time>
      </trkpt>
      <trkpt lat="48.87327" lon="2.31213">
        <ele>47.599998474121</ele>
        <time>2015-10-26T19:44:56Z</time>
      </trkpt>
      <trkpt lat="48.87316" lon="2.31171">
        <ele>47</ele>
        <time>2015-10-26T19:45:01Z</time>
      </trkpt>
      <trkpt lat="48.87308" lon="2.3114">
        <ele>47</ele>
        <time>2015-10-26T19:45:05Z</time>
      </trkpt>
      <trkpt lat="48.87305" lon="2.31135">
        <ele>47</ele>
        <time>2015-10-26T19:45:06Z</time>
      </trkpt>
      <trkpt lat="48.87293" lon="2.31118">
        <ele>47</ele>
        <time>2015-10-26T19:45:10Z</time>
      </trkpt>
      <trkpt lat="48.87285" lon="2.31092">
        <ele>47</ele>
        <time>2015-10-26T19:45:15Z</time>
      </trkpt>
      <trkpt lat="48.87285" lon="2.31087">
        <ele>46.79999923706</ele>
        <time>2015-10-26T19:45:16Z</time>
      </trkpt>
      <trkpt lat="48.87285" lon="2.31081">
        <ele>46.400001525879</ele>
        <time>2015-10-26T19:45:18Z</time>
      </trkpt>
      <trkpt lat="48.87287" lon="2.31072">
        <ele>46</ele>
        <time>2015-10-26T19:45:24Z</time>
      </trkpt>
      <trkpt lat="48.87287" lon="2.31071">
        <ele>46</ele>
        <time>2015-10-26T19:45:32Z</time>
      </trkpt>
      <trkpt lat="48.87286" lon="2.31069">
        <ele>46</ele>
        <time>2015-10-26T19:45:45Z</time>
      </trkpt>
      <trkpt lat="48.87282" lon="2.31064">
        <ele>46</ele>
        <time>2015-10-26T19:45:49Z</time>
      </trkpt>
      <trkpt lat="48.87277" lon="2.31052">
        <ele>45.79999923706</ele>
        <time>2015-10-26T19:45:54Z</time>
      </trkpt>
      <trkpt lat="48.87272" lon="2.31036">
        <ele>45.400001525879</ele>
        <time>2015-10-26T19:46:00Z</time>
      </trkpt>
      <trkpt lat="48.87263" lon="2.31021">
        <ele>45</ele>
        <time>2015-10-26T19:46:05Z</time>
      </trkpt>
      <trkpt lat="48.8726" lon="2.31017">
        <ele>44.79999923706</ele>
        <time>2015-10-26T19:46:06Z</time>
      </trkpt>
      <trkpt lat="48.87249" lon="2.31009">
        <ele>44.79999923706</ele>
        <time>2015-10-26T19:46:10Z</time>
      </trkpt>
      <trkpt lat="48.87245" lon="2.31002">
        <ele>44.599998474121</ele>
        <time>2015-10-26T19:46:13Z</time>
      </trkpt>
      <trkpt lat="48.87235" lon="2.30985">
        <ele>44.79999923706</ele>
        <time>2015-10-26T19:46:17Z</time>
      </trkpt>
      <trkpt lat="48.87233" lon="2.3098">
        <ele>44.79999923706</ele>
        <time>2015-10-26T19:46:18Z</time>
      </trkpt>
      <trkpt lat="48.87231" lon="2.30974">
        <ele>45</ele>
        <time>2015-10-26T19:46:19Z</time>
      </trkpt>
      <trkpt lat="48.87219" lon="2.30953">
        <ele>45.79999923706</ele>
        <time>2015-10-26T19:46:23Z</time>
      </trkpt>
      <trkpt lat="48.87209" lon="2.30926">
        <ele>46.599998474121</ele>
        <time>2015-10-26T19:46:28Z</time>
      </trkpt>
      <trkpt lat="48.87207" lon="2.3092">
        <ele>46.79999923706</ele>
        <time>2015-10-26T19:46:29Z</time>
      </trkpt>
      <trkpt lat="48.87198" lon="2.30894">
        <ele>47</ele>
        <time>2015-10-26T19:46:36Z</time>
      </trkpt>
      <trkpt lat="48.8719" lon="2.30883">
        <ele>47</ele>
        <time>2015-10-26T19:46:40Z</time>
      </trkpt>
      <trkpt lat="48.87188" lon="2.30869">
        <ele>47</ele>
        <time>2015-10-26T19:46:43Z</time>
      </trkpt>
      <trkpt lat="48.87186" lon="2.30861">
        <ele>47</ele>
        <time>2015-10-26T19:46:44Z</time>
      </trkpt>
      <trkpt lat="48.87177" lon="2.30837">
        <ele>47.20000076294</ele>
        <time>2015-10-26T19:46:47Z</time>
      </trkpt>
      <trkpt lat="48.87164" lon="2.30808">
        <ele>47</ele>
        <time>2015-10-26T19:46:51Z</time>
      </trkpt>
      <trkpt lat="48.87161" lon="2.30801">
        <ele>47</ele>
        <time>2015-10-26T19:46:52Z</time>
      </trkpt>
      <trkpt lat="48.87147" lon="2.30767">
        <ele>47</ele>
        <time>2015-10-26T19:46:57Z</time>
      </trkpt>
      <trkpt lat="48.87144" lon="2.30761">
        <ele>47</ele>
        <time>2015-10-26T19:46:58Z</time>
      </trkpt>
      <trkpt lat="48.8714" lon="2.30738">
        <ele>47.400001525879</ele>
        <time>2015-10-26T19:47:03Z</time>
      </trkpt>
      <trkpt lat="48.87137" lon="2.30729">
        <ele>47.599998474121</ele>
        <time>2015-10-26T19:47:06Z</time>
      </trkpt>
      <trkpt lat="48.87125" lon="2.30711">
        <ele>48.20000076294</ele>
        <time>2015-10-26T19:47:10Z</time>
      </trkpt>
      <trkpt lat="48.87111" lon="2.3069">
        <ele>49</ele>
        <time>2015-10-26T19:47:14Z</time>
      </trkpt>
      <trkpt lat="48.87109" lon="2.30683">
        <ele>49.20000076294</ele>
        <time>2015-10-26T19:47:15Z</time>
      </trkpt>
      <trkpt lat="48.87094" lon="2.30652">
        <ele>49.599998474121</ele>
        <time>2015-10-26T19:47:20Z</time>
      </trkpt>
      <trkpt lat="48.87091" lon="2.30646">
        <ele>49.400001525879</ele>
        <time>2015-10-26T19:47:21Z</time>
      </trkpt>
      <trkpt lat="48.87081" lon="2.30622">
        <ele>49.20000076294</ele>
        <time>2015-10-26T19:47:25Z</time>
      </trkpt>
      <trkpt lat="48.87078" lon="2.30616">
        <ele>49.20000076294</ele>
        <time>2015-10-26T19:47:26Z</time>
      </trkpt>
      <trkpt lat="48.8707" lon="2.30601">
        <ele>49</ele>
        <time>2015-10-26T19:47:29Z</time>
      </trkpt>
      <trkpt lat="48.87067" lon="2.30596">
        <ele>49</ele>
        <time>2015-10-26T19:47:30Z</time>
      </trkpt>
      <trkpt lat="48.87065" lon="2.30592">
        <ele>48.79999923706</ele>
        <time>2015-10-26T19:47:31Z</time>
      </trkpt>
      <trkpt lat="48.87058" lon="2.30558">
        <ele>49.79999923706</ele>
        <time>2015-10-26T19:47:39Z</time>
      </trkpt>
      <trkpt lat="48.87055" lon="2.30546">
        <ele>50.20000076294</ele>
        <time>2015-10-26T19:47:43Z</time>
      </trkpt>
      <trkpt lat="48.87053" lon="2.30534">
        <ele>50.599998474121</ele>
        <time>2015-10-26T19:47:46Z</time>
      </trkpt>
      <trkpt lat="48.87041" lon="2.30516">
        <ele>51</ele>
        <time>2015-10-26T19:47:52Z</time>
      </trkpt>
      <trkpt lat="48.87038" lon="2.3051">
        <ele>51</ele>
        <time>2015-10-26T19:47:54Z</time>
      </trkpt>
      <trkpt lat="48.87024" lon="2.30487">
        <ele>51.599998474121</ele>
        <time>2015-10-26T19:48:00Z</time>
      </trkpt>
      <trkpt lat="48.87014" lon="2.30468">
        <ele>52.400001525879</ele>
        <time>2015-10-26T19:48:04Z</time>
      </trkpt>
      <trkpt lat="48.87002" lon="2.30448">
        <ele>53.400001525879</ele>
        <time>2015-10-26T19:48:08Z</time>
      </trkpt>
      <trkpt lat="48.86998" lon="2.30441">
        <ele>53.79999923706</ele>
        <time>2015-10-26T19:48:09Z</time>
      </trkpt>
      <trkpt lat="48.86986" lon="2.30419">
        <ele>54.79999923706</ele>
        <time>2015-10-26T19:48:13Z</time>
      </trkpt>
      <trkpt lat="48.86982" lon="2.30413">
        <ele>55</ele>
        <time>2015-10-26T19:48:14Z</time>
      </trkpt>
      <trkpt lat="48.8697" lon="2.30391">
        <ele>55</ele>
        <time>2015-10-26T19:48:18Z</time>
      </trkpt>
      <trkpt lat="48.86956" lon="2.30363">
        <ele>55</ele>
        <time>2015-10-26T19:48:23Z</time>
      </trkpt>
      <trkpt lat="48.86949" lon="2.30354">
        <ele>55</ele>
        <time>2015-10-26T19:48:25Z</time>
      </trkpt>
      <trkpt lat="48.86932" lon="2.30317">
        <ele>54.79999923706</ele>
        <time>2015-10-26T19:48:31Z</time>
      </trkpt>
      <trkpt lat="48.86921" lon="2.30294">
        <ele>54.599998474121</ele>
        <time>2015-10-26T19:48:35Z</time>
      </trkpt>
      <trkpt lat="48.86919" lon="2.30289">
        <ele>54.599998474121</ele>
        <time>2015-10-26T19:48:36Z</time>
      </trkpt>
      <trkpt lat="48.86909" lon="2.3027">
        <ele>54.20000076294</ele>
        <time>2015-10-26T19:48:40Z</time>
      </trkpt>
      <trkpt lat="48.86903" lon="2.30261">
        <ele>54.20000076294</ele>
        <time>2015-10-26T19:48:42Z</time>
      </trkpt>
      <trkpt lat="48.869" lon="2.3025">
        <ele>54</ele>
        <time>2015-10-26T19:48:44Z</time>
      </trkpt>
      <trkpt lat="48.86895" lon="2.30237">
        <ele>53.79999923706</ele>
        <time>2015-10-26T19:48:47Z</time>
      </trkpt>
      <trkpt lat="48.86889" lon="2.30223">
        <ele>53.79999923706</ele>
        <time>2015-10-26T19:48:50Z</time>
      </trkpt>
      <trkpt lat="48.86881" lon="2.30202">
        <ele>53.400001525879</ele>
        <time>2015-10-26T19:48:54Z</time>
      </trkpt>
      <trkpt lat="48.86875" lon="2.30185">
        <ele>53.20000076294</ele>
        <time>2015-10-26T19:48:57Z</time>
      </trkpt>
      <trkpt lat="48.86868" lon="2.30171">
        <ele>53.20000076294</ele>
        <time>2015-10-26T19:49:00Z</time>
      </trkpt>
      <trkpt lat="48.86864" lon="2.3016">
        <ele>53.400001525879</ele>
        <time>2015-10-26T19:49:02Z</time>
      </trkpt>
      <trkpt lat="48.86855" lon="2.30141">
        <ele>54.20000076294</ele>
        <time>2015-10-26T19:49:06Z</time>
      </trkpt>
      <trkpt lat="48.8685" lon="2.30129">
        <ele>54.400001525879</ele>
        <time>2015-10-26T19:49:09Z</time>
      </trkpt>
      <trkpt lat="48.86845" lon="2.30122">
        <ele>54.400001525879</ele>
        <time>2015-10-26T19:49:14Z</time>
      </trkpt>
      <trkpt lat="48.86838" lon="2.30115">
        <ele>54.20000076294</ele>
        <time>2015-10-26T19:49:32Z</time>
      </trkpt>
      <trkpt lat="48.8683" lon="2.30111">
        <ele>53.599998474121</ele>
        <time>2015-10-26T19:49:41Z</time>
      </trkpt>
      <trkpt lat="48.86828" lon="2.3011">
        <ele>53.400001525879</ele>
        <time>2015-10-26T19:49:42Z</time>
      </trkpt>
      <trkpt lat="48.8682" lon="2.30106">
        <ele>53</ele>
        <time>2015-10-26T19:49:45Z</time>
      </trkpt>
      <trkpt lat="48.86814" lon="2.301">
        <ele>52.79999923706</ele>
        <time>2015-10-26T19:49:47Z</time>
      </trkpt>
      <trkpt lat="48.86805" lon="2.30085">
        <ele>52.79999923706</ele>
        <time>2015-10-26T19:49:51Z</time>
      </trkpt>
      <trkpt lat="48.86794" lon="2.30072">
        <ele>52.599998474121</ele>
        <time>2015-10-26T19:49:54Z</time>
      </trkpt>
      <trkpt lat="48.86783" lon="2.30059">
        <ele>52.79999923706</ele>
        <time>2015-10-26T19:49:57Z</time>
      </trkpt>
      <trkpt lat="48.86764" lon="2.30038">
        <ele>53.20000076294</ele>
        <time>2015-10-26T19:50:02Z</time>
      </trkpt>
      <trkpt lat="48.86762" lon="2.30032">
        <ele>53.599998474121</ele>
        <time>2015-10-26T19:50:03Z</time>
      </trkpt>
      <trkpt lat="48.86756" lon="2.30019">
        <ele>54.599998474121</ele>
        <time>2015-10-26T19:50:05Z</time>
      </trkpt>
      <trkpt lat="48.86743" lon="2.29994">
        <ele>56</ele>
        <time>2015-10-26T19:50:10Z</time>
      </trkpt>
      <trkpt lat="48.86738" lon="2.29981">
        <ele>56.599998474121</ele>
        <time>2015-10-26T19:50:13Z</time>
      </trkpt>
      <trkpt lat="48.86738" lon="2.29969">
        <ele>57</ele>
        <time>2015-10-26T19:50:15Z</time>
      </trkpt>
      <trkpt lat="48.86735" lon="2.29946">
        <ele>58</ele>
        <time>2015-10-26T19:50:21Z</time>
      </trkpt>
      <trkpt lat="48.86735" lon="2.29943">
        <ele>58.20000076294</ele>
        <time>2015-10-26T19:50:22Z</time>
      </trkpt>
      <trkpt lat="48.86736" lon="2.29936">
        <ele>58.599998474121</ele>
        <time>2015-10-26T19:50:29Z</time>
      </trkpt>
      <trkpt lat="48.86738" lon="2.29923">
        <ele>59.20000076294</ele>
        <time>2015-10-26T19:51:10Z</time>
      </trkpt>
      <trkpt lat="48.86738" lon="2.29923">
        <ele>59.20000076294</ele>
        <time>2015-10-26T19:51:16Z</time>
      </trkpt>
      <trkpt lat="48.86737" lon="2.29919">
        <ele>59.400001525879</ele>
        <time>2015-10-26T19:51:21Z</time>
      </trkpt>
      <trkpt lat="48.86735" lon="2.29918">
        <ele>59.400001525879</ele>
        <time>2015-10-26T19:51:22Z</time>
      </trkpt>
      <trkpt lat="48.86734" lon="2.29917">
        <ele>59.400001525879</ele>
        <time>2015-10-26T19:51:23Z</time>
      </trkpt>
      <trkpt lat="48.86727" lon="2.29907">
        <ele>59.599998474121</ele>
        <time>2015-10-26T19:51:30Z</time>
      </trkpt>
      <trkpt lat="48.86726" lon="2.29905">
        <ele>59.599998474121</ele>
        <time>2015-10-26T19:51:31Z</time>
      </trkpt>
      <trkpt lat="48.86719" lon="2.29897">
        <ele>59.400001525879</ele>
        <time>2015-10-26T19:51:36Z</time>
      </trkpt>
      <trkpt lat="48.86715" lon="2.29892">
        <ele>59.400001525879</ele>
        <time>2015-10-26T19:51:38Z</time>
      </trkpt>
      <trkpt lat="48.86711" lon="2.29887">
        <ele>59.400001525879</ele>
        <time>2015-10-26T19:51:40Z</time>
      </trkpt>
      <trkpt lat="48.86703" lon="2.29875">
        <ele>59.400001525879</ele>
        <time>2015-10-26T19:51:44Z</time>
      </trkpt>
      <trkpt lat="48.86696" lon="2.29865">
        <ele>59.400001525879</ele>
        <time>2015-10-26T19:51:47Z</time>
      </trkpt>
      <trkpt lat="48.8668" lon="2.2984">
        <ele>59.20000076294</ele>
        <time>2015-10-26T19:51:54Z</time>
      </trkpt>
      <trkpt lat="48.86674" lon="2.29826">
        <ele>59</ele>
        <time>2015-10-26T19:51:58Z</time>
      </trkpt>
      <trkpt lat="48.86665" lon="2.2981">
        <ele>58.599998474121</ele>
        <time>2015-10-26T19:52:03Z</time>
      </trkpt>
      <trkpt lat="48.86658" lon="2.29795">
        <ele>58</ele>
        <time>2015-10-26T19:52:07Z</time>
      </trkpt>
      <trkpt lat="48.86652" lon="2.29781">
        <ele>57.599998474121</ele>
        <time>2015-10-26T19:52:11Z</time>
      </trkpt>
      <trkpt lat="48.8664" lon="2.29762">
        <ele>56.79999923706</ele>
        <time>2015-10-26T19:52:16Z</time>
      </trkpt>
      <trkpt lat="48.86632" lon="2.29746">
        <ele>56.20000076294</ele>
        <time>2015-10-26T19:52:20Z</time>
      </trkpt>
      <trkpt lat="48.86621" lon="2.29723">
        <ele>55.400001525879</ele>
        <time>2015-10-26T19:52:26Z</time>
      </trkpt>
      <trkpt lat="48.86619" lon="2.29716">
        <ele>55.20000076294</ele>
        <time>2015-10-26T19:52:28Z</time>
      </trkpt>
      <trkpt lat="48.86613" lon="2.29706">
        <ele>54.79999923706</ele>
        <time>2015-10-26T19:52:32Z</time>
      </trkpt>
      <trkpt lat="48.86612" lon="2.29704">
        <ele>54.79999923706</ele>
        <time>2015-10-26T19:52:33Z</time>
      </trkpt>
      <trkpt lat="48.86605" lon="2.29692">
        <ele>54.20000076294</ele>
        <time>2015-10-26T19:52:36Z</time>
      </trkpt>
      <trkpt lat="48.866" lon="2.29686">
        <ele>53.79999923706</ele>
        <time>2015-10-26T19:52:38Z</time>
      </trkpt>
      <trkpt lat="48.86589" lon="2.29656">
        <ele>53.400001525879</ele>
        <time>2015-10-26T19:52:45Z</time>
      </trkpt>
      <trkpt lat="48.86587" lon="2.2965">
        <ele>53.79999923706</ele>
        <time>2015-10-26T19:52:46Z</time>
      </trkpt>
      <trkpt lat="48.86572" lon="2.2963">
        <ele>54.400001525879</ele>
        <time>2015-10-26T19:52:51Z</time>
      </trkpt>
      <trkpt lat="48.86562" lon="2.29615">
        <ele>54.79999923706</ele>
        <time>2015-10-26T19:52:55Z</time>
      </trkpt>
      <trkpt lat="48.86554" lon="2.29595">
        <ele>55.400001525879</ele>
        <time>2015-10-26T19:52:59Z</time>
      </trkpt>
      <trkpt lat="48.86543" lon="2.29574">
        <ele>56</ele>
        <time>2015-10-26T19:53:04Z</time>
      </trkpt>
      <trkpt lat="48.86534" lon="2.29556">
        <ele>56.599998474121</ele>
        <time>2015-10-26T19:53:08Z</time>
      </trkpt>
      <trkpt lat="48.86528" lon="2.29544">
        <ele>57</ele>
        <time>2015-10-26T19:53:11Z</time>
      </trkpt>
      <trkpt lat="48.86519" lon="2.29517">
        <ele>57.599998474121</ele>
        <time>2015-10-26T19:53:16Z</time>
      </trkpt>
      <trkpt lat="48.86513" lon="2.29498">
        <ele>58</ele>
        <time>2015-10-26T19:53:20Z</time>
      </trkpt>
      <trkpt lat="48.86508" lon="2.29484">
        <ele>58</ele>
        <time>2015-10-26T19:53:23Z</time>
      </trkpt>
      <trkpt lat="48.865" lon="2.29461">
        <ele>57</ele>
        <time>2015-10-26T19:53:29Z</time>
      </trkpt>
      <trkpt lat="48.86494" lon="2.29447">
        <ele>56.400001525879</ele>
        <time>2015-10-26T19:53:33Z</time>
      </trkpt>
      <trkpt lat="48.86492" lon="2.29433">
        <ele>56</ele>
        <time>2015-10-26T19:53:38Z</time>
      </trkpt>
      <trkpt lat="48.86494" lon="2.29418">
        <ele>55.79999923706</ele>
        <time>2015-10-26T19:53:42Z</time>
      </trkpt>
      <trkpt lat="48.86487" lon="2.29396">
        <ele>55.20000076294</ele>
        <time>2015-10-26T19:53:51Z</time>
      </trkpt>
      <trkpt lat="48.86485" lon="2.29388">
        <ele>55.20000076294</ele>
        <time>2015-10-26T19:53:57Z</time>
      </trkpt>
      <trkpt lat="48.86485" lon="2.29382">
        <ele>55.20000076294</ele>
        <time>2015-10-26T19:54:06Z</time>
      </trkpt>
      <trkpt lat="48.86482" lon="2.29371">
        <ele>55</ele>
        <time>2015-10-26T19:54:11Z</time>
      </trkpt>
      <trkpt lat="48.86476" lon="2.29359">
        <ele>55</ele>
        <time>2015-10-26T19:54:16Z</time>
      </trkpt>
      <trkpt lat="48.86468" lon="2.29346">
        <ele>54.79999923706</ele>
        <time>2015-10-26T19:54:22Z</time>
      </trkpt>
      <trkpt lat="48.86459" lon="2.29327">
        <ele>54.79999923706</ele>
        <time>2015-10-26T19:54:28Z</time>
      </trkpt>
      <trkpt lat="48.86451" lon="2.29312">
        <ele>55.20000076294</ele>
        <time>2015-10-26T19:54:32Z</time>
      </trkpt>
      <trkpt lat="48.86443" lon="2.29285">
        <ele>56.599998474121</ele>
        <time>2015-10-26T19:54:36Z</time>
      </trkpt>
      <trkpt lat="48.86442" lon="2.29278">
        <ele>57</ele>
        <time>2015-10-26T19:54:37Z</time>
      </trkpt>
      <trkpt lat="48.86433" lon="2.29245">
        <ele>58.20000076294</ele>
        <time>2015-10-26T19:54:42Z</time>
      </trkpt>
      <trkpt lat="48.86425" lon="2.29219">
        <ele>57.79999923706</ele>
        <time>2015-10-26T19:54:46Z</time>
      </trkpt>
      <trkpt lat="48.86423" lon="2.29213">
        <ele>57.599998474121</ele>
        <time>2015-10-26T19:54:47Z</time>
      </trkpt>
      <trkpt lat="48.86413" lon="2.2918">
        <ele>57</ele>
        <time>2015-10-26T19:54:52Z</time>
      </trkpt>
      <trkpt lat="48.86403" lon="2.29157">
        <ele>56.79999923706</ele>
        <time>2015-10-26T19:54:56Z</time>
      </trkpt>
      <trkpt lat="48.864" lon="2.29151">
        <ele>57</ele>
        <time>2015-10-26T19:54:57Z</time>
      </trkpt>
      <trkpt lat="48.86393" lon="2.29131">
        <ele>58</ele>
        <time>2015-10-26T19:55:00Z</time>
      </trkpt>
      <trkpt lat="48.86385" lon="2.29094">
        <ele>59.79999923706</ele>
        <time>2015-10-26T19:55:05Z</time>
      </trkpt>
      <trkpt lat="48.86384" lon="2.29089">
        <ele>60.20000076294</ele>
        <time>2015-10-26T19:55:06Z</time>
      </trkpt>
      <trkpt lat="48.86379" lon="2.29059">
        <ele>62.400001525879</ele>
        <time>2015-10-26T19:55:11Z</time>
      </trkpt>
      <trkpt lat="48.86377" lon="2.29053">
        <ele>63</ele>
        <time>2015-10-26T19:55:12Z</time>
      </trkpt>
      <trkpt lat="48.86375" lon="2.29047">
        <ele>63.400001525879</ele>
        <time>2015-10-26T19:55:13Z</time>
      </trkpt>
      <trkpt lat="48.86373" lon="2.29042">
        <ele>63.79999923706</ele>
        <time>2015-10-26T19:55:14Z</time>
      </trkpt>
      <trkpt lat="48.86366" lon="2.29019">
        <ele>65.400001525879</ele>
        <time>2015-10-26T19:55:18Z</time>
      </trkpt>
      <trkpt lat="48.86365" lon="2.29013">
        <ele>66</ele>
        <time>2015-10-26T19:55:19Z</time>
      </trkpt>
      <trkpt lat="48.86362" lon="2.29">
        <ele>67.199996948242</ele>
        <time>2015-10-26T19:55:21Z</time>
      </trkpt>
      <trkpt lat="48.86354" lon="2.28973">
        <ele>67.199996948242</ele>
        <time>2015-10-26T19:55:25Z</time>
      </trkpt>
      <trkpt lat="48.86343" lon="2.28924">
        <ele>67.400001525879</ele>
        <time>2015-10-26T19:55:33Z</time>
      </trkpt>
      <trkpt lat="48.86341" lon="2.28916">
        <ele>67.400001525879</ele>
        <time>2015-10-26T19:55:34Z</time>
      </trkpt>
      <trkpt lat="48.86333" lon="2.28888">
        <ele>66.599998474121</ele>
        <time>2015-10-26T19:55:39Z</time>
      </trkpt>
      <trkpt lat="48.86329" lon="2.28876">
        <ele>66.400001525879</ele>
        <time>2015-10-26T19:55:42Z</time>
      </trkpt>
      <trkpt lat="48.86323" lon="2.28854">
        <ele>66.199996948242</ele>
        <time>2015-10-26T19:55:48Z</time>
      </trkpt>
      <trkpt lat="48.86319" lon="2.28832">
        <ele>66.199996948242</ele>
        <time>2015-10-26T19:55:54Z</time>
      </trkpt>
      <trkpt lat="48.86318" lon="2.2883">
        <ele>66.199996948242</ele>
        <time>2015-10-26T19:55:55Z</time>
      </trkpt>
      <trkpt lat="48.86315" lon="2.28822">
        <ele>66</ele>
        <time>2015-10-26T19:56:00Z</time>
      </trkpt>
      <trkpt lat="48.86315" lon="2.28821">
        <ele>66</ele>
        <time>2015-10-26T19:56:01Z</time>
      </trkpt>
      <trkpt lat="48.86315" lon="2.2882">
        <ele>66</ele>
        <time>2015-10-26T19:56:02Z</time>
      </trkpt>
      <trkpt lat="48.86311" lon="2.28819">
        <ele>65.599998474121</ele>
        <time>2015-10-26T19:56:06Z</time>
      </trkpt>
      <trkpt lat="48.86309" lon="2.28821">
        <ele>65.599998474121</ele>
        <time>2015-10-26T19:56:16Z</time>
      </trkpt>
      <trkpt lat="48.86308" lon="2.28822">
        <ele>65.400001525879</ele>
        <time>2015-10-26T19:56:17Z</time>
      </trkpt>
      <trkpt lat="48.863" lon="2.28825">
        <ele>64.800003051758</ele>
        <time>2015-10-26T19:56:23Z</time>
      </trkpt>
      <trkpt lat="48.86296" lon="2.28826">
        <ele>64.599998474121</ele>
        <time>2015-10-26T19:56:25Z</time>
      </trkpt>
      <trkpt lat="48.86287" lon="2.28817">
        <ele>64</ele>
        <time>2015-10-26T19:56:31Z</time>
      </trkpt>
      <trkpt lat="48.86275" lon="2.28806">
        <ele>62.79999923706</ele>
        <time>2015-10-26T19:56:37Z</time>
      </trkpt>
      <trkpt lat="48.86268" lon="2.28795">
        <ele>62.79999923706</ele>
        <time>2015-10-26T19:56:42Z</time>
      </trkpt>
      <trkpt lat="48.86255" lon="2.28776">
        <ele>63.20000076294</ele>
        <time>2015-10-26T19:56:47Z</time>
      </trkpt>
      <trkpt lat="48.86252" lon="2.28772">
        <ele>63.400001525879</ele>
        <time>2015-10-26T19:56:48Z</time>
      </trkpt>
      <trkpt lat="48.86242" lon="2.2876">
        <ele>63.599998474121</ele>
        <time>2015-10-26T19:56:52Z</time>
      </trkpt>
      <trkpt lat="48.86235" lon="2.28745">
        <ele>64</ele>
        <time>2015-10-26T19:56:57Z</time>
      </trkpt>
      <trkpt lat="48.86228" lon="2.28727">
        <ele>65.400001525879</ele>
        <time>2015-10-26T19:57:02Z</time>
      </trkpt>
      <trkpt lat="48.86216" lon="2.28709">
        <ele>67</ele>
        <time>2015-10-26T19:57:09Z</time>
      </trkpt>
      <trkpt lat="48.86208" lon="2.287">
        <ele>68</ele>
        <time>2015-10-26T19:57:13Z</time>
      </trkpt>
      <trkpt lat="48.86207" lon="2.28697">
        <ele>68.199996948242</ele>
        <time>2015-10-26T19:57:14Z</time>
      </trkpt>
      <trkpt lat="48.862" lon="2.2869">
        <ele>68.800003051758</ele>
        <time>2015-10-26T19:57:17Z</time>
      </trkpt>
      <trkpt lat="48.8619" lon="2.28681">
        <ele>69.800003051758</ele>
        <time>2015-10-26T19:57:21Z</time>
      </trkpt>
      <trkpt lat="48.86176" lon="2.28676">
        <ele>70.199996948242</ele>
        <time>2015-10-26T19:57:26Z</time>
      </trkpt>
      <trkpt lat="48.86168" lon="2.28676">
        <ele>70.199996948242</ele>
        <time>2015-10-26T19:57:30Z</time>
      </trkpt>
      <trkpt lat="48.86165" lon="2.28675">
        <ele>70.199996948242</ele>
        <time>2015-10-26T19:57:32Z</time>
      </trkpt>
      <trkpt lat="48.86156" lon="2.28669">
        <ele>70.599998474121</ele>
        <time>2015-10-26T19:57:36Z</time>
      </trkpt>
      <trkpt lat="48.86154" lon="2.28668">
        <ele>70.800003051758</ele>
        <time>2015-10-26T19:57:37Z</time>
      </trkpt>
      <trkpt lat="48.86135" lon="2.28658">
        <ele>71.400001525879</ele>
        <time>2015-10-26T19:57:43Z</time>
      </trkpt>
      <trkpt lat="48.86125" lon="2.2865">
        <ele>72</ele>
        <time>2015-10-26T19:57:47Z</time>
      </trkpt>
      <trkpt lat="48.86106" lon="2.28637">
        <ele>72.800003051758</ele>
        <time>2015-10-26T19:57:53Z</time>
      </trkpt>
      <trkpt lat="48.86089" lon="2.28625">
        <ele>73</ele>
        <time>2015-10-26T19:57:58Z</time>
      </trkpt>
      <trkpt lat="48.86079" lon="2.28618">
        <ele>73</ele>
        <time>2015-10-26T19:58:02Z</time>
      </trkpt>
      <trkpt lat="48.86068" lon="2.28601">
        <ele>73.599998474121</ele>
        <time>2015-10-26T19:58:07Z</time>
      </trkpt>
      <trkpt lat="48.86061" lon="2.28593">
        <ele>73.800003051758</ele>
        <time>2015-10-26T19:58:09Z</time>
      </trkpt>
      <trkpt lat="48.86038" lon="2.28577">
        <ele>73.800003051758</ele>
        <time>2015-10-26T19:58:14Z</time>
      </trkpt>
      <trkpt lat="48.86018" lon="2.28565">
        <ele>72.800003051758</ele>
        <time>2015-10-26T19:58:18Z</time>
      </trkpt>
      <trkpt lat="48.86004" lon="2.28555">
        <ele>72.599998474121</ele>
        <time>2015-10-26T19:58:21Z</time>
      </trkpt>
      <trkpt lat="48.85993" lon="2.28544">
        <ele>72.199996948242</ele>
        <time>2015-10-26T19:58:23Z</time>
      </trkpt>
      <trkpt lat="48.85985" lon="2.28535">
        <ele>72</ele>
        <time>2015-10-26T19:58:25Z</time>
      </trkpt>
      <trkpt lat="48.85969" lon="2.28523">
        <ele>71.800003051758</ele>
        <time>2015-10-26T19:58:28Z</time>
      </trkpt>
      <trkpt lat="48.85958" lon="2.28518">
        <ele>71.400001525879</ele>
        <time>2015-10-26T19:58:30Z</time>
      </trkpt>
      <trkpt lat="48.85936" lon="2.28504">
        <ele>70.599998474121</ele>
        <time>2015-10-26T19:58:34Z</time>
      </trkpt>
      <trkpt lat="48.85918" lon="2.28493">
        <ele>69.400001525879</ele>
        <time>2015-10-26T19:58:37Z</time>
      </trkpt>
      <trkpt lat="48.85913" lon="2.28488">
        <ele>69.199996948242</ele>
        <time>2015-10-26T19:58:38Z</time>
      </trkpt>
      <trkpt lat="48.859" lon="2.28478">
        <ele>68.400001525879</ele>
        <time>2015-10-26T19:58:41Z</time>
      </trkpt>
      <trkpt lat="48.85881" lon="2.28469">
        <ele>67</ele>
        <time>2015-10-26T19:58:45Z</time>
      </trkpt>
      <trkpt lat="48.85876" lon="2.28467">
        <ele>66.599998474121</ele>
        <time>2015-10-26T19:58:46Z</time>
      </trkpt>
      <trkpt lat="48.85866" lon="2.28462">
        <ele>66</ele>
        <time>2015-10-26T19:58:48Z</time>
      </trkpt>
      <trkpt lat="48.85851" lon="2.28457">
        <ele>65.199996948242</ele>
        <time>2015-10-26T19:58:52Z</time>
      </trkpt>
      <trkpt lat="48.85844" lon="2.28453">
        <ele>65</ele>
        <time>2015-10-26T19:58:54Z</time>
      </trkpt>
      <trkpt lat="48.85832" lon="2.28443">
        <ele>64.800003051758</ele>
        <time>2015-10-26T19:58:57Z</time>
      </trkpt>
      <trkpt lat="48.8582" lon="2.28428">
        <ele>64.800003051758</ele>
        <time>2015-10-26T19:59:01Z</time>
      </trkpt>
      <trkpt lat="48.85807" lon="2.28411">
        <ele>64.800003051758</ele>
        <time>2015-10-26T19:59:05Z</time>
      </trkpt>
      <trkpt lat="48.85802" lon="2.28407">
        <ele>65.199996948242</ele>
        <time>2015-10-26T19:59:06Z</time>
      </trkpt>
      <trkpt lat="48.85789" lon="2.28389">
        <ele>67</ele>
        <time>2015-10-26T19:59:10Z</time>
      </trkpt>
      <trkpt lat="48.85782" lon="2.28382">
        <ele>67.599998474121</ele>
        <time>2015-10-26T19:59:12Z</time>
      </trkpt>
      <trkpt lat="48.85774" lon="2.28375">
        <ele>68</ele>
        <time>2015-10-26T19:59:14Z</time>
      </trkpt>
      <trkpt lat="48.85758" lon="2.28358">
        <ele>67.400001525879</ele>
        <time>2015-10-26T19:59:18Z</time>
      </trkpt>
      <trkpt lat="48.85743" lon="2.28343">
        <ele>66.400001525879</ele>
        <time>2015-10-26T19:59:22Z</time>
      </trkpt>
      <trkpt lat="48.85739" lon="2.2834">
        <ele>66.199996948242</ele>
        <time>2015-10-26T19:59:23Z</time>
      </trkpt>
      <trkpt lat="48.85734" lon="2.28334">
        <ele>66.199996948242</ele>
        <time>2015-10-26T19:59:24Z</time>
      </trkpt>
      <trkpt lat="48.85717" lon="2.28313">
        <ele>65.199996948242</ele>
        <time>2015-10-26T19:59:29Z</time>
      </trkpt>
      <trkpt lat="48.8571" lon="2.28304">
        <ele>64.800003051758</ele>
        <time>2015-10-26T19:59:31Z</time>
      </trkpt>
      <trkpt lat="48.85704" lon="2.28297">
        <ele>64.400001525879</ele>
        <time>2015-10-26T19:59:33Z</time>
      </trkpt>
      <trkpt lat="48.85688" lon="2.28277">
        <ele>63.400001525879</ele>
        <time>2015-10-26T19:59:37Z</time>
      </trkpt>
      <trkpt lat="48.85685" lon="2.28273">
        <ele>63.20000076294</ele>
        <time>2015-10-26T19:59:38Z</time>
      </trkpt>
      <trkpt lat="48.85675" lon="2.28257">
        <ele>62.400001525879</ele>
        <time>2015-10-26T19:59:42Z</time>
      </trkpt>
      <trkpt lat="48.8567" lon="2.28247">
        <ele>62</ele>
        <time>2015-10-26T19:59:44Z</time>
      </trkpt>
      <trkpt lat="48.85665" lon="2.28238">
        <ele>62.20000076294</ele>
        <time>2015-10-26T19:59:46Z</time>
      </trkpt>
      <trkpt lat="48.85656" lon="2.28225">
        <ele>62.20000076294</ele>
        <time>2015-10-26T19:59:49Z</time>
      </trkpt>
      <trkpt lat="48.85643" lon="2.28206">
        <ele>62</ele>
        <time>2015-10-26T19:59:54Z</time>
      </trkpt>
      <trkpt lat="48.85631" lon="2.28195">
        <ele>61</ele>
        <time>2015-10-26T19:59:58Z</time>
      </trkpt>
      <trkpt lat="48.85621" lon="2.28182">
        <ele>60.599998474121</ele>
        <time>2015-10-26T20:00:02Z</time>
      </trkpt>
      <trkpt lat="48.85606" lon="2.28166">
        <ele>59.599998474121</ele>
        <time>2015-10-26T20:00:07Z</time>
      </trkpt>
      <trkpt lat="48.85602" lon="2.28159">
        <ele>59.79999923706</ele>
        <time>2015-10-26T20:00:09Z</time>
      </trkpt>
      <trkpt lat="48.85584" lon="2.28134">
        <ele>59</ele>
        <time>2015-10-26T20:00:15Z</time>
      </trkpt>
      <trkpt lat="48.8557" lon="2.28116">
        <ele>58.400001525879</ele>
        <time>2015-10-26T20:00:20Z</time>
      </trkpt>
      <trkpt lat="48.85556" lon="2.28098">
        <ele>57.599998474121</ele>
        <time>2015-10-26T20:00:25Z</time>
      </trkpt>
      <trkpt lat="48.85539" lon="2.28081">
        <ele>56.599998474121</ele>
        <time>2015-10-26T20:00:30Z</time>
      </trkpt>
      <trkpt lat="48.85523" lon="2.28062">
        <ele>56</ele>
        <time>2015-10-26T20:00:36Z</time>
      </trkpt>
      <trkpt lat="48.85508" lon="2.28043">
        <ele>55.599998474121</ele>
        <time>2015-10-26T20:00:41Z</time>
      </trkpt>
      <trkpt lat="48.85498" lon="2.28016">
        <ele>56.20000076294</ele>
        <time>2015-10-26T20:00:46Z</time>
      </trkpt>
      <trkpt lat="48.85492" lon="2.27999">
        <ele>56.599998474121</ele>
        <time>2015-10-26T20:00:49Z</time>
      </trkpt>
      <trkpt lat="48.85485" lon="2.2797">
        <ele>56</ele>
        <time>2015-10-26T20:00:55Z</time>
      </trkpt>
      <trkpt lat="48.85478" lon="2.2794">
        <ele>55.79999923706</ele>
        <time>2015-10-26T20:01:01Z</time>
      </trkpt>
      <trkpt lat="48.85472" lon="2.27922">
        <ele>55.599998474121</ele>
        <time>2015-10-26T20:01:04Z</time>
      </trkpt>
      <trkpt lat="48.85466" lon="2.2791">
        <ele>55.400001525879</ele>
        <time>2015-10-26T20:01:06Z</time>
      </trkpt>
      <trkpt lat="48.85452" lon="2.2788">
        <ele>54.599998474121</ele>
        <time>2015-10-26T20:01:12Z</time>
      </trkpt>
      <trkpt lat="48.85441" lon="2.2786">
        <ele>53.79999923706</ele>
        <time>2015-10-26T20:01:19Z</time>
      </trkpt>
      <trkpt lat="48.85436" lon="2.27848">
        <ele>53.599998474121</ele>
        <time>2015-10-26T20:01:24Z</time>
      </trkpt>
      <trkpt lat="48.85428" lon="2.27836">
        <ele>53.400001525879</ele>
        <time>2015-10-26T20:01:29Z</time>
      </trkpt>
      <trkpt lat="48.85414" lon="2.27814">
        <ele>52.20000076294</ele>
        <time>2015-10-26T20:01:34Z</time>
      </trkpt>
      <trkpt lat="48.85398" lon="2.2779">
        <ele>50.400001525879</ele>
        <time>2015-10-26T20:01:38Z</time>
      </trkpt>
      <trkpt lat="48.85384" lon="2.27771">
        <ele>49.20000076294</ele>
        <time>2015-10-26T20:01:41Z</time>
      </trkpt>
      <trkpt lat="48.85366" lon="2.27744">
        <ele>47.20000076294</ele>
        <time>2015-10-26T20:01:44Z</time>
      </trkpt>
      <trkpt lat="48.85349" lon="2.2772">
        <ele>45</ele>
        <time>2015-10-26T20:01:47Z</time>
      </trkpt>
      <trkpt lat="48.85334" lon="2.27699">
        <ele>43.79999923706</ele>
        <time>2015-10-26T20:01:50Z</time>
      </trkpt>
      <trkpt lat="48.8532" lon="2.27681">
        <ele>42.79999923706</ele>
        <time>2015-10-26T20:01:53Z</time>
      </trkpt>
      <trkpt lat="48.85308" lon="2.27665">
        <ele>41.79999923706</ele>
        <time>2015-10-26T20:01:56Z</time>
      </trkpt>
      <trkpt lat="48.8529" lon="2.27643">
        <ele>40.599998474121</ele>
        <time>2015-10-26T20:02:01Z</time>
      </trkpt>
      <trkpt lat="48.85286" lon="2.27638">
        <ele>40.400001525879</ele>
        <time>2015-10-26T20:02:02Z</time>
      </trkpt>
      <trkpt lat="48.85273" lon="2.27616">
        <ele>39.400001525879</ele>
        <time>2015-10-26T20:02:08Z</time>
      </trkpt>
      <trkpt lat="48.8527" lon="2.2761">
        <ele>39.400001525879</ele>
        <time>2015-10-26T20:02:10Z</time>
      </trkpt>
      <trkpt lat="48.85269" lon="2.276">
        <ele>39.400001525879</ele>
        <time>2015-10-26T20:02:15Z</time>
      </trkpt>
      <trkpt lat="48.85274" lon="2.27602">
        <ele>39.400001525879</ele>
        <time>2015-10-26T20:02:26Z</time>
      </trkpt>
      <trkpt lat="48.85282" lon="2.27601">
        <ele>39.599998474121</ele>
        <time>2015-10-26T20:02:44Z</time>
      </trkpt>
      <trkpt lat="48.8528" lon="2.27597">
        <ele>39.599998474121</ele>
        <time>2015-10-26T20:02:55Z</time>
      </trkpt>
      <trkpt lat="48.85285" lon="2.27596">
        <ele>39.79999923706</ele>
        <time>2015-10-26T20:03:11Z</time>
      </trkpt>
      <trkpt lat="48.85287" lon="2.27596">
        <ele>39.79999923706</ele>
        <time>2015-10-26T20:03:24Z</time>
      </trkpt>
      <trkpt lat="48.85288" lon="2.27595">
        <ele>40</ele>
        <time>2015-10-26T20:03:38Z</time>
      </trkpt>
      <trkpt lat="48.85289" lon="2.27584">
        <ele>40</ele>
        <time>2015-10-26T20:03:44Z</time>
      </trkpt>
      <trkpt lat="48.85292" lon="2.27581">
        <ele>40.20000076294</ele>
        <time>2015-10-26T20:03:47Z</time>
      </trkpt>
      <trkpt lat="48.85294" lon="2.2758">
        <ele>40.20000076294</ele>
        <time>2015-10-26T20:03:53Z</time>
      </trkpt>
      <trkpt lat="48.85287" lon="2.27581">
        <ele>39.79999923706</ele>
        <time>2015-10-26T20:04:09Z</time>
      </trkpt>
      <trkpt lat="48.85283" lon="2.27594">
        <ele>39.599998474121</ele>
        <time>2015-10-26T20:04:42Z</time>
      </trkpt>
      <trkpt lat="48.85279" lon="2.27597">
        <ele>39.599998474121</ele>
        <time>2015-10-26T20:06:40Z</time>
      </trkpt>
      <trkpt lat="48.85276" lon="2.27617">
        <ele>39.599998474121</ele>
        <time>2015-10-26T20:08:24Z</time>
      </trkpt>
      <trkpt lat="48.85274" lon="2.27611">
        <ele>39.400001525879</ele>
        <time>2015-10-26T20:08:28Z</time>
      </trkpt>
      <trkpt lat="48.85274" lon="2.27603">
        <ele>39.400001525879</ele>
        <time>2015-10-26T20:08:40Z</time>
      </trkpt>
      <trkpt lat="48.85267" lon="2.27624">
        <ele>39.79999923706</ele>
        <time>2015-10-26T20:10:10Z</time>
      </trkpt>
      <trkpt lat="48.85266" lon="2.2761">
        <ele>39.599998474121</ele>
        <time>2015-10-26T20:10:46Z</time>
      </trkpt>
      <trkpt lat="48.85265" lon="2.27607">
        <ele>39.599998474121</ele>
        <time>2015-10-26T20:10:47Z</time>
      </trkpt>
      <trkpt lat="48.85261" lon="2.27588">
        <ele>39.599998474121</ele>
        <time>2015-10-26T20:10:52Z</time>
      </trkpt>
      <trkpt lat="48.85255" lon="2.27569">
        <ele>39</ele>
        <time>2015-10-26T20:10:56Z</time>
      </trkpt>
      <trkpt lat="48.85247" lon="2.27544">
        <ele>38.400001525879</ele>
        <time>2015-10-26T20:11:00Z</time>
      </trkpt>
      <trkpt lat="48.8524" lon="2.27526">
        <ele>38.20000076294</ele>
        <time>2015-10-26T20:11:03Z</time>
      </trkpt>
      <trkpt lat="48.8523" lon="2.27509">
        <ele>38</ele>
        <time>2015-10-26T20:11:06Z</time>
      </trkpt>
      <trkpt lat="48.85216" lon="2.27478">
        <ele>38.79999923706</ele>
        <time>2015-10-26T20:11:11Z</time>
      </trkpt>
      <trkpt lat="48.85213" lon="2.27472">
        <ele>39</ele>
        <time>2015-10-26T20:11:12Z</time>
      </trkpt>
      <trkpt lat="48.85197" lon="2.27446">
        <ele>40.20000076294</ele>
        <time>2015-10-26T20:11:17Z</time>
      </trkpt>
      <trkpt lat="48.85194" lon="2.27441">
        <ele>40.400001525879</ele>
        <time>2015-10-26T20:11:18Z</time>
      </trkpt>
      <trkpt lat="48.85182" lon="2.27413">
        <ele>42.20000076294</ele>
        <time>2015-10-26T20:11:23Z</time>
      </trkpt>
      <trkpt lat="48.8518" lon="2.27405">
        <ele>42.400001525879</ele>
        <time>2015-10-26T20:11:24Z</time>
      </trkpt>
      <trkpt lat="48.85175" lon="2.27393">
        <ele>42.599998474121</ele>
        <time>2015-10-26T20:11:26Z</time>
      </trkpt>
      <trkpt lat="48.85162" lon="2.2736">
        <ele>43.599998474121</ele>
        <time>2015-10-26T20:11:31Z</time>
      </trkpt>
      <trkpt lat="48.8515" lon="2.27333">
        <ele>44.400001525879</ele>
        <time>2015-10-26T20:11:35Z</time>
      </trkpt>
      <trkpt lat="48.8514" lon="2.27305">
        <ele>44.79999923706</ele>
        <time>2015-10-26T20:11:39Z</time>
      </trkpt>
      <trkpt lat="48.85129" lon="2.27277">
        <ele>45.400001525879</ele>
        <time>2015-10-26T20:11:43Z</time>
      </trkpt>
      <trkpt lat="48.85119" lon="2.27247">
        <ele>45.599998474121</ele>
        <time>2015-10-26T20:11:47Z</time>
      </trkpt>
      <trkpt lat="48.85108" lon="2.27218">
        <ele>44.599998474121</ele>
        <time>2015-10-26T20:11:51Z</time>
      </trkpt>
      <trkpt lat="48.85096" lon="2.27189">
        <ele>43.599998474121</ele>
        <time>2015-10-26T20:11:55Z</time>
      </trkpt>
      <trkpt lat="48.85093" lon="2.27182">
        <ele>43.400001525879</ele>
        <time>2015-10-26T20:11:56Z</time>
      </trkpt>
      <trkpt lat="48.85086" lon="2.27168">
        <ele>43</ele>
        <time>2015-10-26T20:11:58Z</time>
      </trkpt>
      <trkpt lat="48.85073" lon="2.2714">
        <ele>42.599998474121</ele>
        <time>2015-10-26T20:12:02Z</time>
      </trkpt>
      <trkpt lat="48.85066" lon="2.27127">
        <ele>42.599998474121</ele>
        <time>2015-10-26T20:12:04Z</time>
      </trkpt>
      <trkpt lat="48.85063" lon="2.2712">
        <ele>42.599998474121</ele>
        <time>2015-10-26T20:12:05Z</time>
      </trkpt>
      <trkpt lat="48.85049" lon="2.27083">
        <ele>43.20000076294</ele>
        <time>2015-10-26T20:12:10Z</time>
      </trkpt>
      <trkpt lat="48.85047" lon="2.27075">
        <ele>43.400001525879</ele>
        <time>2015-10-26T20:12:11Z</time>
      </trkpt>
      <trkpt lat="48.85036" lon="2.27046">
        <ele>43.599998474121</ele>
        <time>2015-10-26T20:12:15Z</time>
      </trkpt>
      <trkpt lat="48.85025" lon="2.27023">
        <ele>43.79999923706</ele>
        <time>2015-10-26T20:12:18Z</time>
      </trkpt>
      <trkpt lat="48.85015" lon="2.26998">
        <ele>44.20000076294</ele>
        <time>2015-10-26T20:12:21Z</time>
      </trkpt>
      <trkpt lat="48.85012" lon="2.2699">
        <ele>44.400001525879</ele>
        <time>2015-10-26T20:12:22Z</time>
      </trkpt>
      <trkpt lat="48.85001" lon="2.26958">
        <ele>45.20000076294</ele>
        <time>2015-10-26T20:12:26Z</time>
      </trkpt>
      <trkpt lat="48.84989" lon="2.26929">
        <ele>46</ele>
        <time>2015-10-26T20:12:30Z</time>
      </trkpt>
      <trkpt lat="48.84984" lon="2.26915">
        <ele>46.400001525879</ele>
        <time>2015-10-26T20:12:32Z</time>
      </trkpt>
      <trkpt lat="48.84974" lon="2.26889">
        <ele>46</ele>
        <time>2015-10-26T20:12:36Z</time>
      </trkpt>
      <trkpt lat="48.84973" lon="2.26882">
        <ele>45.79999923706</ele>
        <time>2015-10-26T20:12:37Z</time>
      </trkpt>
      <trkpt lat="48.84969" lon="2.26863">
        <ele>45.400001525879</ele>
        <time>2015-10-26T20:12:40Z</time>
      </trkpt>
      <trkpt lat="48.84966" lon="2.2685">
        <ele>45.400001525879</ele>
        <time>2015-10-26T20:12:42Z</time>
      </trkpt>
      <trkpt lat="48.84965" lon="2.26843">
        <ele>45.400001525879</ele>
        <time>2015-10-26T20:12:43Z</time>
      </trkpt>
      <trkpt lat="48.8496" lon="2.26814">
        <ele>45.79999923706</ele>
        <time>2015-10-26T20:12:47Z</time>
      </trkpt>
      <trkpt lat="48.84957" lon="2.26797">
        <ele>46.20000076294</ele>
        <time>2015-10-26T20:12:50Z</time>
      </trkpt>
      <trkpt lat="48.84948" lon="2.26767">
        <ele>46.79999923706</ele>
        <time>2015-10-26T20:12:55Z</time>
      </trkpt>
      <trkpt lat="48.84945" lon="2.26761">
        <ele>46.79999923706</ele>
        <time>2015-10-26T20:12:56Z</time>
      </trkpt>
      <trkpt lat="48.8494" lon="2.26748">
        <ele>47</ele>
        <time>2015-10-26T20:12:58Z</time>
      </trkpt>
      <trkpt lat="48.84928" lon="2.26725">
        <ele>47.599998474121</ele>
        <time>2015-10-26T20:13:02Z</time>
      </trkpt>
      <trkpt lat="48.84919" lon="2.26706">
        <ele>48</ele>
        <time>2015-10-26T20:13:05Z</time>
      </trkpt>
      <trkpt lat="48.84913" lon="2.26693">
        <ele>48.20000076294</ele>
        <time>2015-10-26T20:13:07Z</time>
      </trkpt>
      <trkpt lat="48.84902" lon="2.26667">
        <ele>48.79999923706</ele>
        <time>2015-10-26T20:13:12Z</time>
      </trkpt>
      <trkpt lat="48.84901" lon="2.26662">
        <ele>49</ele>
        <time>2015-10-26T20:13:13Z</time>
      </trkpt>
      <trkpt lat="48.84899" lon="2.26653">
        <ele>49</ele>
        <time>2015-10-26T20:13:15Z</time>
      </trkpt>
      <trkpt lat="48.84898" lon="2.2664">
        <ele>49.20000076294</ele>
        <time>2015-10-26T20:13:18Z</time>
      </trkpt>
      <trkpt lat="48.84892" lon="2.26609">
        <ele>49.79999923706</ele>
        <time>2015-10-26T20:13:24Z</time>
      </trkpt>
      <trkpt lat="48.84892" lon="2.26579">
        <ele>49.79999923706</ele>
        <time>2015-10-26T20:13:29Z</time>
      </trkpt>
      <trkpt lat="48.84891" lon="2.26547">
        <ele>50.20000076294</ele>
        <time>2015-10-26T20:13:35Z</time>
      </trkpt>
      <trkpt lat="48.8489" lon="2.26514">
        <ele>50.400001525879</ele>
        <time>2015-10-26T20:13:41Z</time>
      </trkpt>
      <trkpt lat="48.84887" lon="2.26484">
        <ele>50.400001525879</ele>
        <time>2015-10-26T20:13:46Z</time>
      </trkpt>
      <trkpt lat="48.84883" lon="2.26459">
        <ele>50.20000076294</ele>
        <time>2015-10-26T20:13:50Z</time>
      </trkpt>
      <trkpt lat="48.84882" lon="2.26453">
        <ele>50.20000076294</ele>
        <time>2015-10-26T20:13:51Z</time>
      </trkpt>
      <trkpt lat="48.84882" lon="2.26447">
        <ele>50.20000076294</ele>
        <time>2015-10-26T20:13:52Z</time>
      </trkpt>
      <trkpt lat="48.84878" lon="2.26417">
        <ele>49</ele>
        <time>2015-10-26T20:13:57Z</time>
      </trkpt>
      <trkpt lat="48.84877" lon="2.26411">
        <ele>48.79999923706</ele>
        <time>2015-10-26T20:13:58Z</time>
      </trkpt>
      <trkpt lat="48.84874" lon="2.26379">
        <ele>49</ele>
        <time>2015-10-26T20:14:03Z</time>
      </trkpt>
      <trkpt lat="48.84872" lon="2.26371">
        <ele>49.20000076294</ele>
        <time>2015-10-26T20:14:04Z</time>
      </trkpt>
      <trkpt lat="48.8487" lon="2.26364">
        <ele>49.400001525879</ele>
        <time>2015-10-26T20:14:05Z</time>
      </trkpt>
      <trkpt lat="48.8487" lon="2.26344">
        <ele>49.599998474121</ele>
        <time>2015-10-26T20:14:08Z</time>
      </trkpt>
      <trkpt lat="48.84865" lon="2.26322">
        <ele>50</ele>
        <time>2015-10-26T20:14:11Z</time>
      </trkpt>
      <trkpt lat="48.84864" lon="2.26308">
        <ele>49.599998474121</ele>
        <time>2015-10-26T20:14:13Z</time>
      </trkpt>
      <trkpt lat="48.84857" lon="2.26286">
        <ele>49.79999923706</ele>
        <time>2015-10-26T20:14:16Z</time>
      </trkpt>
      <trkpt lat="48.84852" lon="2.26264">
        <ele>49.400001525879</ele>
        <time>2015-10-26T20:14:19Z</time>
      </trkpt>
      <trkpt lat="48.84851" lon="2.26251">
        <ele>49.20000076294</ele>
        <time>2015-10-26T20:14:21Z</time>
      </trkpt>
      <trkpt lat="48.84853" lon="2.26224">
        <ele>49.400001525879</ele>
        <time>2015-10-26T20:14:25Z</time>
      </trkpt>
      <trkpt lat="48.84849" lon="2.26192">
        <ele>49.79999923706</ele>
        <time>2015-10-26T20:14:29Z</time>
      </trkpt>
      <trkpt lat="48.84848" lon="2.26162">
        <ele>50.20000076294</ele>
        <time>2015-10-26T20:14:33Z</time>
      </trkpt>
      <trkpt lat="48.84847" lon="2.26135">
        <ele>50.79999923706</ele>
        <time>2015-10-26T20:14:37Z</time>
      </trkpt>
      <trkpt lat="48.84845" lon="2.2611">
        <ele>51.400001525879</ele>
        <time>2015-10-26T20:14:41Z</time>
      </trkpt>
      <trkpt lat="48.84844" lon="2.26089">
        <ele>52</ele>
        <time>2015-10-26T20:14:45Z</time>
      </trkpt>
      <trkpt lat="48.84844" lon="2.26084">
        <ele>52</ele>
        <time>2015-10-26T20:14:46Z</time>
      </trkpt>
      <trkpt lat="48.84842" lon="2.26064">
        <ele>52</ele>
        <time>2015-10-26T20:14:52Z</time>
      </trkpt>
      <trkpt lat="48.84842" lon="2.2606">
        <ele>51.79999923706</ele>
        <time>2015-10-26T20:14:59Z</time>
      </trkpt>
      <trkpt lat="48.84846" lon="2.26053">
        <ele>51.400001525879</ele>
        <time>2015-10-26T20:15:21Z</time>
      </trkpt>
      <trkpt lat="48.84859" lon="2.26058">
        <ele>51.20000076294</ele>
        <time>2015-10-26T20:15:28Z</time>
      </trkpt>
      <trkpt lat="48.84872" lon="2.26062">
        <ele>51.599998474121</ele>
        <time>2015-10-26T20:15:34Z</time>
      </trkpt>
      <trkpt lat="48.84882" lon="2.26064">
        <ele>51.79999923706</ele>
        <time>2015-10-26T20:15:38Z</time>
      </trkpt>
      <trkpt lat="48.84884" lon="2.26066">
        <ele>51.79999923706</ele>
        <time>2015-10-26T20:15:39Z</time>
      </trkpt>
      <trkpt lat="48.84894" lon="2.26072">
        <ele>52.20000076294</ele>
        <time>2015-10-26T20:15:42Z</time>
      </trkpt>
      <trkpt lat="48.84913" lon="2.26081">
        <ele>52.599998474121</ele>
        <time>2015-10-26T20:15:46Z</time>
      </trkpt>
      <trkpt lat="48.84921" lon="2.26085">
        <ele>52.79999923706</ele>
        <time>2015-10-26T20:15:48Z</time>
      </trkpt>
      <trkpt lat="48.84932" lon="2.26092">
        <ele>52.79999923706</ele>
        <time>2015-10-26T20:15:51Z</time>
      </trkpt>
      <trkpt lat="48.84955" lon="2.26101">
        <ele>54</ele>
        <time>2015-10-26T20:15:55Z</time>
      </trkpt>
      <trkpt lat="48.8496" lon="2.26103">
        <ele>54.400001525879</ele>
        <time>2015-10-26T20:15:56Z</time>
      </trkpt>
      <trkpt lat="48.84977" lon="2.26109">
        <ele>55.79999923706</ele>
        <time>2015-10-26T20:16:01Z</time>
      </trkpt>
      <trkpt lat="48.84982" lon="2.26115">
        <ele>56</ele>
        <time>2015-10-26T20:16:04Z</time>
      </trkpt>
      <trkpt lat="48.8499" lon="2.26123">
        <ele>56.599998474121</ele>
        <time>2015-10-26T20:16:08Z</time>
      </trkpt>
      <trkpt lat="48.84992" lon="2.26125">
        <ele>56.79999923706</ele>
        <time>2015-10-26T20:16:09Z</time>
      </trkpt>
      <trkpt lat="48.85011" lon="2.26141">
        <ele>58.20000076294</ele>
        <time>2015-10-26T20:16:15Z</time>
      </trkpt>
      <trkpt lat="48.85029" lon="2.26153">
        <ele>59.400001525879</ele>
        <time>2015-10-26T20:16:19Z</time>
      </trkpt>
      <trkpt lat="48.8504" lon="2.26159">
        <ele>59.79999923706</ele>
        <time>2015-10-26T20:16:21Z</time>
      </trkpt>
      <trkpt lat="48.85048" lon="2.26164">
        <ele>60.20000076294</ele>
        <time>2015-10-26T20:16:23Z</time>
      </trkpt>
      <trkpt lat="48.85067" lon="2.26176">
        <ele>60.599998474121</ele>
        <time>2015-10-26T20:16:27Z</time>
      </trkpt>
      <trkpt lat="48.8508" lon="2.26184">
        <ele>61</ele>
        <time>2015-10-26T20:16:30Z</time>
      </trkpt>
      <trkpt lat="48.85092" lon="2.2619">
        <ele>61.400001525879</ele>
        <time>2015-10-26T20:16:33Z</time>
      </trkpt>
      <trkpt lat="48.85105" lon="2.2619">
        <ele>62</ele>
        <time>2015-10-26T20:16:37Z</time>
      </trkpt>
      <trkpt lat="48.8511" lon="2.26191">
        <ele>62</ele>
        <time>2015-10-26T20:16:38Z</time>
      </trkpt>
      <trkpt lat="48.85125" lon="2.26196">
        <ele>61.599998474121</ele>
        <time>2015-10-26T20:16:41Z</time>
      </trkpt>
      <trkpt lat="48.85146" lon="2.262">
        <ele>61.20000076294</ele>
        <time>2015-10-26T20:16:45Z</time>
      </trkpt>
      <trkpt lat="48.85173" lon="2.26206">
        <ele>60.599998474121</ele>
        <time>2015-10-26T20:16:50Z</time>
      </trkpt>
      <trkpt lat="48.85185" lon="2.2621">
        <ele>60.400001525879</ele>
        <time>2015-10-26T20:16:52Z</time>
      </trkpt>
      <trkpt lat="48.85205" lon="2.26214">
        <ele>61.20000076294</ele>
        <time>2015-10-26T20:16:57Z</time>
      </trkpt>
      <trkpt lat="48.85216" lon="2.26217">
        <ele>62</ele>
        <time>2015-10-26T20:17:00Z</time>
      </trkpt>
      <trkpt lat="48.85235" lon="2.26218">
        <ele>63.400001525879</ele>
        <time>2015-10-26T20:17:03Z</time>
      </trkpt>
      <trkpt lat="48.85259" lon="2.26223">
        <ele>64</ele>
        <time>2015-10-26T20:17:08Z</time>
      </trkpt>
      <trkpt lat="48.85264" lon="2.26225">
        <ele>64</ele>
        <time>2015-10-26T20:17:09Z</time>
      </trkpt>
      <trkpt lat="48.85273" lon="2.26227">
        <ele>63.79999923706</ele>
        <time>2015-10-26T20:17:12Z</time>
      </trkpt>
      <trkpt lat="48.8528" lon="2.26225">
        <ele>63.20000076294</ele>
        <time>2015-10-26T20:17:16Z</time>
      </trkpt>
      <trkpt lat="48.85284" lon="2.26226">
        <ele>63</ele>
        <time>2015-10-26T20:17:24Z</time>
      </trkpt>
      <trkpt lat="48.85289" lon="2.26229">
        <ele>62.79999923706</ele>
        <time>2015-10-26T20:17:30Z</time>
      </trkpt>
      <trkpt lat="48.85297" lon="2.26219">
        <ele>61.599998474121</ele>
        <time>2015-10-26T20:17:44Z</time>
      </trkpt>
      <trkpt lat="48.85298" lon="2.26217">
        <ele>61.400001525879</ele>
        <time>2015-10-26T20:17:45Z</time>
      </trkpt>
      <trkpt lat="48.85304" lon="2.26194">
        <ele>59.599998474121</ele>
        <time>2015-10-26T20:17:53Z</time>
      </trkpt>
      <trkpt lat="48.85305" lon="2.26194">
        <ele>59.400001525879</ele>
        <time>2015-10-26T20:18:00Z</time>
      </trkpt>
      <trkpt lat="48.85299" lon="2.26191">
        <ele>59.79999923706</ele>
        <time>2015-10-26T20:18:20Z</time>
      </trkpt>
      <trkpt lat="48.85296" lon="2.26184">
        <ele>59.400001525879</ele>
        <time>2015-10-26T20:18:22Z</time>
      </trkpt>
      <trkpt lat="48.85281" lon="2.26166">
        <ele>59.400001525879</ele>
        <time>2015-10-26T20:18:28Z</time>
      </trkpt>
      <trkpt lat="48.85256" lon="2.26149">
        <ele>60.400001525879</ele>
        <time>2015-10-26T20:18:34Z</time>
      </trkpt>
      <trkpt lat="48.85242" lon="2.2614">
        <ele>60.79999923706</ele>
        <time>2015-10-26T20:18:37Z</time>
      </trkpt>
      <trkpt lat="48.85219" lon="2.26129">
        <ele>61.20000076294</ele>
        <time>2015-10-26T20:18:41Z</time>
      </trkpt>
      <trkpt lat="48.85212" lon="2.26126">
        <ele>61.400001525879</ele>
        <time>2015-10-26T20:18:42Z</time>
      </trkpt>
      <trkpt lat="48.85206" lon="2.26124">
        <ele>61.599998474121</ele>
        <time>2015-10-26T20:18:43Z</time>
      </trkpt>
      <trkpt lat="48.85183" lon="2.26104">
        <ele>62.20000076294</ele>
        <time>2015-10-26T20:18:48Z</time>
      </trkpt>
      <trkpt lat="48.85178" lon="2.26101">
        <ele>62.20000076294</ele>
        <time>2015-10-26T20:18:49Z</time>
      </trkpt>
      <trkpt lat="48.85172" lon="2.26097">
        <ele>62.400001525879</ele>
        <time>2015-10-26T20:18:50Z</time>
      </trkpt>
      <trkpt lat="48.85154" lon="2.26087">
        <ele>62.79999923706</ele>
        <time>2015-10-26T20:18:53Z</time>
      </trkpt>
      <trkpt lat="48.85134" lon="2.26073">
        <ele>63.20000076294</ele>
        <time>2015-10-26T20:18:57Z</time>
      </trkpt>
      <trkpt lat="48.85114" lon="2.26061">
        <ele>63.20000076294</ele>
        <time>2015-10-26T20:19:01Z</time>
      </trkpt>
      <trkpt lat="48.85103" lon="2.26054">
        <ele>63</ele>
        <time>2015-10-26T20:19:03Z</time>
      </trkpt>
      <trkpt lat="48.85092" lon="2.26046">
        <ele>62.400001525879</ele>
        <time>2015-10-26T20:19:05Z</time>
      </trkpt>
      <trkpt lat="48.8507" lon="2.26032">
        <ele>61</ele>
        <time>2015-10-26T20:19:09Z</time>
      </trkpt>
      <trkpt lat="48.85051" lon="2.26019">
        <ele>59.79999923706</ele>
        <time>2015-10-26T20:19:13Z</time>
      </trkpt>
      <trkpt lat="48.85046" lon="2.26016">
        <ele>59.599998474121</ele>
        <time>2015-10-26T20:19:14Z</time>
      </trkpt>
      <trkpt lat="48.85024" lon="2.26003">
        <ele>58.20000076294</ele>
        <time>2015-10-26T20:19:18Z</time>
      </trkpt>
      <trkpt lat="48.85005" lon="2.25995">
        <ele>57</ele>
        <time>2015-10-26T20:19:21Z</time>
      </trkpt>
      <trkpt lat="48.84988" lon="2.25985">
        <ele>56.20000076294</ele>
        <time>2015-10-26T20:19:24Z</time>
      </trkpt>
      <trkpt lat="48.84983" lon="2.25981">
        <ele>56</ele>
        <time>2015-10-26T20:19:25Z</time>
      </trkpt>
      <trkpt lat="48.84955" lon="2.25966">
        <ele>54.599998474121</ele>
        <time>2015-10-26T20:19:30Z</time>
      </trkpt>
      <trkpt lat="48.84937" lon="2.25957">
        <ele>53.79999923706</ele>
        <time>2015-10-26T20:19:33Z</time>
      </trkpt>
      <trkpt lat="48.84919" lon="2.2595">
        <ele>52.599998474121</ele>
        <time>2015-10-26T20:19:36Z</time>
      </trkpt>
      <trkpt lat="48.84897" lon="2.25941">
        <ele>51.20000076294</ele>
        <time>2015-10-26T20:19:40Z</time>
      </trkpt>
      <trkpt lat="48.84878" lon="2.25933">
        <ele>50.20000076294</ele>
        <time>2015-10-26T20:19:44Z</time>
      </trkpt>
      <trkpt lat="48.84874" lon="2.25932">
        <ele>49.79999923706</ele>
        <time>2015-10-26T20:19:45Z</time>
      </trkpt>
      <trkpt lat="48.84852" lon="2.25917">
        <ele>49</ele>
        <time>2015-10-26T20:19:50Z</time>
      </trkpt>
      <trkpt lat="48.84848" lon="2.25914">
        <ele>49</ele>
        <time>2015-10-26T20:19:51Z</time>
      </trkpt>
      <trkpt lat="48.84837" lon="2.25903">
        <ele>48.20000076294</ele>
        <time>2015-10-26T20:19:54Z</time>
      </trkpt>
      <trkpt lat="48.84821" lon="2.25884">
        <ele>46.79999923706</ele>
        <time>2015-10-26T20:20:00Z</time>
      </trkpt>
      <trkpt lat="48.84803" lon="2.25871">
        <ele>45.599998474121</ele>
        <time>2015-10-26T20:20:06Z</time>
      </trkpt>
      <trkpt lat="48.84786" lon="2.25861">
        <ele>45</ele>
        <time>2015-10-26T20:20:12Z</time>
      </trkpt>
      <trkpt lat="48.84773" lon="2.25856">
        <ele>44.599998474121</ele>
        <time>2015-10-26T20:20:17Z</time>
      </trkpt>
      <trkpt lat="48.84758" lon="2.25848">
        <ele>44.599998474121</ele>
        <time>2015-10-26T20:20:22Z</time>
      </trkpt>
      <trkpt lat="48.84757" lon="2.25847">
        <ele>44.400001525879</ele>
        <time>2015-10-26T20:20:23Z</time>
      </trkpt>
      <trkpt lat="48.84749" lon="2.25845">
        <ele>44.599998474121</ele>
        <time>2015-10-26T20:20:28Z</time>
      </trkpt>
      <trkpt lat="48.84747" lon="2.25845">
        <ele>44.79999923706</ele>
        <time>2015-10-26T20:20:29Z</time>
      </trkpt>
      <trkpt lat="48.84745" lon="2.25844">
        <ele>44.79999923706</ele>
        <time>2015-10-26T20:20:30Z</time>
      </trkpt>
      <trkpt lat="48.84739" lon="2.25841">
        <ele>44.599998474121</ele>
        <time>2015-10-26T20:20:36Z</time>
      </trkpt>
      <trkpt lat="48.84739" lon="2.2584">
        <ele>44.599998474121</ele>
        <time>2015-10-26T20:20:37Z</time>
      </trkpt>
      <trkpt lat="48.84737" lon="2.25837">
        <ele>44.400001525879</ele>
        <time>2015-10-26T20:20:52Z</time>
      </trkpt>
      <trkpt lat="48.84732" lon="2.25836">
        <ele>44.599998474121</ele>
        <time>2015-10-26T20:20:54Z</time>
      </trkpt>
      <trkpt lat="48.84715" lon="2.25828">
        <ele>44.599998474121</ele>
        <time>2015-10-26T20:20:58Z</time>
      </trkpt>
      <trkpt lat="48.84698" lon="2.2582">
        <ele>45</ele>
        <time>2015-10-26T20:21:01Z</time>
      </trkpt>
      <trkpt lat="48.84673" lon="2.25808">
        <ele>44.400001525879</ele>
        <time>2015-10-26T20:21:05Z</time>
      </trkpt>
      <trkpt lat="48.84667" lon="2.25805">
        <ele>44.20000076294</ele>
        <time>2015-10-26T20:21:06Z</time>
      </trkpt>
      <trkpt lat="48.84647" lon="2.25796">
        <ele>43.599998474121</ele>
        <time>2015-10-26T20:21:09Z</time>
      </trkpt>
      <trkpt lat="48.84628" lon="2.25787">
        <ele>43</ele>
        <time>2015-10-26T20:21:12Z</time>
      </trkpt>
      <trkpt lat="48.84606" lon="2.25777">
        <ele>42.20000076294</ele>
        <time>2015-10-26T20:21:16Z</time>
      </trkpt>
      <trkpt lat="48.84585" lon="2.25767">
        <ele>42.20000076294</ele>
        <time>2015-10-26T20:21:20Z</time>
      </trkpt>
      <trkpt lat="48.8458" lon="2.25765">
        <ele>42.20000076294</ele>
        <time>2015-10-26T20:21:21Z</time>
      </trkpt>
      <trkpt lat="48.84561" lon="2.25756">
        <ele>42.400001525879</ele>
        <time>2015-10-26T20:21:26Z</time>
      </trkpt>
      <trkpt lat="48.84558" lon="2.25754">
        <ele>42.400001525879</ele>
        <time>2015-10-26T20:21:27Z</time>
      </trkpt>
      <trkpt lat="48.84552" lon="2.2575">
        <ele>42.20000076294</ele>
        <time>2015-10-26T20:21:29Z</time>
      </trkpt>
      <trkpt lat="48.84545" lon="2.25747">
        <ele>42.20000076294</ele>
        <time>2015-10-26T20:21:31Z</time>
      </trkpt>
      <trkpt lat="48.84539" lon="2.25745">
        <ele>42.400001525879</ele>
        <time>2015-10-26T20:21:33Z</time>
      </trkpt>
      <trkpt lat="48.84517" lon="2.25742">
        <ele>43.400001525879</ele>
        <time>2015-10-26T20:21:38Z</time>
      </trkpt>
      <trkpt lat="48.84508" lon="2.25738">
        <ele>44.20000076294</ele>
        <time>2015-10-26T20:21:40Z</time>
      </trkpt>
      <trkpt lat="48.84499" lon="2.25733">
        <ele>44.79999923706</ele>
        <time>2015-10-26T20:21:42Z</time>
      </trkpt>
      <trkpt lat="48.84485" lon="2.25728">
        <ele>46</ele>
        <time>2015-10-26T20:21:45Z</time>
      </trkpt>
      <trkpt lat="48.84467" lon="2.25721">
        <ele>47.400001525879</ele>
        <time>2015-10-26T20:21:48Z</time>
      </trkpt>
      <trkpt lat="48.84461" lon="2.25719">
        <ele>48</ele>
        <time>2015-10-26T20:21:49Z</time>
      </trkpt>
      <trkpt lat="48.84444" lon="2.25711">
        <ele>49.20000076294</ele>
        <time>2015-10-26T20:21:52Z</time>
      </trkpt>
      <trkpt lat="48.84426" lon="2.25703">
        <ele>50</ele>
        <time>2015-10-26T20:21:55Z</time>
      </trkpt>
      <trkpt lat="48.84407" lon="2.25693">
        <ele>50.20000076294</ele>
        <time>2015-10-26T20:21:58Z</time>
      </trkpt>
      <trkpt lat="48.84386" lon="2.25683">
        <ele>50.599998474121</ele>
        <time>2015-10-26T20:22:01Z</time>
      </trkpt>
      <trkpt lat="48.84365" lon="2.25675">
        <ele>51</ele>
        <time>2015-10-26T20:22:04Z</time>
      </trkpt>
      <trkpt lat="48.84343" lon="2.25664">
        <ele>50.599998474121</ele>
        <time>2015-10-26T20:22:08Z</time>
      </trkpt>
      <trkpt lat="48.8433" lon="2.25656">
        <ele>49.79999923706</ele>
        <time>2015-10-26T20:22:11Z</time>
      </trkpt>
      <trkpt lat="48.84312" lon="2.25643">
        <ele>49</ele>
        <time>2015-10-26T20:22:16Z</time>
      </trkpt>
      <trkpt lat="48.84293" lon="2.25635">
        <ele>48</ele>
        <time>2015-10-26T20:22:20Z</time>
      </trkpt>
      <trkpt lat="48.84273" lon="2.25628">
        <ele>47.20000076294</ele>
        <time>2015-10-26T20:22:23Z</time>
      </trkpt>
      <trkpt lat="48.84269" lon="2.25625">
        <ele>47</ele>
        <time>2015-10-26T20:22:24Z</time>
      </trkpt>
      <trkpt lat="48.84253" lon="2.2562">
        <ele>46</ele>
        <time>2015-10-26T20:22:26Z</time>
      </trkpt>
      <trkpt lat="48.84219" lon="2.25619">
        <ele>44.20000076294</ele>
        <time>2015-10-26T20:22:32Z</time>
      </trkpt>
      <trkpt lat="48.84192" lon="2.25625">
        <ele>42.599998474121</ele>
        <time>2015-10-26T20:22:37Z</time>
      </trkpt>
      <trkpt lat="48.84186" lon="2.25626">
        <ele>42.599998474121</ele>
        <time>2015-10-26T20:22:38Z</time>
      </trkpt>
      <trkpt lat="48.84163" lon="2.25629">
        <ele>43.20000076294</ele>
        <time>2015-10-26T20:22:42Z</time>
      </trkpt>
      <trkpt lat="48.84139" lon="2.25633">
        <ele>44.400001525879</ele>
        <time>2015-10-26T20:22:46Z</time>
      </trkpt>
      <trkpt lat="48.84121" lon="2.25633">
        <ele>45.20000076294</ele>
        <time>2015-10-26T20:22:49Z</time>
      </trkpt>
      <trkpt lat="48.84115" lon="2.25633">
        <ele>45.400001525879</ele>
        <time>2015-10-26T20:22:50Z</time>
      </trkpt>
      <trkpt lat="48.84103" lon="2.25635">
        <ele>46</ele>
        <time>2015-10-26T20:22:53Z</time>
      </trkpt>
      <trkpt lat="48.84093" lon="2.25634">
        <ele>46.20000076294</ele>
        <time>2015-10-26T20:22:55Z</time>
      </trkpt>
      <trkpt lat="48.84069" lon="2.25637">
        <ele>46.400001525879</ele>
        <time>2015-10-26T20:22:59Z</time>
      </trkpt>
      <trkpt lat="48.84062" lon="2.25637">
        <ele>46.20000076294</ele>
        <time>2015-10-26T20:23:00Z</time>
      </trkpt>
      <trkpt lat="48.84041" lon="2.25643">
        <ele>45.599998474121</ele>
        <time>2015-10-26T20:23:03Z</time>
      </trkpt>
      <trkpt lat="48.8401" lon="2.25649">
        <ele>44.79999923706</ele>
        <time>2015-10-26T20:23:07Z</time>
      </trkpt>
      <trkpt lat="48.83989" lon="2.25654">
        <ele>44.400001525879</ele>
        <time>2015-10-26T20:23:10Z</time>
      </trkpt>
      <trkpt lat="48.83983" lon="2.25656">
        <ele>44.20000076294</ele>
        <time>2015-10-26T20:23:11Z</time>
      </trkpt>
      <trkpt lat="48.83964" lon="2.25662">
        <ele>43.599998474121</ele>
        <time>2015-10-26T20:23:14Z</time>
      </trkpt>
      <trkpt lat="48.83946" lon="2.25671">
        <ele>43.20000076294</ele>
        <time>2015-10-26T20:23:17Z</time>
      </trkpt>
      <trkpt lat="48.8394" lon="2.25673">
        <ele>43.400001525879</ele>
        <time>2015-10-26T20:23:18Z</time>
      </trkpt>
      <trkpt lat="48.83927" lon="2.25678">
        <ele>43.20000076294</ele>
        <time>2015-10-26T20:23:20Z</time>
      </trkpt>
      <trkpt lat="48.83902" lon="2.25692">
        <ele>43.20000076294</ele>
        <time>2015-10-26T20:23:24Z</time>
      </trkpt>
      <trkpt lat="48.83897" lon="2.25694">
        <ele>43.20000076294</ele>
        <time>2015-10-26T20:23:25Z</time>
      </trkpt>
      <trkpt lat="48.83876" lon="2.25702">
        <ele>42</ele>
        <time>2015-10-26T20:23:29Z</time>
      </trkpt>
      <trkpt lat="48.83867" lon="2.25705">
        <ele>41.400001525879</ele>
        <time>2015-10-26T20:23:31Z</time>
      </trkpt>
      <trkpt lat="48.83848" lon="2.25698">
        <ele>40.20000076294</ele>
        <time>2015-10-26T20:23:35Z</time>
      </trkpt>
      <trkpt lat="48.83839" lon="2.25683">
        <ele>39.79999923706</ele>
        <time>2015-10-26T20:23:39Z</time>
      </trkpt>
      <trkpt lat="48.83837" lon="2.2568">
        <ele>39.599998474121</ele>
        <time>2015-10-26T20:23:40Z</time>
      </trkpt>
      <trkpt lat="48.83827" lon="2.2566">
        <ele>39.20000076294</ele>
        <time>2015-10-26T20:23:48Z</time>
      </trkpt>
      <trkpt lat="48.83827" lon="2.25659">
        <ele>39.20000076294</ele>
        <time>2015-10-26T20:23:49Z</time>
      </trkpt>
      <trkpt lat="48.83827" lon="2.25657">
        <ele>39.20000076294</ele>
        <time>2015-10-26T20:23:55Z</time>
      </trkpt>
      <trkpt lat="48.83824" lon="2.25655">
        <ele>39</ele>
        <time>2015-10-26T20:24:06Z</time>
      </trkpt>
      <trkpt lat="48.8381" lon="2.25653">
        <ele>38.20000076294</ele>
        <time>2015-10-26T20:24:10Z</time>
      </trkpt>
      <trkpt lat="48.83791" lon="2.25654">
        <ele>37</ele>
        <time>2015-10-26T20:24:14Z</time>
      </trkpt>
      <trkpt lat="48.8377" lon="2.25663">
        <ele>36</ele>
        <time>2015-10-26T20:24:18Z</time>
      </trkpt>
      <trkpt lat="48.83751" lon="2.25674">
        <ele>37</ele>
        <time>2015-10-26T20:24:22Z</time>
      </trkpt>
      <trkpt lat="48.83746" lon="2.25676">
        <ele>37.20000076294</ele>
        <time>2015-10-26T20:24:23Z</time>
      </trkpt>
      <trkpt lat="48.83722" lon="2.25668">
        <ele>37.400001525879</ele>
        <time>2015-10-26T20:24:28Z</time>
      </trkpt>
      <trkpt lat="48.83718" lon="2.25664">
        <ele>37.400001525879</ele>
        <time>2015-10-26T20:24:29Z</time>
      </trkpt>
      <trkpt lat="48.83714" lon="2.25661">
        <ele>37.400001525879</ele>
        <time>2015-10-26T20:24:30Z</time>
      </trkpt>
      <trkpt lat="48.83703" lon="2.25652">
        <ele>37.20000076294</ele>
        <time>2015-10-26T20:24:33Z</time>
      </trkpt>
      <trkpt lat="48.83691" lon="2.25639">
        <ele>37.20000076294</ele>
        <time>2015-10-26T20:24:38Z</time>
      </trkpt>
      <trkpt lat="48.8369" lon="2.25638">
        <ele>37</ele>
        <time>2015-10-26T20:24:39Z</time>
      </trkpt>
      <trkpt lat="48.83688" lon="2.25634">
        <ele>37</ele>
        <time>2015-10-26T20:24:45Z</time>
      </trkpt>
      <trkpt lat="48.8369" lon="2.25634">
        <ele>37</ele>
        <time>2015-10-26T20:25:09Z</time>
      </trkpt>
      <trkpt lat="48.83696" lon="2.25648">
        <ele>37.400001525879</ele>
        <time>2015-10-26T20:25:14Z</time>
      </trkpt>
      <trkpt lat="48.83702" lon="2.25658">
        <ele>37.599998474121</ele>
        <time>2015-10-26T20:25:18Z</time>
      </trkpt>
      <trkpt lat="48.83706" lon="2.25662">
        <ele>37.599998474121</ele>
        <time>2015-10-26T20:25:22Z</time>
      </trkpt>
      <trkpt lat="48.83708" lon="2.25663">
        <ele>37.599998474121</ele>
        <time>2015-10-26T20:25:26Z</time>
      </trkpt>
      <trkpt lat="48.83716" lon="2.25671">
        <ele>37.599998474121</ele>
        <time>2015-10-26T20:25:30Z</time>
      </trkpt>
      <trkpt lat="48.83718" lon="2.25674">
        <ele>37.599998474121</ele>
        <time>2015-10-26T20:25:31Z</time>
      </trkpt>
      <trkpt lat="48.83735" lon="2.25688">
        <ele>37.79999923706</ele>
        <time>2015-10-26T20:25:36Z</time>
      </trkpt>
      <trkpt lat="48.83743" lon="2.25703">
        <ele>38.20000076294</ele>
        <time>2015-10-26T20:25:39Z</time>
      </trkpt>
      <trkpt lat="48.83749" lon="2.25719">
        <ele>38.599998474121</ele>
        <time>2015-10-26T20:25:42Z</time>
      </trkpt>
      <trkpt lat="48.83761" lon="2.25748">
        <ele>39.79999923706</ele>
        <time>2015-10-26T20:25:47Z</time>
      </trkpt>
      <trkpt lat="48.83763" lon="2.25761">
        <ele>40.599998474121</ele>
        <time>2015-10-26T20:25:49Z</time>
      </trkpt>
      <trkpt lat="48.83762" lon="2.25767">
        <ele>40.79999923706</ele>
        <time>2015-10-26T20:25:50Z</time>
      </trkpt>
      <trkpt lat="48.8376" lon="2.25778">
        <ele>41.599998474121</ele>
        <time>2015-10-26T20:25:52Z</time>
      </trkpt>
      <trkpt lat="48.83757" lon="2.25795">
        <ele>42.79999923706</ele>
        <time>2015-10-26T20:25:55Z</time>
      </trkpt>
      <trkpt lat="48.83751" lon="2.25827">
        <ele>44</ele>
        <time>2015-10-26T20:26:00Z</time>
      </trkpt>
      <trkpt lat="48.83746" lon="2.25849">
        <ele>44.20000076294</ele>
        <time>2015-10-26T20:26:03Z</time>
      </trkpt>
      <trkpt lat="48.83745" lon="2.25876">
        <ele>44.599998474121</ele>
        <time>2015-10-26T20:26:07Z</time>
      </trkpt>
      <trkpt lat="48.83739" lon="2.25908">
        <ele>44</ele>
        <time>2015-10-26T20:26:11Z</time>
      </trkpt>
      <trkpt lat="48.83737" lon="2.25915">
        <ele>43.79999923706</ele>
        <time>2015-10-26T20:26:12Z</time>
      </trkpt>
      <trkpt lat="48.83732" lon="2.25945">
        <ele>44.400001525879</ele>
        <time>2015-10-26T20:26:16Z</time>
      </trkpt>
      <trkpt lat="48.83726" lon="2.25973">
        <ele>44</ele>
        <time>2015-10-26T20:26:20Z</time>
      </trkpt>
      <trkpt lat="48.83721" lon="2.25993">
        <ele>43.400001525879</ele>
        <time>2015-10-26T20:26:23Z</time>
      </trkpt>
      <trkpt lat="48.83716" lon="2.2602">
        <ele>42.599998474121</ele>
        <time>2015-10-26T20:26:27Z</time>
      </trkpt>
      <trkpt lat="48.83717" lon="2.26034">
        <ele>42.599998474121</ele>
        <time>2015-10-26T20:26:29Z</time>
      </trkpt>
      <trkpt lat="48.83715" lon="2.26072">
        <ele>42.599998474121</ele>
        <time>2015-10-26T20:26:34Z</time>
      </trkpt>
      <trkpt lat="48.83715" lon="2.26079">
        <ele>42.599998474121</ele>
        <time>2015-10-26T20:26:35Z</time>
      </trkpt>
      <trkpt lat="48.83714" lon="2.26088">
        <ele>42.20000076294</ele>
        <time>2015-10-26T20:26:36Z</time>
      </trkpt>
      <trkpt lat="48.83708" lon="2.26118">
        <ele>42.20000076294</ele>
        <time>2015-10-26T20:26:40Z</time>
      </trkpt>
      <trkpt lat="48.83702" lon="2.26147">
        <ele>42.79999923706</ele>
        <time>2015-10-26T20:26:44Z</time>
      </trkpt>
      <trkpt lat="48.837" lon="2.26161">
        <ele>43.20000076294</ele>
        <time>2015-10-26T20:26:46Z</time>
      </trkpt>
      <trkpt lat="48.837" lon="2.26175">
        <ele>43.20000076294</ele>
        <time>2015-10-26T20:26:48Z</time>
      </trkpt>
      <trkpt lat="48.83697" lon="2.26195">
        <ele>44.20000076294</ele>
        <time>2015-10-26T20:26:51Z</time>
      </trkpt>
      <trkpt lat="48.83691" lon="2.26234">
        <ele>46.400001525879</ele>
        <time>2015-10-26T20:26:57Z</time>
      </trkpt>
      <trkpt lat="48.83688" lon="2.26252">
        <ele>46.400001525879</ele>
        <time>2015-10-26T20:27:00Z</time>
      </trkpt>
      <trkpt lat="48.83685" lon="2.26271">
        <ele>44.599998474121</ele>
        <time>2015-10-26T20:27:03Z</time>
      </trkpt>
      <trkpt lat="48.8368" lon="2.2629">
        <ele>42.400001525879</ele>
        <time>2015-10-26T20:27:06Z</time>
      </trkpt>
      <trkpt lat="48.83677" lon="2.26317">
        <ele>39.79999923706</ele>
        <time>2015-10-26T20:27:10Z</time>
      </trkpt>
      <trkpt lat="48.83674" lon="2.26343">
        <ele>37</ele>
        <time>2015-10-26T20:27:14Z</time>
      </trkpt>
      <trkpt lat="48.83669" lon="2.26376">
        <ele>33</ele>
        <time>2015-10-26T20:27:19Z</time>
      </trkpt>
      <trkpt lat="48.83669" lon="2.26382">
        <ele>32.400001525879</ele>
        <time>2015-10-26T20:27:20Z</time>
      </trkpt>
      <trkpt lat="48.83671" lon="2.26398">
        <ele>31.200000762939</ele>
        <time>2015-10-26T20:27:24Z</time>
      </trkpt>
      <trkpt lat="48.83672" lon="2.26402">
        <ele>31.200000762939</ele>
        <time>2015-10-26T20:27:26Z</time>
      </trkpt>
      <trkpt lat="48.83672" lon="2.26405">
        <ele>31.200000762939</ele>
        <time>2015-10-26T20:27:28Z</time>
      </trkpt>
      <trkpt lat="48.83671" lon="2.26408">
        <ele>31.200000762939</ele>
        <time>2015-10-26T20:27:37Z</time>
      </trkpt>
      <trkpt lat="48.83677" lon="2.26416">
        <ele>30.799999237061</ele>
        <time>2015-10-26T20:27:42Z</time>
      </trkpt>
      <trkpt lat="48.83688" lon="2.26428">
        <ele>30</ele>
        <time>2015-10-26T20:27:47Z</time>
      </trkpt>
      <trkpt lat="48.83702" lon="2.26446">
        <ele>29</ele>
        <time>2015-10-26T20:27:52Z</time>
      </trkpt>
      <trkpt lat="48.83714" lon="2.26468">
        <ele>27.799999237061</ele>
        <time>2015-10-26T20:27:57Z</time>
      </trkpt>
      <trkpt lat="48.83732" lon="2.26486">
        <ele>27.200000762939</ele>
        <time>2015-10-26T20:28:02Z</time>
      </trkpt>
      <trkpt lat="48.83739" lon="2.26492">
        <ele>27</ele>
        <time>2015-10-26T20:28:04Z</time>
      </trkpt>
      <trkpt lat="48.83745" lon="2.26498">
        <ele>27</ele>
        <time>2015-10-26T20:28:06Z</time>
      </trkpt>
      <trkpt lat="48.83759" lon="2.26511">
        <ele>27.60000038147</ele>
        <time>2015-10-26T20:28:10Z</time>
      </trkpt>
      <trkpt lat="48.83767" lon="2.26519">
        <ele>27.799999237061</ele>
        <time>2015-10-26T20:28:12Z</time>
      </trkpt>
      <trkpt lat="48.83779" lon="2.26532">
        <ele>28</ele>
        <time>2015-10-26T20:28:15Z</time>
      </trkpt>
      <trkpt lat="48.83795" lon="2.26549">
        <ele>28.200000762939</ele>
        <time>2015-10-26T20:28:19Z</time>
      </trkpt>
      <trkpt lat="48.83811" lon="2.26568">
        <ele>28.39999961853</ele>
        <time>2015-10-26T20:28:23Z</time>
      </trkpt>
      <trkpt lat="48.83829" lon="2.26585">
        <ele>28.60000038147</ele>
        <time>2015-10-26T20:28:27Z</time>
      </trkpt>
      <trkpt lat="48.83861" lon="2.26621">
        <ele>29.39999961853</ele>
        <time>2015-10-26T20:28:35Z</time>
      </trkpt>
      <trkpt lat="48.83865" lon="2.26626">
        <ele>30</ele>
        <time>2015-10-26T20:28:36Z</time>
      </trkpt>
      <trkpt lat="48.8387" lon="2.2663">
        <ele>30.799999237061</ele>
        <time>2015-10-26T20:28:37Z</time>
      </trkpt>
      <trkpt lat="48.8388" lon="2.26642">
        <ele>32.400001525879</ele>
        <time>2015-10-26T20:28:40Z</time>
      </trkpt>
      <trkpt lat="48.83893" lon="2.26658">
        <ele>34.400001525879</ele>
        <time>2015-10-26T20:28:44Z</time>
      </trkpt>
      <trkpt lat="48.839" lon="2.26665">
        <ele>35.400001525879</ele>
        <time>2015-10-26T20:28:46Z</time>
      </trkpt>
      <trkpt lat="48.83911" lon="2.26676">
        <ele>36.400001525879</ele>
        <time>2015-10-26T20:28:50Z</time>
      </trkpt>
      <trkpt lat="48.83918" lon="2.26683">
        <ele>37</ele>
        <time>2015-10-26T20:28:52Z</time>
      </trkpt>
      <trkpt lat="48.83937" lon="2.26696">
        <ele>39.20000076294</ele>
        <time>2015-10-26T20:28:58Z</time>
      </trkpt>
      <trkpt lat="48.83943" lon="2.26703">
        <ele>39.400001525879</ele>
        <time>2015-10-26T20:29:01Z</time>
      </trkpt>
      <trkpt lat="48.83951" lon="2.26712">
        <ele>39.20000076294</ele>
        <time>2015-10-26T20:29:06Z</time>
      </trkpt>
      <trkpt lat="48.83959" lon="2.2671">
        <ele>39.79999923706</ele>
        <time>2015-10-26T20:29:09Z</time>
      </trkpt>
      <trkpt lat="48.83968" lon="2.26699">
        <ele>41.20000076294</ele>
        <time>2015-10-26T20:29:15Z</time>
      </trkpt>
      <trkpt lat="48.83969" lon="2.26697">
        <ele>41.400001525879</ele>
        <time>2015-10-26T20:29:16Z</time>
      </trkpt>
      <trkpt lat="48.83974" lon="2.26692">
        <ele>41.79999923706</ele>
        <time>2015-10-26T20:29:20Z</time>
      </trkpt>
      <trkpt lat="48.83975" lon="2.26691">
        <ele>41.79999923706</ele>
        <time>2015-10-26T20:29:21Z</time>
      </trkpt>
      <trkpt lat="48.83979" lon="2.26688">
        <ele>41.79999923706</ele>
        <time>2015-10-26T20:29:27Z</time>
      </trkpt>
      <trkpt lat="48.83981" lon="2.26689">
        <ele>41.79999923706</ele>
        <time>2015-10-26T20:29:31Z</time>
      </trkpt>
      <trkpt lat="48.83983" lon="2.26692">
        <ele>41.79999923706</ele>
        <time>2015-10-26T20:29:36Z</time>
      </trkpt>
      <trkpt lat="48.83981" lon="2.26693">
        <ele>41.79999923706</ele>
        <time>2015-10-26T20:29:43Z</time>
      </trkpt>
      <trkpt lat="48.83979" lon="2.26693">
        <ele>41.79999923706</ele>
        <time>2015-10-26T20:29:48Z</time>
      </trkpt>
      <trkpt lat="48.83978" lon="2.26697">
        <ele>41.599998474121</ele>
        <time>2015-10-26T20:29:59Z</time>
      </trkpt>
      <trkpt lat="48.83976" lon="2.267">
        <ele>41.599998474121</ele>
        <time>2015-10-26T20:30:05Z</time>
      </trkpt>
      <trkpt lat="48.83975" lon="2.26702">
        <ele>41.400001525879</ele>
        <time>2015-10-26T20:30:08Z</time>
      </trkpt>
      <trkpt lat="48.83973" lon="2.26709">
        <ele>40.79999923706</ele>
        <time>2015-10-26T20:30:13Z</time>
      </trkpt>
      <trkpt lat="48.83972" lon="2.26712">
        <ele>40.400001525879</ele>
        <time>2015-10-26T20:30:21Z</time>
      </trkpt>
      <trkpt lat="48.83972" lon="2.26713">
        <ele>40.400001525879</ele>
        <time>2015-10-26T20:30:22Z</time>
      </trkpt>
      <trkpt lat="48.83965" lon="2.26737">
        <ele>38.20000076294</ele>
        <time>2015-10-26T20:30:30Z</time>
      </trkpt>
      <trkpt lat="48.83957" lon="2.26758">
        <ele>36.20000076294</ele>
        <time>2015-10-26T20:30:36Z</time>
      </trkpt>
      <trkpt lat="48.83948" lon="2.26776">
        <ele>34.400001525879</ele>
        <time>2015-10-26T20:30:41Z</time>
      </trkpt>
      <trkpt lat="48.83939" lon="2.26797">
        <ele>32.400001525879</ele>
        <time>2015-10-26T20:30:46Z</time>
      </trkpt>
      <trkpt lat="48.83932" lon="2.26813">
        <ele>30.799999237061</ele>
        <time>2015-10-26T20:30:50Z</time>
      </trkpt>
      <trkpt lat="48.83921" lon="2.26837">
        <ele>29</ele>
        <time>2015-10-26T20:30:55Z</time>
      </trkpt>
      <trkpt lat="48.8391" lon="2.26863">
        <ele>27.799999237061</ele>
        <time>2015-10-26T20:31:00Z</time>
      </trkpt>
      <trkpt lat="48.83899" lon="2.26889">
        <ele>27.39999961853</ele>
        <time>2015-10-26T20:31:05Z</time>
      </trkpt>
      <trkpt lat="48.83888" lon="2.26914">
        <ele>28.39999961853</ele>
        <time>2015-10-26T20:31:10Z</time>
      </trkpt>
      <trkpt lat="48.83879" lon="2.26932">
        <ele>30</ele>
        <time>2015-10-26T20:31:15Z</time>
      </trkpt>
      <trkpt lat="48.83875" lon="2.26942">
        <ele>31.200000762939</ele>
        <time>2015-10-26T20:31:20Z</time>
      </trkpt>
      <trkpt lat="48.83875" lon="2.26947">
        <ele>31.60000038147</ele>
        <time>2015-10-26T20:31:22Z</time>
      </trkpt>
      <trkpt lat="48.83876" lon="2.26958">
        <ele>32.599998474121</ele>
        <time>2015-10-26T20:31:31Z</time>
      </trkpt>
      <trkpt lat="48.83877" lon="2.26963">
        <ele>33</ele>
        <time>2015-10-26T20:31:35Z</time>
      </trkpt>
      <trkpt lat="48.83878" lon="2.26965">
        <ele>33.20000076294</ele>
        <time>2015-10-26T20:31:36Z</time>
      </trkpt>
      <trkpt lat="48.83879" lon="2.26985">
        <ele>35.20000076294</ele>
        <time>2015-10-26T20:31:43Z</time>
      </trkpt>
      <trkpt lat="48.83881" lon="2.26994">
        <ele>35.79999923706</ele>
        <time>2015-10-26T20:31:46Z</time>
      </trkpt>
      <trkpt lat="48.83901" lon="2.2701">
        <ele>37.20000076294</ele>
        <time>2015-10-26T20:31:53Z</time>
      </trkpt>
      <trkpt lat="48.83919" lon="2.27022">
        <ele>38.20000076294</ele>
        <time>2015-10-26T20:31:57Z</time>
      </trkpt>
      <trkpt lat="48.83938" lon="2.27036">
        <ele>39.20000076294</ele>
        <time>2015-10-26T20:32:01Z</time>
      </trkpt>
      <trkpt lat="48.83956" lon="2.27053">
        <ele>39.400001525879</ele>
        <time>2015-10-26T20:32:06Z</time>
      </trkpt>
      <trkpt lat="48.83974" lon="2.27069">
        <ele>39.400001525879</ele>
        <time>2015-10-26T20:32:11Z</time>
      </trkpt>
      <trkpt lat="48.83993" lon="2.27085">
        <ele>38.400001525879</ele>
        <time>2015-10-26T20:32:16Z</time>
      </trkpt>
      <trkpt lat="48.84005" lon="2.27095">
        <ele>36.599998474121</ele>
        <time>2015-10-26T20:32:19Z</time>
      </trkpt>
      <trkpt lat="48.84014" lon="2.27104">
        <ele>35.400001525879</ele>
        <time>2015-10-26T20:32:21Z</time>
      </trkpt>
      <trkpt lat="48.84024" lon="2.27121">
        <ele>34</ele>
        <time>2015-10-26T20:32:24Z</time>
      </trkpt>
      <trkpt lat="48.84028" lon="2.27136">
        <ele>33.400001525879</ele>
        <time>2015-10-26T20:32:26Z</time>
      </trkpt>
      <trkpt lat="48.84022" lon="2.27154">
        <ele>33.20000076294</ele>
        <time>2015-10-26T20:32:29Z</time>
      </trkpt>
      <trkpt lat="48.84019" lon="2.27168">
        <ele>33.599998474121</ele>
        <time>2015-10-26T20:32:32Z</time>
      </trkpt>
      <trkpt lat="48.84015" lon="2.27183">
        <ele>34.20000076294</ele>
        <time>2015-10-26T20:32:38Z</time>
      </trkpt>
      <trkpt lat="48.84019" lon="2.27188">
        <ele>34</ele>
        <time>2015-10-26T20:32:44Z</time>
      </trkpt>
      <trkpt lat="48.8402" lon="2.2719">
        <ele>34</ele>
        <time>2015-10-26T20:32:50Z</time>
      </trkpt>
      <trkpt lat="48.8402" lon="2.27192">
        <ele>33.79999923706</ele>
        <time>2015-10-26T20:32:56Z</time>
      </trkpt>
      <trkpt lat="48.84018" lon="2.27196">
        <ele>34.20000076294</ele>
        <time>2015-10-26T20:33:26Z</time>
      </trkpt>
      <trkpt lat="48.84019" lon="2.27195">
        <ele>34.20000076294</ele>
        <time>2015-10-26T20:33:32Z</time>
      </trkpt>
      <trkpt lat="48.84019" lon="2.27196">
        <ele>34.20000076294</ele>
        <time>2015-10-26T20:33:39Z</time>
      </trkpt>
      <trkpt lat="48.84022" lon="2.27201">
        <ele>34</ele>
        <time>2015-10-26T20:33:43Z</time>
      </trkpt>
      <trkpt lat="48.84037" lon="2.27216">
        <ele>34.400001525879</ele>
        <time>2015-10-26T20:33:48Z</time>
      </trkpt>
      <trkpt lat="48.84057" lon="2.27234">
        <ele>35.20000076294</ele>
        <time>2015-10-26T20:33:52Z</time>
      </trkpt>
      <trkpt lat="48.84441" lon="2.2757">
        <ele>40.20000076294</ele>
        <time>2015-10-26T20:34:45Z</time>
      </trkpt>
      <trkpt lat="48.84459" lon="2.27584">
        <ele>39</ele>
        <time>2015-10-26T20:34:50Z</time>
      </trkpt>
      <trkpt lat="48.84462" lon="2.27587">
        <ele>38.599998474121</ele>
        <time>2015-10-26T20:34:51Z</time>
      </trkpt>
      <trkpt lat="48.84474" lon="2.27597">
        <ele>37.599998474121</ele>
        <time>2015-10-26T20:34:56Z</time>
      </trkpt>
      <trkpt lat="48.84485" lon="2.27606">
        <ele>36.599998474121</ele>
        <time>2015-10-26T20:35:02Z</time>
      </trkpt>
      <trkpt lat="48.84496" lon="2.27615">
        <ele>35.79999923706</ele>
        <time>2015-10-26T20:35:07Z</time>
      </trkpt>
      <trkpt lat="48.84507" lon="2.2763">
        <ele>34.79999923706</ele>
        <time>2015-10-26T20:35:13Z</time>
      </trkpt>
      <trkpt lat="48.84514" lon="2.27645">
        <ele>34.400001525879</ele>
        <time>2015-10-26T20:35:18Z</time>
      </trkpt>
      <trkpt lat="48.84517" lon="2.27662">
        <ele>34.400001525879</ele>
        <time>2015-10-26T20:35:23Z</time>
      </trkpt>
      <trkpt lat="48.84522" lon="2.27676">
        <ele>35</ele>
        <time>2015-10-26T20:35:28Z</time>
      </trkpt>
      <trkpt lat="48.84525" lon="2.27689">
        <ele>35.79999923706</ele>
        <time>2015-10-26T20:35:33Z</time>
      </trkpt>
      <trkpt lat="48.84526" lon="2.27691">
        <ele>36</ele>
        <time>2015-10-26T20:35:34Z</time>
      </trkpt>
      <trkpt lat="48.84526" lon="2.27694">
        <ele>36.20000076294</ele>
        <time>2015-10-26T20:36:15Z</time>
      </trkpt>
      <trkpt lat="48.84525" lon="2.27695">
        <ele>36.20000076294</ele>
        <time>2015-10-26T20:36:18Z</time>
      </trkpt>
      <trkpt lat="48.84519" lon="2.27702">
        <ele>37</ele>
        <time>2015-10-26T20:36:22Z</time>
      </trkpt>
      <trkpt lat="48.84515" lon="2.27712">
        <ele>38</ele>
        <time>2015-10-26T20:36:27Z</time>
      </trkpt>
      <trkpt lat="48.84513" lon="2.27717">
        <ele>38.400001525879</ele>
        <time>2015-10-26T20:36:29Z</time>
      </trkpt>
      <trkpt lat="48.84505" lon="2.27739">
        <ele>39.599998474121</ele>
        <time>2015-10-26T20:36:35Z</time>
      </trkpt>
      <trkpt lat="48.84498" lon="2.27756">
        <ele>39.599998474121</ele>
        <time>2015-10-26T20:36:39Z</time>
      </trkpt>
      <trkpt lat="48.84486" lon="2.27772">
        <ele>39.400001525879</ele>
        <time>2015-10-26T20:36:43Z</time>
      </trkpt>
      <trkpt lat="48.84477" lon="2.27794">
        <ele>39.20000076294</ele>
        <time>2015-10-26T20:36:47Z</time>
      </trkpt>
      <trkpt lat="48.84475" lon="2.27799">
        <ele>39</ele>
        <time>2015-10-26T20:36:48Z</time>
      </trkpt>
      <trkpt lat="48.84469" lon="2.27807">
        <ele>38.79999923706</ele>
        <time>2015-10-26T20:36:50Z</time>
      </trkpt>
      <trkpt lat="48.84459" lon="2.27827">
        <ele>38</ele>
        <time>2015-10-26T20:36:54Z</time>
      </trkpt>
      <trkpt lat="48.84446" lon="2.27856">
        <ele>37.599998474121</ele>
        <time>2015-10-26T20:36:59Z</time>
      </trkpt>
      <trkpt lat="48.84443" lon="2.27862">
        <ele>37.599998474121</ele>
        <time>2015-10-26T20:37:00Z</time>
      </trkpt>
      <trkpt lat="48.84439" lon="2.27874">
        <ele>37.599998474121</ele>
        <time>2015-10-26T20:37:02Z</time>
      </trkpt>
      <trkpt lat="48.84423" lon="2.27907">
        <ele>37.400001525879</ele>
        <time>2015-10-26T20:37:08Z</time>
      </trkpt>
      <trkpt lat="48.84415" lon="2.27926">
        <ele>37</ele>
        <time>2015-10-26T20:37:12Z</time>
      </trkpt>
      <trkpt lat="48.84412" lon="2.27931">
        <ele>37</ele>
        <time>2015-10-26T20:37:13Z</time>
      </trkpt>
      <trkpt lat="48.84403" lon="2.27943">
        <ele>36.599998474121</ele>
        <time>2015-10-26T20:37:17Z</time>
      </trkpt>
      <trkpt lat="48.84394" lon="2.27963">
        <ele>36.79999923706</ele>
        <time>2015-10-26T20:37:21Z</time>
      </trkpt>
      <trkpt lat="48.84381" lon="2.27988">
        <ele>37.400001525879</ele>
        <time>2015-10-26T20:37:26Z</time>
      </trkpt>
      <trkpt lat="48.84377" lon="2.27995">
        <ele>37.400001525879</ele>
        <time>2015-10-26T20:37:27Z</time>
      </trkpt>
      <trkpt lat="48.84364" lon="2.28022">
        <ele>37.599998474121</ele>
        <time>2015-10-26T20:37:32Z</time>
      </trkpt>
      <trkpt lat="48.84361" lon="2.28027">
        <ele>37.79999923706</ele>
        <time>2015-10-26T20:37:33Z</time>
      </trkpt>
      <trkpt lat="48.84354" lon="2.28043">
        <ele>38.20000076294</ele>
        <time>2015-10-26T20:37:36Z</time>
      </trkpt>
      <trkpt lat="48.84348" lon="2.28052">
        <ele>38.599998474121</ele>
        <time>2015-10-26T20:37:38Z</time>
      </trkpt>
      <trkpt lat="48.84346" lon="2.28063">
        <ele>38.79999923706</ele>
        <time>2015-10-26T20:37:40Z</time>
      </trkpt>
      <trkpt lat="48.84341" lon="2.28074">
        <ele>39</ele>
        <time>2015-10-26T20:37:42Z</time>
      </trkpt>
      <trkpt lat="48.84334" lon="2.28089">
        <ele>39</ele>
        <time>2015-10-26T20:37:45Z</time>
      </trkpt>
      <trkpt lat="48.84325" lon="2.28102">
        <ele>39</ele>
        <time>2015-10-26T20:37:49Z</time>
      </trkpt>
      <trkpt lat="48.84315" lon="2.28128">
        <ele>39</ele>
        <time>2015-10-26T20:37:54Z</time>
      </trkpt>
      <trkpt lat="48.84308" lon="2.28147">
        <ele>38.599998474121</ele>
        <time>2015-10-26T20:37:58Z</time>
      </trkpt>
      <trkpt lat="48.843" lon="2.28172">
        <ele>38.20000076294</ele>
        <time>2015-10-26T20:38:03Z</time>
      </trkpt>
      <trkpt lat="48.84291" lon="2.28196">
        <ele>37.79999923706</ele>
        <time>2015-10-26T20:38:09Z</time>
      </trkpt>
      <trkpt lat="48.84288" lon="2.28205">
        <ele>37.599998474121</ele>
        <time>2015-10-26T20:38:12Z</time>
      </trkpt>
      <trkpt lat="48.84291" lon="2.28213">
        <ele>37.599998474121</ele>
        <time>2015-10-26T20:38:16Z</time>
      </trkpt>
      <trkpt lat="48.84295" lon="2.28221">
        <ele>37.599998474121</ele>
        <time>2015-10-26T20:38:18Z</time>
      </trkpt>
      <trkpt lat="48.84307" lon="2.28234">
        <ele>37.599998474121</ele>
        <time>2015-10-26T20:38:23Z</time>
      </trkpt>
      <trkpt lat="48.8432" lon="2.28252">
        <ele>37.400001525879</ele>
        <time>2015-10-26T20:38:28Z</time>
      </trkpt>
      <trkpt lat="48.84335" lon="2.28269">
        <ele>37.20000076294</ele>
        <time>2015-10-26T20:38:33Z</time>
      </trkpt>
      <trkpt lat="48.84338" lon="2.28272">
        <ele>37.20000076294</ele>
        <time>2015-10-26T20:38:34Z</time>
      </trkpt>
      <trkpt lat="48.84338" lon="2.28289">
        <ele>36.79999923706</ele>
        <time>2015-10-26T20:38:38Z</time>
      </trkpt>
      <trkpt lat="48.84323" lon="2.28319">
        <ele>35.599998474121</ele>
        <time>2015-10-26T20:38:44Z</time>
      </trkpt>
      <trkpt lat="48.84313" lon="2.2834">
        <ele>35</ele>
        <time>2015-10-26T20:38:48Z</time>
      </trkpt>
      <trkpt lat="48.8431" lon="2.28344">
        <ele>35</ele>
        <time>2015-10-26T20:38:49Z</time>
      </trkpt>
      <trkpt lat="48.84301" lon="2.28366">
        <ele>35.20000076294</ele>
        <time>2015-10-26T20:38:53Z</time>
      </trkpt>
      <trkpt lat="48.84286" lon="2.28394">
        <ele>36.400001525879</ele>
        <time>2015-10-26T20:38:58Z</time>
      </trkpt>
      <trkpt lat="48.84282" lon="2.284">
        <ele>36.599998474121</ele>
        <time>2015-10-26T20:38:59Z</time>
      </trkpt>
      <trkpt lat="48.84271" lon="2.28426">
        <ele>37.20000076294</ele>
        <time>2015-10-26T20:39:03Z</time>
      </trkpt>
      <trkpt lat="48.84257" lon="2.28455">
        <ele>37.20000076294</ele>
        <time>2015-10-26T20:39:07Z</time>
      </trkpt>
      <trkpt lat="48.84253" lon="2.28463">
        <ele>37.20000076294</ele>
        <time>2015-10-26T20:39:08Z</time>
      </trkpt>
      <trkpt lat="48.84247" lon="2.28477">
        <ele>37.400001525879</ele>
        <time>2015-10-26T20:39:10Z</time>
      </trkpt>
      <trkpt lat="48.84236" lon="2.28497">
        <ele>38.20000076294</ele>
        <time>2015-10-26T20:39:13Z</time>
      </trkpt>
      <trkpt lat="48.84227" lon="2.28513">
        <ele>38.20000076294</ele>
        <time>2015-10-26T20:39:16Z</time>
      </trkpt>
      <trkpt lat="48.84218" lon="2.28537">
        <ele>38.400001525879</ele>
        <time>2015-10-26T20:39:21Z</time>
      </trkpt>
      <trkpt lat="48.84217" lon="2.28543">
        <ele>38.400001525879</ele>
        <time>2015-10-26T20:39:22Z</time>
      </trkpt>
      <trkpt lat="48.84206" lon="2.2857">
        <ele>39</ele>
        <time>2015-10-26T20:39:27Z</time>
      </trkpt>
      <trkpt lat="48.84203" lon="2.28576">
        <ele>39</ele>
        <time>2015-10-26T20:39:28Z</time>
      </trkpt>
      <trkpt lat="48.84193" lon="2.28595">
        <ele>39</ele>
        <time>2015-10-26T20:39:31Z</time>
      </trkpt>
      <trkpt lat="48.84178" lon="2.28626">
        <ele>38</ele>
        <time>2015-10-26T20:39:36Z</time>
      </trkpt>
      <trkpt lat="48.84174" lon="2.28633">
        <ele>37.79999923706</ele>
        <time>2015-10-26T20:39:37Z</time>
      </trkpt>
      <trkpt lat="48.84168" lon="2.28647">
        <ele>37.599998474121</ele>
        <time>2015-10-26T20:39:39Z</time>
      </trkpt>
      <trkpt lat="48.84153" lon="2.28681">
        <ele>38.79999923706</ele>
        <time>2015-10-26T20:39:44Z</time>
      </trkpt>
      <trkpt lat="48.84146" lon="2.28701">
        <ele>39.400001525879</ele>
        <time>2015-10-26T20:39:47Z</time>
      </trkpt>
      <trkpt lat="48.84131" lon="2.2873">
        <ele>41.20000076294</ele>
        <time>2015-10-26T20:39:52Z</time>
      </trkpt>
      <trkpt lat="48.84124" lon="2.28739">
        <ele>42</ele>
        <time>2015-10-26T20:39:54Z</time>
      </trkpt>
      <trkpt lat="48.84117" lon="2.28751">
        <ele>42.599998474121</ele>
        <time>2015-10-26T20:39:56Z</time>
      </trkpt>
      <trkpt lat="48.84112" lon="2.28771">
        <ele>43.20000076294</ele>
        <time>2015-10-26T20:39:59Z</time>
      </trkpt>
      <trkpt lat="48.84105" lon="2.28797">
        <ele>43.599998474121</ele>
        <time>2015-10-26T20:40:03Z</time>
      </trkpt>
      <trkpt lat="48.84096" lon="2.28812">
        <ele>43.400001525879</ele>
        <time>2015-10-26T20:40:05Z</time>
      </trkpt>
      <trkpt lat="48.84089" lon="2.28827">
        <ele>43.20000076294</ele>
        <time>2015-10-26T20:40:07Z</time>
      </trkpt>
      <trkpt lat="48.84082" lon="2.28843">
        <ele>42.599998474121</ele>
        <time>2015-10-26T20:40:09Z</time>
      </trkpt>
      <trkpt lat="48.84074" lon="2.28858">
        <ele>41.79999923706</ele>
        <time>2015-10-26T20:40:11Z</time>
      </trkpt>
      <trkpt lat="48.8406" lon="2.2889">
        <ele>40.599998474121</ele>
        <time>2015-10-26T20:40:15Z</time>
      </trkpt>
      <trkpt lat="48.84049" lon="2.28914">
        <ele>40</ele>
        <time>2015-10-26T20:40:18Z</time>
      </trkpt>
      <trkpt lat="48.84039" lon="2.28937">
        <ele>38.79999923706</ele>
        <time>2015-10-26T20:40:21Z</time>
      </trkpt>
      <trkpt lat="48.84026" lon="2.28964">
        <ele>38.400001525879</ele>
        <time>2015-10-26T20:40:25Z</time>
      </trkpt>
      <trkpt lat="48.84017" lon="2.28984">
        <ele>38</ele>
        <time>2015-10-26T20:40:28Z</time>
      </trkpt>
      <trkpt lat="48.84006" lon="2.29001">
        <ele>38.599998474121</ele>
        <time>2015-10-26T20:40:32Z</time>
      </trkpt>
      <trkpt lat="48.83995" lon="2.29032">
        <ele>38.400001525879</ele>
        <time>2015-10-26T20:40:37Z</time>
      </trkpt>
      <trkpt lat="48.83985" lon="2.29048">
        <ele>38.400001525879</ele>
        <time>2015-10-26T20:40:40Z</time>
      </trkpt>
      <trkpt lat="48.83977" lon="2.29063">
        <ele>38.20000076294</ele>
        <time>2015-10-26T20:40:43Z</time>
      </trkpt>
      <trkpt lat="48.83971" lon="2.29072">
        <ele>38.20000076294</ele>
        <time>2015-10-26T20:40:45Z</time>
      </trkpt>
      <trkpt lat="48.83959" lon="2.29096">
        <ele>39</ele>
        <time>2015-10-26T20:40:49Z</time>
      </trkpt>
      <trkpt lat="48.83956" lon="2.29102">
        <ele>39.20000076294</ele>
        <time>2015-10-26T20:40:50Z</time>
      </trkpt>
      <trkpt lat="48.8395" lon="2.29113">
        <ele>39.400001525879</ele>
        <time>2015-10-26T20:40:52Z</time>
      </trkpt>
      <trkpt lat="48.83944" lon="2.29126">
        <ele>39.599998474121</ele>
        <time>2015-10-26T20:40:54Z</time>
      </trkpt>
      <trkpt lat="48.83933" lon="2.29155">
        <ele>40</ele>
        <time>2015-10-26T20:40:59Z</time>
      </trkpt>
      <trkpt lat="48.8393" lon="2.29163">
        <ele>40.20000076294</ele>
        <time>2015-10-26T20:41:01Z</time>
      </trkpt>
      <trkpt lat="48.8392" lon="2.29193">
        <ele>41.20000076294</ele>
        <time>2015-10-26T20:41:07Z</time>
      </trkpt>
      <trkpt lat="48.83914" lon="2.29212">
        <ele>42</ele>
        <time>2015-10-26T20:41:11Z</time>
      </trkpt>
      <trkpt lat="48.83908" lon="2.29232">
        <ele>42.400001525879</ele>
        <time>2015-10-26T20:41:15Z</time>
      </trkpt>
      <trkpt lat="48.83898" lon="2.29256">
        <ele>42.20000076294</ele>
        <time>2015-10-26T20:41:19Z</time>
      </trkpt>
      <trkpt lat="48.83892" lon="2.29268">
        <ele>42</ele>
        <time>2015-10-26T20:41:21Z</time>
      </trkpt>
      <trkpt lat="48.8388" lon="2.29292">
        <ele>42.20000076294</ele>
        <time>2015-10-26T20:41:25Z</time>
      </trkpt>
      <trkpt lat="48.83862" lon="2.29325">
        <ele>43.599998474121</ele>
        <time>2015-10-26T20:41:31Z</time>
      </trkpt>
      <trkpt lat="48.83852" lon="2.29343">
        <ele>43.599998474121</ele>
        <time>2015-10-26T20:41:34Z</time>
      </trkpt>
      <trkpt lat="48.83846" lon="2.29356">
        <ele>43</ele>
        <time>2015-10-26T20:41:36Z</time>
      </trkpt>
      <trkpt lat="48.8384" lon="2.29369">
        <ele>42.400001525879</ele>
        <time>2015-10-26T20:41:38Z</time>
      </trkpt>
      <trkpt lat="48.83834" lon="2.2938">
        <ele>41.79999923706</ele>
        <time>2015-10-26T20:41:40Z</time>
      </trkpt>
      <trkpt lat="48.83831" lon="2.29387">
        <ele>41.400001525879</ele>
        <time>2015-10-26T20:41:41Z</time>
      </trkpt>
      <trkpt lat="48.83816" lon="2.29423">
        <ele>41.599998474121</ele>
        <time>2015-10-26T20:41:46Z</time>
      </trkpt>
      <trkpt lat="48.83813" lon="2.2943">
        <ele>41.400001525879</ele>
        <time>2015-10-26T20:41:47Z</time>
      </trkpt>
      <trkpt lat="48.83804" lon="2.29455">
        <ele>41.400001525879</ele>
        <time>2015-10-26T20:41:51Z</time>
      </trkpt>
      <trkpt lat="48.83793" lon="2.2948">
        <ele>41.20000076294</ele>
        <time>2015-10-26T20:41:55Z</time>
      </trkpt>
      <trkpt lat="48.83789" lon="2.29487">
        <ele>41.20000076294</ele>
        <time>2015-10-26T20:41:56Z</time>
      </trkpt>
      <trkpt lat="48.83776" lon="2.29516">
        <ele>41.20000076294</ele>
        <time>2015-10-26T20:42:00Z</time>
      </trkpt>
      <trkpt lat="48.8377" lon="2.29528">
        <ele>41.599998474121</ele>
        <time>2015-10-26T20:42:02Z</time>
      </trkpt>
      <trkpt lat="48.83763" lon="2.29545">
        <ele>42.599998474121</ele>
        <time>2015-10-26T20:42:05Z</time>
      </trkpt>
      <trkpt lat="48.83753" lon="2.29563">
        <ele>43.79999923706</ele>
        <time>2015-10-26T20:42:09Z</time>
      </trkpt>
      <trkpt lat="48.8375" lon="2.29568">
        <ele>43.599998474121</ele>
        <time>2015-10-26T20:42:10Z</time>
      </trkpt>
      <trkpt lat="48.83747" lon="2.29572">
        <ele>43.599998474121</ele>
        <time>2015-10-26T20:42:11Z</time>
      </trkpt>
      <trkpt lat="48.83734" lon="2.29603">
        <ele>44.400001525879</ele>
        <time>2015-10-26T20:42:17Z</time>
      </trkpt>
      <trkpt lat="48.83731" lon="2.29617">
        <ele>44.79999923706</ele>
        <time>2015-10-26T20:42:20Z</time>
      </trkpt>
      <trkpt lat="48.83728" lon="2.29628">
        <ele>45</ele>
        <time>2015-10-26T20:42:23Z</time>
      </trkpt>
      <trkpt lat="48.83725" lon="2.29649">
        <ele>44.79999923706</ele>
        <time>2015-10-26T20:42:27Z</time>
      </trkpt>
      <trkpt lat="48.83724" lon="2.29654">
        <ele>44.599998474121</ele>
        <time>2015-10-26T20:42:28Z</time>
      </trkpt>
      <trkpt lat="48.8372" lon="2.29668">
        <ele>44.79999923706</ele>
        <time>2015-10-26T20:42:31Z</time>
      </trkpt>
      <trkpt lat="48.83714" lon="2.29699">
        <ele>46</ele>
        <time>2015-10-26T20:42:37Z</time>
      </trkpt>
      <trkpt lat="48.83712" lon="2.29704">
        <ele>46.20000076294</ele>
        <time>2015-10-26T20:42:38Z</time>
      </trkpt>
      <trkpt lat="48.83702" lon="2.29728">
        <ele>47.20000076294</ele>
        <time>2015-10-26T20:42:42Z</time>
      </trkpt>
      <trkpt lat="48.83696" lon="2.29747">
        <ele>48</ele>
        <time>2015-10-26T20:42:46Z</time>
      </trkpt>
      <trkpt lat="48.83694" lon="2.29752">
        <ele>48.20000076294</ele>
        <time>2015-10-26T20:42:47Z</time>
      </trkpt>
      <trkpt lat="48.8369" lon="2.2977">
        <ele>48.20000076294</ele>
        <time>2015-10-26T20:42:51Z</time>
      </trkpt>
      <trkpt lat="48.83687" lon="2.29791">
        <ele>48.400001525879</ele>
        <time>2015-10-26T20:42:55Z</time>
      </trkpt>
      <trkpt lat="48.83678" lon="2.29818">
        <ele>48.599998474121</ele>
        <time>2015-10-26T20:43:00Z</time>
      </trkpt>
      <trkpt lat="48.8367" lon="2.29836">
        <ele>48.599998474121</ele>
        <time>2015-10-26T20:43:03Z</time>
      </trkpt>
      <trkpt lat="48.83663" lon="2.29854">
        <ele>48.400001525879</ele>
        <time>2015-10-26T20:43:06Z</time>
      </trkpt>
      <trkpt lat="48.83659" lon="2.29866">
        <ele>48.20000076294</ele>
        <time>2015-10-26T20:43:08Z</time>
      </trkpt>
      <trkpt lat="48.83653" lon="2.29882">
        <ele>48.400001525879</ele>
        <time>2015-10-26T20:43:10Z</time>
      </trkpt>
      <trkpt lat="48.83648" lon="2.29903">
        <ele>49.400001525879</ele>
        <time>2015-10-26T20:43:13Z</time>
      </trkpt>
      <trkpt lat="48.83639" lon="2.29927">
        <ele>50.79999923706</ele>
        <time>2015-10-26T20:43:17Z</time>
      </trkpt>
      <trkpt lat="48.8363" lon="2.29952">
        <ele>51.79999923706</ele>
        <time>2015-10-26T20:43:21Z</time>
      </trkpt>
      <trkpt lat="48.83628" lon="2.29959">
        <ele>52</ele>
        <time>2015-10-26T20:43:22Z</time>
      </trkpt>
      <trkpt lat="48.83622" lon="2.29979">
        <ele>53</ele>
        <time>2015-10-26T20:43:25Z</time>
      </trkpt>
      <trkpt lat="48.83615" lon="2.30004">
        <ele>53.79999923706</ele>
        <time>2015-10-26T20:43:29Z</time>
      </trkpt>
      <trkpt lat="48.83612" lon="2.30018">
        <ele>53.79999923706</ele>
        <time>2015-10-26T20:43:31Z</time>
      </trkpt>
      <trkpt lat="48.83606" lon="2.30041">
        <ele>54</ele>
        <time>2015-10-26T20:43:34Z</time>
      </trkpt>
      <trkpt lat="48.83599" lon="2.30078">
        <ele>54</ele>
        <time>2015-10-26T20:43:39Z</time>
      </trkpt>
      <trkpt lat="48.83597" lon="2.30085">
        <ele>54</ele>
        <time>2015-10-26T20:43:40Z</time>
      </trkpt>
      <trkpt lat="48.83587" lon="2.30115">
        <ele>54</ele>
        <time>2015-10-26T20:43:44Z</time>
      </trkpt>
      <trkpt lat="48.83579" lon="2.30137">
        <ele>54</ele>
        <time>2015-10-26T20:43:47Z</time>
      </trkpt>
      <trkpt lat="48.8357" lon="2.30171">
        <ele>52.20000076294</ele>
        <time>2015-10-26T20:43:52Z</time>
      </trkpt>
      <trkpt lat="48.83568" lon="2.30176">
        <ele>52.20000076294</ele>
        <time>2015-10-26T20:43:53Z</time>
      </trkpt>
      <trkpt lat="48.83563" lon="2.30192">
        <ele>52</ele>
        <time>2015-10-26T20:43:56Z</time>
      </trkpt>
      <trkpt lat="48.83554" lon="2.3022">
        <ele>53</ele>
        <time>2015-10-26T20:44:02Z</time>
      </trkpt>
      <trkpt lat="48.83552" lon="2.30224">
        <ele>53.20000076294</ele>
        <time>2015-10-26T20:44:03Z</time>
      </trkpt>
      <trkpt lat="48.83545" lon="2.30244">
        <ele>54.599998474121</ele>
        <time>2015-10-26T20:44:08Z</time>
      </trkpt>
      <trkpt lat="48.83543" lon="2.30255">
        <ele>55</ele>
        <time>2015-10-26T20:44:12Z</time>
      </trkpt>
      <trkpt lat="48.83539" lon="2.30263">
        <ele>55.400001525879</ele>
        <time>2015-10-26T20:44:18Z</time>
      </trkpt>
      <trkpt lat="48.83537" lon="2.30262">
        <ele>55.400001525879</ele>
        <time>2015-10-26T20:44:43Z</time>
      </trkpt>
      <trkpt lat="48.83536" lon="2.30278">
        <ele>56.20000076294</ele>
        <time>2015-10-26T20:44:49Z</time>
      </trkpt>
      <trkpt lat="48.83531" lon="2.303">
        <ele>57.400001525879</ele>
        <time>2015-10-26T20:44:53Z</time>
      </trkpt>
      <trkpt lat="48.83527" lon="2.30314">
        <ele>58.20000076294</ele>
        <time>2015-10-26T20:44:56Z</time>
      </trkpt>
      <trkpt lat="48.83521" lon="2.30336">
        <ele>58.599998474121</ele>
        <time>2015-10-26T20:45:00Z</time>
      </trkpt>
      <trkpt lat="48.83517" lon="2.30355">
        <ele>57.79999923706</ele>
        <time>2015-10-26T20:45:03Z</time>
      </trkpt>
      <trkpt lat="48.83509" lon="2.30375">
        <ele>56.599998474121</ele>
        <time>2015-10-26T20:45:06Z</time>
      </trkpt>
      <trkpt lat="48.83496" lon="2.30412">
        <ele>56</ele>
        <time>2015-10-26T20:45:11Z</time>
      </trkpt>
      <trkpt lat="48.83487" lon="2.30442">
        <ele>56.599998474121</ele>
        <time>2015-10-26T20:45:15Z</time>
      </trkpt>
      <trkpt lat="48.83483" lon="2.30456">
        <ele>57</ele>
        <time>2015-10-26T20:45:17Z</time>
      </trkpt>
      <trkpt lat="48.83479" lon="2.30471">
        <ele>57.20000076294</ele>
        <time>2015-10-26T20:45:19Z</time>
      </trkpt>
      <trkpt lat="48.83471" lon="2.30501">
        <ele>57.400001525879</ele>
        <time>2015-10-26T20:45:23Z</time>
      </trkpt>
      <trkpt lat="48.8347" lon="2.30508">
        <ele>57.20000076294</ele>
        <time>2015-10-26T20:45:24Z</time>
      </trkpt>
      <trkpt lat="48.83464" lon="2.30533">
        <ele>57</ele>
        <time>2015-10-26T20:45:28Z</time>
      </trkpt>
      <trkpt lat="48.83456" lon="2.30559">
        <ele>57</ele>
        <time>2015-10-26T20:45:32Z</time>
      </trkpt>
      <trkpt lat="48.83453" lon="2.30572">
        <ele>57</ele>
        <time>2015-10-26T20:45:34Z</time>
      </trkpt>
      <trkpt lat="48.8345" lon="2.30579">
        <ele>57</ele>
        <time>2015-10-26T20:45:35Z</time>
      </trkpt>
      <trkpt lat="48.83444" lon="2.306">
        <ele>57.20000076294</ele>
        <time>2015-10-26T20:45:38Z</time>
      </trkpt>
      <trkpt lat="48.83442" lon="2.30606">
        <ele>57.20000076294</ele>
        <time>2015-10-26T20:45:39Z</time>
      </trkpt>
      <trkpt lat="48.83437" lon="2.30619">
        <ele>57.599998474121</ele>
        <time>2015-10-26T20:45:41Z</time>
      </trkpt>
      <trkpt lat="48.83431" lon="2.30645">
        <ele>58</ele>
        <time>2015-10-26T20:45:45Z</time>
      </trkpt>
      <trkpt lat="48.8343" lon="2.30651">
        <ele>58.20000076294</ele>
        <time>2015-10-26T20:45:46Z</time>
      </trkpt>
      <trkpt lat="48.83427" lon="2.30659">
        <ele>58.599998474121</ele>
        <time>2015-10-26T20:45:47Z</time>
      </trkpt>
      <trkpt lat="48.83422" lon="2.30677">
        <ele>59.79999923706</ele>
        <time>2015-10-26T20:45:50Z</time>
      </trkpt>
      <trkpt lat="48.83412" lon="2.30709">
        <ele>62.400001525879</ele>
        <time>2015-10-26T20:45:55Z</time>
      </trkpt>
      <trkpt lat="48.8341" lon="2.30714">
        <ele>62.79999923706</ele>
        <time>2015-10-26T20:45:56Z</time>
      </trkpt>
      <trkpt lat="48.83403" lon="2.30738">
        <ele>63</ele>
        <time>2015-10-26T20:46:00Z</time>
      </trkpt>
      <trkpt lat="48.83402" lon="2.30742">
        <ele>63</ele>
        <time>2015-10-26T20:46:01Z</time>
      </trkpt>
      <trkpt lat="48.834" lon="2.30747">
        <ele>63</ele>
        <time>2015-10-26T20:46:02Z</time>
      </trkpt>
      <trkpt lat="48.83395" lon="2.30763">
        <ele>63.20000076294</ele>
        <time>2015-10-26T20:46:06Z</time>
      </trkpt>
      <trkpt lat="48.83393" lon="2.30777">
        <ele>63.400001525879</ele>
        <time>2015-10-26T20:46:09Z</time>
      </trkpt>
      <trkpt lat="48.83388" lon="2.30805">
        <ele>63</ele>
        <time>2015-10-26T20:46:15Z</time>
      </trkpt>
      <trkpt lat="48.8338" lon="2.30822">
        <ele>62.599998474121</ele>
        <time>2015-10-26T20:46:18Z</time>
      </trkpt>
      <trkpt lat="48.83371" lon="2.30846">
        <ele>62.599998474121</ele>
        <time>2015-10-26T20:46:22Z</time>
      </trkpt>
      <trkpt lat="48.83368" lon="2.30861">
        <ele>61.79999923706</ele>
        <time>2015-10-26T20:46:25Z</time>
      </trkpt>
      <trkpt lat="48.83366" lon="2.30873">
        <ele>61.20000076294</ele>
        <time>2015-10-26T20:46:27Z</time>
      </trkpt>
      <trkpt lat="48.83361" lon="2.30898">
        <ele>60</ele>
        <time>2015-10-26T20:46:32Z</time>
      </trkpt>
      <trkpt lat="48.83357" lon="2.30916">
        <ele>59.20000076294</ele>
        <time>2015-10-26T20:46:36Z</time>
      </trkpt>
      <trkpt lat="48.83354" lon="2.30929">
        <ele>59</ele>
        <time>2015-10-26T20:46:39Z</time>
      </trkpt>
      <trkpt lat="48.83345" lon="2.30958">
        <ele>59.20000076294</ele>
        <time>2015-10-26T20:46:44Z</time>
      </trkpt>
      <trkpt lat="48.83337" lon="2.30984">
        <ele>59.20000076294</ele>
        <time>2015-10-26T20:46:48Z</time>
      </trkpt>
      <trkpt lat="48.83336" lon="2.30989">
        <ele>59</ele>
        <time>2015-10-26T20:46:49Z</time>
      </trkpt>
      <trkpt lat="48.83328" lon="2.31006">
        <ele>59.400001525879</ele>
        <time>2015-10-26T20:46:52Z</time>
      </trkpt>
      <trkpt lat="48.83323" lon="2.3103">
        <ele>60.20000076294</ele>
        <time>2015-10-26T20:46:56Z</time>
      </trkpt>
      <trkpt lat="48.83322" lon="2.31035">
        <ele>60.400001525879</ele>
        <time>2015-10-26T20:46:57Z</time>
      </trkpt>
      <trkpt lat="48.83326" lon="2.31055">
        <ele>61</ele>
        <time>2015-10-26T20:47:03Z</time>
      </trkpt>
      <trkpt lat="48.83323" lon="2.31059">
        <ele>60.79999923706</ele>
        <time>2015-10-26T20:47:04Z</time>
      </trkpt>
      <trkpt lat="48.8332" lon="2.31068">
        <ele>60.400001525879</ele>
        <time>2015-10-26T20:47:05Z</time>
      </trkpt>
      <trkpt lat="48.83308" lon="2.31087">
        <ele>59.79999923706</ele>
        <time>2015-10-26T20:47:07Z</time>
      </trkpt>
      <trkpt lat="48.83297" lon="2.3111">
        <ele>60</ele>
        <time>2015-10-26T20:47:10Z</time>
      </trkpt>
      <trkpt lat="48.83283" lon="2.3114">
        <ele>61.20000076294</ele>
        <time>2015-10-26T20:47:15Z</time>
      </trkpt>
      <trkpt lat="48.83277" lon="2.31161">
        <ele>62</ele>
        <time>2015-10-26T20:47:19Z</time>
      </trkpt>
      <trkpt lat="48.83272" lon="2.3117">
        <ele>62</ele>
        <time>2015-10-26T20:47:21Z</time>
      </trkpt>
      <trkpt lat="48.83267" lon="2.31179">
        <ele>62.599998474121</ele>
        <time>2015-10-26T20:47:23Z</time>
      </trkpt>
      <trkpt lat="48.8326" lon="2.31192">
        <ele>63.599998474121</ele>
        <time>2015-10-26T20:47:26Z</time>
      </trkpt>
      <trkpt lat="48.83255" lon="2.31207">
        <ele>64.199996948242</ele>
        <time>2015-10-26T20:47:29Z</time>
      </trkpt>
      <trkpt lat="48.8325" lon="2.31231">
        <ele>64.599998474121</ele>
        <time>2015-10-26T20:47:33Z</time>
      </trkpt>
      <trkpt lat="48.83243" lon="2.31249">
        <ele>64.199996948242</ele>
        <time>2015-10-26T20:47:36Z</time>
      </trkpt>
      <trkpt lat="48.83235" lon="2.31273">
        <ele>66</ele>
        <time>2015-10-26T20:47:40Z</time>
      </trkpt>
      <trkpt lat="48.83231" lon="2.31285">
        <ele>66.800003051758</ele>
        <time>2015-10-26T20:47:42Z</time>
      </trkpt>
      <trkpt lat="48.83225" lon="2.31297">
        <ele>67.199996948242</ele>
        <time>2015-10-26T20:47:44Z</time>
      </trkpt>
      <trkpt lat="48.83215" lon="2.31314">
        <ele>67.599998474121</ele>
        <time>2015-10-26T20:47:47Z</time>
      </trkpt>
      <trkpt lat="48.83205" lon="2.31332">
        <ele>68</ele>
        <time>2015-10-26T20:47:50Z</time>
      </trkpt>
      <trkpt lat="48.83197" lon="2.31342">
        <ele>68.199996948242</ele>
        <time>2015-10-26T20:47:52Z</time>
      </trkpt>
      <trkpt lat="48.83188" lon="2.31367">
        <ele>68</ele>
        <time>2015-10-26T20:47:56Z</time>
      </trkpt>
      <trkpt lat="48.83187" lon="2.31374">
        <ele>68</ele>
        <time>2015-10-26T20:47:57Z</time>
      </trkpt>
      <trkpt lat="48.83183" lon="2.31391">
        <ele>68</ele>
        <time>2015-10-26T20:48:00Z</time>
      </trkpt>
      <trkpt lat="48.83184" lon="2.31412">
        <ele>68</ele>
        <time>2015-10-26T20:48:04Z</time>
      </trkpt>
      <trkpt lat="48.83186" lon="2.31417">
        <ele>68</ele>
        <time>2015-10-26T20:48:05Z</time>
      </trkpt>
      <trkpt lat="48.83198" lon="2.31433">
        <ele>67.800003051758</ele>
        <time>2015-10-26T20:48:09Z</time>
      </trkpt>
      <trkpt lat="48.83214" lon="2.31453">
        <ele>67.599998474121</ele>
        <time>2015-10-26T20:48:14Z</time>
      </trkpt>
      <trkpt lat="48.83217" lon="2.31457">
        <ele>67.599998474121</ele>
        <time>2015-10-26T20:48:15Z</time>
      </trkpt>
      <trkpt lat="48.8323" lon="2.31478">
        <ele>67.599998474121</ele>
        <time>2015-10-26T20:48:19Z</time>
      </trkpt>
      <trkpt lat="48.83235" lon="2.31487">
        <ele>67.400001525879</ele>
        <time>2015-10-26T20:48:21Z</time>
      </trkpt>
      <trkpt lat="48.83241" lon="2.31496">
        <ele>67.400001525879</ele>
        <time>2015-10-26T20:48:23Z</time>
      </trkpt>
      <trkpt lat="48.83246" lon="2.31504">
        <ele>67.400001525879</ele>
        <time>2015-10-26T20:48:25Z</time>
      </trkpt>
      <trkpt lat="48.8325" lon="2.31515">
        <ele>67.400001525879</ele>
        <time>2015-10-26T20:48:27Z</time>
      </trkpt>
      <trkpt lat="48.83262" lon="2.31532">
        <ele>67.599998474121</ele>
        <time>2015-10-26T20:48:31Z</time>
      </trkpt>
      <trkpt lat="48.83271" lon="2.31556">
        <ele>67.800003051758</ele>
        <time>2015-10-26T20:48:35Z</time>
      </trkpt>
      <trkpt lat="48.83275" lon="2.31566">
        <ele>67.800003051758</ele>
        <time>2015-10-26T20:48:37Z</time>
      </trkpt>
      <trkpt lat="48.83289" lon="2.31591">
        <ele>68.400001525879</ele>
        <time>2015-10-26T20:48:42Z</time>
      </trkpt>
      <trkpt lat="48.83303" lon="2.3161">
        <ele>68.800003051758</ele>
        <time>2015-10-26T20:48:46Z</time>
      </trkpt>
      <trkpt lat="48.83308" lon="2.31614">
        <ele>68.800003051758</ele>
        <time>2015-10-26T20:48:47Z</time>
      </trkpt>
      <trkpt lat="48.83311" lon="2.31618">
        <ele>69</ele>
        <time>2015-10-26T20:48:48Z</time>
      </trkpt>
      <trkpt lat="48.83324" lon="2.31638">
        <ele>69.199996948242</ele>
        <time>2015-10-26T20:48:52Z</time>
      </trkpt>
      <trkpt lat="48.83326" lon="2.31644">
        <ele>69.199996948242</ele>
        <time>2015-10-26T20:48:53Z</time>
      </trkpt>
      <trkpt lat="48.83331" lon="2.31655">
        <ele>69.199996948242</ele>
        <time>2015-10-26T20:48:55Z</time>
      </trkpt>
      <trkpt lat="48.83348" lon="2.31682">
        <ele>69.800003051758</ele>
        <time>2015-10-26T20:49:00Z</time>
      </trkpt>
      <trkpt lat="48.8335" lon="2.31687">
        <ele>69.800003051758</ele>
        <time>2015-10-26T20:49:01Z</time>
      </trkpt>
      <trkpt lat="48.83352" lon="2.31693">
        <ele>69.800003051758</ele>
        <time>2015-10-26T20:49:02Z</time>
      </trkpt>
      <trkpt lat="48.83361" lon="2.3172">
        <ele>69.800003051758</ele>
        <time>2015-10-26T20:49:06Z</time>
      </trkpt>
      <trkpt lat="48.83364" lon="2.31727">
        <ele>69.800003051758</ele>
        <time>2015-10-26T20:49:07Z</time>
      </trkpt>
      <trkpt lat="48.83368" lon="2.31734">
        <ele>69.599998474121</ele>
        <time>2015-10-26T20:49:08Z</time>
      </trkpt>
      <trkpt lat="48.83378" lon="2.31753">
        <ele>69.599998474121</ele>
        <time>2015-10-26T20:49:11Z</time>
      </trkpt>
      <trkpt lat="48.83381" lon="2.3176">
        <ele>69.599998474121</ele>
        <time>2015-10-26T20:49:12Z</time>
      </trkpt>
      <trkpt lat="48.83391" lon="2.31787">
        <ele>69.599998474121</ele>
        <time>2015-10-26T20:49:16Z</time>
      </trkpt>
      <trkpt lat="48.83395" lon="2.31792">
        <ele>69.599998474121</ele>
        <time>2015-10-26T20:49:17Z</time>
      </trkpt>
      <trkpt lat="48.83399" lon="2.31798">
        <ele>69.599998474121</ele>
        <time>2015-10-26T20:49:18Z</time>
      </trkpt>
      <trkpt lat="48.83411" lon="2.31823">
        <ele>69.599998474121</ele>
        <time>2015-10-26T20:49:22Z</time>
      </trkpt>
      <trkpt lat="48.83415" lon="2.31829">
        <ele>69.599998474121</ele>
        <time>2015-10-26T20:49:23Z</time>
      </trkpt>
      <trkpt lat="48.83425" lon="2.3185">
        <ele>69.199996948242</ele>
        <time>2015-10-26T20:49:26Z</time>
      </trkpt>
      <trkpt lat="48.83442" lon="2.31884">
        <ele>68.599998474121</ele>
        <time>2015-10-26T20:49:31Z</time>
      </trkpt>
      <trkpt lat="48.83446" lon="2.3189">
        <ele>68.599998474121</ele>
        <time>2015-10-26T20:49:32Z</time>
      </trkpt>
      <trkpt lat="48.83458" lon="2.31912">
        <ele>69</ele>
        <time>2015-10-26T20:49:35Z</time>
      </trkpt>
      <trkpt lat="48.83462" lon="2.31918">
        <ele>69</ele>
        <time>2015-10-26T20:49:36Z</time>
      </trkpt>
      <trkpt lat="48.83475" lon="2.31939">
        <ele>68.800003051758</ele>
        <time>2015-10-26T20:49:39Z</time>
      </trkpt>
      <trkpt lat="48.83479" lon="2.31948">
        <ele>68.599998474121</ele>
        <time>2015-10-26T20:49:40Z</time>
      </trkpt>
      <trkpt lat="48.83483" lon="2.31954">
        <ele>68.599998474121</ele>
        <time>2015-10-26T20:49:41Z</time>
      </trkpt>
      <trkpt lat="48.83496" lon="2.31983">
        <ele>68.599998474121</ele>
        <time>2015-10-26T20:49:45Z</time>
      </trkpt>
      <trkpt lat="48.83499" lon="2.31989">
        <ele>68.599998474121</ele>
        <time>2015-10-26T20:49:46Z</time>
      </trkpt>
      <trkpt lat="48.8351" lon="2.32011">
        <ele>69</ele>
        <time>2015-10-26T20:49:50Z</time>
      </trkpt>
      <trkpt lat="48.83516" lon="2.32019">
        <ele>69.400001525879</ele>
        <time>2015-10-26T20:49:52Z</time>
      </trkpt>
      <trkpt lat="48.83526" lon="2.32034">
        <ele>70</ele>
        <time>2015-10-26T20:49:56Z</time>
      </trkpt>
      <trkpt lat="48.83537" lon="2.32058">
        <ele>71.199996948242</ele>
        <time>2015-10-26T20:50:02Z</time>
      </trkpt>
      <trkpt lat="48.83543" lon="2.32079">
        <ele>72</ele>
        <time>2015-10-26T20:50:26Z</time>
      </trkpt>
      <trkpt lat="48.83541" lon="2.32085">
        <ele>71.800003051758</ele>
        <time>2015-10-26T20:50:40Z</time>
      </trkpt>
      <trkpt lat="48.83539" lon="2.32086">
        <ele>71.800003051758</ele>
        <time>2015-10-26T20:50:51Z</time>
      </trkpt>
      <trkpt lat="48.83535" lon="2.32089">
        <ele>71.599998474121</ele>
        <time>2015-10-26T20:51:13Z</time>
      </trkpt>
      <trkpt lat="48.83536" lon="2.3209">
        <ele>71.599998474121</ele>
        <time>2015-10-26T20:51:17Z</time>
      </trkpt>
      <trkpt lat="48.83534" lon="2.32095">
        <ele>71.599998474121</ele>
        <time>2015-10-26T20:51:23Z</time>
      </trkpt>
      <trkpt lat="48.83536" lon="2.32092">
        <ele>71.599998474121</ele>
        <time>2015-10-26T20:51:35Z</time>
      </trkpt>
      <trkpt lat="48.83538" lon="2.32089">
        <ele>71.800003051758</ele>
        <time>2015-10-26T20:51:37Z</time>
      </trkpt>
      <trkpt lat="48.83543" lon="2.32086">
        <ele>72</ele>
        <time>2015-10-26T20:51:42Z</time>
      </trkpt>
      <trkpt lat="48.83544" lon="2.32086">
        <ele>72</ele>
        <time>2015-10-26T20:51:43Z</time>
      </trkpt>
      <trkpt lat="48.83548" lon="2.32093">
        <ele>72.199996948242</ele>
        <time>2015-10-26T20:51:48Z</time>
      </trkpt>
      <trkpt lat="48.83555" lon="2.32102">
        <ele>72.599998474121</ele>
        <time>2015-10-26T20:51:53Z</time>
      </trkpt>
      <trkpt lat="48.83557" lon="2.32104">
        <ele>72.599998474121</ele>
        <time>2015-10-26T20:51:54Z</time>
      </trkpt>
      <trkpt lat="48.83566" lon="2.3212">
        <ele>73</ele>
        <time>2015-10-26T20:52:01Z</time>
      </trkpt>
      <trkpt lat="48.83575" lon="2.32125">
        <ele>73.599998474121</ele>
        <time>2015-10-26T20:52:05Z</time>
      </trkpt>
      <trkpt lat="48.83577" lon="2.32128">
        <ele>73.599998474121</ele>
        <time>2015-10-26T20:52:06Z</time>
      </trkpt>
      <trkpt lat="48.83585" lon="2.3214">
        <ele>74</ele>
        <time>2015-10-26T20:52:11Z</time>
      </trkpt>
      <trkpt lat="48.83597" lon="2.32158">
        <ele>74.599998474121</ele>
        <time>2015-10-26T20:52:18Z</time>
      </trkpt>
      <trkpt lat="48.836" lon="2.32164">
        <ele>74.800003051758</ele>
        <time>2015-10-26T20:52:20Z</time>
      </trkpt>
      <trkpt lat="48.83611" lon="2.32174">
        <ele>74.599998474121</ele>
        <time>2015-10-26T20:52:24Z</time>
      </trkpt>
      <trkpt lat="48.83621" lon="2.32195">
        <ele>74</ele>
        <time>2015-10-26T20:52:29Z</time>
      </trkpt>
      <trkpt lat="48.83641" lon="2.32207">
        <ele>73.800003051758</ele>
        <time>2015-10-26T20:52:34Z</time>
      </trkpt>
      <trkpt lat="48.83645" lon="2.3221">
        <ele>73.800003051758</ele>
        <time>2015-10-26T20:52:35Z</time>
      </trkpt>
      <trkpt lat="48.83657" lon="2.32239">
        <ele>73</ele>
        <time>2015-10-26T20:52:41Z</time>
      </trkpt>
      <trkpt lat="48.83675" lon="2.32259">
        <ele>72.599998474121</ele>
        <time>2015-10-26T20:52:47Z</time>
      </trkpt>
      <trkpt lat="48.83677" lon="2.32262">
        <ele>72.400001525879</ele>
        <time>2015-10-26T20:52:48Z</time>
      </trkpt>
      <trkpt lat="48.83688" lon="2.32294">
        <ele>71.800003051758</ele>
        <time>2015-10-26T20:52:55Z</time>
      </trkpt>
      <trkpt lat="48.83689" lon="2.32308">
        <ele>71.599998474121</ele>
        <time>2015-10-26T20:53:00Z</time>
      </trkpt>
      <trkpt lat="48.83681" lon="2.3232">
        <ele>71.199996948242</ele>
        <time>2015-10-26T20:53:12Z</time>
      </trkpt>
      <trkpt lat="48.83673" lon="2.32333">
        <ele>70.800003051758</ele>
        <time>2015-10-26T20:53:22Z</time>
      </trkpt>
      <trkpt lat="48.83672" lon="2.32335">
        <ele>70.800003051758</ele>
        <time>2015-10-26T20:53:24Z</time>
      </trkpt>
      <trkpt lat="48.83672" lon="2.32337">
        <ele>70.800003051758</ele>
        <time>2015-10-26T20:53:26Z</time>
      </trkpt>
      <trkpt lat="48.83681" lon="2.32345">
        <ele>71</ele>
        <time>2015-10-26T20:53:31Z</time>
      </trkpt>
      <trkpt lat="48.83691" lon="2.32362">
        <ele>70.800003051758</ele>
        <time>2015-10-26T20:53:37Z</time>
      </trkpt>
      <trkpt lat="48.83694" lon="2.32368">
        <ele>70.599998474121</ele>
        <time>2015-10-26T20:53:39Z</time>
      </trkpt>
      <trkpt lat="48.8369" lon="2.32381">
        <ele>70.800003051758</ele>
        <time>2015-10-26T20:53:44Z</time>
      </trkpt>
      <trkpt lat="48.83681" lon="2.32403">
        <ele>70.800003051758</ele>
        <time>2015-10-26T20:53:49Z</time>
      </trkpt>
      <trkpt lat="48.83668" lon="2.3243">
        <ele>71.400001525879</ele>
        <time>2015-10-26T20:53:55Z</time>
      </trkpt>
      <trkpt lat="48.83658" lon="2.32453">
        <ele>71.199996948242</ele>
        <time>2015-10-26T20:54:00Z</time>
      </trkpt>
      <trkpt lat="48.83648" lon="2.32473">
        <ele>71.400001525879</ele>
        <time>2015-10-26T20:54:04Z</time>
      </trkpt>
      <trkpt lat="48.83637" lon="2.32497">
        <ele>71.800003051758</ele>
        <time>2015-10-26T20:54:09Z</time>
      </trkpt>
      <trkpt lat="48.8363" lon="2.32513">
        <ele>71.800003051758</ele>
        <time>2015-10-26T20:54:12Z</time>
      </trkpt>
      <trkpt lat="48.8362" lon="2.32531">
        <ele>71.599998474121</ele>
        <time>2015-10-26T20:54:16Z</time>
      </trkpt>
      <trkpt lat="48.83622" lon="2.3255">
        <ele>71.199996948242</ele>
        <time>2015-10-26T20:54:20Z</time>
      </trkpt>
      <trkpt lat="48.83625" lon="2.32553">
        <ele>71</ele>
        <time>2015-10-26T20:54:21Z</time>
      </trkpt>
      <trkpt lat="48.83641" lon="2.32567">
        <ele>70</ele>
        <time>2015-10-26T20:54:25Z</time>
      </trkpt>
      <trkpt lat="48.83643" lon="2.32571">
        <ele>69.800003051758</ele>
        <time>2015-10-26T20:54:26Z</time>
      </trkpt>
      <trkpt lat="48.83652" lon="2.32584">
        <ele>69.400001525879</ele>
        <time>2015-10-26T20:54:30Z</time>
      </trkpt>
      <trkpt lat="48.83659" lon="2.3259">
        <ele>69</ele>
        <time>2015-10-26T20:54:35Z</time>
      </trkpt>
      <trkpt lat="48.8366" lon="2.32592">
        <ele>69</ele>
        <time>2015-10-26T20:54:36Z</time>
      </trkpt>
      <trkpt lat="48.83658" lon="2.32604">
        <ele>69.199996948242</ele>
        <time>2015-10-26T20:54:39Z</time>
      </trkpt>
      <trkpt lat="48.83657" lon="2.32608">
        <ele>69.199996948242</ele>
        <time>2015-10-26T20:54:40Z</time>
      </trkpt>
      <trkpt lat="48.8365" lon="2.32637">
        <ele>69</ele>
        <time>2015-10-26T20:54:46Z</time>
      </trkpt>
      <trkpt lat="48.8364" lon="2.32667">
        <ele>67.800003051758</ele>
        <time>2015-10-26T20:54:51Z</time>
      </trkpt>
      <trkpt lat="48.83632" lon="2.32692">
        <ele>66.599998474121</ele>
        <time>2015-10-26T20:54:55Z</time>
      </trkpt>
      <trkpt lat="48.83622" lon="2.32722">
        <ele>66.199996948242</ele>
        <time>2015-10-26T20:55:00Z</time>
      </trkpt>
      <trkpt lat="48.83616" lon="2.32744">
        <ele>65.800003051758</ele>
        <time>2015-10-26T20:55:04Z</time>
      </trkpt>
      <trkpt lat="48.83613" lon="2.32772">
        <ele>63.400001525879</ele>
        <time>2015-10-26T20:55:10Z</time>
      </trkpt>
      <trkpt lat="48.83621" lon="2.32781">
        <ele>62.400001525879</ele>
        <time>2015-10-26T20:55:13Z</time>
      </trkpt>
      <trkpt lat="48.83623" lon="2.32784">
        <ele>62</ele>
        <time>2015-10-26T20:55:14Z</time>
      </trkpt>
      <trkpt lat="48.8363" lon="2.32792">
        <ele>61.20000076294</ele>
        <time>2015-10-26T20:55:18Z</time>
      </trkpt>
      <trkpt lat="48.83642" lon="2.32802">
        <ele>59.79999923706</ele>
        <time>2015-10-26T20:55:22Z</time>
      </trkpt>
      <trkpt lat="48.8366" lon="2.32816">
        <ele>58.20000076294</ele>
        <time>2015-10-26T20:55:27Z</time>
      </trkpt>
      <trkpt lat="48.83676" lon="2.32827">
        <ele>56.599998474121</ele>
        <time>2015-10-26T20:55:32Z</time>
      </trkpt>
      <trkpt lat="48.83693" lon="2.32838">
        <ele>56.20000076294</ele>
        <time>2015-10-26T20:55:36Z</time>
      </trkpt>
      <trkpt lat="48.83704" lon="2.32845">
        <ele>56.400001525879</ele>
        <time>2015-10-26T20:55:39Z</time>
      </trkpt>
      <trkpt lat="48.83728" lon="2.3286">
        <ele>57</ele>
        <time>2015-10-26T20:55:45Z</time>
      </trkpt>
      <trkpt lat="48.83732" lon="2.32862">
        <ele>57</ele>
        <time>2015-10-26T20:55:46Z</time>
      </trkpt>
      <trkpt lat="48.83753" lon="2.32873">
        <ele>57.599998474121</ele>
        <time>2015-10-26T20:55:53Z</time>
      </trkpt>
      <trkpt lat="48.83761" lon="2.32878">
        <ele>57.79999923706</ele>
        <time>2015-10-26T20:55:58Z</time>
      </trkpt>
      <trkpt lat="48.83772" lon="2.32887">
        <ele>58</ele>
        <time>2015-10-26T20:56:05Z</time>
      </trkpt>
      <trkpt lat="48.83782" lon="2.32897">
        <ele>57.79999923706</ele>
        <time>2015-10-26T20:56:11Z</time>
      </trkpt>
      <trkpt lat="48.83788" lon="2.32902">
        <ele>57.79999923706</ele>
        <time>2015-10-26T20:56:15Z</time>
      </trkpt>
      <trkpt lat="48.83791" lon="2.32906">
        <ele>57.79999923706</ele>
        <time>2015-10-26T20:56:29Z</time>
      </trkpt>
      <trkpt lat="48.838" lon="2.32911">
        <ele>57.599998474121</ele>
        <time>2015-10-26T20:56:35Z</time>
      </trkpt>
      <trkpt lat="48.83802" lon="2.32912">
        <ele>57.599998474121</ele>
        <time>2015-10-26T20:56:36Z</time>
      </trkpt>
      <trkpt lat="48.8381" lon="2.32917">
        <ele>57.599998474121</ele>
        <time>2015-10-26T20:56:41Z</time>
      </trkpt>
      <trkpt lat="48.83819" lon="2.32923">
        <ele>57.79999923706</ele>
        <time>2015-10-26T20:56:46Z</time>
      </trkpt>
      <trkpt lat="48.83821" lon="2.32925">
        <ele>58</ele>
        <time>2015-10-26T20:56:47Z</time>
      </trkpt>
      <trkpt lat="48.83829" lon="2.32931">
        <ele>58.20000076294</ele>
        <time>2015-10-26T20:56:52Z</time>
      </trkpt>
      <trkpt lat="48.83838" lon="2.32939">
        <ele>58.400001525879</ele>
        <time>2015-10-26T20:56:58Z</time>
      </trkpt>
      <trkpt lat="48.83851" lon="2.32949">
        <ele>58.79999923706</ele>
        <time>2015-10-26T20:57:05Z</time>
      </trkpt>
      <trkpt lat="48.8386" lon="2.32956">
        <ele>59</ele>
        <time>2015-10-26T20:57:10Z</time>
      </trkpt>
      <trkpt lat="48.83862" lon="2.32958">
        <ele>59</ele>
        <time>2015-10-26T20:57:11Z</time>
      </trkpt>
      <trkpt lat="48.83871" lon="2.32964">
        <ele>59.20000076294</ele>
        <time>2015-10-26T20:57:15Z</time>
      </trkpt>
      <trkpt lat="48.83889" lon="2.32977">
        <ele>59.599998474121</ele>
        <time>2015-10-26T20:57:23Z</time>
      </trkpt>
      <trkpt lat="48.83898" lon="2.32985">
        <ele>59.79999923706</ele>
        <time>2015-10-26T20:57:27Z</time>
      </trkpt>
      <trkpt lat="48.83911" lon="2.32998">
        <ele>60.400001525879</ele>
        <time>2015-10-26T20:57:32Z</time>
      </trkpt>
      <trkpt lat="48.83921" lon="2.33011">
        <ele>60.79999923706</ele>
        <time>2015-10-26T20:57:38Z</time>
      </trkpt>
      <trkpt lat="48.83922" lon="2.33014">
        <ele>61</ele>
        <time>2015-10-26T20:57:40Z</time>
      </trkpt>
      <trkpt lat="48.83924" lon="2.33018">
        <ele>61.20000076294</ele>
        <time>2015-10-26T20:57:50Z</time>
      </trkpt>
      <trkpt lat="48.83928" lon="2.33023">
        <ele>61.400001525879</ele>
        <time>2015-10-26T20:58:10Z</time>
      </trkpt>
      <trkpt lat="48.83925" lon="2.33043">
        <ele>62.400001525879</ele>
        <time>2015-10-26T20:58:16Z</time>
      </trkpt>
      <trkpt lat="48.83916" lon="2.33061">
        <ele>63.400001525879</ele>
        <time>2015-10-26T20:58:21Z</time>
      </trkpt>
      <trkpt lat="48.83911" lon="2.3307">
        <ele>64</ele>
        <time>2015-10-26T20:58:24Z</time>
      </trkpt>
      <trkpt lat="48.83898" lon="2.33086">
        <ele>65</ele>
        <time>2015-10-26T20:58:30Z</time>
      </trkpt>
      <trkpt lat="48.83893" lon="2.33095">
        <ele>65</ele>
        <time>2015-10-26T20:58:33Z</time>
      </trkpt>
      <trkpt lat="48.83892" lon="2.33108">
        <ele>64.800003051758</ele>
        <time>2015-10-26T20:58:38Z</time>
      </trkpt>
      <trkpt lat="48.83895" lon="2.33114">
        <ele>64.599998474121</ele>
        <time>2015-10-26T20:58:40Z</time>
      </trkpt>
      <trkpt lat="48.83899" lon="2.3312">
        <ele>64.400001525879</ele>
        <time>2015-10-26T20:58:42Z</time>
      </trkpt>
      <trkpt lat="48.83911" lon="2.3314">
        <ele>64</ele>
        <time>2015-10-26T20:58:48Z</time>
      </trkpt>
      <trkpt lat="48.83913" lon="2.33144">
        <ele>63.79999923706</ele>
        <time>2015-10-26T20:58:49Z</time>
      </trkpt>
      <trkpt lat="48.83927" lon="2.33162">
        <ele>63.400001525879</ele>
        <time>2015-10-26T20:58:53Z</time>
      </trkpt>
      <trkpt lat="48.83941" lon="2.3318">
        <ele>62.79999923706</ele>
        <time>2015-10-26T20:58:57Z</time>
      </trkpt>
      <trkpt lat="48.83944" lon="2.33186">
        <ele>63</ele>
        <time>2015-10-26T20:58:58Z</time>
      </trkpt>
      <trkpt lat="48.83956" lon="2.33206">
        <ele>63.20000076294</ele>
        <time>2015-10-26T20:59:02Z</time>
      </trkpt>
      <trkpt lat="48.8396" lon="2.33212">
        <ele>63.20000076294</ele>
        <time>2015-10-26T20:59:03Z</time>
      </trkpt>
      <trkpt lat="48.83963" lon="2.33218">
        <ele>63.20000076294</ele>
        <time>2015-10-26T20:59:04Z</time>
      </trkpt>
      <trkpt lat="48.8397" lon="2.33228">
        <ele>63.400001525879</ele>
        <time>2015-10-26T20:59:06Z</time>
      </trkpt>
      <trkpt lat="48.83981" lon="2.33254">
        <ele>63.599998474121</ele>
        <time>2015-10-26T20:59:10Z</time>
      </trkpt>
      <trkpt lat="48.83999" lon="2.33281">
        <ele>64.599998474121</ele>
        <time>2015-10-26T20:59:15Z</time>
      </trkpt>
      <trkpt lat="48.84013" lon="2.33302">
        <ele>65.400001525879</ele>
        <time>2015-10-26T20:59:19Z</time>
      </trkpt>
      <trkpt lat="48.84024" lon="2.33324">
        <ele>65.800003051758</ele>
        <time>2015-10-26T20:59:23Z</time>
      </trkpt>
      <trkpt lat="48.84028" lon="2.33329">
        <ele>65.800003051758</ele>
        <time>2015-10-26T20:59:24Z</time>
      </trkpt>
      <trkpt lat="48.84038" lon="2.33339">
        <ele>65.199996948242</ele>
        <time>2015-10-26T20:59:27Z</time>
      </trkpt>
      <trkpt lat="48.84056" lon="2.33353">
        <ele>64</ele>
        <time>2015-10-26T20:59:32Z</time>
      </trkpt>
      <trkpt lat="48.8406" lon="2.33374">
        <ele>63.20000076294</ele>
        <time>2015-10-26T20:59:36Z</time>
      </trkpt>
      <trkpt lat="48.84057" lon="2.33384">
        <ele>63.20000076294</ele>
        <time>2015-10-26T20:59:38Z</time>
      </trkpt>
      <trkpt lat="48.84053" lon="2.33396">
        <ele>63.400001525879</ele>
        <time>2015-10-26T20:59:40Z</time>
      </trkpt>
      <trkpt lat="48.84049" lon="2.33408">
        <ele>63.400001525879</ele>
        <time>2015-10-26T20:59:42Z</time>
      </trkpt>
      <trkpt lat="48.84043" lon="2.33427">
        <ele>64.800003051758</ele>
        <time>2015-10-26T20:59:45Z</time>
      </trkpt>
      <trkpt lat="48.84032" lon="2.33452">
        <ele>65.599998474121</ele>
        <time>2015-10-26T20:59:49Z</time>
      </trkpt>
      <trkpt lat="48.84022" lon="2.33478">
        <ele>65.800003051758</ele>
        <time>2015-10-26T20:59:53Z</time>
      </trkpt>
      <trkpt lat="48.84019" lon="2.33485">
        <ele>65.800003051758</ele>
        <time>2015-10-26T20:59:54Z</time>
      </trkpt>
      <trkpt lat="48.84013" lon="2.33503">
        <ele>65.199996948242</ele>
        <time>2015-10-26T20:59:57Z</time>
      </trkpt>
      <trkpt lat="48.84005" lon="2.33527">
        <ele>64.199996948242</ele>
        <time>2015-10-26T21:00:02Z</time>
      </trkpt>
      <trkpt lat="48.84003" lon="2.33532">
        <ele>64</ele>
        <time>2015-10-26T21:00:03Z</time>
      </trkpt>
      <trkpt lat="48.83998" lon="2.33547">
        <ele>63.400001525879</ele>
        <time>2015-10-26T21:00:08Z</time>
      </trkpt>
      <trkpt lat="48.83995" lon="2.33549">
        <ele>63.20000076294</ele>
        <time>2015-10-26T21:00:16Z</time>
      </trkpt>
      <trkpt lat="48.83997" lon="2.33557">
        <ele>63</ele>
        <time>2015-10-26T21:00:25Z</time>
      </trkpt>
      <trkpt lat="48.83993" lon="2.33572">
        <ele>62.400001525879</ele>
        <time>2015-10-26T21:00:30Z</time>
      </trkpt>
      <trkpt lat="48.83987" lon="2.33589">
        <ele>61.599998474121</ele>
        <time>2015-10-26T21:00:35Z</time>
      </trkpt>
      <trkpt lat="48.83981" lon="2.3361">
        <ele>60.79999923706</ele>
        <time>2015-10-26T21:00:42Z</time>
      </trkpt>
      <trkpt lat="48.83978" lon="2.33628">
        <ele>60.599998474121</ele>
        <time>2015-10-26T21:00:48Z</time>
      </trkpt>
      <trkpt lat="48.83978" lon="2.3363">
        <ele>60.599998474121</ele>
        <time>2015-10-26T21:00:49Z</time>
      </trkpt>
      <trkpt lat="48.83985" lon="2.33652">
        <ele>61.20000076294</ele>
        <time>2015-10-26T21:00:55Z</time>
      </trkpt>
      <trkpt lat="48.83995" lon="2.33665">
        <ele>61.599998474121</ele>
        <time>2015-10-26T21:01:00Z</time>
      </trkpt>
      <trkpt lat="48.84003" lon="2.33676">
        <ele>62</ele>
        <time>2015-10-26T21:01:05Z</time>
      </trkpt>
      <trkpt lat="48.84007" lon="2.3368">
        <ele>62.20000076294</ele>
        <time>2015-10-26T21:01:07Z</time>
      </trkpt>
      <trkpt lat="48.84014" lon="2.33685">
        <ele>62.400001525879</ele>
        <time>2015-10-26T21:01:10Z</time>
      </trkpt>
      <trkpt lat="48.84029" lon="2.33691">
        <ele>62.400001525879</ele>
        <time>2015-10-26T21:01:15Z</time>
      </trkpt>
      <trkpt lat="48.84041" lon="2.33683">
        <ele>61.79999923706</ele>
        <time>2015-10-26T21:01:19Z</time>
      </trkpt>
      <trkpt lat="48.84058" lon="2.33667">
        <ele>61.599998474121</ele>
        <time>2015-10-26T21:01:24Z</time>
      </trkpt>
      <trkpt lat="48.8407" lon="2.33655">
        <ele>61.599998474121</ele>
        <time>2015-10-26T21:01:27Z</time>
      </trkpt>
      <trkpt lat="48.8409" lon="2.33634">
        <ele>63</ele>
        <time>2015-10-26T21:01:32Z</time>
      </trkpt>
      <trkpt lat="48.84107" lon="2.33618">
        <ele>65.400001525879</ele>
        <time>2015-10-26T21:01:36Z</time>
      </trkpt>
      <trkpt lat="48.84119" lon="2.33606">
        <ele>66.400001525879</ele>
        <time>2015-10-26T21:01:39Z</time>
      </trkpt>
      <trkpt lat="48.84127" lon="2.33595">
        <ele>67</ele>
        <time>2015-10-26T21:01:41Z</time>
      </trkpt>
      <trkpt lat="48.84147" lon="2.33575">
        <ele>66.400001525879</ele>
        <time>2015-10-26T21:01:46Z</time>
      </trkpt>
      <trkpt lat="48.84164" lon="2.33559">
        <ele>65</ele>
        <time>2015-10-26T21:01:50Z</time>
      </trkpt>
      <trkpt lat="48.84173" lon="2.33551">
        <ele>64.599998474121</ele>
        <time>2015-10-26T21:01:52Z</time>
      </trkpt>
      <trkpt lat="48.84188" lon="2.33541">
        <ele>64</ele>
        <time>2015-10-26T21:01:55Z</time>
      </trkpt>
      <trkpt lat="48.842" lon="2.33528">
        <ele>63.599998474121</ele>
        <time>2015-10-26T21:01:58Z</time>
      </trkpt>
      <trkpt lat="48.84222" lon="2.33504">
        <ele>62.599998474121</ele>
        <time>2015-10-26T21:02:03Z</time>
      </trkpt>
      <trkpt lat="48.84231" lon="2.33495">
        <ele>61.79999923706</ele>
        <time>2015-10-26T21:02:05Z</time>
      </trkpt>
      <trkpt lat="48.84256" lon="2.33475">
        <ele>59.79999923706</ele>
        <time>2015-10-26T21:02:10Z</time>
      </trkpt>
      <trkpt lat="48.84261" lon="2.3347">
        <ele>59.79999923706</ele>
        <time>2015-10-26T21:02:11Z</time>
      </trkpt>
      <trkpt lat="48.84276" lon="2.33453">
        <ele>59.79999923706</ele>
        <time>2015-10-26T21:02:14Z</time>
      </trkpt>
      <trkpt lat="48.84295" lon="2.33435">
        <ele>58.599998474121</ele>
        <time>2015-10-26T21:02:17Z</time>
      </trkpt>
      <trkpt lat="48.84313" lon="2.33419">
        <ele>57.20000076294</ele>
        <time>2015-10-26T21:02:20Z</time>
      </trkpt>
      <trkpt lat="48.84318" lon="2.33414">
        <ele>56.79999923706</ele>
        <time>2015-10-26T21:02:21Z</time>
      </trkpt>
      <trkpt lat="48.84339" lon="2.33394">
        <ele>55.400001525879</ele>
        <time>2015-10-26T21:02:25Z</time>
      </trkpt>
      <trkpt lat="48.84343" lon="2.33387">
        <ele>55</ele>
        <time>2015-10-26T21:02:26Z</time>
      </trkpt>
      <trkpt lat="48.84362" lon="2.33363">
        <ele>54</ele>
        <time>2015-10-26T21:02:29Z</time>
      </trkpt>
      <trkpt lat="48.84368" lon="2.33357">
        <ele>53.79999923706</ele>
        <time>2015-10-26T21:02:30Z</time>
      </trkpt>
      <trkpt lat="48.84398" lon="2.33339">
        <ele>53.400001525879</ele>
        <time>2015-10-26T21:02:34Z</time>
      </trkpt>
      <trkpt lat="48.84406" lon="2.33334">
        <ele>53.400001525879</ele>
        <time>2015-10-26T21:02:35Z</time>
      </trkpt>
      <trkpt lat="48.84426" lon="2.33316">
        <ele>53.400001525879</ele>
        <time>2015-10-26T21:02:38Z</time>
      </trkpt>
      <trkpt lat="48.84446" lon="2.33296">
        <ele>53.79999923706</ele>
        <time>2015-10-26T21:02:41Z</time>
      </trkpt>
      <trkpt lat="48.84451" lon="2.33289">
        <ele>53.79999923706</ele>
        <time>2015-10-26T21:02:42Z</time>
      </trkpt>
      <trkpt lat="48.84467" lon="2.33273">
        <ele>54</ele>
        <time>2015-10-26T21:02:45Z</time>
      </trkpt>
      <trkpt lat="48.84471" lon="2.33269">
        <ele>53.79999923706</ele>
        <time>2015-10-26T21:02:46Z</time>
      </trkpt>
      <trkpt lat="48.84492" lon="2.33251">
        <ele>52.599998474121</ele>
        <time>2015-10-26T21:02:51Z</time>
      </trkpt>
      <trkpt lat="48.84496" lon="2.33247">
        <ele>52.20000076294</ele>
        <time>2015-10-26T21:02:52Z</time>
      </trkpt>
      <trkpt lat="48.84515" lon="2.33242">
        <ele>51.400001525879</ele>
        <time>2015-10-26T21:02:56Z</time>
      </trkpt>
      <trkpt lat="48.84519" lon="2.33241">
        <ele>51.400001525879</ele>
        <time>2015-10-26T21:02:57Z</time>
      </trkpt>
      <trkpt lat="48.84542" lon="2.33239">
        <ele>52.20000076294</ele>
        <time>2015-10-26T21:03:02Z</time>
      </trkpt>
      <trkpt lat="48.84561" lon="2.3324">
        <ele>52.79999923706</ele>
        <time>2015-10-26T21:03:05Z</time>
      </trkpt>
      <trkpt lat="48.84585" lon="2.33244">
        <ele>53.400001525879</ele>
        <time>2015-10-26T21:03:09Z</time>
      </trkpt>
      <trkpt lat="48.84596" lon="2.33245">
        <ele>53.79999923706</ele>
        <time>2015-10-26T21:03:11Z</time>
      </trkpt>
      <trkpt lat="48.84619" lon="2.33249">
        <ele>53.79999923706</ele>
        <time>2015-10-26T21:03:15Z</time>
      </trkpt>
      <trkpt lat="48.84648" lon="2.33253">
        <ele>53.599998474121</ele>
        <time>2015-10-26T21:03:20Z</time>
      </trkpt>
      <trkpt lat="48.84666" lon="2.33253">
        <ele>53.400001525879</ele>
        <time>2015-10-26T21:03:23Z</time>
      </trkpt>
      <trkpt lat="48.84681" lon="2.33253">
        <ele>53.400001525879</ele>
        <time>2015-10-26T21:03:26Z</time>
      </trkpt>
      <trkpt lat="48.84695" lon="2.33249">
        <ele>53.79999923706</ele>
        <time>2015-10-26T21:03:28Z</time>
      </trkpt>
      <trkpt lat="48.8472" lon="2.33248">
        <ele>52.79999923706</ele>
        <time>2015-10-26T21:03:32Z</time>
      </trkpt>
      <trkpt lat="48.8474" lon="2.33248">
        <ele>52.20000076294</ele>
        <time>2015-10-26T21:03:35Z</time>
      </trkpt>
      <trkpt lat="48.8476" lon="2.33248">
        <ele>51.400001525879</ele>
        <time>2015-10-26T21:03:38Z</time>
      </trkpt>
      <trkpt lat="48.84767" lon="2.33249">
        <ele>51.20000076294</ele>
        <time>2015-10-26T21:03:39Z</time>
      </trkpt>
      <trkpt lat="48.84794" lon="2.33254">
        <ele>51.20000076294</ele>
        <time>2015-10-26T21:03:43Z</time>
      </trkpt>
      <trkpt lat="48.84813" lon="2.33257">
        <ele>51.400001525879</ele>
        <time>2015-10-26T21:03:46Z</time>
      </trkpt>
      <trkpt lat="48.8482" lon="2.33256">
        <ele>51.400001525879</ele>
        <time>2015-10-26T21:03:47Z</time>
      </trkpt>
      <trkpt lat="48.84827" lon="2.33257">
        <ele>51.599998474121</ele>
        <time>2015-10-26T21:03:48Z</time>
      </trkpt>
      <trkpt lat="48.84835" lon="2.33257">
        <ele>51.599998474121</ele>
        <time>2015-10-26T21:03:49Z</time>
      </trkpt>
      <trkpt lat="48.84864" lon="2.33274">
        <ele>51.79999923706</ele>
        <time>2015-10-26T21:03:53Z</time>
      </trkpt>
      <trkpt lat="48.8487" lon="2.3328">
        <ele>51.79999923706</ele>
        <time>2015-10-26T21:03:54Z</time>
      </trkpt>
      <trkpt lat="48.8488" lon="2.33302">
        <ele>51.599998474121</ele>
        <time>2015-10-26T21:03:57Z</time>
      </trkpt>
      <trkpt lat="48.84882" lon="2.33311">
        <ele>51.599998474121</ele>
        <time>2015-10-26T21:03:58Z</time>
      </trkpt>
      <trkpt lat="48.8489" lon="2.33344">
        <ele>51</ele>
        <time>2015-10-26T21:04:02Z</time>
      </trkpt>
      <trkpt lat="48.84895" lon="2.33371">
        <ele>50</ele>
        <time>2015-10-26T21:04:05Z</time>
      </trkpt>
      <trkpt lat="48.84896" lon="2.33379">
        <ele>49.599998474121</ele>
        <time>2015-10-26T21:04:06Z</time>
      </trkpt>
      <trkpt lat="48.84899" lon="2.33393">
        <ele>49</ele>
        <time>2015-10-26T21:04:08Z</time>
      </trkpt>
      <trkpt lat="48.84902" lon="2.33416">
        <ele>48</ele>
        <time>2015-10-26T21:04:11Z</time>
      </trkpt>
      <trkpt lat="48.84903" lon="2.33426">
        <ele>47.79999923706</ele>
        <time>2015-10-26T21:04:12Z</time>
      </trkpt>
      <trkpt lat="48.84905" lon="2.33442">
        <ele>47.20000076294</ele>
        <time>2015-10-26T21:04:14Z</time>
      </trkpt>
      <trkpt lat="48.8491" lon="2.33482">
        <ele>46.599998474121</ele>
        <time>2015-10-26T21:04:19Z</time>
      </trkpt>
      <trkpt lat="48.84911" lon="2.33491">
        <ele>46.79999923706</ele>
        <time>2015-10-26T21:04:20Z</time>
      </trkpt>
      <trkpt lat="48.84917" lon="2.33518">
        <ele>48</ele>
        <time>2015-10-26T21:04:23Z</time>
      </trkpt>
      <trkpt lat="48.84921" lon="2.33546">
        <ele>49.599998474121</ele>
        <time>2015-10-26T21:04:26Z</time>
      </trkpt>
      <trkpt lat="48.84922" lon="2.33557">
        <ele>50.20000076294</ele>
        <time>2015-10-26T21:04:27Z</time>
      </trkpt>
      <trkpt lat="48.84926" lon="2.33588">
        <ele>51</ele>
        <time>2015-10-26T21:04:30Z</time>
      </trkpt>
      <trkpt lat="48.84928" lon="2.33618">
        <ele>51.400001525879</ele>
        <time>2015-10-26T21:04:33Z</time>
      </trkpt>
      <trkpt lat="48.84929" lon="2.33651">
        <ele>51.79999923706</ele>
        <time>2015-10-26T21:04:36Z</time>
      </trkpt>
      <trkpt lat="48.84929" lon="2.33674">
        <ele>52.20000076294</ele>
        <time>2015-10-26T21:04:38Z</time>
      </trkpt>
      <trkpt lat="48.84932" lon="2.33721">
        <ele>52</ele>
        <time>2015-10-26T21:04:42Z</time>
      </trkpt>
      <trkpt lat="48.84933" lon="2.33755">
        <ele>52</ele>
        <time>2015-10-26T21:04:45Z</time>
      </trkpt>
      <trkpt lat="48.84933" lon="2.33767">
        <ele>51.599998474121</ele>
        <time>2015-10-26T21:04:46Z</time>
      </trkpt>
      <trkpt lat="48.84931" lon="2.3379">
        <ele>50.79999923706</ele>
        <time>2015-10-26T21:04:48Z</time>
      </trkpt>
      <trkpt lat="48.84926" lon="2.3383">
        <ele>50.400001525879</ele>
        <time>2015-10-26T21:04:52Z</time>
      </trkpt>
      <trkpt lat="48.84925" lon="2.33838">
        <ele>51.20000076294</ele>
        <time>2015-10-26T21:04:53Z</time>
      </trkpt>
      <trkpt lat="48.84924" lon="2.33845">
        <ele>51.79999923706</ele>
        <time>2015-10-26T21:04:54Z</time>
      </trkpt>
      <trkpt lat="48.84917" lon="2.33875">
        <ele>55.20000076294</ele>
        <time>2015-10-26T21:05:00Z</time>
      </trkpt>
      <trkpt lat="48.84916" lon="2.33877">
        <ele>55.400001525879</ele>
        <time>2015-10-26T21:05:01Z</time>
      </trkpt>
      <trkpt lat="48.84915" lon="2.33881">
        <ele>55.79999923706</ele>
        <time>2015-10-26T21:05:04Z</time>
      </trkpt>
      <trkpt lat="48.84915" lon="2.3388">
        <ele>55.79999923706</ele>
        <time>2015-10-26T21:05:13Z</time>
      </trkpt>
      <trkpt lat="48.84912" lon="2.33881">
        <ele>56.20000076294</ele>
        <time>2015-10-26T21:05:27Z</time>
      </trkpt>
      <trkpt lat="48.8491" lon="2.33886">
        <ele>56.79999923706</ele>
        <time>2015-10-26T21:06:21Z</time>
      </trkpt>
      <trkpt lat="48.84911" lon="2.33905">
        <ele>57.79999923706</ele>
        <time>2015-10-26T21:06:26Z</time>
      </trkpt>
      <trkpt lat="48.84913" lon="2.33929">
        <ele>59.20000076294</ele>
        <time>2015-10-26T21:06:30Z</time>
      </trkpt>
      <trkpt lat="48.8491" lon="2.33952">
        <ele>60.79999923706</ele>
        <time>2015-10-26T21:06:33Z</time>
      </trkpt>
      <trkpt lat="48.84908" lon="2.33968">
        <ele>61.79999923706</ele>
        <time>2015-10-26T21:06:35Z</time>
      </trkpt>
      <trkpt lat="48.84906" lon="2.33976">
        <ele>61.79999923706</ele>
        <time>2015-10-26T21:06:36Z</time>
      </trkpt>
      <trkpt lat="48.84898" lon="2.34014">
        <ele>61</ele>
        <time>2015-10-26T21:06:41Z</time>
      </trkpt>
      <trkpt lat="48.84894" lon="2.34024">
        <ele>60.400001525879</ele>
        <time>2015-10-26T21:06:43Z</time>
      </trkpt>
      <trkpt lat="48.84892" lon="2.34038">
        <ele>59.79999923706</ele>
        <time>2015-10-26T21:06:49Z</time>
      </trkpt>
      <trkpt lat="48.84892" lon="2.34039">
        <ele>59.79999923706</ele>
        <time>2015-10-26T21:06:50Z</time>
      </trkpt>
      <trkpt lat="48.84891" lon="2.34039">
        <ele>59.79999923706</ele>
        <time>2015-10-26T21:06:51Z</time>
      </trkpt>
      <trkpt lat="48.84888" lon="2.3404">
        <ele>60</ele>
        <time>2015-10-26T21:06:53Z</time>
      </trkpt>
      <trkpt lat="48.84883" lon="2.34044">
        <ele>60</ele>
        <time>2015-10-26T21:06:57Z</time>
      </trkpt>
      <trkpt lat="48.84865" lon="2.34056">
        <ele>60.400001525879</ele>
        <time>2015-10-26T21:07:02Z</time>
      </trkpt>
      <trkpt lat="48.84854" lon="2.34062">
        <ele>60.599998474121</ele>
        <time>2015-10-26T21:07:05Z</time>
      </trkpt>
      <trkpt lat="48.8484" lon="2.34067">
        <ele>59.20000076294</ele>
        <time>2015-10-26T21:07:09Z</time>
      </trkpt>
      <trkpt lat="48.84827" lon="2.34072">
        <ele>59</ele>
        <time>2015-10-26T21:07:13Z</time>
      </trkpt>
      <trkpt lat="48.84822" lon="2.34073">
        <ele>59</ele>
        <time>2015-10-26T21:07:15Z</time>
      </trkpt>
      <trkpt lat="48.84806" lon="2.34085">
        <ele>58.79999923706</ele>
        <time>2015-10-26T21:07:20Z</time>
      </trkpt>
      <trkpt lat="48.84791" lon="2.34096">
        <ele>58.599998474121</ele>
        <time>2015-10-26T21:07:24Z</time>
      </trkpt>
      <trkpt lat="48.8478" lon="2.34102">
        <ele>58.599998474121</ele>
        <time>2015-10-26T21:07:27Z</time>
      </trkpt>
      <trkpt lat="48.84764" lon="2.34104">
        <ele>58.79999923706</ele>
        <time>2015-10-26T21:07:35Z</time>
      </trkpt>
      <trkpt lat="48.84762" lon="2.34121">
        <ele>59.400001525879</ele>
        <time>2015-10-26T21:08:17Z</time>
      </trkpt>
      <trkpt lat="48.84774" lon="2.34128">
        <ele>59.20000076294</ele>
        <time>2015-10-26T21:08:22Z</time>
      </trkpt>
      <trkpt lat="48.84792" lon="2.34137">
        <ele>59.599998474121</ele>
        <time>2015-10-26T21:08:27Z</time>
      </trkpt>
      <trkpt lat="48.84808" lon="2.34146">
        <ele>60</ele>
        <time>2015-10-26T21:08:31Z</time>
      </trkpt>
      <trkpt lat="48.84833" lon="2.34158">
        <ele>60.599998474121</ele>
        <time>2015-10-26T21:08:36Z</time>
      </trkpt>
      <trkpt lat="48.84837" lon="2.34159">
        <ele>60.599998474121</ele>
        <time>2015-10-26T21:08:37Z</time>
      </trkpt>
      <trkpt lat="48.84843" lon="2.34161">
        <ele>60.79999923706</ele>
        <time>2015-10-26T21:08:38Z</time>
      </trkpt>
      <trkpt lat="48.84859" lon="2.34171">
        <ele>61</ele>
        <time>2015-10-26T21:08:41Z</time>
      </trkpt>
      <trkpt lat="48.84886" lon="2.34186">
        <ele>59.400001525879</ele>
        <time>2015-10-26T21:08:46Z</time>
      </trkpt>
      <trkpt lat="48.84892" lon="2.3419">
        <ele>59.20000076294</ele>
        <time>2015-10-26T21:08:47Z</time>
      </trkpt>
      <trkpt lat="48.84898" lon="2.34195">
        <ele>58.79999923706</ele>
        <time>2015-10-26T21:08:48Z</time>
      </trkpt>
      <trkpt lat="48.84908" lon="2.34205">
        <ele>58.400001525879</ele>
        <time>2015-10-26T21:08:50Z</time>
      </trkpt>
      <trkpt lat="48.84929" lon="2.34217">
        <ele>57.20000076294</ele>
        <time>2015-10-26T21:08:53Z</time>
      </trkpt>
      <trkpt lat="48.84935" lon="2.3422">
        <ele>57</ele>
        <time>2015-10-26T21:08:54Z</time>
      </trkpt>
      <trkpt lat="48.84944" lon="2.34227">
        <ele>56.599998474121</ele>
        <time>2015-10-26T21:08:55Z</time>
      </trkpt>
      <trkpt lat="48.84952" lon="2.34233">
        <ele>56.20000076294</ele>
        <time>2015-10-26T21:08:56Z</time>
      </trkpt>
      <trkpt lat="48.8497" lon="2.34243">
        <ele>55.400001525879</ele>
        <time>2015-10-26T21:08:58Z</time>
      </trkpt>
      <trkpt lat="48.84995" lon="2.3426">
        <ele>54.400001525879</ele>
        <time>2015-10-26T21:09:01Z</time>
      </trkpt>
      <trkpt lat="48.85016" lon="2.3427">
        <ele>53.599998474121</ele>
        <time>2015-10-26T21:09:03Z</time>
      </trkpt>
      <trkpt lat="48.85037" lon="2.34278">
        <ele>52.20000076294</ele>
        <time>2015-10-26T21:09:05Z</time>
      </trkpt>
      <trkpt lat="48.85058" lon="2.34288">
        <ele>50.599998474121</ele>
        <time>2015-10-26T21:09:07Z</time>
      </trkpt>
      <trkpt lat="48.85078" lon="2.34298">
        <ele>49.20000076294</ele>
        <time>2015-10-26T21:09:09Z</time>
      </trkpt>
      <trkpt lat="48.85097" lon="2.34308">
        <ele>48</ele>
        <time>2015-10-26T21:09:11Z</time>
      </trkpt>
      <trkpt lat="48.8512" lon="2.34322">
        <ele>47.599998474121</ele>
        <time>2015-10-26T21:09:14Z</time>
      </trkpt>
      <trkpt lat="48.85145" lon="2.34334">
        <ele>48</ele>
        <time>2015-10-26T21:09:17Z</time>
      </trkpt>
      <trkpt lat="48.85168" lon="2.34344">
        <ele>48.400001525879</ele>
        <time>2015-10-26T21:09:20Z</time>
      </trkpt>
      <trkpt lat="48.85201" lon="2.34356">
        <ele>49.20000076294</ele>
        <time>2015-10-26T21:09:24Z</time>
      </trkpt>
      <trkpt lat="48.85226" lon="2.34364">
        <ele>49.79999923706</ele>
        <time>2015-10-26T21:09:27Z</time>
      </trkpt>
      <trkpt lat="48.85249" lon="2.34373">
        <ele>50</ele>
        <time>2015-10-26T21:09:30Z</time>
      </trkpt>
      <trkpt lat="48.85272" lon="2.34381">
        <ele>50.20000076294</ele>
        <time>2015-10-26T21:09:33Z</time>
      </trkpt>
      <trkpt lat="48.85277" lon="2.34384">
        <ele>50</ele>
        <time>2015-10-26T21:09:34Z</time>
      </trkpt>
      <trkpt lat="48.85293" lon="2.34393">
        <ele>48.79999923706</ele>
        <time>2015-10-26T21:09:37Z</time>
      </trkpt>
      <trkpt lat="48.85318" lon="2.34403">
        <ele>47</ele>
        <time>2015-10-26T21:09:41Z</time>
      </trkpt>
      <trkpt lat="48.85336" lon="2.34407">
        <ele>45.599998474121</ele>
        <time>2015-10-26T21:09:44Z</time>
      </trkpt>
      <trkpt lat="48.85348" lon="2.34412">
        <ele>44.599998474121</ele>
        <time>2015-10-26T21:09:46Z</time>
      </trkpt>
      <trkpt lat="48.85367" lon="2.34429">
        <ele>43.599998474121</ele>
        <time>2015-10-26T21:09:51Z</time>
      </trkpt>
      <trkpt lat="48.85387" lon="2.34443">
        <ele>42.79999923706</ele>
        <time>2015-10-26T21:09:56Z</time>
      </trkpt>
      <trkpt lat="48.85391" lon="2.34446">
        <ele>42.599998474121</ele>
        <time>2015-10-26T21:09:57Z</time>
      </trkpt>
      <trkpt lat="48.85406" lon="2.34463">
        <ele>42.20000076294</ele>
        <time>2015-10-26T21:10:01Z</time>
      </trkpt>
      <trkpt lat="48.8541" lon="2.34467">
        <ele>42</ele>
        <time>2015-10-26T21:10:02Z</time>
      </trkpt>
      <trkpt lat="48.85427" lon="2.34484">
        <ele>41.400001525879</ele>
        <time>2015-10-26T21:10:06Z</time>
      </trkpt>
      <trkpt lat="48.85437" lon="2.34494">
        <ele>41</ele>
        <time>2015-10-26T21:10:09Z</time>
      </trkpt>
      <trkpt lat="48.85456" lon="2.34516">
        <ele>42.20000076294</ele>
        <time>2015-10-26T21:10:15Z</time>
      </trkpt>
      <trkpt lat="48.85462" lon="2.34531">
        <ele>42.599998474121</ele>
        <time>2015-10-26T21:10:19Z</time>
      </trkpt>
      <trkpt lat="48.85464" lon="2.34534">
        <ele>42.79999923706</ele>
        <time>2015-10-26T21:10:20Z</time>
      </trkpt>
      <trkpt lat="48.85467" lon="2.34537">
        <ele>43</ele>
        <time>2015-10-26T21:10:22Z</time>
      </trkpt>
      <trkpt lat="48.85471" lon="2.34537">
        <ele>43.400001525879</ele>
        <time>2015-10-26T21:10:30Z</time>
      </trkpt>
      <trkpt lat="48.85475" lon="2.34536">
        <ele>43.599998474121</ele>
        <time>2015-10-26T21:10:39Z</time>
      </trkpt>
      <trkpt lat="48.85483" lon="2.34548">
        <ele>44.20000076294</ele>
        <time>2015-10-26T21:10:44Z</time>
      </trkpt>
      <trkpt lat="48.85485" lon="2.34551">
        <ele>44.20000076294</ele>
        <time>2015-10-26T21:10:45Z</time>
      </trkpt>
      <trkpt lat="48.85498" lon="2.34569">
        <ele>45.20000076294</ele>
        <time>2015-10-26T21:10:49Z</time>
      </trkpt>
      <trkpt lat="48.85504" lon="2.34576">
        <ele>45.599998474121</ele>
        <time>2015-10-26T21:10:50Z</time>
      </trkpt>
      <trkpt lat="48.85514" lon="2.34586">
        <ele>46.400001525879</ele>
        <time>2015-10-26T21:10:52Z</time>
      </trkpt>
      <trkpt lat="48.85532" lon="2.346">
        <ele>47</ele>
        <time>2015-10-26T21:10:56Z</time>
      </trkpt>
      <trkpt lat="48.8555" lon="2.34609">
        <ele>47.400001525879</ele>
        <time>2015-10-26T21:10:59Z</time>
      </trkpt>
      <trkpt lat="48.85568" lon="2.34618">
        <ele>47.599998474121</ele>
        <time>2015-10-26T21:11:03Z</time>
      </trkpt>
      <trkpt lat="48.8558" lon="2.34626">
        <ele>47.599998474121</ele>
        <time>2015-10-26T21:11:06Z</time>
      </trkpt>
      <trkpt lat="48.8559" lon="2.3464">
        <ele>47.79999923706</ele>
        <time>2015-10-26T21:11:10Z</time>
      </trkpt>
      <trkpt lat="48.85607" lon="2.34654">
        <ele>48</ele>
        <time>2015-10-26T21:11:14Z</time>
      </trkpt>
      <trkpt lat="48.8561" lon="2.34657">
        <ele>47.599998474121</ele>
        <time>2015-10-26T21:11:15Z</time>
      </trkpt>
      <trkpt lat="48.85614" lon="2.34661">
        <ele>47.400001525879</ele>
        <time>2015-10-26T21:11:16Z</time>
      </trkpt>
      <trkpt lat="48.85618" lon="2.34663">
        <ele>47</ele>
        <time>2015-10-26T21:11:17Z</time>
      </trkpt>
      <trkpt lat="48.85626" lon="2.34671">
        <ele>46.20000076294</ele>
        <time>2015-10-26T21:11:21Z</time>
      </trkpt>
      <trkpt lat="48.85629" lon="2.34672">
        <ele>46</ele>
        <time>2015-10-26T21:11:22Z</time>
      </trkpt>
      <trkpt lat="48.85633" lon="2.34676">
        <ele>45.599998474121</ele>
        <time>2015-10-26T21:11:25Z</time>
      </trkpt>
      <trkpt lat="48.8565" lon="2.34683">
        <ele>44.400001525879</ele>
        <time>2015-10-26T21:11:32Z</time>
      </trkpt>
      <trkpt lat="48.85661" lon="2.34689">
        <ele>43.400001525879</ele>
        <time>2015-10-26T21:11:37Z</time>
      </trkpt>
      <trkpt lat="48.85673" lon="2.34698">
        <ele>42.400001525879</ele>
        <time>2015-10-26T21:11:43Z</time>
      </trkpt>
      <trkpt lat="48.85686" lon="2.34706">
        <ele>41.20000076294</ele>
        <time>2015-10-26T21:11:50Z</time>
      </trkpt>
      <trkpt lat="48.857" lon="2.34715">
        <ele>40.79999923706</ele>
        <time>2015-10-26T21:11:58Z</time>
      </trkpt>
      <trkpt lat="48.85704" lon="2.34719">
        <ele>40.79999923706</ele>
        <time>2015-10-26T21:12:02Z</time>
      </trkpt>
      <trkpt lat="48.85703" lon="2.34721">
        <ele>40.79999923706</ele>
        <time>2015-10-26T21:12:07Z</time>
      </trkpt>
      <trkpt lat="48.85699" lon="2.34721">
        <ele>40.79999923706</ele>
        <time>2015-10-26T21:14:44Z</time>
      </trkpt>
      <trkpt lat="48.857" lon="2.34718">
        <ele>40.79999923706</ele>
        <time>2015-10-26T21:15:18Z</time>
      </trkpt>
      <trkpt lat="48.85705" lon="2.34721">
        <ele>40.79999923706</ele>
        <time>2015-10-26T21:15:24Z</time>
      </trkpt>
      <trkpt lat="48.85707" lon="2.3472">
        <ele>40.79999923706</ele>
        <time>2015-10-26T21:15:25Z</time>
      </trkpt>
      <trkpt lat="48.85712" lon="2.34707">
        <ele>40.79999923706</ele>
        <time>2015-10-26T21:15:30Z</time>
      </trkpt>
      <trkpt lat="48.85716" lon="2.34695">
        <ele>40.599998474121</ele>
        <time>2015-10-26T21:15:35Z</time>
      </trkpt>
      <trkpt lat="48.85724" lon="2.34685">
        <ele>40</ele>
        <time>2015-10-26T21:15:41Z</time>
      </trkpt>
      <trkpt lat="48.85725" lon="2.34684">
        <ele>40</ele>
        <time>2015-10-26T21:15:42Z</time>
      </trkpt>
      <trkpt lat="48.85727" lon="2.3468">
        <ele>39.79999923706</ele>
        <time>2015-10-26T21:15:48Z</time>
      </trkpt>
      <trkpt lat="48.8573" lon="2.3468">
        <ele>39.599998474121</ele>
        <time>2015-10-26T21:16:00Z</time>
      </trkpt>
      <trkpt lat="48.85736" lon="2.34683">
        <ele>39.400001525879</ele>
        <time>2015-10-26T21:16:04Z</time>
      </trkpt>
      <trkpt lat="48.85739" lon="2.34683">
        <ele>39.400001525879</ele>
        <time>2015-10-26T21:16:05Z</time>
      </trkpt>
      <trkpt lat="48.85752" lon="2.3469">
        <ele>39</ele>
        <time>2015-10-26T21:16:09Z</time>
      </trkpt>
      <trkpt lat="48.85754" lon="2.34692">
        <ele>38.79999923706</ele>
        <time>2015-10-26T21:16:10Z</time>
      </trkpt>
      <trkpt lat="48.85765" lon="2.34699">
        <ele>38.599998474121</ele>
        <time>2015-10-26T21:16:13Z</time>
      </trkpt>
      <trkpt lat="48.85768" lon="2.347">
        <ele>38.599998474121</ele>
        <time>2015-10-26T21:16:14Z</time>
      </trkpt>
      <trkpt lat="48.85783" lon="2.34709">
        <ele>39.400001525879</ele>
        <time>2015-10-26T21:16:18Z</time>
      </trkpt>
      <trkpt lat="48.85799" lon="2.34717">
        <ele>41</ele>
        <time>2015-10-26T21:16:23Z</time>
      </trkpt>
      <trkpt lat="48.85816" lon="2.34722">
        <ele>42.79999923706</ele>
        <time>2015-10-26T21:16:27Z</time>
      </trkpt>
      <trkpt lat="48.8583" lon="2.34726">
        <ele>44</ele>
        <time>2015-10-26T21:16:30Z</time>
      </trkpt>
      <trkpt lat="48.85848" lon="2.34735">
        <ele>46.20000076294</ele>
        <time>2015-10-26T21:16:35Z</time>
      </trkpt>
      <trkpt lat="48.85863" lon="2.34738">
        <ele>47</ele>
        <time>2015-10-26T21:16:38Z</time>
      </trkpt>
      <trkpt lat="48.85872" lon="2.34738">
        <ele>46.599998474121</ele>
        <time>2015-10-26T21:16:40Z</time>
      </trkpt>
      <trkpt lat="48.85889" lon="2.34735">
        <ele>46.20000076294</ele>
        <time>2015-10-26T21:16:44Z</time>
      </trkpt>
      <trkpt lat="48.85898" lon="2.34729">
        <ele>46</ele>
        <time>2015-10-26T21:16:46Z</time>
      </trkpt>
      <trkpt lat="48.85906" lon="2.34724">
        <ele>45.79999923706</ele>
        <time>2015-10-26T21:16:48Z</time>
      </trkpt>
      <trkpt lat="48.85919" lon="2.34712">
        <ele>45.79999923706</ele>
        <time>2015-10-26T21:16:52Z</time>
      </trkpt>
      <trkpt lat="48.85925" lon="2.34706">
        <ele>45.79999923706</ele>
        <time>2015-10-26T21:16:54Z</time>
      </trkpt>
      <trkpt lat="48.85938" lon="2.34703">
        <ele>45.599998474121</ele>
        <time>2015-10-26T21:16:59Z</time>
      </trkpt>
      <trkpt lat="48.85944" lon="2.34706">
        <ele>45.599998474121</ele>
        <time>2015-10-26T21:17:02Z</time>
      </trkpt>
      <trkpt lat="48.85947" lon="2.34712">
        <ele>45.400001525879</ele>
        <time>2015-10-26T21:17:06Z</time>
      </trkpt>
      <trkpt lat="48.85947" lon="2.34713">
        <ele>45.400001525879</ele>
        <time>2015-10-26T21:17:07Z</time>
      </trkpt>
    </trkseg>
  </trk>
</gpx>